<?xml version="1.0" encoding="UTF-8" standalone="no" ?>
<gpx xmlns="http://www.topografix.com/GPX/1/1" xmlns:xsi="http://www.w3.org/2001/XMLSchema-instance" xsi:schemaLocation="http://www.topografix.com/GPX/1/1 http://www.topografix.com/GPX/1/1/gpx.xsd" version="1.1" creator="VisuGPX - https://www.visugpx.com">
  <metadata>
    <name>Rando pédestre L\'Estellon Vautour Drôme</name>
    <desc><![CDATA[Rando pédestre en 8 au départ de l\'Estellon Les Nauds en Drôme provençale avec de beaux panoramas autour de Saint Féréol Trente Pas.]]></desc>
  </metadata>
  <trk>
    <name><![CDATA[ESTELLON VAUTOUR51]]></name>
    <trkseg>
      <trkpt lat="44.47695" lon="5.21849">
        <ele>679.31</ele>
        <time>2011-03-03T08:10:58Z</time>
      </trkpt>
      <trkpt lat="44.47703" lon="5.21856">
        <ele>679.79</ele>
        <time>2011-03-03T08:11:05Z</time>
      </trkpt>
      <trkpt lat="44.47704" lon="5.21855">
        <ele>680.27</ele>
        <time>2011-03-03T08:11:14Z</time>
      </trkpt>
      <trkpt lat="44.47709" lon="5.21857">
        <ele>677.87</ele>
        <time>2011-03-03T08:13:10Z</time>
      </trkpt>
      <trkpt lat="44.47713" lon="5.21867">
        <ele>677.39</ele>
        <time>2011-03-03T08:13:15Z</time>
      </trkpt>
      <trkpt lat="44.47713" lon="5.21875">
        <ele>676.91</ele>
        <time>2011-03-03T08:13:24Z</time>
      </trkpt>
      <trkpt lat="44.4772" lon="5.21888">
        <ele>675.46</ele>
        <time>2011-03-03T08:13:34Z</time>
      </trkpt>
      <trkpt lat="44.47721" lon="5.21887">
        <ele>674.98</ele>
        <time>2011-03-03T08:13:35Z</time>
      </trkpt>
      <trkpt lat="44.47726" lon="5.21901">
        <ele>674.02</ele>
        <time>2011-03-03T08:13:45Z</time>
      </trkpt>
      <trkpt lat="44.47728" lon="5.21915">
        <ele>673.06</ele>
        <time>2011-03-03T08:13:55Z</time>
      </trkpt>
      <trkpt lat="44.47733" lon="5.21928">
        <ele>672.58</ele>
        <time>2011-03-03T08:14:04Z</time>
      </trkpt>
      <trkpt lat="44.47738" lon="5.21942">
        <ele>671.62</ele>
        <time>2011-03-03T08:14:14Z</time>
      </trkpt>
      <trkpt lat="44.47741" lon="5.21952">
        <ele>670.66</ele>
        <time>2011-03-03T08:14:22Z</time>
      </trkpt>
      <trkpt lat="44.47744" lon="5.2196">
        <ele>670.66</ele>
        <time>2011-03-03T08:14:30Z</time>
      </trkpt>
      <trkpt lat="44.47748" lon="5.21969">
        <ele>670.66</ele>
        <time>2011-03-03T08:14:34Z</time>
      </trkpt>
      <trkpt lat="44.47751" lon="5.21971">
        <ele>670.66</ele>
        <time>2011-03-03T08:14:38Z</time>
      </trkpt>
      <trkpt lat="44.47756" lon="5.21984">
        <ele>671.14</ele>
        <time>2011-03-03T08:14:48Z</time>
      </trkpt>
      <trkpt lat="44.4776" lon="5.21988">
        <ele>671.14</ele>
        <time>2011-03-03T08:14:51Z</time>
      </trkpt>
      <trkpt lat="44.47764" lon="5.21996">
        <ele>672.58</ele>
        <time>2011-03-03T08:14:59Z</time>
      </trkpt>
      <trkpt lat="44.47762" lon="5.2201">
        <ele>672.58</ele>
        <time>2011-03-03T08:15:06Z</time>
      </trkpt>
      <trkpt lat="44.47761" lon="5.22024">
        <ele>673.06</ele>
        <time>2011-03-03T08:15:16Z</time>
      </trkpt>
      <trkpt lat="44.47762" lon="5.22033">
        <ele>673.54</ele>
        <time>2011-03-03T08:15:25Z</time>
      </trkpt>
      <trkpt lat="44.4776" lon="5.22039">
        <ele>673.06</ele>
        <time>2011-03-03T08:15:33Z</time>
      </trkpt>
      <trkpt lat="44.4776" lon="5.22041">
        <ele>673.06</ele>
        <time>2011-03-03T08:15:45Z</time>
      </trkpt>
      <trkpt lat="44.47759" lon="5.22049">
        <ele>674.02</ele>
        <time>2011-03-03T08:16:23Z</time>
      </trkpt>
      <trkpt lat="44.47757" lon="5.22053">
        <ele>674.02</ele>
        <time>2011-03-03T08:16:30Z</time>
      </trkpt>
      <trkpt lat="44.47755" lon="5.22064">
        <ele>674.98</ele>
        <time>2011-03-03T08:16:36Z</time>
      </trkpt>
      <trkpt lat="44.47752" lon="5.22076">
        <ele>675.94</ele>
        <time>2011-03-03T08:16:45Z</time>
      </trkpt>
      <trkpt lat="44.47751" lon="5.22085">
        <ele>675.94</ele>
        <time>2011-03-03T08:16:52Z</time>
      </trkpt>
      <trkpt lat="44.47748" lon="5.22093">
        <ele>676.91</ele>
        <time>2011-03-03T08:16:59Z</time>
      </trkpt>
      <trkpt lat="44.47747" lon="5.22107">
        <ele>677.39</ele>
        <time>2011-03-03T08:17:06Z</time>
      </trkpt>
      <trkpt lat="44.47746" lon="5.22108">
        <ele>677.39</ele>
        <time>2011-03-03T08:17:08Z</time>
      </trkpt>
      <trkpt lat="44.47745" lon="5.22111">
        <ele>677.87</ele>
        <time>2011-03-03T08:17:10Z</time>
      </trkpt>
      <trkpt lat="44.47748" lon="5.2212">
        <ele>678.83</ele>
        <time>2011-03-03T08:17:19Z</time>
      </trkpt>
      <trkpt lat="44.47748" lon="5.22124">
        <ele>678.83</ele>
        <time>2011-03-03T08:17:21Z</time>
      </trkpt>
      <trkpt lat="44.47747" lon="5.2213">
        <ele>678.83</ele>
        <time>2011-03-03T08:17:24Z</time>
      </trkpt>
      <trkpt lat="44.47747" lon="5.22141">
        <ele>679.79</ele>
        <time>2011-03-03T08:17:32Z</time>
      </trkpt>
      <trkpt lat="44.47745" lon="5.22152">
        <ele>680.27</ele>
        <time>2011-03-03T08:17:40Z</time>
      </trkpt>
      <trkpt lat="44.47745" lon="5.22157">
        <ele>680.75</ele>
        <time>2011-03-03T08:17:43Z</time>
      </trkpt>
      <trkpt lat="44.47748" lon="5.22159">
        <ele>681.23</ele>
        <time>2011-03-03T08:17:45Z</time>
      </trkpt>
      <trkpt lat="44.4775" lon="5.22163">
        <ele>681.23</ele>
        <time>2011-03-03T08:17:48Z</time>
      </trkpt>
      <trkpt lat="44.47752" lon="5.22166">
        <ele>681.23</ele>
        <time>2011-03-03T08:17:52Z</time>
      </trkpt>
      <trkpt lat="44.47752" lon="5.22176">
        <ele>682.19</ele>
        <time>2011-03-03T08:18:01Z</time>
      </trkpt>
      <trkpt lat="44.47753" lon="5.22187">
        <ele>683.15</ele>
        <time>2011-03-03T08:18:09Z</time>
      </trkpt>
      <trkpt lat="44.47752" lon="5.22191">
        <ele>683.15</ele>
        <time>2011-03-03T08:18:11Z</time>
      </trkpt>
      <trkpt lat="44.47751" lon="5.22201">
        <ele>684.12</ele>
        <time>2011-03-03T08:18:18Z</time>
      </trkpt>
      <trkpt lat="44.4775" lon="5.22211">
        <ele>684.6</ele>
        <time>2011-03-03T08:18:25Z</time>
      </trkpt>
      <trkpt lat="44.47749" lon="5.22217">
        <ele>685.56</ele>
        <time>2011-03-03T08:18:33Z</time>
      </trkpt>
      <trkpt lat="44.47746" lon="5.22232">
        <ele>686.04</ele>
        <time>2011-03-03T08:18:42Z</time>
      </trkpt>
      <trkpt lat="44.47745" lon="5.22237">
        <ele>686.52</ele>
        <time>2011-03-03T08:18:44Z</time>
      </trkpt>
      <trkpt lat="44.47748" lon="5.22243">
        <ele>687.48</ele>
        <time>2011-03-03T08:18:51Z</time>
      </trkpt>
      <trkpt lat="44.47745" lon="5.22256">
        <ele>688.44</ele>
        <time>2011-03-03T08:18:58Z</time>
      </trkpt>
      <trkpt lat="44.47742" lon="5.22261">
        <ele>688.92</ele>
        <time>2011-03-03T08:19:05Z</time>
      </trkpt>
      <trkpt lat="44.47743" lon="5.22262">
        <ele>688.92</ele>
        <time>2011-03-03T08:19:08Z</time>
      </trkpt>
      <trkpt lat="44.47737" lon="5.22274">
        <ele>689.4</ele>
        <time>2011-03-03T08:19:16Z</time>
      </trkpt>
      <trkpt lat="44.47736" lon="5.22284">
        <ele>690.36</ele>
        <time>2011-03-03T08:19:24Z</time>
      </trkpt>
      <trkpt lat="44.47735" lon="5.22293">
        <ele>690.84</ele>
        <time>2011-03-03T08:19:31Z</time>
      </trkpt>
      <trkpt lat="44.47736" lon="5.22299">
        <ele>691.81</ele>
        <time>2011-03-03T08:19:37Z</time>
      </trkpt>
      <trkpt lat="44.4773" lon="5.22307">
        <ele>692.29</ele>
        <time>2011-03-03T08:19:42Z</time>
      </trkpt>
      <trkpt lat="44.4773" lon="5.22307">
        <ele>692.77</ele>
        <time>2011-03-03T08:19:44Z</time>
      </trkpt>
      <trkpt lat="44.47729" lon="5.2231">
        <ele>692.77</ele>
        <time>2011-03-03T08:19:47Z</time>
      </trkpt>
      <trkpt lat="44.47727" lon="5.22312">
        <ele>693.25</ele>
        <time>2011-03-03T08:19:49Z</time>
      </trkpt>
      <trkpt lat="44.47726" lon="5.22323">
        <ele>694.21</ele>
        <time>2011-03-03T08:19:57Z</time>
      </trkpt>
      <trkpt lat="44.47725" lon="5.2233">
        <ele>695.17</ele>
        <time>2011-03-03T08:20:04Z</time>
      </trkpt>
      <trkpt lat="44.47725" lon="5.22339">
        <ele>696.13</ele>
        <time>2011-03-03T08:20:08Z</time>
      </trkpt>
      <trkpt lat="44.47719" lon="5.22342">
        <ele>696.13</ele>
        <time>2011-03-03T08:20:12Z</time>
      </trkpt>
      <trkpt lat="44.47726" lon="5.22349">
        <ele>696.61</ele>
        <time>2011-03-03T08:20:19Z</time>
      </trkpt>
      <trkpt lat="44.47723" lon="5.22358">
        <ele>697.57</ele>
        <time>2011-03-03T08:20:26Z</time>
      </trkpt>
      <trkpt lat="44.47725" lon="5.2237">
        <ele>698.05</ele>
        <time>2011-03-03T08:20:33Z</time>
      </trkpt>
      <trkpt lat="44.47727" lon="5.22372">
        <ele>698.05</ele>
        <time>2011-03-03T08:20:36Z</time>
      </trkpt>
      <trkpt lat="44.47726" lon="5.22378">
        <ele>699.02</ele>
        <time>2011-03-03T08:20:41Z</time>
      </trkpt>
      <trkpt lat="44.47721" lon="5.22386">
        <ele>699.5</ele>
        <time>2011-03-03T08:20:49Z</time>
      </trkpt>
      <trkpt lat="44.4772" lon="5.2239">
        <ele>699.98</ele>
        <time>2011-03-03T08:20:51Z</time>
      </trkpt>
      <trkpt lat="44.47717" lon="5.22396">
        <ele>700.46</ele>
        <time>2011-03-03T08:20:59Z</time>
      </trkpt>
      <trkpt lat="44.47714" lon="5.22407">
        <ele>700.94</ele>
        <time>2011-03-03T08:21:06Z</time>
      </trkpt>
      <trkpt lat="44.47711" lon="5.22418">
        <ele>701.9</ele>
        <time>2011-03-03T08:21:13Z</time>
      </trkpt>
      <trkpt lat="44.47711" lon="5.2242">
        <ele>702.38</ele>
        <time>2011-03-03T08:21:15Z</time>
      </trkpt>
      <trkpt lat="44.47707" lon="5.22427">
        <ele>702.86</ele>
        <time>2011-03-03T08:21:22Z</time>
      </trkpt>
      <trkpt lat="44.47706" lon="5.2243">
        <ele>703.34</ele>
        <time>2011-03-03T08:21:24Z</time>
      </trkpt>
      <trkpt lat="44.47705" lon="5.22437">
        <ele>703.82</ele>
        <time>2011-03-03T08:21:28Z</time>
      </trkpt>
      <trkpt lat="44.47703" lon="5.2244">
        <ele>703.82</ele>
        <time>2011-03-03T08:21:30Z</time>
      </trkpt>
      <trkpt lat="44.47704" lon="5.22445">
        <ele>704.3</ele>
        <time>2011-03-03T08:21:33Z</time>
      </trkpt>
      <trkpt lat="44.47705" lon="5.22447">
        <ele>704.78</ele>
        <time>2011-03-03T08:21:35Z</time>
      </trkpt>
      <trkpt lat="44.47703" lon="5.22455">
        <ele>705.26</ele>
        <time>2011-03-03T08:21:43Z</time>
      </trkpt>
      <trkpt lat="44.47706" lon="5.22466">
        <ele>706.23</ele>
        <time>2011-03-03T08:21:49Z</time>
      </trkpt>
      <trkpt lat="44.47698" lon="5.22465">
        <ele>706.71</ele>
        <time>2011-03-03T08:21:57Z</time>
      </trkpt>
      <trkpt lat="44.47698" lon="5.22479">
        <ele>707.67</ele>
        <time>2011-03-03T08:22:05Z</time>
      </trkpt>
      <trkpt lat="44.47695" lon="5.22488">
        <ele>707.67</ele>
        <time>2011-03-03T08:22:11Z</time>
      </trkpt>
      <trkpt lat="44.47692" lon="5.22493">
        <ele>708.15</ele>
        <time>2011-03-03T08:22:18Z</time>
      </trkpt>
      <trkpt lat="44.47686" lon="5.22501">
        <ele>709.59</ele>
        <time>2011-03-03T08:22:25Z</time>
      </trkpt>
      <trkpt lat="44.47684" lon="5.22506">
        <ele>710.55</ele>
        <time>2011-03-03T08:22:32Z</time>
      </trkpt>
      <trkpt lat="44.47676" lon="5.22508">
        <ele>711.51</ele>
        <time>2011-03-03T08:22:38Z</time>
      </trkpt>
      <trkpt lat="44.47671" lon="5.22515">
        <ele>711.99</ele>
        <time>2011-03-03T08:22:46Z</time>
      </trkpt>
      <trkpt lat="44.47664" lon="5.22517">
        <ele>713.92</ele>
        <time>2011-03-03T08:22:54Z</time>
      </trkpt>
      <trkpt lat="44.47662" lon="5.22526">
        <ele>714.88</ele>
        <time>2011-03-03T08:23:03Z</time>
      </trkpt>
      <trkpt lat="44.47654" lon="5.22529">
        <ele>715.84</ele>
        <time>2011-03-03T08:23:11Z</time>
      </trkpt>
      <trkpt lat="44.4765" lon="5.22537">
        <ele>717.28</ele>
        <time>2011-03-03T08:23:18Z</time>
      </trkpt>
      <trkpt lat="44.47645" lon="5.22542">
        <ele>717.76</ele>
        <time>2011-03-03T08:23:25Z</time>
      </trkpt>
      <trkpt lat="44.47641" lon="5.22546">
        <ele>718.72</ele>
        <time>2011-03-03T08:23:32Z</time>
      </trkpt>
      <trkpt lat="44.47636" lon="5.22553">
        <ele>719.68</ele>
        <time>2011-03-03T08:23:39Z</time>
      </trkpt>
      <trkpt lat="44.47629" lon="5.22555">
        <ele>720.65</ele>
        <time>2011-03-03T08:23:47Z</time>
      </trkpt>
      <trkpt lat="44.47627" lon="5.22556">
        <ele>721.13</ele>
        <time>2011-03-03T08:23:50Z</time>
      </trkpt>
      <trkpt lat="44.47625" lon="5.22555">
        <ele>721.13</ele>
        <time>2011-03-03T08:23:52Z</time>
      </trkpt>
      <trkpt lat="44.47621" lon="5.22566">
        <ele>722.09</ele>
        <time>2011-03-03T08:24:00Z</time>
      </trkpt>
      <trkpt lat="44.47619" lon="5.22569">
        <ele>723.05</ele>
        <time>2011-03-03T08:24:05Z</time>
      </trkpt>
      <trkpt lat="44.47612" lon="5.22571">
        <ele>724.01</ele>
        <time>2011-03-03T08:24:13Z</time>
      </trkpt>
      <trkpt lat="44.47607" lon="5.22582">
        <ele>724.97</ele>
        <time>2011-03-03T08:24:21Z</time>
      </trkpt>
      <trkpt lat="44.47605" lon="5.22583">
        <ele>725.93</ele>
        <time>2011-03-03T08:24:25Z</time>
      </trkpt>
      <trkpt lat="44.47596" lon="5.22588">
        <ele>726.41</ele>
        <time>2011-03-03T08:24:33Z</time>
      </trkpt>
      <trkpt lat="44.47594" lon="5.22596">
        <ele>727.37</ele>
        <time>2011-03-03T08:24:40Z</time>
      </trkpt>
      <trkpt lat="44.47589" lon="5.22598">
        <ele>727.86</ele>
        <time>2011-03-03T08:24:45Z</time>
      </trkpt>
      <trkpt lat="44.47584" lon="5.226">
        <ele>728.34</ele>
        <time>2011-03-03T08:24:51Z</time>
      </trkpt>
      <trkpt lat="44.47576" lon="5.22603">
        <ele>728.82</ele>
        <time>2011-03-03T08:24:58Z</time>
      </trkpt>
      <trkpt lat="44.47576" lon="5.22602">
        <ele>729.3</ele>
        <time>2011-03-03T08:24:59Z</time>
      </trkpt>
      <trkpt lat="44.47572" lon="5.22591">
        <ele>730.74</ele>
        <time>2011-03-03T08:25:07Z</time>
      </trkpt>
      <trkpt lat="44.47572" lon="5.22583">
        <ele>731.22</ele>
        <time>2011-03-03T08:25:13Z</time>
      </trkpt>
      <trkpt lat="44.47572" lon="5.22578">
        <ele>732.18</ele>
        <time>2011-03-03T08:25:19Z</time>
      </trkpt>
      <trkpt lat="44.47572" lon="5.22568">
        <ele>733.14</ele>
        <time>2011-03-03T08:25:26Z</time>
      </trkpt>
      <trkpt lat="44.47567" lon="5.22561">
        <ele>734.1</ele>
        <time>2011-03-03T08:25:34Z</time>
      </trkpt>
      <trkpt lat="44.47567" lon="5.22562">
        <ele>734.1</ele>
        <time>2011-03-03T08:25:51Z</time>
      </trkpt>
      <trkpt lat="44.47565" lon="5.22561">
        <ele>735.07</ele>
        <time>2011-03-03T08:25:59Z</time>
      </trkpt>
      <trkpt lat="44.47554" lon="5.22561">
        <ele>736.03</ele>
        <time>2011-03-03T08:26:09Z</time>
      </trkpt>
      <trkpt lat="44.47551" lon="5.22563">
        <ele>736.99</ele>
        <time>2011-03-03T08:26:14Z</time>
      </trkpt>
      <trkpt lat="44.47545" lon="5.22564">
        <ele>737.95</ele>
        <time>2011-03-03T08:26:22Z</time>
      </trkpt>
      <trkpt lat="44.4754" lon="5.22563">
        <ele>739.39</ele>
        <time>2011-03-03T08:26:30Z</time>
      </trkpt>
      <trkpt lat="44.47532" lon="5.22568">
        <ele>739.87</ele>
        <time>2011-03-03T08:26:37Z</time>
      </trkpt>
      <trkpt lat="44.47528" lon="5.22573">
        <ele>740.83</ele>
        <time>2011-03-03T08:26:41Z</time>
      </trkpt>
      <trkpt lat="44.47524" lon="5.22574">
        <ele>741.79</ele>
        <time>2011-03-03T08:26:49Z</time>
      </trkpt>
      <trkpt lat="44.47519" lon="5.22573">
        <ele>743.24</ele>
        <time>2011-03-03T08:26:56Z</time>
      </trkpt>
      <trkpt lat="44.47514" lon="5.22576">
        <ele>744.68</ele>
        <time>2011-03-03T08:27:04Z</time>
      </trkpt>
      <trkpt lat="44.47509" lon="5.22577">
        <ele>745.64</ele>
        <time>2011-03-03T08:27:11Z</time>
      </trkpt>
      <trkpt lat="44.47502" lon="5.22573">
        <ele>746.6</ele>
        <time>2011-03-03T08:27:19Z</time>
      </trkpt>
      <trkpt lat="44.47494" lon="5.22573">
        <ele>747.08</ele>
        <time>2011-03-03T08:27:25Z</time>
      </trkpt>
      <trkpt lat="44.47493" lon="5.2257">
        <ele>747.08</ele>
        <time>2011-03-03T08:27:26Z</time>
      </trkpt>
      <trkpt lat="44.47487" lon="5.22564">
        <ele>748.52</ele>
        <time>2011-03-03T08:27:34Z</time>
      </trkpt>
      <trkpt lat="44.47481" lon="5.22559">
        <ele>749.49</ele>
        <time>2011-03-03T08:27:42Z</time>
      </trkpt>
      <trkpt lat="44.47477" lon="5.22555">
        <ele>750.45</ele>
        <time>2011-03-03T08:27:48Z</time>
      </trkpt>
      <trkpt lat="44.47475" lon="5.22548">
        <ele>751.41</ele>
        <time>2011-03-03T08:27:55Z</time>
      </trkpt>
      <trkpt lat="44.47474" lon="5.22546">
        <ele>752.37</ele>
        <time>2011-03-03T08:28:03Z</time>
      </trkpt>
      <trkpt lat="44.47472" lon="5.22543">
        <ele>753.33</ele>
        <time>2011-03-03T08:28:06Z</time>
      </trkpt>
      <trkpt lat="44.47468" lon="5.22535">
        <ele>754.29</ele>
        <time>2011-03-03T08:28:13Z</time>
      </trkpt>
      <trkpt lat="44.47467" lon="5.22529">
        <ele>756.21</ele>
        <time>2011-03-03T08:28:21Z</time>
      </trkpt>
      <trkpt lat="44.47463" lon="5.22521">
        <ele>756.69</ele>
        <time>2011-03-03T08:28:28Z</time>
      </trkpt>
      <trkpt lat="44.47462" lon="5.2252">
        <ele>756.69</ele>
        <time>2011-03-03T08:28:30Z</time>
      </trkpt>
      <trkpt lat="44.47461" lon="5.22517">
        <ele>757.18</ele>
        <time>2011-03-03T08:28:34Z</time>
      </trkpt>
      <trkpt lat="44.47457" lon="5.2251">
        <ele>759.1</ele>
        <time>2011-03-03T08:28:42Z</time>
      </trkpt>
      <trkpt lat="44.47454" lon="5.22503">
        <ele>759.58</ele>
        <time>2011-03-03T08:28:50Z</time>
      </trkpt>
      <trkpt lat="44.47449" lon="5.22499">
        <ele>760.54</ele>
        <time>2011-03-03T08:28:57Z</time>
      </trkpt>
      <trkpt lat="44.47443" lon="5.22485">
        <ele>761.5</ele>
        <time>2011-03-03T08:29:02Z</time>
      </trkpt>
      <trkpt lat="44.47444" lon="5.22489">
        <ele>761.98</ele>
        <time>2011-03-03T08:29:07Z</time>
      </trkpt>
      <trkpt lat="44.47442" lon="5.22481">
        <ele>763.42</ele>
        <time>2011-03-03T08:29:14Z</time>
      </trkpt>
      <trkpt lat="44.47442" lon="5.2248">
        <ele>763.9</ele>
        <time>2011-03-03T08:29:17Z</time>
      </trkpt>
      <trkpt lat="44.47441" lon="5.22471">
        <ele>764.87</ele>
        <time>2011-03-03T08:29:24Z</time>
      </trkpt>
      <trkpt lat="44.47441" lon="5.22467">
        <ele>765.83</ele>
        <time>2011-03-03T08:29:30Z</time>
      </trkpt>
      <trkpt lat="44.47434" lon="5.22461">
        <ele>767.27</ele>
        <time>2011-03-03T08:29:36Z</time>
      </trkpt>
      <trkpt lat="44.47436" lon="5.22456">
        <ele>768.23</ele>
        <time>2011-03-03T08:29:42Z</time>
      </trkpt>
      <trkpt lat="44.47431" lon="5.22451">
        <ele>769.19</ele>
        <time>2011-03-03T08:29:48Z</time>
      </trkpt>
      <trkpt lat="44.47434" lon="5.22448">
        <ele>770.15</ele>
        <time>2011-03-03T08:29:53Z</time>
      </trkpt>
      <trkpt lat="44.47429" lon="5.22439">
        <ele>771.11</ele>
        <time>2011-03-03T08:30:00Z</time>
      </trkpt>
      <trkpt lat="44.47433" lon="5.22434">
        <ele>772.08</ele>
        <time>2011-03-03T08:30:06Z</time>
      </trkpt>
      <trkpt lat="44.47429" lon="5.22427">
        <ele>773.04</ele>
        <time>2011-03-03T08:30:11Z</time>
      </trkpt>
      <trkpt lat="44.47429" lon="5.22425">
        <ele>773.52</ele>
        <time>2011-03-03T08:30:14Z</time>
      </trkpt>
      <trkpt lat="44.47424" lon="5.22425">
        <ele>774</ele>
        <time>2011-03-03T08:30:21Z</time>
      </trkpt>
      <trkpt lat="44.47422" lon="5.22432">
        <ele>774.96</ele>
        <time>2011-03-03T08:30:28Z</time>
      </trkpt>
      <trkpt lat="44.47419" lon="5.22435">
        <ele>776.4</ele>
        <time>2011-03-03T08:30:34Z</time>
      </trkpt>
      <trkpt lat="44.47415" lon="5.22442">
        <ele>777.36</ele>
        <time>2011-03-03T08:30:41Z</time>
      </trkpt>
      <trkpt lat="44.47413" lon="5.22447">
        <ele>779.29</ele>
        <time>2011-03-03T08:30:50Z</time>
      </trkpt>
      <trkpt lat="44.47412" lon="5.22447">
        <ele>779.77</ele>
        <time>2011-03-03T08:30:55Z</time>
      </trkpt>
      <trkpt lat="44.47408" lon="5.22451">
        <ele>780.25</ele>
        <time>2011-03-03T08:31:00Z</time>
      </trkpt>
      <trkpt lat="44.47403" lon="5.22441">
        <ele>781.69</ele>
        <time>2011-03-03T08:31:08Z</time>
      </trkpt>
      <trkpt lat="44.47402" lon="5.22442">
        <ele>782.65</ele>
        <time>2011-03-03T08:31:13Z</time>
      </trkpt>
      <trkpt lat="44.47402" lon="5.22436">
        <ele>784.09</ele>
        <time>2011-03-03T08:31:20Z</time>
      </trkpt>
      <trkpt lat="44.47405" lon="5.22428">
        <ele>785.53</ele>
        <time>2011-03-03T08:31:26Z</time>
      </trkpt>
      <trkpt lat="44.47404" lon="5.22425">
        <ele>786.02</ele>
        <time>2011-03-03T08:31:28Z</time>
      </trkpt>
      <trkpt lat="44.47403" lon="5.22423">
        <ele>786.5</ele>
        <time>2011-03-03T08:31:34Z</time>
      </trkpt>
      <trkpt lat="44.47403" lon="5.22424">
        <ele>786.98</ele>
        <time>2011-03-03T08:31:37Z</time>
      </trkpt>
      <trkpt lat="44.47397" lon="5.2242">
        <ele>787.94</ele>
        <time>2011-03-03T08:31:40Z</time>
      </trkpt>
      <trkpt lat="44.47391" lon="5.22425">
        <ele>788.9</ele>
        <time>2011-03-03T08:31:47Z</time>
      </trkpt>
      <trkpt lat="44.47386" lon="5.22429">
        <ele>790.34</ele>
        <time>2011-03-03T08:31:54Z</time>
      </trkpt>
      <trkpt lat="44.47381" lon="5.22436">
        <ele>791.3</ele>
        <time>2011-03-03T08:32:03Z</time>
      </trkpt>
      <trkpt lat="44.47381" lon="5.22442">
        <ele>791.78</ele>
        <time>2011-03-03T08:32:08Z</time>
      </trkpt>
      <trkpt lat="44.47378" lon="5.2245">
        <ele>792.74</ele>
        <time>2011-03-03T08:32:16Z</time>
      </trkpt>
      <trkpt lat="44.47376" lon="5.22453">
        <ele>793.22</ele>
        <time>2011-03-03T08:32:18Z</time>
      </trkpt>
      <trkpt lat="44.47374" lon="5.22457">
        <ele>794.67</ele>
        <time>2011-03-03T08:32:26Z</time>
      </trkpt>
      <trkpt lat="44.47374" lon="5.22463">
        <ele>795.63</ele>
        <time>2011-03-03T08:32:32Z</time>
      </trkpt>
      <trkpt lat="44.47371" lon="5.22468">
        <ele>796.59</ele>
        <time>2011-03-03T08:32:41Z</time>
      </trkpt>
      <trkpt lat="44.47371" lon="5.22473">
        <ele>798.51</ele>
        <time>2011-03-03T08:32:47Z</time>
      </trkpt>
      <trkpt lat="44.47368" lon="5.22476">
        <ele>799.47</ele>
        <time>2011-03-03T08:32:54Z</time>
      </trkpt>
      <trkpt lat="44.47367" lon="5.22482">
        <ele>799.95</ele>
        <time>2011-03-03T08:33:01Z</time>
      </trkpt>
      <trkpt lat="44.47364" lon="5.22491">
        <ele>800.92</ele>
        <time>2011-03-03T08:33:08Z</time>
      </trkpt>
      <trkpt lat="44.47363" lon="5.22495">
        <ele>802.36</ele>
        <time>2011-03-03T08:33:15Z</time>
      </trkpt>
      <trkpt lat="44.47362" lon="5.22499">
        <ele>802.84</ele>
        <time>2011-03-03T08:33:19Z</time>
      </trkpt>
      <trkpt lat="44.47359" lon="5.22501">
        <ele>803.8</ele>
        <time>2011-03-03T08:33:26Z</time>
      </trkpt>
      <trkpt lat="44.47356" lon="5.22507">
        <ele>805.24</ele>
        <time>2011-03-03T08:33:34Z</time>
      </trkpt>
      <trkpt lat="44.47351" lon="5.22515">
        <ele>805.72</ele>
        <time>2011-03-03T08:33:41Z</time>
      </trkpt>
      <trkpt lat="44.47348" lon="5.22514">
        <ele>806.68</ele>
        <time>2011-03-03T08:33:46Z</time>
      </trkpt>
      <trkpt lat="44.47349" lon="5.22515">
        <ele>807.16</ele>
        <time>2011-03-03T08:33:47Z</time>
      </trkpt>
      <trkpt lat="44.47341" lon="5.22515">
        <ele>808.61</ele>
        <time>2011-03-03T08:33:55Z</time>
      </trkpt>
      <trkpt lat="44.47338" lon="5.2252">
        <ele>809.57</ele>
        <time>2011-03-03T08:34:03Z</time>
      </trkpt>
      <trkpt lat="44.4733" lon="5.22516">
        <ele>810.53</ele>
        <time>2011-03-03T08:34:09Z</time>
      </trkpt>
      <trkpt lat="44.47328" lon="5.22523">
        <ele>811.49</ele>
        <time>2011-03-03T08:34:13Z</time>
      </trkpt>
      <trkpt lat="44.47324" lon="5.22516">
        <ele>811.97</ele>
        <time>2011-03-03T08:34:19Z</time>
      </trkpt>
      <trkpt lat="44.47313" lon="5.22524">
        <ele>814.37</ele>
        <time>2011-03-03T08:34:33Z</time>
      </trkpt>
      <trkpt lat="44.47307" lon="5.22528">
        <ele>815.34</ele>
        <time>2011-03-03T08:34:41Z</time>
      </trkpt>
      <trkpt lat="44.47305" lon="5.22528">
        <ele>816.3</ele>
        <time>2011-03-03T08:34:46Z</time>
      </trkpt>
      <trkpt lat="44.47305" lon="5.22536">
        <ele>816.3</ele>
        <time>2011-03-03T08:34:53Z</time>
      </trkpt>
      <trkpt lat="44.473" lon="5.22532">
        <ele>817.26</ele>
        <time>2011-03-03T08:35:00Z</time>
      </trkpt>
      <trkpt lat="44.47293" lon="5.22538">
        <ele>818.22</ele>
        <time>2011-03-03T08:35:07Z</time>
      </trkpt>
      <trkpt lat="44.47291" lon="5.22543">
        <ele>819.18</ele>
        <time>2011-03-03T08:35:13Z</time>
      </trkpt>
      <trkpt lat="44.47287" lon="5.2255">
        <ele>819.66</ele>
        <time>2011-03-03T08:35:20Z</time>
      </trkpt>
      <trkpt lat="44.47285" lon="5.22553">
        <ele>820.14</ele>
        <time>2011-03-03T08:35:24Z</time>
      </trkpt>
      <trkpt lat="44.47284" lon="5.22563">
        <ele>820.62</ele>
        <time>2011-03-03T08:35:29Z</time>
      </trkpt>
      <trkpt lat="44.47283" lon="5.22567">
        <ele>821.1</ele>
        <time>2011-03-03T08:35:35Z</time>
      </trkpt>
      <trkpt lat="44.47279" lon="5.22571">
        <ele>822.06</ele>
        <time>2011-03-03T08:35:44Z</time>
      </trkpt>
      <trkpt lat="44.47272" lon="5.22574">
        <ele>823.03</ele>
        <time>2011-03-03T08:35:52Z</time>
      </trkpt>
      <trkpt lat="44.4727" lon="5.22582">
        <ele>823.99</ele>
        <time>2011-03-03T08:35:58Z</time>
      </trkpt>
      <trkpt lat="44.47268" lon="5.2258">
        <ele>824.95</ele>
        <time>2011-03-03T08:36:05Z</time>
      </trkpt>
      <trkpt lat="44.47262" lon="5.22583">
        <ele>825.43</ele>
        <time>2011-03-03T08:36:11Z</time>
      </trkpt>
      <trkpt lat="44.47258" lon="5.22588">
        <ele>827.35</ele>
        <time>2011-03-03T08:36:17Z</time>
      </trkpt>
      <trkpt lat="44.47258" lon="5.22592">
        <ele>828.31</ele>
        <time>2011-03-03T08:36:25Z</time>
      </trkpt>
      <trkpt lat="44.47253" lon="5.22595">
        <ele>829.76</ele>
        <time>2011-03-03T08:36:31Z</time>
      </trkpt>
      <trkpt lat="44.47249" lon="5.22601">
        <ele>830.72</ele>
        <time>2011-03-03T08:36:38Z</time>
      </trkpt>
      <trkpt lat="44.47247" lon="5.22599">
        <ele>830.72</ele>
        <time>2011-03-03T08:36:43Z</time>
      </trkpt>
      <trkpt lat="44.47244" lon="5.2261">
        <ele>831.68</ele>
        <time>2011-03-03T08:36:49Z</time>
      </trkpt>
      <trkpt lat="44.4724" lon="5.22611">
        <ele>832.64</ele>
        <time>2011-03-03T08:36:55Z</time>
      </trkpt>
      <trkpt lat="44.47235" lon="5.22615">
        <ele>833.6</ele>
        <time>2011-03-03T08:37:01Z</time>
      </trkpt>
      <trkpt lat="44.47233" lon="5.22615">
        <ele>834.08</ele>
        <time>2011-03-03T08:37:06Z</time>
      </trkpt>
      <trkpt lat="44.4723" lon="5.22618">
        <ele>835.04</ele>
        <time>2011-03-03T08:37:11Z</time>
      </trkpt>
      <trkpt lat="44.47226" lon="5.22619">
        <ele>835.52</ele>
        <time>2011-03-03T08:37:17Z</time>
      </trkpt>
      <trkpt lat="44.47222" lon="5.22628">
        <ele>836</ele>
        <time>2011-03-03T08:37:22Z</time>
      </trkpt>
      <trkpt lat="44.47217" lon="5.22634">
        <ele>837.45</ele>
        <time>2011-03-03T08:37:32Z</time>
      </trkpt>
      <trkpt lat="44.47216" lon="5.22636">
        <ele>838.41</ele>
        <time>2011-03-03T08:37:38Z</time>
      </trkpt>
      <trkpt lat="44.47213" lon="5.22642">
        <ele>838.89</ele>
        <time>2011-03-03T08:37:43Z</time>
      </trkpt>
      <trkpt lat="44.47208" lon="5.22642">
        <ele>840.33</ele>
        <time>2011-03-03T08:37:49Z</time>
      </trkpt>
      <trkpt lat="44.47206" lon="5.22649">
        <ele>840.81</ele>
        <time>2011-03-03T08:37:57Z</time>
      </trkpt>
      <trkpt lat="44.47205" lon="5.22651">
        <ele>841.29</ele>
        <time>2011-03-03T08:38:01Z</time>
      </trkpt>
      <trkpt lat="44.47195" lon="5.2265">
        <ele>842.25</ele>
        <time>2011-03-03T08:38:08Z</time>
      </trkpt>
      <trkpt lat="44.47195" lon="5.2266">
        <ele>843.21</ele>
        <time>2011-03-03T08:38:15Z</time>
      </trkpt>
      <trkpt lat="44.4719" lon="5.2266">
        <ele>844.18</ele>
        <time>2011-03-03T08:38:21Z</time>
      </trkpt>
      <trkpt lat="44.47187" lon="5.22668">
        <ele>844.66</ele>
        <time>2011-03-03T08:38:27Z</time>
      </trkpt>
      <trkpt lat="44.47181" lon="5.2267">
        <ele>845.62</ele>
        <time>2011-03-03T08:38:32Z</time>
      </trkpt>
      <trkpt lat="44.47182" lon="5.22671">
        <ele>845.62</ele>
        <time>2011-03-03T08:38:33Z</time>
      </trkpt>
      <trkpt lat="44.4718" lon="5.22674">
        <ele>846.58</ele>
        <time>2011-03-03T08:38:40Z</time>
      </trkpt>
      <trkpt lat="44.47175" lon="5.2268">
        <ele>847.54</ele>
        <time>2011-03-03T08:38:46Z</time>
      </trkpt>
      <trkpt lat="44.47176" lon="5.22681">
        <ele>848.02</ele>
        <time>2011-03-03T08:38:52Z</time>
      </trkpt>
      <trkpt lat="44.47172" lon="5.22688">
        <ele>848.5</ele>
        <time>2011-03-03T08:38:58Z</time>
      </trkpt>
      <trkpt lat="44.47168" lon="5.22691">
        <ele>849.46</ele>
        <time>2011-03-03T08:39:04Z</time>
      </trkpt>
      <trkpt lat="44.47168" lon="5.227">
        <ele>850.42</ele>
        <time>2011-03-03T08:39:11Z</time>
      </trkpt>
      <trkpt lat="44.4716" lon="5.22703">
        <ele>851.87</ele>
        <time>2011-03-03T08:39:19Z</time>
      </trkpt>
      <trkpt lat="44.47157" lon="5.22709">
        <ele>852.83</ele>
        <time>2011-03-03T08:39:26Z</time>
      </trkpt>
      <trkpt lat="44.47156" lon="5.22714">
        <ele>854.27</ele>
        <time>2011-03-03T08:39:33Z</time>
      </trkpt>
      <trkpt lat="44.4715" lon="5.2272">
        <ele>854.75</ele>
        <time>2011-03-03T08:39:40Z</time>
      </trkpt>
      <trkpt lat="44.47149" lon="5.22724">
        <ele>855.23</ele>
        <time>2011-03-03T08:39:44Z</time>
      </trkpt>
      <trkpt lat="44.47145" lon="5.2273">
        <ele>856.19</ele>
        <time>2011-03-03T08:39:51Z</time>
      </trkpt>
      <trkpt lat="44.47145" lon="5.22733">
        <ele>856.19</ele>
        <time>2011-03-03T08:39:52Z</time>
      </trkpt>
      <trkpt lat="44.4714" lon="5.22733">
        <ele>857.15</ele>
        <time>2011-03-03T08:39:59Z</time>
      </trkpt>
      <trkpt lat="44.47136" lon="5.22739">
        <ele>858.11</ele>
        <time>2011-03-03T08:40:07Z</time>
      </trkpt>
      <trkpt lat="44.47135" lon="5.22743">
        <ele>858.59</ele>
        <time>2011-03-03T08:40:13Z</time>
      </trkpt>
      <trkpt lat="44.47129" lon="5.22748">
        <ele>860.04</ele>
        <time>2011-03-03T08:40:21Z</time>
      </trkpt>
      <trkpt lat="44.47124" lon="5.22747">
        <ele>861</ele>
        <time>2011-03-03T08:40:26Z</time>
      </trkpt>
      <trkpt lat="44.47121" lon="5.22751">
        <ele>861</ele>
        <time>2011-03-03T08:40:30Z</time>
      </trkpt>
      <trkpt lat="44.47122" lon="5.22759">
        <ele>862.44</ele>
        <time>2011-03-03T08:40:36Z</time>
      </trkpt>
      <trkpt lat="44.47117" lon="5.22759">
        <ele>862.92</ele>
        <time>2011-03-03T08:40:41Z</time>
      </trkpt>
      <trkpt lat="44.47114" lon="5.22764">
        <ele>864.36</ele>
        <time>2011-03-03T08:40:48Z</time>
      </trkpt>
      <trkpt lat="44.4711" lon="5.22768">
        <ele>864.84</ele>
        <time>2011-03-03T08:40:52Z</time>
      </trkpt>
      <trkpt lat="44.47108" lon="5.22772">
        <ele>865.8</ele>
        <time>2011-03-03T08:40:57Z</time>
      </trkpt>
      <trkpt lat="44.47103" lon="5.22775">
        <ele>867.25</ele>
        <time>2011-03-03T08:41:04Z</time>
      </trkpt>
      <trkpt lat="44.47101" lon="5.22779">
        <ele>867.73</ele>
        <time>2011-03-03T08:41:09Z</time>
      </trkpt>
      <trkpt lat="44.471" lon="5.22782">
        <ele>868.21</ele>
        <time>2011-03-03T08:41:15Z</time>
      </trkpt>
      <trkpt lat="44.47095" lon="5.22785">
        <ele>869.65</ele>
        <time>2011-03-03T08:41:21Z</time>
      </trkpt>
      <trkpt lat="44.47095" lon="5.22791">
        <ele>870.61</ele>
        <time>2011-03-03T08:41:27Z</time>
      </trkpt>
      <trkpt lat="44.47086" lon="5.22791">
        <ele>871.57</ele>
        <time>2011-03-03T08:41:33Z</time>
      </trkpt>
      <trkpt lat="44.47084" lon="5.22792">
        <ele>872.05</ele>
        <time>2011-03-03T08:41:39Z</time>
      </trkpt>
      <trkpt lat="44.4708" lon="5.22796">
        <ele>873.01</ele>
        <time>2011-03-03T08:41:46Z</time>
      </trkpt>
      <trkpt lat="44.47077" lon="5.22798">
        <ele>873.98</ele>
        <time>2011-03-03T08:41:53Z</time>
      </trkpt>
      <trkpt lat="44.47074" lon="5.22802">
        <ele>874.94</ele>
        <time>2011-03-03T08:41:59Z</time>
      </trkpt>
      <trkpt lat="44.47068" lon="5.22805">
        <ele>875.9</ele>
        <time>2011-03-03T08:42:05Z</time>
      </trkpt>
      <trkpt lat="44.47067" lon="5.22807">
        <ele>876.38</ele>
        <time>2011-03-03T08:42:10Z</time>
      </trkpt>
      <trkpt lat="44.47061" lon="5.22808">
        <ele>877.34</ele>
        <time>2011-03-03T08:42:17Z</time>
      </trkpt>
      <trkpt lat="44.47059" lon="5.22812">
        <ele>877.82</ele>
        <time>2011-03-03T08:42:22Z</time>
      </trkpt>
      <trkpt lat="44.47053" lon="5.22817">
        <ele>879.26</ele>
        <time>2011-03-03T08:42:29Z</time>
      </trkpt>
      <trkpt lat="44.47047" lon="5.22816">
        <ele>880.22</ele>
        <time>2011-03-03T08:42:36Z</time>
      </trkpt>
      <trkpt lat="44.47043" lon="5.22813">
        <ele>881.19</ele>
        <time>2011-03-03T08:42:43Z</time>
      </trkpt>
      <trkpt lat="44.4704" lon="5.22818">
        <ele>881.67</ele>
        <time>2011-03-03T08:42:49Z</time>
      </trkpt>
      <trkpt lat="44.47038" lon="5.2282">
        <ele>882.63</ele>
        <time>2011-03-03T08:42:54Z</time>
      </trkpt>
      <trkpt lat="44.47037" lon="5.22828">
        <ele>883.59</ele>
        <time>2011-03-03T08:43:01Z</time>
      </trkpt>
      <trkpt lat="44.47028" lon="5.22821">
        <ele>884.55</ele>
        <time>2011-03-03T08:43:06Z</time>
      </trkpt>
      <trkpt lat="44.47026" lon="5.22824">
        <ele>885.99</ele>
        <time>2011-03-03T08:43:13Z</time>
      </trkpt>
      <trkpt lat="44.47022" lon="5.22821">
        <ele>886.95</ele>
        <time>2011-03-03T08:43:19Z</time>
      </trkpt>
      <trkpt lat="44.4702" lon="5.22829">
        <ele>887.91</ele>
        <time>2011-03-03T08:43:26Z</time>
      </trkpt>
      <trkpt lat="44.47015" lon="5.22826">
        <ele>888.4</ele>
        <time>2011-03-03T08:43:31Z</time>
      </trkpt>
      <trkpt lat="44.47009" lon="5.22824">
        <ele>888.88</ele>
        <time>2011-03-03T08:43:37Z</time>
      </trkpt>
      <trkpt lat="44.47007" lon="5.22825">
        <ele>889.84</ele>
        <time>2011-03-03T08:43:42Z</time>
      </trkpt>
      <trkpt lat="44.47" lon="5.22824">
        <ele>890.32</ele>
        <time>2011-03-03T08:43:48Z</time>
      </trkpt>
      <trkpt lat="44.46995" lon="5.22826">
        <ele>891.28</ele>
        <time>2011-03-03T08:43:55Z</time>
      </trkpt>
      <trkpt lat="44.46993" lon="5.22834">
        <ele>892.24</ele>
        <time>2011-03-03T08:43:59Z</time>
      </trkpt>
      <trkpt lat="44.46988" lon="5.22832">
        <ele>893.2</ele>
        <time>2011-03-03T08:44:06Z</time>
      </trkpt>
      <trkpt lat="44.46984" lon="5.22841">
        <ele>893.68</ele>
        <time>2011-03-03T08:44:12Z</time>
      </trkpt>
      <trkpt lat="44.46979" lon="5.22834">
        <ele>894.64</ele>
        <time>2011-03-03T08:44:19Z</time>
      </trkpt>
      <trkpt lat="44.46976" lon="5.22836">
        <ele>895.61</ele>
        <time>2011-03-03T08:44:24Z</time>
      </trkpt>
      <trkpt lat="44.46975" lon="5.22836">
        <ele>895.12</ele>
        <time>2011-03-03T08:44:25Z</time>
      </trkpt>
      <trkpt lat="44.4697" lon="5.22835">
        <ele>896.09</ele>
        <time>2011-03-03T08:44:31Z</time>
      </trkpt>
      <trkpt lat="44.46968" lon="5.2284">
        <ele>897.05</ele>
        <time>2011-03-03T08:44:36Z</time>
      </trkpt>
      <trkpt lat="44.46964" lon="5.2284">
        <ele>898.01</ele>
        <time>2011-03-03T08:44:40Z</time>
      </trkpt>
      <trkpt lat="44.46962" lon="5.2284">
        <ele>898.97</ele>
        <time>2011-03-03T08:44:47Z</time>
      </trkpt>
      <trkpt lat="44.46951" lon="5.22842">
        <ele>900.89</ele>
        <time>2011-03-03T08:45:03Z</time>
      </trkpt>
      <trkpt lat="44.46949" lon="5.22843">
        <ele>901.85</ele>
        <time>2011-03-03T08:45:08Z</time>
      </trkpt>
      <trkpt lat="44.46944" lon="5.22844">
        <ele>903.78</ele>
        <time>2011-03-03T08:45:19Z</time>
      </trkpt>
      <trkpt lat="44.46931" lon="5.22842">
        <ele>906.66</ele>
        <time>2011-03-03T08:45:35Z</time>
      </trkpt>
      <trkpt lat="44.46932" lon="5.22841">
        <ele>906.66</ele>
        <time>2011-03-03T08:45:40Z</time>
      </trkpt>
      <trkpt lat="44.46926" lon="5.22842">
        <ele>908.58</ele>
        <time>2011-03-03T08:45:47Z</time>
      </trkpt>
      <trkpt lat="44.4692" lon="5.22845">
        <ele>910.03</ele>
        <time>2011-03-03T08:45:57Z</time>
      </trkpt>
      <trkpt lat="44.46917" lon="5.22845">
        <ele>910.99</ele>
        <time>2011-03-03T08:46:01Z</time>
      </trkpt>
      <trkpt lat="44.46914" lon="5.22848">
        <ele>911.95</ele>
        <time>2011-03-03T08:46:07Z</time>
      </trkpt>
      <trkpt lat="44.46913" lon="5.22859">
        <ele>912.43</ele>
        <time>2011-03-03T08:46:12Z</time>
      </trkpt>
      <trkpt lat="44.46911" lon="5.22864">
        <ele>913.39</ele>
        <time>2011-03-03T08:46:18Z</time>
      </trkpt>
      <trkpt lat="44.46913" lon="5.22865">
        <ele>914.83</ele>
        <time>2011-03-03T08:46:25Z</time>
      </trkpt>
      <trkpt lat="44.46913" lon="5.22871">
        <ele>915.31</ele>
        <time>2011-03-03T08:46:31Z</time>
      </trkpt>
      <trkpt lat="44.46909" lon="5.22879">
        <ele>916.27</ele>
        <time>2011-03-03T08:46:38Z</time>
      </trkpt>
      <trkpt lat="44.46908" lon="5.22881">
        <ele>917.72</ele>
        <time>2011-03-03T08:46:44Z</time>
      </trkpt>
      <trkpt lat="44.46905" lon="5.22889">
        <ele>918.68</ele>
        <time>2011-03-03T08:46:52Z</time>
      </trkpt>
      <trkpt lat="44.46903" lon="5.22899">
        <ele>919.64</ele>
        <time>2011-03-03T08:47:00Z</time>
      </trkpt>
      <trkpt lat="44.46898" lon="5.22896">
        <ele>920.12</ele>
        <time>2011-03-03T08:47:06Z</time>
      </trkpt>
      <trkpt lat="44.46893" lon="5.22901">
        <ele>921.08</ele>
        <time>2011-03-03T08:47:13Z</time>
      </trkpt>
      <trkpt lat="44.46888" lon="5.22904">
        <ele>922.52</ele>
        <time>2011-03-03T08:47:20Z</time>
      </trkpt>
      <trkpt lat="44.46886" lon="5.22907">
        <ele>923.96</ele>
        <time>2011-03-03T08:47:27Z</time>
      </trkpt>
      <trkpt lat="44.46883" lon="5.22914">
        <ele>924.45</ele>
        <time>2011-03-03T08:47:32Z</time>
      </trkpt>
      <trkpt lat="44.46878" lon="5.22919">
        <ele>925.89</ele>
        <time>2011-03-03T08:47:41Z</time>
      </trkpt>
      <trkpt lat="44.46873" lon="5.22923">
        <ele>926.85</ele>
        <time>2011-03-03T08:47:49Z</time>
      </trkpt>
      <trkpt lat="44.46873" lon="5.22925">
        <ele>927.81</ele>
        <time>2011-03-03T08:47:56Z</time>
      </trkpt>
      <trkpt lat="44.4687" lon="5.22928">
        <ele>927.81</ele>
        <time>2011-03-03T08:47:57Z</time>
      </trkpt>
      <trkpt lat="44.46865" lon="5.22926">
        <ele>929.25</ele>
        <time>2011-03-03T08:48:04Z</time>
      </trkpt>
      <trkpt lat="44.4686" lon="5.22925">
        <ele>930.21</ele>
        <time>2011-03-03T08:48:12Z</time>
      </trkpt>
      <trkpt lat="44.46853" lon="5.22928">
        <ele>931.17</ele>
        <time>2011-03-03T08:48:19Z</time>
      </trkpt>
      <trkpt lat="44.4685" lon="5.22932">
        <ele>932.62</ele>
        <time>2011-03-03T08:48:25Z</time>
      </trkpt>
      <trkpt lat="44.46848" lon="5.2293">
        <ele>933.58</ele>
        <time>2011-03-03T08:48:32Z</time>
      </trkpt>
      <trkpt lat="44.46845" lon="5.22931">
        <ele>934.06</ele>
        <time>2011-03-03T08:48:37Z</time>
      </trkpt>
      <trkpt lat="44.4684" lon="5.22933">
        <ele>934.54</ele>
        <time>2011-03-03T08:48:44Z</time>
      </trkpt>
      <trkpt lat="44.46836" lon="5.22936">
        <ele>935.98</ele>
        <time>2011-03-03T08:48:51Z</time>
      </trkpt>
      <trkpt lat="44.4683" lon="5.22937">
        <ele>937.42</ele>
        <time>2011-03-03T08:48:58Z</time>
      </trkpt>
      <trkpt lat="44.46829" lon="5.22941">
        <ele>937.9</ele>
        <time>2011-03-03T08:49:03Z</time>
      </trkpt>
      <trkpt lat="44.46824" lon="5.22938">
        <ele>938.38</ele>
        <time>2011-03-03T08:49:06Z</time>
      </trkpt>
      <trkpt lat="44.4682" lon="5.22943">
        <ele>939.35</ele>
        <time>2011-03-03T08:49:15Z</time>
      </trkpt>
      <trkpt lat="44.46811" lon="5.22939">
        <ele>939.83</ele>
        <time>2011-03-03T08:49:22Z</time>
      </trkpt>
      <trkpt lat="44.4681" lon="5.22943">
        <ele>940.79</ele>
        <time>2011-03-03T08:49:29Z</time>
      </trkpt>
      <trkpt lat="44.46803" lon="5.22949">
        <ele>940.79</ele>
        <time>2011-03-03T08:49:36Z</time>
      </trkpt>
      <trkpt lat="44.468" lon="5.22943">
        <ele>942.23</ele>
        <time>2011-03-03T08:49:43Z</time>
      </trkpt>
      <trkpt lat="44.46799" lon="5.22946">
        <ele>941.75</ele>
        <time>2011-03-03T08:49:54Z</time>
      </trkpt>
      <trkpt lat="44.46799" lon="5.22941">
        <ele>941.75</ele>
        <time>2011-03-03T08:50:01Z</time>
      </trkpt>
      <trkpt lat="44.46798" lon="5.22947">
        <ele>941.75</ele>
        <time>2011-03-03T08:50:11Z</time>
      </trkpt>
      <trkpt lat="44.46798" lon="5.22949">
        <ele>941.75</ele>
        <time>2011-03-03T08:50:38Z</time>
      </trkpt>
      <trkpt lat="44.46807" lon="5.22946">
        <ele>940.31</ele>
        <time>2011-03-03T08:50:44Z</time>
      </trkpt>
      <trkpt lat="44.4681" lon="5.22943">
        <ele>940.79</ele>
        <time>2011-03-03T08:50:51Z</time>
      </trkpt>
      <trkpt lat="44.46801" lon="5.22945">
        <ele>940.79</ele>
        <time>2011-03-03T08:51:33Z</time>
      </trkpt>
      <trkpt lat="44.46801" lon="5.22944">
        <ele>940.79</ele>
        <time>2011-03-03T08:51:40Z</time>
      </trkpt>
      <trkpt lat="44.46799" lon="5.22943">
        <ele>941.27</ele>
        <time>2011-03-03T08:51:46Z</time>
      </trkpt>
      <trkpt lat="44.46799" lon="5.22943">
        <ele>941.27</ele>
        <time>2011-03-03T08:52:26Z</time>
      </trkpt>
      <trkpt lat="44.46798" lon="5.22944">
        <ele>941.27</ele>
        <time>2011-03-03T08:53:11Z</time>
      </trkpt>
      <trkpt lat="44.46796" lon="5.22945">
        <ele>940.31</ele>
        <time>2011-03-03T08:54:05Z</time>
      </trkpt>
      <trkpt lat="44.46792" lon="5.22942">
        <ele>941.27</ele>
        <time>2011-03-03T08:54:09Z</time>
      </trkpt>
      <trkpt lat="44.46789" lon="5.22935">
        <ele>941.27</ele>
        <time>2011-03-03T08:54:16Z</time>
      </trkpt>
      <trkpt lat="44.46786" lon="5.22931">
        <ele>941.27</ele>
        <time>2011-03-03T08:54:23Z</time>
      </trkpt>
      <trkpt lat="44.46785" lon="5.22929">
        <ele>940.79</ele>
        <time>2011-03-03T08:54:25Z</time>
      </trkpt>
      <trkpt lat="44.46777" lon="5.22926">
        <ele>940.79</ele>
        <time>2011-03-03T08:54:33Z</time>
      </trkpt>
      <trkpt lat="44.46767" lon="5.22924">
        <ele>940.31</ele>
        <time>2011-03-03T08:54:42Z</time>
      </trkpt>
      <trkpt lat="44.46761" lon="5.22921">
        <ele>939.83</ele>
        <time>2011-03-03T08:54:49Z</time>
      </trkpt>
      <trkpt lat="44.4676" lon="5.2292">
        <ele>939.83</ele>
        <time>2011-03-03T08:54:53Z</time>
      </trkpt>
      <trkpt lat="44.46753" lon="5.22912">
        <ele>939.83</ele>
        <time>2011-03-03T08:55:01Z</time>
      </trkpt>
      <trkpt lat="44.46745" lon="5.22907">
        <ele>940.31</ele>
        <time>2011-03-03T08:55:09Z</time>
      </trkpt>
      <trkpt lat="44.46738" lon="5.22902">
        <ele>939.35</ele>
        <time>2011-03-03T08:55:17Z</time>
      </trkpt>
      <trkpt lat="44.46731" lon="5.22898">
        <ele>938.86</ele>
        <time>2011-03-03T08:55:22Z</time>
      </trkpt>
      <trkpt lat="44.46722" lon="5.22891">
        <ele>937.9</ele>
        <time>2011-03-03T08:55:35Z</time>
      </trkpt>
      <trkpt lat="44.46715" lon="5.22884">
        <ele>936.94</ele>
        <time>2011-03-03T08:55:43Z</time>
      </trkpt>
      <trkpt lat="44.46714" lon="5.22883">
        <ele>936.94</ele>
        <time>2011-03-03T08:55:44Z</time>
      </trkpt>
      <trkpt lat="44.46703" lon="5.22879">
        <ele>935.98</ele>
        <time>2011-03-03T08:55:54Z</time>
      </trkpt>
      <trkpt lat="44.46696" lon="5.22876">
        <ele>935.02</ele>
        <time>2011-03-03T08:56:02Z</time>
      </trkpt>
      <trkpt lat="44.46693" lon="5.22866">
        <ele>934.54</ele>
        <time>2011-03-03T08:56:08Z</time>
      </trkpt>
      <trkpt lat="44.46685" lon="5.22867">
        <ele>933.58</ele>
        <time>2011-03-03T08:56:14Z</time>
      </trkpt>
      <trkpt lat="44.46683" lon="5.22864">
        <ele>933.58</ele>
        <time>2011-03-03T08:56:18Z</time>
      </trkpt>
      <trkpt lat="44.46676" lon="5.22863">
        <ele>933.1</ele>
        <time>2011-03-03T08:56:27Z</time>
      </trkpt>
      <trkpt lat="44.46671" lon="5.22861">
        <ele>933.1</ele>
        <time>2011-03-03T08:56:35Z</time>
      </trkpt>
      <trkpt lat="44.46665" lon="5.22855">
        <ele>933.1</ele>
        <time>2011-03-03T08:56:41Z</time>
      </trkpt>
      <trkpt lat="44.46657" lon="5.22849">
        <ele>934.06</ele>
        <time>2011-03-03T08:56:46Z</time>
      </trkpt>
      <trkpt lat="44.46653" lon="5.22842">
        <ele>933.58</ele>
        <time>2011-03-03T08:56:52Z</time>
      </trkpt>
      <trkpt lat="44.46644" lon="5.22844">
        <ele>934.06</ele>
        <time>2011-03-03T08:57:01Z</time>
      </trkpt>
      <trkpt lat="44.46642" lon="5.22843">
        <ele>933.58</ele>
        <time>2011-03-03T08:57:09Z</time>
      </trkpt>
      <trkpt lat="44.46642" lon="5.22843">
        <ele>933.1</ele>
        <time>2011-03-03T08:57:42Z</time>
      </trkpt>
      <trkpt lat="44.46635" lon="5.22845">
        <ele>933.58</ele>
        <time>2011-03-03T08:57:49Z</time>
      </trkpt>
      <trkpt lat="44.46631" lon="5.22846">
        <ele>933.58</ele>
        <time>2011-03-03T08:57:53Z</time>
      </trkpt>
      <trkpt lat="44.46621" lon="5.22842">
        <ele>932.14</ele>
        <time>2011-03-03T08:58:04Z</time>
      </trkpt>
      <trkpt lat="44.46615" lon="5.2284">
        <ele>931.17</ele>
        <time>2011-03-03T08:58:09Z</time>
      </trkpt>
      <trkpt lat="44.46606" lon="5.22835">
        <ele>929.73</ele>
        <time>2011-03-03T08:58:17Z</time>
      </trkpt>
      <trkpt lat="44.46596" lon="5.22829">
        <ele>927.33</ele>
        <time>2011-03-03T08:58:27Z</time>
      </trkpt>
      <trkpt lat="44.46593" lon="5.22827">
        <ele>926.85</ele>
        <time>2011-03-03T08:58:29Z</time>
      </trkpt>
      <trkpt lat="44.46591" lon="5.22827">
        <ele>926.37</ele>
        <time>2011-03-03T08:58:31Z</time>
      </trkpt>
      <trkpt lat="44.46584" lon="5.22819">
        <ele>925.89</ele>
        <time>2011-03-03T08:58:39Z</time>
      </trkpt>
      <trkpt lat="44.46577" lon="5.22809">
        <ele>924.45</ele>
        <time>2011-03-03T08:58:47Z</time>
      </trkpt>
      <trkpt lat="44.46576" lon="5.22806">
        <ele>923.96</ele>
        <time>2011-03-03T08:58:49Z</time>
      </trkpt>
      <trkpt lat="44.46566" lon="5.22796">
        <ele>922.04</ele>
        <time>2011-03-03T08:58:58Z</time>
      </trkpt>
      <trkpt lat="44.46559" lon="5.22795">
        <ele>922.04</ele>
        <time>2011-03-03T08:59:05Z</time>
      </trkpt>
      <trkpt lat="44.46551" lon="5.22791">
        <ele>921.56</ele>
        <time>2011-03-03T08:59:12Z</time>
      </trkpt>
      <trkpt lat="44.46542" lon="5.22785">
        <ele>921.08</ele>
        <time>2011-03-03T08:59:20Z</time>
      </trkpt>
      <trkpt lat="44.46533" lon="5.22776">
        <ele>920.12</ele>
        <time>2011-03-03T08:59:29Z</time>
      </trkpt>
      <trkpt lat="44.46526" lon="5.22771">
        <ele>919.64</ele>
        <time>2011-03-03T08:59:36Z</time>
      </trkpt>
      <trkpt lat="44.46518" lon="5.22765">
        <ele>919.64</ele>
        <time>2011-03-03T08:59:44Z</time>
      </trkpt>
      <trkpt lat="44.46511" lon="5.22756">
        <ele>918.68</ele>
        <time>2011-03-03T08:59:52Z</time>
      </trkpt>
      <trkpt lat="44.46503" lon="5.22748">
        <ele>919.16</ele>
        <time>2011-03-03T09:00:01Z</time>
      </trkpt>
      <trkpt lat="44.46495" lon="5.22741">
        <ele>919.64</ele>
        <time>2011-03-03T09:00:10Z</time>
      </trkpt>
      <trkpt lat="44.46487" lon="5.22734">
        <ele>920.6</ele>
        <time>2011-03-03T09:00:19Z</time>
      </trkpt>
      <trkpt lat="44.46478" lon="5.22724">
        <ele>920.12</ele>
        <time>2011-03-03T09:00:29Z</time>
      </trkpt>
      <trkpt lat="44.46471" lon="5.22717">
        <ele>920.6</ele>
        <time>2011-03-03T09:00:36Z</time>
      </trkpt>
      <trkpt lat="44.46462" lon="5.22708">
        <ele>919.16</ele>
        <time>2011-03-03T09:00:45Z</time>
      </trkpt>
      <trkpt lat="44.46456" lon="5.22698">
        <ele>918.2</ele>
        <time>2011-03-03T09:00:53Z</time>
      </trkpt>
      <trkpt lat="44.46449" lon="5.22691">
        <ele>917.24</ele>
        <time>2011-03-03T09:01:01Z</time>
      </trkpt>
      <trkpt lat="44.46441" lon="5.22684">
        <ele>915.79</ele>
        <time>2011-03-03T09:01:09Z</time>
      </trkpt>
      <trkpt lat="44.46435" lon="5.22678">
        <ele>914.35</ele>
        <time>2011-03-03T09:01:17Z</time>
      </trkpt>
      <trkpt lat="44.46428" lon="5.22672">
        <ele>912.91</ele>
        <time>2011-03-03T09:01:24Z</time>
      </trkpt>
      <trkpt lat="44.4642" lon="5.22666">
        <ele>910.99</ele>
        <time>2011-03-03T09:01:31Z</time>
      </trkpt>
      <trkpt lat="44.46413" lon="5.22659">
        <ele>909.06</ele>
        <time>2011-03-03T09:01:39Z</time>
      </trkpt>
      <trkpt lat="44.46403" lon="5.2265">
        <ele>908.1</ele>
        <time>2011-03-03T09:01:50Z</time>
      </trkpt>
      <trkpt lat="44.46397" lon="5.2264">
        <ele>906.66</ele>
        <time>2011-03-03T09:01:58Z</time>
      </trkpt>
      <trkpt lat="44.46395" lon="5.22637">
        <ele>906.18</ele>
        <time>2011-03-03T09:02:01Z</time>
      </trkpt>
      <trkpt lat="44.46387" lon="5.2263">
        <ele>904.74</ele>
        <time>2011-03-03T09:02:10Z</time>
      </trkpt>
      <trkpt lat="44.46378" lon="5.22625">
        <ele>903.3</ele>
        <time>2011-03-03T09:02:18Z</time>
      </trkpt>
      <trkpt lat="44.46371" lon="5.22616">
        <ele>902.82</ele>
        <time>2011-03-03T09:02:23Z</time>
      </trkpt>
      <trkpt lat="44.46364" lon="5.22613">
        <ele>901.37</ele>
        <time>2011-03-03T09:02:33Z</time>
      </trkpt>
      <trkpt lat="44.46355" lon="5.22608">
        <ele>898.97</ele>
        <time>2011-03-03T09:02:41Z</time>
      </trkpt>
      <trkpt lat="44.4635" lon="5.22603">
        <ele>897.53</ele>
        <time>2011-03-03T09:02:48Z</time>
      </trkpt>
      <trkpt lat="44.46346" lon="5.226">
        <ele>896.09</ele>
        <time>2011-03-03T09:02:57Z</time>
      </trkpt>
      <trkpt lat="44.46334" lon="5.22596">
        <ele>893.2</ele>
        <time>2011-03-03T09:03:06Z</time>
      </trkpt>
      <trkpt lat="44.46329" lon="5.22596">
        <ele>891.28</ele>
        <time>2011-03-03T09:03:15Z</time>
      </trkpt>
      <trkpt lat="44.46321" lon="5.22591">
        <ele>889.36</ele>
        <time>2011-03-03T09:03:23Z</time>
      </trkpt>
      <trkpt lat="44.46321" lon="5.22594">
        <ele>887.43</ele>
        <time>2011-03-03T09:03:31Z</time>
      </trkpt>
      <trkpt lat="44.46315" lon="5.22591">
        <ele>885.99</ele>
        <time>2011-03-03T09:03:38Z</time>
      </trkpt>
      <trkpt lat="44.46313" lon="5.22586">
        <ele>884.55</ele>
        <time>2011-03-03T09:03:45Z</time>
      </trkpt>
      <trkpt lat="44.4631" lon="5.22588">
        <ele>882.63</ele>
        <time>2011-03-03T09:03:52Z</time>
      </trkpt>
      <trkpt lat="44.46304" lon="5.22583">
        <ele>880.71</ele>
        <time>2011-03-03T09:04:00Z</time>
      </trkpt>
      <trkpt lat="44.463" lon="5.22581">
        <ele>879.26</ele>
        <time>2011-03-03T09:04:06Z</time>
      </trkpt>
      <trkpt lat="44.46298" lon="5.22582">
        <ele>878.3</ele>
        <time>2011-03-03T09:04:12Z</time>
      </trkpt>
      <trkpt lat="44.46296" lon="5.22579">
        <ele>876.86</ele>
        <time>2011-03-03T09:04:17Z</time>
      </trkpt>
      <trkpt lat="44.46292" lon="5.22577">
        <ele>875.42</ele>
        <time>2011-03-03T09:04:25Z</time>
      </trkpt>
      <trkpt lat="44.46281" lon="5.22574">
        <ele>874.46</ele>
        <time>2011-03-03T09:04:33Z</time>
      </trkpt>
      <trkpt lat="44.4628" lon="5.22574">
        <ele>873.98</ele>
        <time>2011-03-03T09:04:34Z</time>
      </trkpt>
      <trkpt lat="44.46273" lon="5.22564">
        <ele>873.01</ele>
        <time>2011-03-03T09:04:43Z</time>
      </trkpt>
      <trkpt lat="44.4627" lon="5.22559">
        <ele>870.61</ele>
        <time>2011-03-03T09:04:51Z</time>
      </trkpt>
      <trkpt lat="44.46266" lon="5.22558">
        <ele>869.17</ele>
        <time>2011-03-03T09:04:59Z</time>
      </trkpt>
      <trkpt lat="44.46259" lon="5.22562">
        <ele>868.69</ele>
        <time>2011-03-03T09:05:03Z</time>
      </trkpt>
      <trkpt lat="44.46259" lon="5.22565">
        <ele>866.77</ele>
        <time>2011-03-03T09:05:11Z</time>
      </trkpt>
      <trkpt lat="44.46247" lon="5.22561">
        <ele>866.77</ele>
        <time>2011-03-03T09:05:30Z</time>
      </trkpt>
      <trkpt lat="44.46239" lon="5.22562">
        <ele>865.32</ele>
        <time>2011-03-03T09:05:38Z</time>
      </trkpt>
      <trkpt lat="44.46234" lon="5.22557">
        <ele>864.36</ele>
        <time>2011-03-03T09:05:44Z</time>
      </trkpt>
      <trkpt lat="44.46228" lon="5.22551">
        <ele>864.36</ele>
        <time>2011-03-03T09:05:50Z</time>
      </trkpt>
      <trkpt lat="44.46221" lon="5.22548">
        <ele>864.84</ele>
        <time>2011-03-03T09:05:58Z</time>
      </trkpt>
      <trkpt lat="44.46216" lon="5.22543">
        <ele>865.32</ele>
        <time>2011-03-03T09:06:03Z</time>
      </trkpt>
      <trkpt lat="44.46203" lon="5.22535">
        <ele>865.8</ele>
        <time>2011-03-03T09:06:13Z</time>
      </trkpt>
      <trkpt lat="44.46201" lon="5.22533">
        <ele>865.8</ele>
        <time>2011-03-03T09:06:16Z</time>
      </trkpt>
      <trkpt lat="44.46194" lon="5.22527">
        <ele>864.84</ele>
        <time>2011-03-03T09:06:25Z</time>
      </trkpt>
      <trkpt lat="44.46186" lon="5.22524">
        <ele>863.4</ele>
        <time>2011-03-03T09:06:33Z</time>
      </trkpt>
      <trkpt lat="44.4618" lon="5.22519">
        <ele>862.44</ele>
        <time>2011-03-03T09:06:49Z</time>
      </trkpt>
      <trkpt lat="44.46174" lon="5.22508">
        <ele>860.52</ele>
        <time>2011-03-03T09:06:57Z</time>
      </trkpt>
      <trkpt lat="44.46167" lon="5.22503">
        <ele>859.56</ele>
        <time>2011-03-03T09:07:05Z</time>
      </trkpt>
      <trkpt lat="44.46163" lon="5.22496">
        <ele>857.63</ele>
        <time>2011-03-03T09:07:15Z</time>
      </trkpt>
      <trkpt lat="44.46153" lon="5.22488">
        <ele>856.67</ele>
        <time>2011-03-03T09:07:24Z</time>
      </trkpt>
      <trkpt lat="44.4614" lon="5.22486">
        <ele>855.23</ele>
        <time>2011-03-03T09:07:33Z</time>
      </trkpt>
      <trkpt lat="44.46133" lon="5.22474">
        <ele>851.87</ele>
        <time>2011-03-03T09:07:44Z</time>
      </trkpt>
      <trkpt lat="44.46122" lon="5.22466">
        <ele>850.9</ele>
        <time>2011-03-03T09:07:53Z</time>
      </trkpt>
      <trkpt lat="44.46117" lon="5.22458">
        <ele>849.94</ele>
        <time>2011-03-03T09:08:00Z</time>
      </trkpt>
      <trkpt lat="44.46108" lon="5.2245">
        <ele>848.5</ele>
        <time>2011-03-03T09:08:07Z</time>
      </trkpt>
      <trkpt lat="44.46099" lon="5.22442">
        <ele>846.58</ele>
        <time>2011-03-03T09:08:16Z</time>
      </trkpt>
      <trkpt lat="44.4609" lon="5.22438">
        <ele>845.14</ele>
        <time>2011-03-03T09:08:24Z</time>
      </trkpt>
      <trkpt lat="44.46085" lon="5.22431">
        <ele>844.18</ele>
        <time>2011-03-03T09:08:32Z</time>
      </trkpt>
      <trkpt lat="44.46078" lon="5.22423">
        <ele>843.69</ele>
        <time>2011-03-03T09:08:38Z</time>
      </trkpt>
      <trkpt lat="44.46072" lon="5.2242">
        <ele>842.73</ele>
        <time>2011-03-03T09:08:45Z</time>
      </trkpt>
      <trkpt lat="44.46065" lon="5.22416">
        <ele>842.25</ele>
        <time>2011-03-03T09:08:53Z</time>
      </trkpt>
      <trkpt lat="44.46055" lon="5.22409">
        <ele>841.77</ele>
        <time>2011-03-03T09:09:01Z</time>
      </trkpt>
      <trkpt lat="44.46044" lon="5.22406">
        <ele>840.33</ele>
        <time>2011-03-03T09:09:09Z</time>
      </trkpt>
      <trkpt lat="44.46034" lon="5.224">
        <ele>839.37</ele>
        <time>2011-03-03T09:09:18Z</time>
      </trkpt>
      <trkpt lat="44.46026" lon="5.224">
        <ele>838.41</ele>
        <time>2011-03-03T09:09:26Z</time>
      </trkpt>
      <trkpt lat="44.46016" lon="5.22396">
        <ele>836.96</ele>
        <time>2011-03-03T09:09:34Z</time>
      </trkpt>
      <trkpt lat="44.46006" lon="5.22396">
        <ele>835.52</ele>
        <time>2011-03-03T09:09:42Z</time>
      </trkpt>
      <trkpt lat="44.45998" lon="5.22394">
        <ele>834.08</ele>
        <time>2011-03-03T09:09:50Z</time>
      </trkpt>
      <trkpt lat="44.45988" lon="5.22397">
        <ele>833.12</ele>
        <time>2011-03-03T09:09:58Z</time>
      </trkpt>
      <trkpt lat="44.45979" lon="5.22402">
        <ele>831.68</ele>
        <time>2011-03-03T09:10:05Z</time>
      </trkpt>
      <trkpt lat="44.45968" lon="5.22403">
        <ele>831.68</ele>
        <time>2011-03-03T09:10:13Z</time>
      </trkpt>
      <trkpt lat="44.45964" lon="5.22401">
        <ele>832.16</ele>
        <time>2011-03-03T09:10:16Z</time>
      </trkpt>
      <trkpt lat="44.45958" lon="5.22399">
        <ele>830.72</ele>
        <time>2011-03-03T09:10:23Z</time>
      </trkpt>
      <trkpt lat="44.45953" lon="5.22405">
        <ele>830.72</ele>
        <time>2011-03-03T09:10:27Z</time>
      </trkpt>
      <trkpt lat="44.45942" lon="5.22398">
        <ele>830.72</ele>
        <time>2011-03-03T09:10:35Z</time>
      </trkpt>
      <trkpt lat="44.45935" lon="5.22403">
        <ele>831.2</ele>
        <time>2011-03-03T09:10:42Z</time>
      </trkpt>
      <trkpt lat="44.45924" lon="5.22399">
        <ele>829.27</ele>
        <time>2011-03-03T09:10:52Z</time>
      </trkpt>
      <trkpt lat="44.45916" lon="5.22399">
        <ele>827.83</ele>
        <time>2011-03-03T09:11:01Z</time>
      </trkpt>
      <trkpt lat="44.45906" lon="5.22396">
        <ele>826.39</ele>
        <time>2011-03-03T09:11:08Z</time>
      </trkpt>
      <trkpt lat="44.45905" lon="5.22398">
        <ele>826.39</ele>
        <time>2011-03-03T09:11:09Z</time>
      </trkpt>
      <trkpt lat="44.45895" lon="5.224">
        <ele>825.43</ele>
        <time>2011-03-03T09:11:18Z</time>
      </trkpt>
      <trkpt lat="44.4589" lon="5.22399">
        <ele>825.91</ele>
        <time>2011-03-03T09:11:23Z</time>
      </trkpt>
      <trkpt lat="44.45882" lon="5.22402">
        <ele>825.43</ele>
        <time>2011-03-03T09:11:30Z</time>
      </trkpt>
      <trkpt lat="44.45869" lon="5.22398">
        <ele>824.47</ele>
        <time>2011-03-03T09:11:41Z</time>
      </trkpt>
      <trkpt lat="44.45863" lon="5.22393">
        <ele>824.47</ele>
        <time>2011-03-03T09:11:44Z</time>
      </trkpt>
      <trkpt lat="44.45854" lon="5.22394">
        <ele>823.51</ele>
        <time>2011-03-03T09:11:53Z</time>
      </trkpt>
      <trkpt lat="44.45845" lon="5.22395">
        <ele>822.06</ele>
        <time>2011-03-03T09:12:01Z</time>
      </trkpt>
      <trkpt lat="44.45835" lon="5.2239">
        <ele>821.58</ele>
        <time>2011-03-03T09:12:09Z</time>
      </trkpt>
      <trkpt lat="44.45834" lon="5.22389">
        <ele>821.58</ele>
        <time>2011-03-03T09:12:10Z</time>
      </trkpt>
      <trkpt lat="44.45832" lon="5.22386">
        <ele>821.58</ele>
        <time>2011-03-03T09:12:17Z</time>
      </trkpt>
      <trkpt lat="44.4583" lon="5.22384">
        <ele>821.58</ele>
        <time>2011-03-03T09:12:36Z</time>
      </trkpt>
      <trkpt lat="44.4583" lon="5.22382">
        <ele>822.06</ele>
        <time>2011-03-03T09:12:45Z</time>
      </trkpt>
      <trkpt lat="44.45827" lon="5.2238">
        <ele>822.55</ele>
        <time>2011-03-03T09:13:11Z</time>
      </trkpt>
      <trkpt lat="44.45819" lon="5.22371">
        <ele>823.03</ele>
        <time>2011-03-03T09:13:20Z</time>
      </trkpt>
      <trkpt lat="44.45814" lon="5.22365">
        <ele>823.99</ele>
        <time>2011-03-03T09:13:27Z</time>
      </trkpt>
      <trkpt lat="44.4581" lon="5.22366">
        <ele>825.43</ele>
        <time>2011-03-03T09:13:35Z</time>
      </trkpt>
      <trkpt lat="44.45801" lon="5.22364">
        <ele>826.87</ele>
        <time>2011-03-03T09:13:43Z</time>
      </trkpt>
      <trkpt lat="44.45797" lon="5.22363">
        <ele>827.35</ele>
        <time>2011-03-03T09:13:49Z</time>
      </trkpt>
      <trkpt lat="44.45791" lon="5.22363">
        <ele>827.83</ele>
        <time>2011-03-03T09:13:53Z</time>
      </trkpt>
      <trkpt lat="44.45789" lon="5.22368">
        <ele>827.83</ele>
        <time>2011-03-03T09:13:56Z</time>
      </trkpt>
      <trkpt lat="44.45779" lon="5.22368">
        <ele>827.83</ele>
        <time>2011-03-03T09:14:05Z</time>
      </trkpt>
      <trkpt lat="44.45771" lon="5.22372">
        <ele>827.35</ele>
        <time>2011-03-03T09:14:13Z</time>
      </trkpt>
      <trkpt lat="44.45768" lon="5.22373">
        <ele>826.87</ele>
        <time>2011-03-03T09:14:21Z</time>
      </trkpt>
      <trkpt lat="44.45762" lon="5.22375">
        <ele>826.87</ele>
        <time>2011-03-03T09:15:20Z</time>
      </trkpt>
      <trkpt lat="44.45752" lon="5.2238">
        <ele>826.39</ele>
        <time>2011-03-03T09:15:29Z</time>
      </trkpt>
      <trkpt lat="44.45744" lon="5.22383">
        <ele>825.43</ele>
        <time>2011-03-03T09:15:38Z</time>
      </trkpt>
      <trkpt lat="44.45739" lon="5.22389">
        <ele>824.95</ele>
        <time>2011-03-03T09:15:50Z</time>
      </trkpt>
      <trkpt lat="44.45733" lon="5.22391">
        <ele>824.47</ele>
        <time>2011-03-03T09:15:57Z</time>
      </trkpt>
      <trkpt lat="44.45727" lon="5.22396">
        <ele>823.99</ele>
        <time>2011-03-03T09:16:06Z</time>
      </trkpt>
      <trkpt lat="44.45724" lon="5.22399">
        <ele>823.99</ele>
        <time>2011-03-03T09:16:13Z</time>
      </trkpt>
      <trkpt lat="44.45724" lon="5.22399">
        <ele>820.14</ele>
        <time>2011-03-03T09:17:25Z</time>
      </trkpt>
      <trkpt lat="44.45724" lon="5.22399">
        <ele>824.47</ele>
        <time>2011-03-03T09:17:26Z</time>
      </trkpt>
      <trkpt lat="44.45724" lon="5.22399">
        <ele>821.1</ele>
        <time>2011-03-03T09:17:35Z</time>
      </trkpt>
      <trkpt lat="44.45724" lon="5.22399">
        <ele>823.99</ele>
        <time>2011-03-03T09:17:36Z</time>
      </trkpt>
      <trkpt lat="44.45715" lon="5.22402">
        <ele>824.47</ele>
        <time>2011-03-03T09:25:48Z</time>
      </trkpt>
      <trkpt lat="44.45706" lon="5.22409">
        <ele>823.99</ele>
        <time>2011-03-03T09:25:57Z</time>
      </trkpt>
      <trkpt lat="44.45695" lon="5.22413">
        <ele>823.99</ele>
        <time>2011-03-03T09:26:06Z</time>
      </trkpt>
      <trkpt lat="44.45688" lon="5.22417">
        <ele>823.99</ele>
        <time>2011-03-03T09:26:13Z</time>
      </trkpt>
      <trkpt lat="44.45679" lon="5.22413">
        <ele>823.99</ele>
        <time>2011-03-03T09:26:22Z</time>
      </trkpt>
      <trkpt lat="44.45678" lon="5.22411">
        <ele>824.47</ele>
        <time>2011-03-03T09:26:23Z</time>
      </trkpt>
      <trkpt lat="44.45674" lon="5.22414">
        <ele>824.47</ele>
        <time>2011-03-03T09:26:25Z</time>
      </trkpt>
      <trkpt lat="44.45669" lon="5.22415">
        <ele>825.43</ele>
        <time>2011-03-03T09:26:29Z</time>
      </trkpt>
      <trkpt lat="44.45667" lon="5.22414">
        <ele>826.39</ele>
        <time>2011-03-03T09:26:36Z</time>
      </trkpt>
      <trkpt lat="44.45663" lon="5.22414">
        <ele>827.35</ele>
        <time>2011-03-03T09:26:43Z</time>
      </trkpt>
      <trkpt lat="44.45657" lon="5.22406">
        <ele>827.35</ele>
        <time>2011-03-03T09:26:46Z</time>
      </trkpt>
      <trkpt lat="44.45654" lon="5.22396">
        <ele>828.31</ele>
        <time>2011-03-03T09:26:54Z</time>
      </trkpt>
      <trkpt lat="44.45651" lon="5.22388">
        <ele>828.31</ele>
        <time>2011-03-03T09:27:00Z</time>
      </trkpt>
      <trkpt lat="44.45647" lon="5.22379">
        <ele>829.27</ele>
        <time>2011-03-03T09:27:08Z</time>
      </trkpt>
      <trkpt lat="44.45644" lon="5.22371">
        <ele>829.76</ele>
        <time>2011-03-03T09:27:16Z</time>
      </trkpt>
      <trkpt lat="44.45636" lon="5.22353">
        <ele>829.27</ele>
        <time>2011-03-03T09:27:27Z</time>
      </trkpt>
      <trkpt lat="44.4563" lon="5.22339">
        <ele>829.76</ele>
        <time>2011-03-03T09:27:37Z</time>
      </trkpt>
      <trkpt lat="44.45625" lon="5.22333">
        <ele>829.76</ele>
        <time>2011-03-03T09:27:43Z</time>
      </trkpt>
      <trkpt lat="44.45614" lon="5.22327">
        <ele>831.2</ele>
        <time>2011-03-03T09:27:52Z</time>
      </trkpt>
      <trkpt lat="44.45608" lon="5.22327">
        <ele>831.68</ele>
        <time>2011-03-03T09:27:59Z</time>
      </trkpt>
      <trkpt lat="44.45608" lon="5.22329">
        <ele>832.16</ele>
        <time>2011-03-03T09:28:00Z</time>
      </trkpt>
      <trkpt lat="44.45602" lon="5.22329">
        <ele>833.12</ele>
        <time>2011-03-03T09:28:07Z</time>
      </trkpt>
      <trkpt lat="44.45596" lon="5.22337">
        <ele>834.08</ele>
        <time>2011-03-03T09:28:13Z</time>
      </trkpt>
      <trkpt lat="44.45596" lon="5.2234">
        <ele>834.08</ele>
        <time>2011-03-03T09:28:15Z</time>
      </trkpt>
      <trkpt lat="44.4559" lon="5.2234">
        <ele>834.56</ele>
        <time>2011-03-03T09:28:21Z</time>
      </trkpt>
      <trkpt lat="44.4558" lon="5.22336">
        <ele>834.56</ele>
        <time>2011-03-03T09:28:30Z</time>
      </trkpt>
      <trkpt lat="44.45577" lon="5.22333">
        <ele>833.12</ele>
        <time>2011-03-03T09:28:34Z</time>
      </trkpt>
      <trkpt lat="44.45573" lon="5.22323">
        <ele>832.64</ele>
        <time>2011-03-03T09:28:42Z</time>
      </trkpt>
      <trkpt lat="44.45564" lon="5.22313">
        <ele>832.16</ele>
        <time>2011-03-03T09:28:49Z</time>
      </trkpt>
      <trkpt lat="44.45555" lon="5.22305">
        <ele>831.2</ele>
        <time>2011-03-03T09:28:58Z</time>
      </trkpt>
      <trkpt lat="44.45551" lon="5.22299">
        <ele>830.24</ele>
        <time>2011-03-03T09:29:05Z</time>
      </trkpt>
      <trkpt lat="44.45541" lon="5.22288">
        <ele>829.76</ele>
        <time>2011-03-03T09:29:14Z</time>
      </trkpt>
      <trkpt lat="44.45533" lon="5.22281">
        <ele>829.27</ele>
        <time>2011-03-03T09:29:21Z</time>
      </trkpt>
      <trkpt lat="44.45527" lon="5.22275">
        <ele>829.27</ele>
        <time>2011-03-03T09:29:28Z</time>
      </trkpt>
      <trkpt lat="44.45517" lon="5.22265">
        <ele>829.27</ele>
        <time>2011-03-03T09:29:37Z</time>
      </trkpt>
      <trkpt lat="44.4551" lon="5.22262">
        <ele>830.24</ele>
        <time>2011-03-03T09:29:44Z</time>
      </trkpt>
      <trkpt lat="44.45506" lon="5.22258">
        <ele>829.76</ele>
        <time>2011-03-03T09:29:48Z</time>
      </trkpt>
      <trkpt lat="44.45495" lon="5.22248">
        <ele>831.2</ele>
        <time>2011-03-03T09:29:59Z</time>
      </trkpt>
      <trkpt lat="44.45489" lon="5.22236">
        <ele>831.2</ele>
        <time>2011-03-03T09:30:08Z</time>
      </trkpt>
      <trkpt lat="44.45489" lon="5.22234">
        <ele>830.72</ele>
        <time>2011-03-03T09:30:09Z</time>
      </trkpt>
      <trkpt lat="44.45481" lon="5.22223">
        <ele>830.24</ele>
        <time>2011-03-03T09:30:19Z</time>
      </trkpt>
      <trkpt lat="44.45474" lon="5.22209">
        <ele>829.27</ele>
        <time>2011-03-03T09:30:28Z</time>
      </trkpt>
      <trkpt lat="44.45463" lon="5.22198">
        <ele>828.31</ele>
        <time>2011-03-03T09:30:37Z</time>
      </trkpt>
      <trkpt lat="44.45458" lon="5.22193">
        <ele>828.31</ele>
        <time>2011-03-03T09:30:39Z</time>
      </trkpt>
      <trkpt lat="44.45452" lon="5.22195">
        <ele>827.83</ele>
        <time>2011-03-03T09:30:46Z</time>
      </trkpt>
      <trkpt lat="44.45443" lon="5.22197">
        <ele>827.35</ele>
        <time>2011-03-03T09:30:54Z</time>
      </trkpt>
      <trkpt lat="44.45431" lon="5.22193">
        <ele>825.91</ele>
        <time>2011-03-03T09:31:03Z</time>
      </trkpt>
      <trkpt lat="44.45428" lon="5.22197">
        <ele>824.95</ele>
        <time>2011-03-03T09:31:07Z</time>
      </trkpt>
      <trkpt lat="44.45421" lon="5.22198">
        <ele>824.47</ele>
        <time>2011-03-03T09:31:13Z</time>
      </trkpt>
      <trkpt lat="44.4541" lon="5.22196">
        <ele>822.55</ele>
        <time>2011-03-03T09:31:21Z</time>
      </trkpt>
      <trkpt lat="44.45407" lon="5.22195">
        <ele>822.06</ele>
        <time>2011-03-03T09:31:23Z</time>
      </trkpt>
      <trkpt lat="44.45401" lon="5.222">
        <ele>821.1</ele>
        <time>2011-03-03T09:31:30Z</time>
      </trkpt>
      <trkpt lat="44.45391" lon="5.22199">
        <ele>819.66</ele>
        <time>2011-03-03T09:31:38Z</time>
      </trkpt>
      <trkpt lat="44.45379" lon="5.22199">
        <ele>818.7</ele>
        <time>2011-03-03T09:31:47Z</time>
      </trkpt>
      <trkpt lat="44.45373" lon="5.22201">
        <ele>818.22</ele>
        <time>2011-03-03T09:31:54Z</time>
      </trkpt>
      <trkpt lat="44.45363" lon="5.22203">
        <ele>817.74</ele>
        <time>2011-03-03T09:32:04Z</time>
      </trkpt>
      <trkpt lat="44.45357" lon="5.222">
        <ele>817.74</ele>
        <time>2011-03-03T09:32:07Z</time>
      </trkpt>
      <trkpt lat="44.4535" lon="5.22202">
        <ele>817.26</ele>
        <time>2011-03-03T09:32:13Z</time>
      </trkpt>
      <trkpt lat="44.45341" lon="5.22205">
        <ele>816.3</ele>
        <time>2011-03-03T09:32:20Z</time>
      </trkpt>
      <trkpt lat="44.45329" lon="5.22202">
        <ele>815.82</ele>
        <time>2011-03-03T09:32:30Z</time>
      </trkpt>
      <trkpt lat="44.45328" lon="5.22206">
        <ele>815.34</ele>
        <time>2011-03-03T09:32:32Z</time>
      </trkpt>
      <trkpt lat="44.45326" lon="5.22204">
        <ele>815.34</ele>
        <time>2011-03-03T09:32:39Z</time>
      </trkpt>
      <trkpt lat="44.45327" lon="5.22206">
        <ele>814.85</ele>
        <time>2011-03-03T09:33:25Z</time>
      </trkpt>
      <trkpt lat="44.45322" lon="5.22211">
        <ele>814.37</ele>
        <time>2011-03-03T09:33:32Z</time>
      </trkpt>
      <trkpt lat="44.4532" lon="5.22218">
        <ele>813.89</ele>
        <time>2011-03-03T09:33:39Z</time>
      </trkpt>
      <trkpt lat="44.45321" lon="5.22233">
        <ele>812.45</ele>
        <time>2011-03-03T09:33:48Z</time>
      </trkpt>
      <trkpt lat="44.4532" lon="5.22235">
        <ele>812.45</ele>
        <time>2011-03-03T09:33:49Z</time>
      </trkpt>
      <trkpt lat="44.45314" lon="5.22242">
        <ele>810.53</ele>
        <time>2011-03-03T09:33:56Z</time>
      </trkpt>
      <trkpt lat="44.45308" lon="5.22244">
        <ele>810.05</ele>
        <time>2011-03-03T09:34:02Z</time>
      </trkpt>
      <trkpt lat="44.45306" lon="5.22243">
        <ele>808.61</ele>
        <time>2011-03-03T09:34:10Z</time>
      </trkpt>
      <trkpt lat="44.45296" lon="5.22244">
        <ele>807.16</ele>
        <time>2011-03-03T09:34:19Z</time>
      </trkpt>
      <trkpt lat="44.45288" lon="5.22245">
        <ele>805.72</ele>
        <time>2011-03-03T09:34:28Z</time>
      </trkpt>
      <trkpt lat="44.45284" lon="5.22257">
        <ele>804.28</ele>
        <time>2011-03-03T09:34:36Z</time>
      </trkpt>
      <trkpt lat="44.45282" lon="5.22257">
        <ele>804.28</ele>
        <time>2011-03-03T09:34:41Z</time>
      </trkpt>
      <trkpt lat="44.45277" lon="5.22262">
        <ele>803.32</ele>
        <time>2011-03-03T09:34:45Z</time>
      </trkpt>
      <trkpt lat="44.45276" lon="5.22263">
        <ele>802.84</ele>
        <time>2011-03-03T09:34:49Z</time>
      </trkpt>
      <trkpt lat="44.4527" lon="5.2227">
        <ele>801.4</ele>
        <time>2011-03-03T09:34:53Z</time>
      </trkpt>
      <trkpt lat="44.4527" lon="5.2228">
        <ele>800.44</ele>
        <time>2011-03-03T09:35:01Z</time>
      </trkpt>
      <trkpt lat="44.45264" lon="5.22291">
        <ele>798.03</ele>
        <time>2011-03-03T09:35:08Z</time>
      </trkpt>
      <trkpt lat="44.45263" lon="5.22301">
        <ele>796.11</ele>
        <time>2011-03-03T09:35:16Z</time>
      </trkpt>
      <trkpt lat="44.45261" lon="5.22306">
        <ele>795.15</ele>
        <time>2011-03-03T09:35:21Z</time>
      </trkpt>
      <trkpt lat="44.4526" lon="5.22308">
        <ele>794.67</ele>
        <time>2011-03-03T09:35:24Z</time>
      </trkpt>
      <trkpt lat="44.45258" lon="5.22324">
        <ele>792.74</ele>
        <time>2011-03-03T09:35:33Z</time>
      </trkpt>
      <trkpt lat="44.45253" lon="5.22325">
        <ele>791.3</ele>
        <time>2011-03-03T09:35:38Z</time>
      </trkpt>
      <trkpt lat="44.4525" lon="5.22342">
        <ele>789.38</ele>
        <time>2011-03-03T09:35:48Z</time>
      </trkpt>
      <trkpt lat="44.45247" lon="5.22353">
        <ele>786.98</ele>
        <time>2011-03-03T09:35:56Z</time>
      </trkpt>
      <trkpt lat="44.45245" lon="5.22364">
        <ele>786.02</ele>
        <time>2011-03-03T09:36:05Z</time>
      </trkpt>
      <trkpt lat="44.45242" lon="5.22375">
        <ele>784.57</ele>
        <time>2011-03-03T09:36:12Z</time>
      </trkpt>
      <trkpt lat="44.4524" lon="5.22388">
        <ele>782.65</ele>
        <time>2011-03-03T09:36:21Z</time>
      </trkpt>
      <trkpt lat="44.45239" lon="5.2239">
        <ele>782.17</ele>
        <time>2011-03-03T09:36:23Z</time>
      </trkpt>
      <trkpt lat="44.45233" lon="5.22399">
        <ele>780.25</ele>
        <time>2011-03-03T09:36:32Z</time>
      </trkpt>
      <trkpt lat="44.45231" lon="5.22412">
        <ele>777.84</ele>
        <time>2011-03-03T09:36:41Z</time>
      </trkpt>
      <trkpt lat="44.45222" lon="5.22425">
        <ele>776.4</ele>
        <time>2011-03-03T09:36:49Z</time>
      </trkpt>
      <trkpt lat="44.4522" lon="5.22437">
        <ele>775.44</ele>
        <time>2011-03-03T09:36:57Z</time>
      </trkpt>
      <trkpt lat="44.45215" lon="5.22447">
        <ele>774</ele>
        <time>2011-03-03T09:37:05Z</time>
      </trkpt>
      <trkpt lat="44.45211" lon="5.22461">
        <ele>772.08</ele>
        <time>2011-03-03T09:37:15Z</time>
      </trkpt>
      <trkpt lat="44.45207" lon="5.22476">
        <ele>771.11</ele>
        <time>2011-03-03T09:37:24Z</time>
      </trkpt>
      <trkpt lat="44.452" lon="5.22483">
        <ele>769.67</ele>
        <time>2011-03-03T09:37:30Z</time>
      </trkpt>
      <trkpt lat="44.452" lon="5.22494">
        <ele>768.71</ele>
        <time>2011-03-03T09:37:38Z</time>
      </trkpt>
      <trkpt lat="44.45197" lon="5.22501">
        <ele>766.79</ele>
        <time>2011-03-03T09:37:45Z</time>
      </trkpt>
      <trkpt lat="44.45196" lon="5.22511">
        <ele>766.31</ele>
        <time>2011-03-03T09:37:50Z</time>
      </trkpt>
      <trkpt lat="44.45193" lon="5.22514">
        <ele>765.83</ele>
        <time>2011-03-03T09:37:54Z</time>
      </trkpt>
      <trkpt lat="44.45194" lon="5.22519">
        <ele>765.35</ele>
        <time>2011-03-03T09:37:56Z</time>
      </trkpt>
      <trkpt lat="44.45189" lon="5.2253">
        <ele>763.9</ele>
        <time>2011-03-03T09:38:03Z</time>
      </trkpt>
      <trkpt lat="44.45186" lon="5.22539">
        <ele>762.94</ele>
        <time>2011-03-03T09:38:11Z</time>
      </trkpt>
      <trkpt lat="44.45184" lon="5.2255">
        <ele>761.5</ele>
        <time>2011-03-03T09:38:19Z</time>
      </trkpt>
      <trkpt lat="44.45182" lon="5.22564">
        <ele>759.58</ele>
        <time>2011-03-03T09:38:28Z</time>
      </trkpt>
      <trkpt lat="44.45181" lon="5.22578">
        <ele>757.66</ele>
        <time>2011-03-03T09:38:37Z</time>
      </trkpt>
      <trkpt lat="44.4518" lon="5.22578">
        <ele>756.69</ele>
        <time>2011-03-03T09:38:39Z</time>
      </trkpt>
      <trkpt lat="44.45175" lon="5.22594">
        <ele>755.73</ele>
        <time>2011-03-03T09:38:47Z</time>
      </trkpt>
      <trkpt lat="44.45173" lon="5.22604">
        <ele>753.81</ele>
        <time>2011-03-03T09:38:55Z</time>
      </trkpt>
      <trkpt lat="44.45177" lon="5.22611">
        <ele>752.85</ele>
        <time>2011-03-03T09:38:59Z</time>
      </trkpt>
      <trkpt lat="44.4517" lon="5.22623">
        <ele>750.45</ele>
        <time>2011-03-03T09:39:08Z</time>
      </trkpt>
      <trkpt lat="44.45168" lon="5.22635">
        <ele>749.97</ele>
        <time>2011-03-03T09:39:14Z</time>
      </trkpt>
      <trkpt lat="44.45163" lon="5.2264">
        <ele>749</ele>
        <time>2011-03-03T09:39:18Z</time>
      </trkpt>
      <trkpt lat="44.45161" lon="5.22653">
        <ele>747.56</ele>
        <time>2011-03-03T09:39:28Z</time>
      </trkpt>
      <trkpt lat="44.45164" lon="5.22667">
        <ele>746.6</ele>
        <time>2011-03-03T09:39:36Z</time>
      </trkpt>
      <trkpt lat="44.45163" lon="5.2267">
        <ele>746.12</ele>
        <time>2011-03-03T09:39:39Z</time>
      </trkpt>
      <trkpt lat="44.4516" lon="5.22687">
        <ele>745.16</ele>
        <time>2011-03-03T09:39:48Z</time>
      </trkpt>
      <trkpt lat="44.45159" lon="5.22692">
        <ele>744.68</ele>
        <time>2011-03-03T09:39:51Z</time>
      </trkpt>
      <trkpt lat="44.45163" lon="5.227">
        <ele>744.2</ele>
        <time>2011-03-03T09:39:58Z</time>
      </trkpt>
      <trkpt lat="44.45158" lon="5.22706">
        <ele>743.24</ele>
        <time>2011-03-03T09:40:01Z</time>
      </trkpt>
      <trkpt lat="44.45155" lon="5.2272">
        <ele>742.28</ele>
        <time>2011-03-03T09:40:10Z</time>
      </trkpt>
      <trkpt lat="44.45163" lon="5.22726">
        <ele>740.83</ele>
        <time>2011-03-03T09:40:17Z</time>
      </trkpt>
      <trkpt lat="44.45166" lon="5.22724">
        <ele>740.35</ele>
        <time>2011-03-03T09:40:23Z</time>
      </trkpt>
      <trkpt lat="44.4517" lon="5.22714">
        <ele>740.35</ele>
        <time>2011-03-03T09:40:30Z</time>
      </trkpt>
      <trkpt lat="44.45174" lon="5.227">
        <ele>739.87</ele>
        <time>2011-03-03T09:40:39Z</time>
      </trkpt>
      <trkpt lat="44.45176" lon="5.22698">
        <ele>739.87</ele>
        <time>2011-03-03T09:40:40Z</time>
      </trkpt>
      <trkpt lat="44.45178" lon="5.22686">
        <ele>738.91</ele>
        <time>2011-03-03T09:40:47Z</time>
      </trkpt>
      <trkpt lat="44.45184" lon="5.22678">
        <ele>738.43</ele>
        <time>2011-03-03T09:40:51Z</time>
      </trkpt>
      <trkpt lat="44.45185" lon="5.22677">
        <ele>737.95</ele>
        <time>2011-03-03T09:40:54Z</time>
      </trkpt>
      <trkpt lat="44.45189" lon="5.22666">
        <ele>737.95</ele>
        <time>2011-03-03T09:41:03Z</time>
      </trkpt>
      <trkpt lat="44.45187" lon="5.22664">
        <ele>736.99</ele>
        <time>2011-03-03T09:41:05Z</time>
      </trkpt>
      <trkpt lat="44.45195" lon="5.22653">
        <ele>736.51</ele>
        <time>2011-03-03T09:41:13Z</time>
      </trkpt>
      <trkpt lat="44.45203" lon="5.22639">
        <ele>736.51</ele>
        <time>2011-03-03T09:41:21Z</time>
      </trkpt>
      <trkpt lat="44.45213" lon="5.22631">
        <ele>735.55</ele>
        <time>2011-03-03T09:41:29Z</time>
      </trkpt>
      <trkpt lat="44.45216" lon="5.22625">
        <ele>735.07</ele>
        <time>2011-03-03T09:41:33Z</time>
      </trkpt>
      <trkpt lat="44.45224" lon="5.22623">
        <ele>734.58</ele>
        <time>2011-03-03T09:41:39Z</time>
      </trkpt>
      <trkpt lat="44.45222" lon="5.22611">
        <ele>733.62</ele>
        <time>2011-03-03T09:41:45Z</time>
      </trkpt>
      <trkpt lat="44.45231" lon="5.22599">
        <ele>732.66</ele>
        <time>2011-03-03T09:41:55Z</time>
      </trkpt>
      <trkpt lat="44.45235" lon="5.22593">
        <ele>731.7</ele>
        <time>2011-03-03T09:42:00Z</time>
      </trkpt>
      <trkpt lat="44.4524" lon="5.22583">
        <ele>730.74</ele>
        <time>2011-03-03T09:42:08Z</time>
      </trkpt>
      <trkpt lat="44.45244" lon="5.22572">
        <ele>730.26</ele>
        <time>2011-03-03T09:42:16Z</time>
      </trkpt>
      <trkpt lat="44.4525" lon="5.22561">
        <ele>729.3</ele>
        <time>2011-03-03T09:42:25Z</time>
      </trkpt>
      <trkpt lat="44.45251" lon="5.22557">
        <ele>728.82</ele>
        <time>2011-03-03T09:42:28Z</time>
      </trkpt>
      <trkpt lat="44.45255" lon="5.22556">
        <ele>728.82</ele>
        <time>2011-03-03T09:42:33Z</time>
      </trkpt>
      <trkpt lat="44.45257" lon="5.22562">
        <ele>727.37</ele>
        <time>2011-03-03T09:42:38Z</time>
      </trkpt>
      <trkpt lat="44.45252" lon="5.22577">
        <ele>725.93</ele>
        <time>2011-03-03T09:42:49Z</time>
      </trkpt>
      <trkpt lat="44.45249" lon="5.22593">
        <ele>724.01</ele>
        <time>2011-03-03T09:42:59Z</time>
      </trkpt>
      <trkpt lat="44.45249" lon="5.22594">
        <ele>724.01</ele>
        <time>2011-03-03T09:43:00Z</time>
      </trkpt>
      <trkpt lat="44.45243" lon="5.22606">
        <ele>723.05</ele>
        <time>2011-03-03T09:43:08Z</time>
      </trkpt>
      <trkpt lat="44.45243" lon="5.22614">
        <ele>723.53</ele>
        <time>2011-03-03T09:43:13Z</time>
      </trkpt>
      <trkpt lat="44.45242" lon="5.22617">
        <ele>722.57</ele>
        <time>2011-03-03T09:43:15Z</time>
      </trkpt>
      <trkpt lat="44.45236" lon="5.22627">
        <ele>722.57</ele>
        <time>2011-03-03T09:43:24Z</time>
      </trkpt>
      <trkpt lat="44.45233" lon="5.22639">
        <ele>723.05</ele>
        <time>2011-03-03T09:43:30Z</time>
      </trkpt>
      <trkpt lat="44.45228" lon="5.22654">
        <ele>722.09</ele>
        <time>2011-03-03T09:43:39Z</time>
      </trkpt>
      <trkpt lat="44.45226" lon="5.22671">
        <ele>721.61</ele>
        <time>2011-03-03T09:43:47Z</time>
      </trkpt>
      <trkpt lat="44.4522" lon="5.22677">
        <ele>720.65</ele>
        <time>2011-03-03T09:43:53Z</time>
      </trkpt>
      <trkpt lat="44.4522" lon="5.2269">
        <ele>720.65</ele>
        <time>2011-03-03T09:44:01Z</time>
      </trkpt>
      <trkpt lat="44.45216" lon="5.22701">
        <ele>720.16</ele>
        <time>2011-03-03T09:44:08Z</time>
      </trkpt>
      <trkpt lat="44.45214" lon="5.22717">
        <ele>719.2</ele>
        <time>2011-03-03T09:44:18Z</time>
      </trkpt>
      <trkpt lat="44.45209" lon="5.22725">
        <ele>719.2</ele>
        <time>2011-03-03T09:44:23Z</time>
      </trkpt>
      <trkpt lat="44.45206" lon="5.22735">
        <ele>719.2</ele>
        <time>2011-03-03T09:44:30Z</time>
      </trkpt>
      <trkpt lat="44.45202" lon="5.22741">
        <ele>718.24</ele>
        <time>2011-03-03T09:44:37Z</time>
      </trkpt>
      <trkpt lat="44.452" lon="5.22756">
        <ele>718.24</ele>
        <time>2011-03-03T09:44:45Z</time>
      </trkpt>
      <trkpt lat="44.45201" lon="5.2277">
        <ele>717.76</ele>
        <time>2011-03-03T09:44:53Z</time>
      </trkpt>
      <trkpt lat="44.45192" lon="5.22781">
        <ele>717.28</ele>
        <time>2011-03-03T09:45:02Z</time>
      </trkpt>
      <trkpt lat="44.45188" lon="5.2279">
        <ele>717.28</ele>
        <time>2011-03-03T09:45:10Z</time>
      </trkpt>
      <trkpt lat="44.45185" lon="5.22791">
        <ele>717.28</ele>
        <time>2011-03-03T09:45:12Z</time>
      </trkpt>
      <trkpt lat="44.45184" lon="5.22795">
        <ele>716.8</ele>
        <time>2011-03-03T09:45:14Z</time>
      </trkpt>
      <trkpt lat="44.4518" lon="5.22811">
        <ele>716.8</ele>
        <time>2011-03-03T09:45:23Z</time>
      </trkpt>
      <trkpt lat="44.45178" lon="5.22821">
        <ele>716.32</ele>
        <time>2011-03-03T09:45:29Z</time>
      </trkpt>
      <trkpt lat="44.45169" lon="5.22835">
        <ele>715.84</ele>
        <time>2011-03-03T09:45:40Z</time>
      </trkpt>
      <trkpt lat="44.45164" lon="5.22837">
        <ele>715.84</ele>
        <time>2011-03-03T09:45:44Z</time>
      </trkpt>
      <trkpt lat="44.4516" lon="5.22844">
        <ele>715.36</ele>
        <time>2011-03-03T09:45:48Z</time>
      </trkpt>
      <trkpt lat="44.45162" lon="5.22849">
        <ele>715.36</ele>
        <time>2011-03-03T09:45:50Z</time>
      </trkpt>
      <trkpt lat="44.45162" lon="5.22855">
        <ele>714.4</ele>
        <time>2011-03-03T09:45:54Z</time>
      </trkpt>
      <trkpt lat="44.45155" lon="5.22865">
        <ele>713.44</ele>
        <time>2011-03-03T09:46:03Z</time>
      </trkpt>
      <trkpt lat="44.45147" lon="5.22876">
        <ele>713.44</ele>
        <time>2011-03-03T09:46:12Z</time>
      </trkpt>
      <trkpt lat="44.45143" lon="5.22885">
        <ele>711.99</ele>
        <time>2011-03-03T09:46:20Z</time>
      </trkpt>
      <trkpt lat="44.45132" lon="5.22889">
        <ele>711.03</ele>
        <time>2011-03-03T09:46:30Z</time>
      </trkpt>
      <trkpt lat="44.45125" lon="5.22887">
        <ele>709.11</ele>
        <time>2011-03-03T09:46:38Z</time>
      </trkpt>
      <trkpt lat="44.45117" lon="5.22875">
        <ele>707.67</ele>
        <time>2011-03-03T09:46:47Z</time>
      </trkpt>
      <trkpt lat="44.45109" lon="5.22868">
        <ele>706.23</ele>
        <time>2011-03-03T09:46:55Z</time>
      </trkpt>
      <trkpt lat="44.45101" lon="5.22862">
        <ele>705.26</ele>
        <time>2011-03-03T09:47:03Z</time>
      </trkpt>
      <trkpt lat="44.45093" lon="5.22848">
        <ele>703.82</ele>
        <time>2011-03-03T09:47:12Z</time>
      </trkpt>
      <trkpt lat="44.45085" lon="5.2284">
        <ele>703.34</ele>
        <time>2011-03-03T09:47:20Z</time>
      </trkpt>
      <trkpt lat="44.45084" lon="5.2284">
        <ele>703.34</ele>
        <time>2011-03-03T09:47:21Z</time>
      </trkpt>
      <trkpt lat="44.45078" lon="5.2283">
        <ele>702.38</ele>
        <time>2011-03-03T09:47:29Z</time>
      </trkpt>
      <trkpt lat="44.45069" lon="5.22824">
        <ele>702.38</ele>
        <time>2011-03-03T09:47:37Z</time>
      </trkpt>
      <trkpt lat="44.45063" lon="5.22827">
        <ele>702.38</ele>
        <time>2011-03-03T09:47:44Z</time>
      </trkpt>
      <trkpt lat="44.45049" lon="5.22833">
        <ele>702.38</ele>
        <time>2011-03-03T09:47:49Z</time>
      </trkpt>
      <trkpt lat="44.45046" lon="5.22837">
        <ele>701.9</ele>
        <time>2011-03-03T09:47:55Z</time>
      </trkpt>
      <trkpt lat="44.45037" lon="5.22848">
        <ele>700.46</ele>
        <time>2011-03-03T09:48:05Z</time>
      </trkpt>
      <trkpt lat="44.45031" lon="5.22856">
        <ele>699.5</ele>
        <time>2011-03-03T09:48:14Z</time>
      </trkpt>
      <trkpt lat="44.45022" lon="5.22857">
        <ele>698.53</ele>
        <time>2011-03-03T09:48:21Z</time>
      </trkpt>
      <trkpt lat="44.45019" lon="5.22857">
        <ele>698.05</ele>
        <time>2011-03-03T09:48:24Z</time>
      </trkpt>
      <trkpt lat="44.45009" lon="5.22866">
        <ele>697.09</ele>
        <time>2011-03-03T09:48:31Z</time>
      </trkpt>
      <trkpt lat="44.45005" lon="5.22875">
        <ele>695.65</ele>
        <time>2011-03-03T09:48:39Z</time>
      </trkpt>
      <trkpt lat="44.45005" lon="5.22889">
        <ele>694.21</ele>
        <time>2011-03-03T09:48:47Z</time>
      </trkpt>
      <trkpt lat="44.45003" lon="5.22892">
        <ele>693.25</ele>
        <time>2011-03-03T09:48:50Z</time>
      </trkpt>
      <trkpt lat="44.45" lon="5.22897">
        <ele>692.77</ele>
        <time>2011-03-03T09:48:54Z</time>
      </trkpt>
      <trkpt lat="44.44993" lon="5.22904">
        <ele>691.81</ele>
        <time>2011-03-03T09:49:02Z</time>
      </trkpt>
      <trkpt lat="44.44983" lon="5.22903">
        <ele>691.33</ele>
        <time>2011-03-03T09:49:09Z</time>
      </trkpt>
      <trkpt lat="44.44977" lon="5.22911">
        <ele>689.88</ele>
        <time>2011-03-03T09:49:17Z</time>
      </trkpt>
      <trkpt lat="44.44974" lon="5.22916">
        <ele>689.4</ele>
        <time>2011-03-03T09:49:20Z</time>
      </trkpt>
      <trkpt lat="44.44967" lon="5.22926">
        <ele>687.96</ele>
        <time>2011-03-03T09:49:30Z</time>
      </trkpt>
      <trkpt lat="44.44961" lon="5.22933">
        <ele>686.52</ele>
        <time>2011-03-03T09:49:37Z</time>
      </trkpt>
      <trkpt lat="44.44954" lon="5.22935">
        <ele>686.04</ele>
        <time>2011-03-03T09:49:45Z</time>
      </trkpt>
      <trkpt lat="44.44941" lon="5.22939">
        <ele>686.04</ele>
        <time>2011-03-03T09:49:54Z</time>
      </trkpt>
      <trkpt lat="44.44937" lon="5.22941">
        <ele>685.56</ele>
        <time>2011-03-03T09:49:58Z</time>
      </trkpt>
      <trkpt lat="44.44931" lon="5.22945">
        <ele>685.56</ele>
        <time>2011-03-03T09:50:03Z</time>
      </trkpt>
      <trkpt lat="44.44919" lon="5.22951">
        <ele>685.56</ele>
        <time>2011-03-03T09:50:09Z</time>
      </trkpt>
      <trkpt lat="44.44918" lon="5.22965">
        <ele>685.08</ele>
        <time>2011-03-03T09:50:17Z</time>
      </trkpt>
      <trkpt lat="44.44917" lon="5.22974">
        <ele>685.08</ele>
        <time>2011-03-03T09:50:25Z</time>
      </trkpt>
      <trkpt lat="44.44914" lon="5.22979">
        <ele>685.08</ele>
        <time>2011-03-03T09:50:31Z</time>
      </trkpt>
      <trkpt lat="44.44913" lon="5.22985">
        <ele>684.6</ele>
        <time>2011-03-03T09:50:39Z</time>
      </trkpt>
      <trkpt lat="44.44909" lon="5.22988">
        <ele>684.6</ele>
        <time>2011-03-03T09:50:50Z</time>
      </trkpt>
      <trkpt lat="44.44902" lon="5.22997">
        <ele>684.6</ele>
        <time>2011-03-03T09:50:58Z</time>
      </trkpt>
      <trkpt lat="44.44894" lon="5.22998">
        <ele>684.12</ele>
        <time>2011-03-03T09:51:06Z</time>
      </trkpt>
      <trkpt lat="44.44888" lon="5.23004">
        <ele>684.12</ele>
        <time>2011-03-03T09:51:14Z</time>
      </trkpt>
      <trkpt lat="44.44875" lon="5.23005">
        <ele>683.15</ele>
        <time>2011-03-03T09:51:23Z</time>
      </trkpt>
      <trkpt lat="44.44873" lon="5.23003">
        <ele>683.15</ele>
        <time>2011-03-03T09:51:26Z</time>
      </trkpt>
      <trkpt lat="44.44863" lon="5.23005">
        <ele>683.15</ele>
        <time>2011-03-03T09:51:34Z</time>
      </trkpt>
      <trkpt lat="44.44852" lon="5.23004">
        <ele>683.15</ele>
        <time>2011-03-03T09:51:43Z</time>
      </trkpt>
      <trkpt lat="44.44844" lon="5.23">
        <ele>683.15</ele>
        <time>2011-03-03T09:51:50Z</time>
      </trkpt>
      <trkpt lat="44.44835" lon="5.23">
        <ele>683.63</ele>
        <time>2011-03-03T09:51:57Z</time>
      </trkpt>
      <trkpt lat="44.44828" lon="5.23001">
        <ele>684.12</ele>
        <time>2011-03-03T09:52:05Z</time>
      </trkpt>
      <trkpt lat="44.44815" lon="5.23">
        <ele>683.63</ele>
        <time>2011-03-03T09:52:13Z</time>
      </trkpt>
      <trkpt lat="44.44803" lon="5.22996">
        <ele>683.15</ele>
        <time>2011-03-03T09:52:22Z</time>
      </trkpt>
      <trkpt lat="44.448" lon="5.22996">
        <ele>683.63</ele>
        <time>2011-03-03T09:52:25Z</time>
      </trkpt>
      <trkpt lat="44.44793" lon="5.22994">
        <ele>683.63</ele>
        <time>2011-03-03T09:52:33Z</time>
      </trkpt>
      <trkpt lat="44.44787" lon="5.22993">
        <ele>684.12</ele>
        <time>2011-03-03T09:52:39Z</time>
      </trkpt>
      <trkpt lat="44.44774" lon="5.22993">
        <ele>684.12</ele>
        <time>2011-03-03T09:52:48Z</time>
      </trkpt>
      <trkpt lat="44.44763" lon="5.22995">
        <ele>684.12</ele>
        <time>2011-03-03T09:52:55Z</time>
      </trkpt>
      <trkpt lat="44.44755" lon="5.22999">
        <ele>683.63</ele>
        <time>2011-03-03T09:53:03Z</time>
      </trkpt>
      <trkpt lat="44.44744" lon="5.22997">
        <ele>683.15</ele>
        <time>2011-03-03T09:53:13Z</time>
      </trkpt>
      <trkpt lat="44.44735" lon="5.23001">
        <ele>683.15</ele>
        <time>2011-03-03T09:53:21Z</time>
      </trkpt>
      <trkpt lat="44.44728" lon="5.23">
        <ele>683.15</ele>
        <time>2011-03-03T09:53:25Z</time>
      </trkpt>
      <trkpt lat="44.44719" lon="5.23">
        <ele>683.15</ele>
        <time>2011-03-03T09:53:33Z</time>
      </trkpt>
      <trkpt lat="44.44712" lon="5.22998">
        <ele>682.19</ele>
        <time>2011-03-03T09:53:42Z</time>
      </trkpt>
      <trkpt lat="44.44702" lon="5.22993">
        <ele>681.71</ele>
        <time>2011-03-03T09:53:51Z</time>
      </trkpt>
      <trkpt lat="44.44692" lon="5.22985">
        <ele>680.27</ele>
        <time>2011-03-03T09:53:59Z</time>
      </trkpt>
      <trkpt lat="44.44685" lon="5.22976">
        <ele>679.79</ele>
        <time>2011-03-03T09:54:08Z</time>
      </trkpt>
      <trkpt lat="44.44677" lon="5.22973">
        <ele>679.31</ele>
        <time>2011-03-03T09:54:16Z</time>
      </trkpt>
      <trkpt lat="44.44668" lon="5.22968">
        <ele>679.79</ele>
        <time>2011-03-03T09:54:25Z</time>
      </trkpt>
      <trkpt lat="44.44656" lon="5.22963">
        <ele>678.83</ele>
        <time>2011-03-03T09:54:33Z</time>
      </trkpt>
      <trkpt lat="44.44648" lon="5.22958">
        <ele>679.79</ele>
        <time>2011-03-03T09:54:40Z</time>
      </trkpt>
      <trkpt lat="44.44639" lon="5.22956">
        <ele>679.79</ele>
        <time>2011-03-03T09:54:47Z</time>
      </trkpt>
      <trkpt lat="44.44631" lon="5.22954">
        <ele>680.75</ele>
        <time>2011-03-03T09:54:55Z</time>
      </trkpt>
      <trkpt lat="44.44625" lon="5.22952">
        <ele>680.75</ele>
        <time>2011-03-03T09:54:59Z</time>
      </trkpt>
      <trkpt lat="44.4462" lon="5.22947">
        <ele>680.75</ele>
        <time>2011-03-03T09:55:04Z</time>
      </trkpt>
      <trkpt lat="44.44612" lon="5.2295">
        <ele>681.71</ele>
        <time>2011-03-03T09:55:11Z</time>
      </trkpt>
      <trkpt lat="44.44611" lon="5.22948">
        <ele>682.19</ele>
        <time>2011-03-03T09:55:13Z</time>
      </trkpt>
      <trkpt lat="44.446" lon="5.22946">
        <ele>682.19</ele>
        <time>2011-03-03T09:55:22Z</time>
      </trkpt>
      <trkpt lat="44.44598" lon="5.22946">
        <ele>681.71</ele>
        <time>2011-03-03T09:55:25Z</time>
      </trkpt>
      <trkpt lat="44.44586" lon="5.22943">
        <ele>682.67</ele>
        <time>2011-03-03T09:55:34Z</time>
      </trkpt>
      <trkpt lat="44.4458" lon="5.22941">
        <ele>682.67</ele>
        <time>2011-03-03T09:55:40Z</time>
      </trkpt>
      <trkpt lat="44.44568" lon="5.22939">
        <ele>682.67</ele>
        <time>2011-03-03T09:55:50Z</time>
      </trkpt>
      <trkpt lat="44.44554" lon="5.22937">
        <ele>683.63</ele>
        <time>2011-03-03T09:55:59Z</time>
      </trkpt>
      <trkpt lat="44.44558" lon="5.22934">
        <ele>683.63</ele>
        <time>2011-03-03T09:56:01Z</time>
      </trkpt>
      <trkpt lat="44.44546" lon="5.22931">
        <ele>684.6</ele>
        <time>2011-03-03T09:56:09Z</time>
      </trkpt>
      <trkpt lat="44.44545" lon="5.22929">
        <ele>684.6</ele>
        <time>2011-03-03T09:56:10Z</time>
      </trkpt>
      <trkpt lat="44.44542" lon="5.22926">
        <ele>684.6</ele>
        <time>2011-03-03T09:56:16Z</time>
      </trkpt>
      <trkpt lat="44.44533" lon="5.22922">
        <ele>685.56</ele>
        <time>2011-03-03T09:56:24Z</time>
      </trkpt>
      <trkpt lat="44.44532" lon="5.22922">
        <ele>685.56</ele>
        <time>2011-03-03T09:56:25Z</time>
      </trkpt>
      <trkpt lat="44.44526" lon="5.22914">
        <ele>686.04</ele>
        <time>2011-03-03T09:56:32Z</time>
      </trkpt>
      <trkpt lat="44.4452" lon="5.22911">
        <ele>687.48</ele>
        <time>2011-03-03T09:56:40Z</time>
      </trkpt>
      <trkpt lat="44.44515" lon="5.22904">
        <ele>688.92</ele>
        <time>2011-03-03T09:56:47Z</time>
      </trkpt>
      <trkpt lat="44.44514" lon="5.22906">
        <ele>689.88</ele>
        <time>2011-03-03T09:56:50Z</time>
      </trkpt>
      <trkpt lat="44.44505" lon="5.22899">
        <ele>689.88</ele>
        <time>2011-03-03T09:56:59Z</time>
      </trkpt>
      <trkpt lat="44.44495" lon="5.22893">
        <ele>689.88</ele>
        <time>2011-03-03T09:57:07Z</time>
      </trkpt>
      <trkpt lat="44.44494" lon="5.22893">
        <ele>690.36</ele>
        <time>2011-03-03T09:57:09Z</time>
      </trkpt>
      <trkpt lat="44.4448" lon="5.22891">
        <ele>689.4</ele>
        <time>2011-03-03T09:57:21Z</time>
      </trkpt>
      <trkpt lat="44.44472" lon="5.22892">
        <ele>689.4</ele>
        <time>2011-03-03T09:57:28Z</time>
      </trkpt>
      <trkpt lat="44.44463" lon="5.22893">
        <ele>687.48</ele>
        <time>2011-03-03T09:57:37Z</time>
      </trkpt>
      <trkpt lat="44.44455" lon="5.22898">
        <ele>686.52</ele>
        <time>2011-03-03T09:57:44Z</time>
      </trkpt>
      <trkpt lat="44.44449" lon="5.22907">
        <ele>684.6</ele>
        <time>2011-03-03T09:57:52Z</time>
      </trkpt>
      <trkpt lat="44.44439" lon="5.22912">
        <ele>683.15</ele>
        <time>2011-03-03T09:58:01Z</time>
      </trkpt>
      <trkpt lat="44.44435" lon="5.22914">
        <ele>683.15</ele>
        <time>2011-03-03T09:58:07Z</time>
      </trkpt>
      <trkpt lat="44.44427" lon="5.22926">
        <ele>683.15</ele>
        <time>2011-03-03T09:58:14Z</time>
      </trkpt>
      <trkpt lat="44.44423" lon="5.22939">
        <ele>683.15</ele>
        <time>2011-03-03T09:58:22Z</time>
      </trkpt>
      <trkpt lat="44.4442" lon="5.22946">
        <ele>684.12</ele>
        <time>2011-03-03T09:58:30Z</time>
      </trkpt>
      <trkpt lat="44.44419" lon="5.22946">
        <ele>684.12</ele>
        <time>2011-03-03T09:58:31Z</time>
      </trkpt>
      <trkpt lat="44.44415" lon="5.22952">
        <ele>685.08</ele>
        <time>2011-03-03T09:58:33Z</time>
      </trkpt>
      <trkpt lat="44.44416" lon="5.22963">
        <ele>686.04</ele>
        <time>2011-03-03T09:58:42Z</time>
      </trkpt>
      <trkpt lat="44.44411" lon="5.22965">
        <ele>686.04</ele>
        <time>2011-03-03T09:58:45Z</time>
      </trkpt>
      <trkpt lat="44.44402" lon="5.22959">
        <ele>686.52</ele>
        <time>2011-03-03T09:58:53Z</time>
      </trkpt>
      <trkpt lat="44.44398" lon="5.22956">
        <ele>686.52</ele>
        <time>2011-03-03T09:59:00Z</time>
      </trkpt>
      <trkpt lat="44.44397" lon="5.22955">
        <ele>686.04</ele>
        <time>2011-03-03T09:59:01Z</time>
      </trkpt>
      <trkpt lat="44.44386" lon="5.2295">
        <ele>685.56</ele>
        <time>2011-03-03T09:59:11Z</time>
      </trkpt>
      <trkpt lat="44.44379" lon="5.22942">
        <ele>684.12</ele>
        <time>2011-03-03T09:59:19Z</time>
      </trkpt>
      <trkpt lat="44.4437" lon="5.2294">
        <ele>682.67</ele>
        <time>2011-03-03T09:59:27Z</time>
      </trkpt>
      <trkpt lat="44.4436" lon="5.22941">
        <ele>682.19</ele>
        <time>2011-03-03T09:59:34Z</time>
      </trkpt>
      <trkpt lat="44.44351" lon="5.22941">
        <ele>680.27</ele>
        <time>2011-03-03T09:59:43Z</time>
      </trkpt>
      <trkpt lat="44.44345" lon="5.22944">
        <ele>678.35</ele>
        <time>2011-03-03T09:59:51Z</time>
      </trkpt>
      <trkpt lat="44.44338" lon="5.22942">
        <ele>677.39</ele>
        <time>2011-03-03T09:59:57Z</time>
      </trkpt>
      <trkpt lat="44.44332" lon="5.22931">
        <ele>675.94</ele>
        <time>2011-03-03T10:00:06Z</time>
      </trkpt>
      <trkpt lat="44.4433" lon="5.22922">
        <ele>674.98</ele>
        <time>2011-03-03T10:00:15Z</time>
      </trkpt>
      <trkpt lat="44.44328" lon="5.22908">
        <ele>674.02</ele>
        <time>2011-03-03T10:00:25Z</time>
      </trkpt>
      <trkpt lat="44.44328" lon="5.22889">
        <ele>673.06</ele>
        <time>2011-03-03T10:00:33Z</time>
      </trkpt>
      <trkpt lat="44.44329" lon="5.22878">
        <ele>672.1</ele>
        <time>2011-03-03T10:00:41Z</time>
      </trkpt>
      <trkpt lat="44.44327" lon="5.22877">
        <ele>672.1</ele>
        <time>2011-03-03T10:00:42Z</time>
      </trkpt>
      <trkpt lat="44.44317" lon="5.22873">
        <ele>672.1</ele>
        <time>2011-03-03T10:00:50Z</time>
      </trkpt>
      <trkpt lat="44.44308" lon="5.22872">
        <ele>672.1</ele>
        <time>2011-03-03T10:00:59Z</time>
      </trkpt>
      <trkpt lat="44.44297" lon="5.22867">
        <ele>672.58</ele>
        <time>2011-03-03T10:01:07Z</time>
      </trkpt>
      <trkpt lat="44.44291" lon="5.22862">
        <ele>674.02</ele>
        <time>2011-03-03T10:01:15Z</time>
      </trkpt>
      <trkpt lat="44.44286" lon="5.22857">
        <ele>675.46</ele>
        <time>2011-03-03T10:01:23Z</time>
      </trkpt>
      <trkpt lat="44.4428" lon="5.22849">
        <ele>676.91</ele>
        <time>2011-03-03T10:01:30Z</time>
      </trkpt>
      <trkpt lat="44.44275" lon="5.22839">
        <ele>677.87</ele>
        <time>2011-03-03T10:01:38Z</time>
      </trkpt>
      <trkpt lat="44.44268" lon="5.22831">
        <ele>678.35</ele>
        <time>2011-03-03T10:01:47Z</time>
      </trkpt>
      <trkpt lat="44.44266" lon="5.22821">
        <ele>678.83</ele>
        <time>2011-03-03T10:01:54Z</time>
      </trkpt>
      <trkpt lat="44.44259" lon="5.22814">
        <ele>679.79</ele>
        <time>2011-03-03T10:02:01Z</time>
      </trkpt>
      <trkpt lat="44.44254" lon="5.22809">
        <ele>679.31</ele>
        <time>2011-03-03T10:02:08Z</time>
      </trkpt>
      <trkpt lat="44.44243" lon="5.22804">
        <ele>678.83</ele>
        <time>2011-03-03T10:02:17Z</time>
      </trkpt>
      <trkpt lat="44.44241" lon="5.22802">
        <ele>679.31</ele>
        <time>2011-03-03T10:02:19Z</time>
      </trkpt>
      <trkpt lat="44.44238" lon="5.228">
        <ele>678.83</ele>
        <time>2011-03-03T10:02:22Z</time>
      </trkpt>
      <trkpt lat="44.44226" lon="5.22799">
        <ele>677.87</ele>
        <time>2011-03-03T10:02:32Z</time>
      </trkpt>
      <trkpt lat="44.44215" lon="5.228">
        <ele>677.87</ele>
        <time>2011-03-03T10:02:41Z</time>
      </trkpt>
      <trkpt lat="44.44209" lon="5.22793">
        <ele>677.39</ele>
        <time>2011-03-03T10:02:49Z</time>
      </trkpt>
      <trkpt lat="44.44196" lon="5.22785">
        <ele>676.91</ele>
        <time>2011-03-03T10:02:58Z</time>
      </trkpt>
      <trkpt lat="44.44187" lon="5.22785">
        <ele>677.87</ele>
        <time>2011-03-03T10:03:05Z</time>
      </trkpt>
      <trkpt lat="44.44178" lon="5.22784">
        <ele>677.87</ele>
        <time>2011-03-03T10:03:13Z</time>
      </trkpt>
      <trkpt lat="44.44168" lon="5.22791">
        <ele>678.35</ele>
        <time>2011-03-03T10:03:22Z</time>
      </trkpt>
      <trkpt lat="44.44158" lon="5.22797">
        <ele>677.87</ele>
        <time>2011-03-03T10:03:31Z</time>
      </trkpt>
      <trkpt lat="44.44147" lon="5.22807">
        <ele>677.87</ele>
        <time>2011-03-03T10:03:40Z</time>
      </trkpt>
      <trkpt lat="44.44139" lon="5.22807">
        <ele>677.39</ele>
        <time>2011-03-03T10:03:48Z</time>
      </trkpt>
      <trkpt lat="44.44131" lon="5.22811">
        <ele>677.87</ele>
        <time>2011-03-03T10:03:57Z</time>
      </trkpt>
      <trkpt lat="44.44126" lon="5.22808">
        <ele>677.87</ele>
        <time>2011-03-03T10:04:06Z</time>
      </trkpt>
      <trkpt lat="44.44126" lon="5.22808">
        <ele>678.35</ele>
        <time>2011-03-03T10:05:05Z</time>
      </trkpt>
      <trkpt lat="44.44121" lon="5.22806">
        <ele>677.87</ele>
        <time>2011-03-03T10:05:17Z</time>
      </trkpt>
      <trkpt lat="44.44117" lon="5.22803">
        <ele>676.42</ele>
        <time>2011-03-03T10:05:32Z</time>
      </trkpt>
      <trkpt lat="44.4411" lon="5.22794">
        <ele>675.46</ele>
        <time>2011-03-03T10:05:41Z</time>
      </trkpt>
      <trkpt lat="44.44104" lon="5.22786">
        <ele>674.02</ele>
        <time>2011-03-03T10:05:50Z</time>
      </trkpt>
      <trkpt lat="44.44097" lon="5.22775">
        <ele>672.58</ele>
        <time>2011-03-03T10:05:59Z</time>
      </trkpt>
      <trkpt lat="44.4409" lon="5.22763">
        <ele>671.14</ele>
        <time>2011-03-03T10:06:07Z</time>
      </trkpt>
      <trkpt lat="44.4408" lon="5.22754">
        <ele>669.7</ele>
        <time>2011-03-03T10:06:17Z</time>
      </trkpt>
      <trkpt lat="44.44072" lon="5.22749">
        <ele>668.73</ele>
        <time>2011-03-03T10:06:25Z</time>
      </trkpt>
      <trkpt lat="44.44059" lon="5.22741">
        <ele>667.29</ele>
        <time>2011-03-03T10:06:35Z</time>
      </trkpt>
      <trkpt lat="44.4405" lon="5.22739">
        <ele>666.33</ele>
        <time>2011-03-03T10:06:43Z</time>
      </trkpt>
      <trkpt lat="44.44041" lon="5.22738">
        <ele>663.93</ele>
        <time>2011-03-03T10:06:50Z</time>
      </trkpt>
      <trkpt lat="44.44035" lon="5.22735">
        <ele>662.97</ele>
        <time>2011-03-03T10:06:58Z</time>
      </trkpt>
      <trkpt lat="44.44023" lon="5.2273">
        <ele>661.04</ele>
        <time>2011-03-03T10:07:08Z</time>
      </trkpt>
      <trkpt lat="44.44015" lon="5.22724">
        <ele>659.6</ele>
        <time>2011-03-03T10:07:16Z</time>
      </trkpt>
      <trkpt lat="44.44009" lon="5.22719">
        <ele>657.68</ele>
        <time>2011-03-03T10:07:23Z</time>
      </trkpt>
      <trkpt lat="44.44004" lon="5.22719">
        <ele>657.2</ele>
        <time>2011-03-03T10:07:27Z</time>
      </trkpt>
      <trkpt lat="44.43995" lon="5.22713">
        <ele>655.28</ele>
        <time>2011-03-03T10:07:36Z</time>
      </trkpt>
      <trkpt lat="44.43984" lon="5.22704">
        <ele>654.8</ele>
        <time>2011-03-03T10:07:44Z</time>
      </trkpt>
      <trkpt lat="44.43988" lon="5.22698">
        <ele>653.35</ele>
        <time>2011-03-03T10:07:53Z</time>
      </trkpt>
      <trkpt lat="44.43992" lon="5.22691">
        <ele>650.95</ele>
        <time>2011-03-03T10:08:01Z</time>
      </trkpt>
      <trkpt lat="44.4399" lon="5.22683">
        <ele>649.99</ele>
        <time>2011-03-03T10:08:06Z</time>
      </trkpt>
      <trkpt lat="44.4399" lon="5.22681">
        <ele>649.51</ele>
        <time>2011-03-03T10:08:08Z</time>
      </trkpt>
      <trkpt lat="44.43994" lon="5.22671">
        <ele>648.55</ele>
        <time>2011-03-03T10:08:15Z</time>
      </trkpt>
      <trkpt lat="44.43997" lon="5.22655">
        <ele>647.1</ele>
        <time>2011-03-03T10:08:25Z</time>
      </trkpt>
      <trkpt lat="44.43996" lon="5.22642">
        <ele>646.62</ele>
        <time>2011-03-03T10:08:34Z</time>
      </trkpt>
      <trkpt lat="44.43994" lon="5.22627">
        <ele>645.66</ele>
        <time>2011-03-03T10:08:43Z</time>
      </trkpt>
      <trkpt lat="44.43994" lon="5.22608">
        <ele>644.7</ele>
        <time>2011-03-03T10:08:55Z</time>
      </trkpt>
      <trkpt lat="44.43985" lon="5.22595">
        <ele>643.26</ele>
        <time>2011-03-03T10:09:03Z</time>
      </trkpt>
      <trkpt lat="44.43977" lon="5.22584">
        <ele>641.34</ele>
        <time>2011-03-03T10:09:13Z</time>
      </trkpt>
      <trkpt lat="44.43972" lon="5.22575">
        <ele>638.93</ele>
        <time>2011-03-03T10:09:21Z</time>
      </trkpt>
      <trkpt lat="44.43965" lon="5.22565">
        <ele>638.45</ele>
        <time>2011-03-03T10:09:28Z</time>
      </trkpt>
      <trkpt lat="44.43964" lon="5.22551">
        <ele>636.53</ele>
        <time>2011-03-03T10:09:39Z</time>
      </trkpt>
      <trkpt lat="44.43965" lon="5.22548">
        <ele>636.05</ele>
        <time>2011-03-03T10:09:41Z</time>
      </trkpt>
      <trkpt lat="44.43971" lon="5.22537">
        <ele>635.09</ele>
        <time>2011-03-03T10:09:50Z</time>
      </trkpt>
      <trkpt lat="44.43973" lon="5.22533">
        <ele>634.13</ele>
        <time>2011-03-03T10:09:52Z</time>
      </trkpt>
      <trkpt lat="44.43968" lon="5.22523">
        <ele>633.17</ele>
        <time>2011-03-03T10:10:00Z</time>
      </trkpt>
      <trkpt lat="44.43962" lon="5.22516">
        <ele>632.2</ele>
        <time>2011-03-03T10:10:03Z</time>
      </trkpt>
      <trkpt lat="44.43955" lon="5.22514">
        <ele>630.28</ele>
        <time>2011-03-03T10:10:11Z</time>
      </trkpt>
      <trkpt lat="44.43949" lon="5.22511">
        <ele>629.8</ele>
        <time>2011-03-03T10:10:18Z</time>
      </trkpt>
      <trkpt lat="44.43943" lon="5.22502">
        <ele>627.88</ele>
        <time>2011-03-03T10:10:25Z</time>
      </trkpt>
      <trkpt lat="44.43941" lon="5.22492">
        <ele>626.44</ele>
        <time>2011-03-03T10:10:34Z</time>
      </trkpt>
      <trkpt lat="44.43936" lon="5.2248">
        <ele>624.03</ele>
        <time>2011-03-03T10:10:45Z</time>
      </trkpt>
      <trkpt lat="44.43937" lon="5.22476">
        <ele>623.07</ele>
        <time>2011-03-03T10:10:53Z</time>
      </trkpt>
      <trkpt lat="44.43934" lon="5.22473">
        <ele>622.59</ele>
        <time>2011-03-03T10:11:01Z</time>
      </trkpt>
      <trkpt lat="44.43934" lon="5.2247">
        <ele>622.59</ele>
        <time>2011-03-03T10:11:34Z</time>
      </trkpt>
      <trkpt lat="44.43934" lon="5.2247">
        <ele>614.9</ele>
        <time>2011-03-03T10:11:54Z</time>
      </trkpt>
      <trkpt lat="44.43934" lon="5.2247">
        <ele>621.15</ele>
        <time>2011-03-03T10:11:55Z</time>
      </trkpt>
      <trkpt lat="44.43934" lon="5.2247">
        <ele>625.96</ele>
        <time>2011-03-03T10:11:57Z</time>
      </trkpt>
      <trkpt lat="44.43934" lon="5.22471">
        <ele>622.11</ele>
        <time>2011-03-03T10:11:58Z</time>
      </trkpt>
      <trkpt lat="44.43935" lon="5.22473">
        <ele>622.11</ele>
        <time>2011-03-03T10:12:13Z</time>
      </trkpt>
      <trkpt lat="44.43934" lon="5.22466">
        <ele>621.63</ele>
        <time>2011-03-03T10:13:09Z</time>
      </trkpt>
      <trkpt lat="44.43938" lon="5.22463">
        <ele>622.59</ele>
        <time>2011-03-03T10:13:16Z</time>
      </trkpt>
      <trkpt lat="44.43939" lon="5.22456">
        <ele>623.55</ele>
        <time>2011-03-03T10:13:22Z</time>
      </trkpt>
      <trkpt lat="44.43938" lon="5.22456">
        <ele>625.47</ele>
        <time>2011-03-03T10:13:29Z</time>
      </trkpt>
      <trkpt lat="44.43937" lon="5.22451">
        <ele>627.4</ele>
        <time>2011-03-03T10:13:34Z</time>
      </trkpt>
      <trkpt lat="44.43937" lon="5.22448">
        <ele>627.88</ele>
        <time>2011-03-03T10:13:40Z</time>
      </trkpt>
      <trkpt lat="44.43938" lon="5.22444">
        <ele>629.32</ele>
        <time>2011-03-03T10:13:51Z</time>
      </trkpt>
      <trkpt lat="44.43941" lon="5.22439">
        <ele>630.76</ele>
        <time>2011-03-03T10:13:57Z</time>
      </trkpt>
      <trkpt lat="44.43942" lon="5.22439">
        <ele>632.2</ele>
        <time>2011-03-03T10:14:04Z</time>
      </trkpt>
      <trkpt lat="44.43942" lon="5.22436">
        <ele>632.68</ele>
        <time>2011-03-03T10:14:06Z</time>
      </trkpt>
      <trkpt lat="44.43942" lon="5.22429">
        <ele>633.17</ele>
        <time>2011-03-03T10:14:14Z</time>
      </trkpt>
      <trkpt lat="44.43945" lon="5.22427">
        <ele>634.13</ele>
        <time>2011-03-03T10:14:19Z</time>
      </trkpt>
      <trkpt lat="44.43946" lon="5.22422">
        <ele>635.57</ele>
        <time>2011-03-03T10:14:26Z</time>
      </trkpt>
      <trkpt lat="44.43947" lon="5.22416">
        <ele>636.05</ele>
        <time>2011-03-03T10:14:32Z</time>
      </trkpt>
      <trkpt lat="44.43946" lon="5.22411">
        <ele>637.01</ele>
        <time>2011-03-03T10:14:37Z</time>
      </trkpt>
      <trkpt lat="44.43947" lon="5.22408">
        <ele>637.97</ele>
        <time>2011-03-03T10:14:43Z</time>
      </trkpt>
      <trkpt lat="44.43952" lon="5.22408">
        <ele>639.41</ele>
        <time>2011-03-03T10:14:50Z</time>
      </trkpt>
      <trkpt lat="44.43953" lon="5.22405">
        <ele>640.86</ele>
        <time>2011-03-03T10:15:00Z</time>
      </trkpt>
      <trkpt lat="44.43956" lon="5.22407">
        <ele>642.3</ele>
        <time>2011-03-03T10:15:06Z</time>
      </trkpt>
      <trkpt lat="44.43957" lon="5.22403">
        <ele>643.74</ele>
        <time>2011-03-03T10:15:15Z</time>
      </trkpt>
      <trkpt lat="44.4396" lon="5.22401">
        <ele>644.7</ele>
        <time>2011-03-03T10:15:20Z</time>
      </trkpt>
      <trkpt lat="44.43962" lon="5.22399">
        <ele>646.14</ele>
        <time>2011-03-03T10:15:26Z</time>
      </trkpt>
      <trkpt lat="44.43968" lon="5.22397">
        <ele>647.1</ele>
        <time>2011-03-03T10:15:33Z</time>
      </trkpt>
      <trkpt lat="44.43968" lon="5.22395">
        <ele>648.07</ele>
        <time>2011-03-03T10:15:39Z</time>
      </trkpt>
      <trkpt lat="44.4397" lon="5.22393">
        <ele>649.03</ele>
        <time>2011-03-03T10:15:47Z</time>
      </trkpt>
      <trkpt lat="44.43974" lon="5.22393">
        <ele>649.99</ele>
        <time>2011-03-03T10:15:56Z</time>
      </trkpt>
      <trkpt lat="44.43975" lon="5.22391">
        <ele>651.43</ele>
        <time>2011-03-03T10:16:04Z</time>
      </trkpt>
      <trkpt lat="44.43981" lon="5.22388">
        <ele>654.31</ele>
        <time>2011-03-03T10:16:21Z</time>
      </trkpt>
      <trkpt lat="44.43984" lon="5.2239">
        <ele>655.76</ele>
        <time>2011-03-03T10:16:30Z</time>
      </trkpt>
      <trkpt lat="44.43997" lon="5.22388">
        <ele>658.64</ele>
        <time>2011-03-03T10:16:49Z</time>
      </trkpt>
      <trkpt lat="44.43994" lon="5.22386">
        <ele>659.6</ele>
        <time>2011-03-03T10:16:55Z</time>
      </trkpt>
      <trkpt lat="44.44002" lon="5.22385">
        <ele>661.52</ele>
        <time>2011-03-03T10:17:09Z</time>
      </trkpt>
      <trkpt lat="44.44003" lon="5.22383">
        <ele>662.97</ele>
        <time>2011-03-03T10:17:17Z</time>
      </trkpt>
      <trkpt lat="44.44006" lon="5.22386">
        <ele>663.93</ele>
        <time>2011-03-03T10:17:22Z</time>
      </trkpt>
      <trkpt lat="44.44008" lon="5.22391">
        <ele>664.89</ele>
        <time>2011-03-03T10:17:30Z</time>
      </trkpt>
      <trkpt lat="44.44011" lon="5.22389">
        <ele>666.33</ele>
        <time>2011-03-03T10:17:35Z</time>
      </trkpt>
      <trkpt lat="44.44018" lon="5.22391">
        <ele>667.29</ele>
        <time>2011-03-03T10:17:42Z</time>
      </trkpt>
      <trkpt lat="44.44018" lon="5.2239">
        <ele>668.73</ele>
        <time>2011-03-03T10:17:49Z</time>
      </trkpt>
      <trkpt lat="44.44024" lon="5.22389">
        <ele>671.14</ele>
        <time>2011-03-03T10:18:02Z</time>
      </trkpt>
      <trkpt lat="44.44024" lon="5.22397">
        <ele>671.62</ele>
        <time>2011-03-03T10:18:08Z</time>
      </trkpt>
      <trkpt lat="44.44031" lon="5.22396">
        <ele>673.54</ele>
        <time>2011-03-03T10:18:17Z</time>
      </trkpt>
      <trkpt lat="44.44032" lon="5.22395">
        <ele>674.5</ele>
        <time>2011-03-03T10:18:25Z</time>
      </trkpt>
      <trkpt lat="44.44041" lon="5.22393">
        <ele>677.39</ele>
        <time>2011-03-03T10:18:42Z</time>
      </trkpt>
      <trkpt lat="44.44043" lon="5.22392">
        <ele>677.87</ele>
        <time>2011-03-03T10:18:48Z</time>
      </trkpt>
      <trkpt lat="44.44047" lon="5.22387">
        <ele>679.31</ele>
        <time>2011-03-03T10:18:54Z</time>
      </trkpt>
      <trkpt lat="44.44049" lon="5.22385">
        <ele>680.27</ele>
        <time>2011-03-03T10:18:59Z</time>
      </trkpt>
      <trkpt lat="44.44051" lon="5.22379">
        <ele>680.75</ele>
        <time>2011-03-03T10:19:04Z</time>
      </trkpt>
      <trkpt lat="44.44056" lon="5.22377">
        <ele>681.71</ele>
        <time>2011-03-03T10:19:10Z</time>
      </trkpt>
      <trkpt lat="44.44056" lon="5.22371">
        <ele>682.19</ele>
        <time>2011-03-03T10:19:15Z</time>
      </trkpt>
      <trkpt lat="44.44056" lon="5.22365">
        <ele>682.19</ele>
        <time>2011-03-03T10:19:20Z</time>
      </trkpt>
      <trkpt lat="44.4406" lon="5.22355">
        <ele>682.67</ele>
        <time>2011-03-03T10:19:29Z</time>
      </trkpt>
      <trkpt lat="44.44062" lon="5.22349">
        <ele>682.67</ele>
        <time>2011-03-03T10:19:34Z</time>
      </trkpt>
      <trkpt lat="44.44064" lon="5.22347">
        <ele>684.12</ele>
        <time>2011-03-03T10:19:41Z</time>
      </trkpt>
      <trkpt lat="44.44066" lon="5.22347">
        <ele>685.08</ele>
        <time>2011-03-03T10:19:47Z</time>
      </trkpt>
      <trkpt lat="44.44072" lon="5.22344">
        <ele>687</ele>
        <time>2011-03-03T10:19:56Z</time>
      </trkpt>
      <trkpt lat="44.44076" lon="5.22343">
        <ele>687.96</ele>
        <time>2011-03-03T10:20:02Z</time>
      </trkpt>
      <trkpt lat="44.44076" lon="5.22336">
        <ele>688.92</ele>
        <time>2011-03-03T10:20:08Z</time>
      </trkpt>
      <trkpt lat="44.44081" lon="5.22337">
        <ele>690.36</ele>
        <time>2011-03-03T10:20:15Z</time>
      </trkpt>
      <trkpt lat="44.44083" lon="5.22333">
        <ele>690.84</ele>
        <time>2011-03-03T10:20:20Z</time>
      </trkpt>
      <trkpt lat="44.44085" lon="5.22324">
        <ele>691.81</ele>
        <time>2011-03-03T10:20:28Z</time>
      </trkpt>
      <trkpt lat="44.44086" lon="5.22321">
        <ele>692.77</ele>
        <time>2011-03-03T10:20:31Z</time>
      </trkpt>
      <trkpt lat="44.44088" lon="5.22312">
        <ele>693.73</ele>
        <time>2011-03-03T10:20:39Z</time>
      </trkpt>
      <trkpt lat="44.4409" lon="5.22306">
        <ele>693.73</ele>
        <time>2011-03-03T10:20:45Z</time>
      </trkpt>
      <trkpt lat="44.44088" lon="5.22295">
        <ele>694.21</ele>
        <time>2011-03-03T10:20:53Z</time>
      </trkpt>
      <trkpt lat="44.44092" lon="5.22294">
        <ele>695.17</ele>
        <time>2011-03-03T10:20:57Z</time>
      </trkpt>
      <trkpt lat="44.44094" lon="5.22289">
        <ele>696.61</ele>
        <time>2011-03-03T10:21:03Z</time>
      </trkpt>
      <trkpt lat="44.44094" lon="5.22289">
        <ele>696.61</ele>
        <time>2011-03-03T10:21:04Z</time>
      </trkpt>
      <trkpt lat="44.44096" lon="5.22289">
        <ele>697.57</ele>
        <time>2011-03-03T10:21:09Z</time>
      </trkpt>
      <trkpt lat="44.441" lon="5.22287">
        <ele>698.53</ele>
        <time>2011-03-03T10:21:19Z</time>
      </trkpt>
      <trkpt lat="44.44105" lon="5.22282">
        <ele>700.46</ele>
        <time>2011-03-03T10:21:30Z</time>
      </trkpt>
      <trkpt lat="44.44105" lon="5.22275">
        <ele>701.42</ele>
        <time>2011-03-03T10:21:36Z</time>
      </trkpt>
      <trkpt lat="44.44107" lon="5.22274">
        <ele>702.86</ele>
        <time>2011-03-03T10:21:45Z</time>
      </trkpt>
      <trkpt lat="44.44109" lon="5.2227">
        <ele>704.78</ele>
        <time>2011-03-03T10:21:55Z</time>
      </trkpt>
      <trkpt lat="44.44113" lon="5.22271">
        <ele>705.75</ele>
        <time>2011-03-03T10:22:01Z</time>
      </trkpt>
      <trkpt lat="44.44111" lon="5.22267">
        <ele>706.71</ele>
        <time>2011-03-03T10:22:07Z</time>
      </trkpt>
      <trkpt lat="44.44115" lon="5.22266">
        <ele>707.67</ele>
        <time>2011-03-03T10:22:13Z</time>
      </trkpt>
      <trkpt lat="44.44117" lon="5.22264">
        <ele>709.11</ele>
        <time>2011-03-03T10:22:18Z</time>
      </trkpt>
      <trkpt lat="44.44121" lon="5.22262">
        <ele>710.07</ele>
        <time>2011-03-03T10:22:23Z</time>
      </trkpt>
      <trkpt lat="44.44124" lon="5.22254">
        <ele>711.51</ele>
        <time>2011-03-03T10:22:30Z</time>
      </trkpt>
      <trkpt lat="44.44124" lon="5.22258">
        <ele>712.95</ele>
        <time>2011-03-03T10:22:36Z</time>
      </trkpt>
      <trkpt lat="44.44125" lon="5.22254">
        <ele>714.4</ele>
        <time>2011-03-03T10:22:41Z</time>
      </trkpt>
      <trkpt lat="44.44128" lon="5.22255">
        <ele>714.88</ele>
        <time>2011-03-03T10:22:47Z</time>
      </trkpt>
      <trkpt lat="44.44127" lon="5.22252">
        <ele>715.84</ele>
        <time>2011-03-03T10:22:52Z</time>
      </trkpt>
      <trkpt lat="44.44129" lon="5.22253">
        <ele>717.28</ele>
        <time>2011-03-03T10:22:59Z</time>
      </trkpt>
      <trkpt lat="44.44135" lon="5.22249">
        <ele>719.2</ele>
        <time>2011-03-03T10:23:11Z</time>
      </trkpt>
      <trkpt lat="44.44135" lon="5.22242">
        <ele>720.16</ele>
        <time>2011-03-03T10:23:19Z</time>
      </trkpt>
      <trkpt lat="44.44139" lon="5.22239">
        <ele>722.09</ele>
        <time>2011-03-03T10:23:28Z</time>
      </trkpt>
      <trkpt lat="44.44141" lon="5.22238">
        <ele>723.05</ele>
        <time>2011-03-03T10:23:35Z</time>
      </trkpt>
      <trkpt lat="44.44141" lon="5.22238">
        <ele>724.49</ele>
        <time>2011-03-03T10:23:43Z</time>
      </trkpt>
      <trkpt lat="44.44145" lon="5.22239">
        <ele>725.45</ele>
        <time>2011-03-03T10:23:49Z</time>
      </trkpt>
      <trkpt lat="44.44146" lon="5.22237">
        <ele>726.89</ele>
        <time>2011-03-03T10:23:56Z</time>
      </trkpt>
      <trkpt lat="44.44149" lon="5.22236">
        <ele>728.82</ele>
        <time>2011-03-03T10:24:02Z</time>
      </trkpt>
      <trkpt lat="44.44152" lon="5.22233">
        <ele>729.78</ele>
        <time>2011-03-03T10:24:10Z</time>
      </trkpt>
      <trkpt lat="44.44153" lon="5.22228">
        <ele>730.74</ele>
        <time>2011-03-03T10:24:17Z</time>
      </trkpt>
      <trkpt lat="44.44154" lon="5.22223">
        <ele>732.18</ele>
        <time>2011-03-03T10:24:24Z</time>
      </trkpt>
      <trkpt lat="44.44155" lon="5.22224">
        <ele>733.14</ele>
        <time>2011-03-03T10:24:30Z</time>
      </trkpt>
      <trkpt lat="44.44157" lon="5.22218">
        <ele>734.1</ele>
        <time>2011-03-03T10:24:36Z</time>
      </trkpt>
      <trkpt lat="44.44163" lon="5.22216">
        <ele>735.07</ele>
        <time>2011-03-03T10:24:43Z</time>
      </trkpt>
      <trkpt lat="44.44164" lon="5.22212">
        <ele>736.03</ele>
        <time>2011-03-03T10:24:49Z</time>
      </trkpt>
      <trkpt lat="44.44164" lon="5.22213">
        <ele>737.95</ele>
        <time>2011-03-03T10:24:57Z</time>
      </trkpt>
      <trkpt lat="44.44168" lon="5.22213">
        <ele>739.39</ele>
        <time>2011-03-03T10:25:06Z</time>
      </trkpt>
      <trkpt lat="44.44171" lon="5.22209">
        <ele>740.35</ele>
        <time>2011-03-03T10:25:12Z</time>
      </trkpt>
      <trkpt lat="44.44172" lon="5.22203">
        <ele>740.83</ele>
        <time>2011-03-03T10:25:19Z</time>
      </trkpt>
      <trkpt lat="44.44174" lon="5.222">
        <ele>742.76</ele>
        <time>2011-03-03T10:25:29Z</time>
      </trkpt>
      <trkpt lat="44.44176" lon="5.22198">
        <ele>743.72</ele>
        <time>2011-03-03T10:25:38Z</time>
      </trkpt>
      <trkpt lat="44.44179" lon="5.22196">
        <ele>745.16</ele>
        <time>2011-03-03T10:25:45Z</time>
      </trkpt>
      <trkpt lat="44.44182" lon="5.22189">
        <ele>746.12</ele>
        <time>2011-03-03T10:25:51Z</time>
      </trkpt>
      <trkpt lat="44.44188" lon="5.22191">
        <ele>747.08</ele>
        <time>2011-03-03T10:25:58Z</time>
      </trkpt>
      <trkpt lat="44.44188" lon="5.22184">
        <ele>748.52</ele>
        <time>2011-03-03T10:26:05Z</time>
      </trkpt>
      <trkpt lat="44.4419" lon="5.22185">
        <ele>749.49</ele>
        <time>2011-03-03T10:26:10Z</time>
      </trkpt>
      <trkpt lat="44.4419" lon="5.22179">
        <ele>750.45</ele>
        <time>2011-03-03T10:26:17Z</time>
      </trkpt>
      <trkpt lat="44.44192" lon="5.22176">
        <ele>750.93</ele>
        <time>2011-03-03T10:26:22Z</time>
      </trkpt>
      <trkpt lat="44.44193" lon="5.22175">
        <ele>751.89</ele>
        <time>2011-03-03T10:26:26Z</time>
      </trkpt>
      <trkpt lat="44.44195" lon="5.22172">
        <ele>753.33</ele>
        <time>2011-03-03T10:26:34Z</time>
      </trkpt>
      <trkpt lat="44.44199" lon="5.22169">
        <ele>755.25</ele>
        <time>2011-03-03T10:26:47Z</time>
      </trkpt>
      <trkpt lat="44.44201" lon="5.22164">
        <ele>757.18</ele>
        <time>2011-03-03T10:26:56Z</time>
      </trkpt>
      <trkpt lat="44.44203" lon="5.2216">
        <ele>758.14</ele>
        <time>2011-03-03T10:27:03Z</time>
      </trkpt>
      <trkpt lat="44.44205" lon="5.22156">
        <ele>759.58</ele>
        <time>2011-03-03T10:27:10Z</time>
      </trkpt>
      <trkpt lat="44.44207" lon="5.22153">
        <ele>759.58</ele>
        <time>2011-03-03T10:27:17Z</time>
      </trkpt>
      <trkpt lat="44.44209" lon="5.2215">
        <ele>760.54</ele>
        <time>2011-03-03T10:27:23Z</time>
      </trkpt>
      <trkpt lat="44.44211" lon="5.22146">
        <ele>761.98</ele>
        <time>2011-03-03T10:27:31Z</time>
      </trkpt>
      <trkpt lat="44.44213" lon="5.22143">
        <ele>762.94</ele>
        <time>2011-03-03T10:27:39Z</time>
      </trkpt>
      <trkpt lat="44.44216" lon="5.22138">
        <ele>764.87</ele>
        <time>2011-03-03T10:27:51Z</time>
      </trkpt>
      <trkpt lat="44.44218" lon="5.22135">
        <ele>766.31</ele>
        <time>2011-03-03T10:27:58Z</time>
      </trkpt>
      <trkpt lat="44.4422" lon="5.2213">
        <ele>767.27</ele>
        <time>2011-03-03T10:28:05Z</time>
      </trkpt>
      <trkpt lat="44.44222" lon="5.22128">
        <ele>768.23</ele>
        <time>2011-03-03T10:28:12Z</time>
      </trkpt>
      <trkpt lat="44.44225" lon="5.22123">
        <ele>770.63</ele>
        <time>2011-03-03T10:28:26Z</time>
      </trkpt>
      <trkpt lat="44.44228" lon="5.22119">
        <ele>772.08</ele>
        <time>2011-03-03T10:28:35Z</time>
      </trkpt>
      <trkpt lat="44.44231" lon="5.22117">
        <ele>773.04</ele>
        <time>2011-03-03T10:28:41Z</time>
      </trkpt>
      <trkpt lat="44.44233" lon="5.22115">
        <ele>774.48</ele>
        <time>2011-03-03T10:28:49Z</time>
      </trkpt>
      <trkpt lat="44.44235" lon="5.22114">
        <ele>775.44</ele>
        <time>2011-03-03T10:28:55Z</time>
      </trkpt>
      <trkpt lat="44.44237" lon="5.2211">
        <ele>776.4</ele>
        <time>2011-03-03T10:29:02Z</time>
      </trkpt>
      <trkpt lat="44.44238" lon="5.22106">
        <ele>776.88</ele>
        <time>2011-03-03T10:29:09Z</time>
      </trkpt>
      <trkpt lat="44.4424" lon="5.22103">
        <ele>778.81</ele>
        <time>2011-03-03T10:29:19Z</time>
      </trkpt>
      <trkpt lat="44.44243" lon="5.22097">
        <ele>780.25</ele>
        <time>2011-03-03T10:29:29Z</time>
      </trkpt>
      <trkpt lat="44.44246" lon="5.22095">
        <ele>781.21</ele>
        <time>2011-03-03T10:29:35Z</time>
      </trkpt>
      <trkpt lat="44.44248" lon="5.22091">
        <ele>781.69</ele>
        <time>2011-03-03T10:29:42Z</time>
      </trkpt>
      <trkpt lat="44.44251" lon="5.22088">
        <ele>782.65</ele>
        <time>2011-03-03T10:29:47Z</time>
      </trkpt>
      <trkpt lat="44.44252" lon="5.22084">
        <ele>783.61</ele>
        <time>2011-03-03T10:29:52Z</time>
      </trkpt>
      <trkpt lat="44.44256" lon="5.22079">
        <ele>784.57</ele>
        <time>2011-03-03T10:30:00Z</time>
      </trkpt>
      <trkpt lat="44.44258" lon="5.22077">
        <ele>785.53</ele>
        <time>2011-03-03T10:30:06Z</time>
      </trkpt>
      <trkpt lat="44.4426" lon="5.22074">
        <ele>786.5</ele>
        <time>2011-03-03T10:30:15Z</time>
      </trkpt>
      <trkpt lat="44.44262" lon="5.22071">
        <ele>787.46</ele>
        <time>2011-03-03T10:30:23Z</time>
      </trkpt>
      <trkpt lat="44.44266" lon="5.22066">
        <ele>788.9</ele>
        <time>2011-03-03T10:30:32Z</time>
      </trkpt>
      <trkpt lat="44.44269" lon="5.22061">
        <ele>790.82</ele>
        <time>2011-03-03T10:30:46Z</time>
      </trkpt>
      <trkpt lat="44.44273" lon="5.22058">
        <ele>791.78</ele>
        <time>2011-03-03T10:30:54Z</time>
      </trkpt>
      <trkpt lat="44.44276" lon="5.22055">
        <ele>792.26</ele>
        <time>2011-03-03T10:31:00Z</time>
      </trkpt>
      <trkpt lat="44.44276" lon="5.22043">
        <ele>793.71</ele>
        <time>2011-03-03T10:31:05Z</time>
      </trkpt>
      <trkpt lat="44.4428" lon="5.22041">
        <ele>794.19</ele>
        <time>2011-03-03T10:31:11Z</time>
      </trkpt>
      <trkpt lat="44.44281" lon="5.22039">
        <ele>795.63</ele>
        <time>2011-03-03T10:31:17Z</time>
      </trkpt>
      <trkpt lat="44.44285" lon="5.22036">
        <ele>796.59</ele>
        <time>2011-03-03T10:31:24Z</time>
      </trkpt>
      <trkpt lat="44.44286" lon="5.22031">
        <ele>797.55</ele>
        <time>2011-03-03T10:31:32Z</time>
      </trkpt>
      <trkpt lat="44.44289" lon="5.22027">
        <ele>798.51</ele>
        <time>2011-03-03T10:31:39Z</time>
      </trkpt>
      <trkpt lat="44.44289" lon="5.22023">
        <ele>799.47</ele>
        <time>2011-03-03T10:31:44Z</time>
      </trkpt>
      <trkpt lat="44.4429" lon="5.22021">
        <ele>801.4</ele>
        <time>2011-03-03T10:31:50Z</time>
      </trkpt>
      <trkpt lat="44.44293" lon="5.22016">
        <ele>803.32</ele>
        <time>2011-03-03T10:32:00Z</time>
      </trkpt>
      <trkpt lat="44.44296" lon="5.22016">
        <ele>803.8</ele>
        <time>2011-03-03T10:32:05Z</time>
      </trkpt>
      <trkpt lat="44.443" lon="5.22009">
        <ele>804.28</ele>
        <time>2011-03-03T10:32:10Z</time>
      </trkpt>
      <trkpt lat="44.44298" lon="5.22006">
        <ele>805.24</ele>
        <time>2011-03-03T10:32:16Z</time>
      </trkpt>
      <trkpt lat="44.44298" lon="5.21997">
        <ele>805.24</ele>
        <time>2011-03-03T10:32:22Z</time>
      </trkpt>
      <trkpt lat="44.44301" lon="5.21994">
        <ele>806.2</ele>
        <time>2011-03-03T10:32:29Z</time>
      </trkpt>
      <trkpt lat="44.44307" lon="5.21991">
        <ele>806.68</ele>
        <time>2011-03-03T10:32:36Z</time>
      </trkpt>
      <trkpt lat="44.4431" lon="5.21992">
        <ele>808.13</ele>
        <time>2011-03-03T10:32:42Z</time>
      </trkpt>
      <trkpt lat="44.44311" lon="5.21988">
        <ele>808.61</ele>
        <time>2011-03-03T10:32:47Z</time>
      </trkpt>
      <trkpt lat="44.44312" lon="5.2199">
        <ele>810.05</ele>
        <time>2011-03-03T10:32:54Z</time>
      </trkpt>
      <trkpt lat="44.44315" lon="5.21987">
        <ele>811.97</ele>
        <time>2011-03-03T10:33:03Z</time>
      </trkpt>
      <trkpt lat="44.44318" lon="5.21985">
        <ele>813.41</ele>
        <time>2011-03-03T10:33:11Z</time>
      </trkpt>
      <trkpt lat="44.44324" lon="5.21982">
        <ele>814.85</ele>
        <time>2011-03-03T10:33:17Z</time>
      </trkpt>
      <trkpt lat="44.44326" lon="5.21977">
        <ele>815.82</ele>
        <time>2011-03-03T10:33:25Z</time>
      </trkpt>
      <trkpt lat="44.44329" lon="5.21974">
        <ele>816.78</ele>
        <time>2011-03-03T10:33:31Z</time>
      </trkpt>
      <trkpt lat="44.44329" lon="5.21966">
        <ele>818.7</ele>
        <time>2011-03-03T10:33:42Z</time>
      </trkpt>
      <trkpt lat="44.44336" lon="5.21964">
        <ele>820.14</ele>
        <time>2011-03-03T10:33:50Z</time>
      </trkpt>
      <trkpt lat="44.4433" lon="5.21961">
        <ele>822.06</ele>
        <time>2011-03-03T10:33:56Z</time>
      </trkpt>
      <trkpt lat="44.44335" lon="5.21954">
        <ele>823.03</ele>
        <time>2011-03-03T10:34:03Z</time>
      </trkpt>
      <trkpt lat="44.44333" lon="5.21953">
        <ele>823.99</ele>
        <time>2011-03-03T10:34:09Z</time>
      </trkpt>
      <trkpt lat="44.44335" lon="5.21942">
        <ele>824.47</ele>
        <time>2011-03-03T10:34:15Z</time>
      </trkpt>
      <trkpt lat="44.44339" lon="5.2195">
        <ele>825.43</ele>
        <time>2011-03-03T10:34:22Z</time>
      </trkpt>
      <trkpt lat="44.44337" lon="5.2195">
        <ele>826.87</ele>
        <time>2011-03-03T10:34:28Z</time>
      </trkpt>
      <trkpt lat="44.4434" lon="5.21954">
        <ele>828.31</ele>
        <time>2011-03-03T10:34:35Z</time>
      </trkpt>
      <trkpt lat="44.44345" lon="5.21957">
        <ele>829.76</ele>
        <time>2011-03-03T10:34:42Z</time>
      </trkpt>
      <trkpt lat="44.44347" lon="5.21956">
        <ele>831.2</ele>
        <time>2011-03-03T10:34:48Z</time>
      </trkpt>
      <trkpt lat="44.44348" lon="5.21954">
        <ele>832.64</ele>
        <time>2011-03-03T10:34:57Z</time>
      </trkpt>
      <trkpt lat="44.44353" lon="5.21956">
        <ele>834.56</ele>
        <time>2011-03-03T10:35:03Z</time>
      </trkpt>
      <trkpt lat="44.44353" lon="5.21958">
        <ele>835.04</ele>
        <time>2011-03-03T10:35:09Z</time>
      </trkpt>
      <trkpt lat="44.44358" lon="5.21965">
        <ele>836</ele>
        <time>2011-03-03T10:35:16Z</time>
      </trkpt>
      <trkpt lat="44.44362" lon="5.21964">
        <ele>838.41</ele>
        <time>2011-03-03T10:35:27Z</time>
      </trkpt>
      <trkpt lat="44.44369" lon="5.2196">
        <ele>840.33</ele>
        <time>2011-03-03T10:35:35Z</time>
      </trkpt>
      <trkpt lat="44.44367" lon="5.21962">
        <ele>840.81</ele>
        <time>2011-03-03T10:35:42Z</time>
      </trkpt>
      <trkpt lat="44.44374" lon="5.2196">
        <ele>842.73</ele>
        <time>2011-03-03T10:35:50Z</time>
      </trkpt>
      <trkpt lat="44.44376" lon="5.21957">
        <ele>843.69</ele>
        <time>2011-03-03T10:35:57Z</time>
      </trkpt>
      <trkpt lat="44.44381" lon="5.21959">
        <ele>846.58</ele>
        <time>2011-03-03T10:36:16Z</time>
      </trkpt>
      <trkpt lat="44.44385" lon="5.21956">
        <ele>847.54</ele>
        <time>2011-03-03T10:36:23Z</time>
      </trkpt>
      <trkpt lat="44.4439" lon="5.21952">
        <ele>848.98</ele>
        <time>2011-03-03T10:36:32Z</time>
      </trkpt>
      <trkpt lat="44.44392" lon="5.21945">
        <ele>850.42</ele>
        <time>2011-03-03T10:36:41Z</time>
      </trkpt>
      <trkpt lat="44.44396" lon="5.21945">
        <ele>851.87</ele>
        <time>2011-03-03T10:36:49Z</time>
      </trkpt>
      <trkpt lat="44.44401" lon="5.21942">
        <ele>853.31</ele>
        <time>2011-03-03T10:36:59Z</time>
      </trkpt>
      <trkpt lat="44.44402" lon="5.21938">
        <ele>854.27</ele>
        <time>2011-03-03T10:37:05Z</time>
      </trkpt>
      <trkpt lat="44.4441" lon="5.21939">
        <ele>855.23</ele>
        <time>2011-03-03T10:37:13Z</time>
      </trkpt>
      <trkpt lat="44.44411" lon="5.21937">
        <ele>855.71</ele>
        <time>2011-03-03T10:37:18Z</time>
      </trkpt>
      <trkpt lat="44.44417" lon="5.21932">
        <ele>856.19</ele>
        <time>2011-03-03T10:37:24Z</time>
      </trkpt>
      <trkpt lat="44.44411" lon="5.21928">
        <ele>856.67</ele>
        <time>2011-03-03T10:37:30Z</time>
      </trkpt>
      <trkpt lat="44.4441" lon="5.21925">
        <ele>857.63</ele>
        <time>2011-03-03T10:37:36Z</time>
      </trkpt>
      <trkpt lat="44.44403" lon="5.21922">
        <ele>858.59</ele>
        <time>2011-03-03T10:37:44Z</time>
      </trkpt>
      <trkpt lat="44.44401" lon="5.21922">
        <ele>859.08</ele>
        <time>2011-03-03T10:37:50Z</time>
      </trkpt>
      <trkpt lat="44.44397" lon="5.21921">
        <ele>859.56</ele>
        <time>2011-03-03T10:37:53Z</time>
      </trkpt>
      <trkpt lat="44.44396" lon="5.21919">
        <ele>860.04</ele>
        <time>2011-03-03T10:37:59Z</time>
      </trkpt>
      <trkpt lat="44.44393" lon="5.21919">
        <ele>860.52</ele>
        <time>2011-03-03T10:38:05Z</time>
      </trkpt>
      <trkpt lat="44.44389" lon="5.2192">
        <ele>860.52</ele>
        <time>2011-03-03T10:38:12Z</time>
      </trkpt>
      <trkpt lat="44.44385" lon="5.21917">
        <ele>861.48</ele>
        <time>2011-03-03T10:38:18Z</time>
      </trkpt>
      <trkpt lat="44.44382" lon="5.21918">
        <ele>861.48</ele>
        <time>2011-03-03T10:38:25Z</time>
      </trkpt>
      <trkpt lat="44.44382" lon="5.2192">
        <ele>861.96</ele>
        <time>2011-03-03T10:38:49Z</time>
      </trkpt>
      <trkpt lat="44.44383" lon="5.21921">
        <ele>861.96</ele>
        <time>2011-03-03T10:39:30Z</time>
      </trkpt>
      <trkpt lat="44.44382" lon="5.2192">
        <ele>861.96</ele>
        <time>2011-03-03T10:39:52Z</time>
      </trkpt>
      <trkpt lat="44.4438" lon="5.21918">
        <ele>861.48</ele>
        <time>2011-03-03T10:40:06Z</time>
      </trkpt>
      <trkpt lat="44.44378" lon="5.21916">
        <ele>861.96</ele>
        <time>2011-03-03T10:40:09Z</time>
      </trkpt>
      <trkpt lat="44.44375" lon="5.21911">
        <ele>861</ele>
        <time>2011-03-03T10:40:16Z</time>
      </trkpt>
      <trkpt lat="44.44378" lon="5.2192">
        <ele>861.48</ele>
        <time>2011-03-03T10:41:14Z</time>
      </trkpt>
      <trkpt lat="44.44383" lon="5.21918">
        <ele>861.96</ele>
        <time>2011-03-03T10:41:42Z</time>
      </trkpt>
      <trkpt lat="44.44382" lon="5.2192">
        <ele>861.96</ele>
        <time>2011-03-03T10:43:30Z</time>
      </trkpt>
      <trkpt lat="44.44381" lon="5.2192">
        <ele>861.96</ele>
        <time>2011-03-03T10:44:28Z</time>
      </trkpt>
      <trkpt lat="44.44381" lon="5.21916">
        <ele>861.48</ele>
        <time>2011-03-03T10:45:38Z</time>
      </trkpt>
      <trkpt lat="44.4438" lon="5.2192">
        <ele>861.96</ele>
        <time>2011-03-03T10:46:16Z</time>
      </trkpt>
      <trkpt lat="44.44379" lon="5.21923">
        <ele>860.52</ele>
        <time>2011-03-03T10:46:32Z</time>
      </trkpt>
      <trkpt lat="44.4438" lon="5.2192">
        <ele>861</ele>
        <time>2011-03-03T10:48:13Z</time>
      </trkpt>
      <trkpt lat="44.44382" lon="5.2192">
        <ele>861.96</ele>
        <time>2011-03-03T10:48:28Z</time>
      </trkpt>
      <trkpt lat="44.44378" lon="5.21918">
        <ele>861</ele>
        <time>2011-03-03T10:48:45Z</time>
      </trkpt>
      <trkpt lat="44.44379" lon="5.21917">
        <ele>861.48</ele>
        <time>2011-03-03T10:48:51Z</time>
      </trkpt>
      <trkpt lat="44.4438" lon="5.21919">
        <ele>861.48</ele>
        <time>2011-03-03T10:49:16Z</time>
      </trkpt>
      <trkpt lat="44.44379" lon="5.2192">
        <ele>861.48</ele>
        <time>2011-03-03T10:49:42Z</time>
      </trkpt>
      <trkpt lat="44.44379" lon="5.2192">
        <ele>861</ele>
        <time>2011-03-03T10:50:00Z</time>
      </trkpt>
      <trkpt lat="44.44379" lon="5.21917">
        <ele>861.48</ele>
        <time>2011-03-03T10:50:08Z</time>
      </trkpt>
      <trkpt lat="44.44378" lon="5.21917">
        <ele>861</ele>
        <time>2011-03-03T10:50:22Z</time>
      </trkpt>
      <trkpt lat="44.44378" lon="5.21918">
        <ele>860.04</ele>
        <time>2011-03-03T10:50:40Z</time>
      </trkpt>
      <trkpt lat="44.44379" lon="5.21918">
        <ele>867.73</ele>
        <time>2011-03-03T10:56:03Z</time>
      </trkpt>
      <trkpt lat="44.44379" lon="5.21918">
        <ele>862.92</ele>
        <time>2011-03-03T10:56:04Z</time>
      </trkpt>
      <trkpt lat="44.44379" lon="5.21918">
        <ele>856.19</ele>
        <time>2011-03-03T10:56:06Z</time>
      </trkpt>
      <trkpt lat="44.44379" lon="5.21918">
        <ele>861</ele>
        <time>2011-03-03T10:56:07Z</time>
      </trkpt>
      <trkpt lat="44.4438" lon="5.21919">
        <ele>861.48</ele>
        <time>2011-03-03T10:58:19Z</time>
      </trkpt>
      <trkpt lat="44.44385" lon="5.21926">
        <ele>861.48</ele>
        <time>2011-03-03T10:58:26Z</time>
      </trkpt>
      <trkpt lat="44.44383" lon="5.21922">
        <ele>861.48</ele>
        <time>2011-03-03T10:58:34Z</time>
      </trkpt>
      <trkpt lat="44.44379" lon="5.21924">
        <ele>861.48</ele>
        <time>2011-03-03T10:59:14Z</time>
      </trkpt>
      <trkpt lat="44.4438" lon="5.21924">
        <ele>861.48</ele>
        <time>2011-03-03T10:59:20Z</time>
      </trkpt>
      <trkpt lat="44.44378" lon="5.21923">
        <ele>861.48</ele>
        <time>2011-03-03T10:59:26Z</time>
      </trkpt>
      <trkpt lat="44.44381" lon="5.21925">
        <ele>861.48</ele>
        <time>2011-03-03T10:59:37Z</time>
      </trkpt>
      <trkpt lat="44.44384" lon="5.21924">
        <ele>861.48</ele>
        <time>2011-03-03T10:59:42Z</time>
      </trkpt>
      <trkpt lat="44.44379" lon="5.21925">
        <ele>861.96</ele>
        <time>2011-03-03T10:59:58Z</time>
      </trkpt>
      <trkpt lat="44.4438" lon="5.21923">
        <ele>862.44</ele>
        <time>2011-03-03T11:00:06Z</time>
      </trkpt>
      <trkpt lat="44.44379" lon="5.21924">
        <ele>862.44</ele>
        <time>2011-03-03T11:00:12Z</time>
      </trkpt>
      <trkpt lat="44.44379" lon="5.21923">
        <ele>861.96</ele>
        <time>2011-03-03T11:00:20Z</time>
      </trkpt>
      <trkpt lat="44.44379" lon="5.21917">
        <ele>863.4</ele>
        <time>2011-03-03T11:09:50Z</time>
      </trkpt>
      <trkpt lat="44.44379" lon="5.21917">
        <ele>863.4</ele>
        <time>2011-03-03T11:10:56Z</time>
      </trkpt>
      <trkpt lat="44.44376" lon="5.21919">
        <ele>863.88</ele>
        <time>2011-03-03T11:11:11Z</time>
      </trkpt>
      <trkpt lat="44.44378" lon="5.21918">
        <ele>863.4</ele>
        <time>2011-03-03T11:11:18Z</time>
      </trkpt>
      <trkpt lat="44.44377" lon="5.21918">
        <ele>860.04</ele>
        <time>2011-03-03T11:29:02Z</time>
      </trkpt>
      <trkpt lat="44.44379" lon="5.21918">
        <ele>860.52</ele>
        <time>2011-03-03T11:30:01Z</time>
      </trkpt>
      <trkpt lat="44.44379" lon="5.21918">
        <ele>854.75</ele>
        <time>2011-03-03T11:37:21Z</time>
      </trkpt>
      <trkpt lat="44.44379" lon="5.21918">
        <ele>858.59</ele>
        <time>2011-03-03T11:37:22Z</time>
      </trkpt>
      <trkpt lat="44.44379" lon="5.21918">
        <ele>852.83</ele>
        <time>2011-03-03T11:37:34Z</time>
      </trkpt>
      <trkpt lat="44.44379" lon="5.21918">
        <ele>863.88</ele>
        <time>2011-03-03T11:37:35Z</time>
      </trkpt>
      <trkpt lat="44.44379" lon="5.21918">
        <ele>858.59</ele>
        <time>2011-03-03T11:37:36Z</time>
      </trkpt>
      <trkpt lat="44.44379" lon="5.21918">
        <ele>850.9</ele>
        <time>2011-03-03T11:37:39Z</time>
      </trkpt>
      <trkpt lat="44.44379" lon="5.21918">
        <ele>857.63</ele>
        <time>2011-03-03T11:37:40Z</time>
      </trkpt>
      <trkpt lat="44.44379" lon="5.21918">
        <ele>861</ele>
        <time>2011-03-03T11:37:41Z</time>
      </trkpt>
      <trkpt lat="44.44379" lon="5.21918">
        <ele>858.59</ele>
        <time>2011-03-03T11:37:42Z</time>
      </trkpt>
      <trkpt lat="44.44379" lon="5.21918">
        <ele>854.75</ele>
        <time>2011-03-03T11:37:45Z</time>
      </trkpt>
      <trkpt lat="44.44379" lon="5.21918">
        <ele>858.11</ele>
        <time>2011-03-03T11:37:46Z</time>
      </trkpt>
      <trkpt lat="44.4438" lon="5.21919">
        <ele>856.67</ele>
        <time>2011-03-03T11:49:41Z</time>
      </trkpt>
      <trkpt lat="44.44379" lon="5.21922">
        <ele>857.63</ele>
        <time>2011-03-03T11:53:21Z</time>
      </trkpt>
      <trkpt lat="44.44379" lon="5.21922">
        <ele>858.11</ele>
        <time>2011-03-03T11:54:31Z</time>
      </trkpt>
      <trkpt lat="44.4438" lon="5.21922">
        <ele>858.11</ele>
        <time>2011-03-03T11:55:39Z</time>
      </trkpt>
      <trkpt lat="44.44381" lon="5.21921">
        <ele>858.11</ele>
        <time>2011-03-03T11:56:32Z</time>
      </trkpt>
      <trkpt lat="44.44381" lon="5.2192">
        <ele>858.11</ele>
        <time>2011-03-03T11:56:51Z</time>
      </trkpt>
      <trkpt lat="44.44382" lon="5.21919">
        <ele>857.63</ele>
        <time>2011-03-03T11:56:59Z</time>
      </trkpt>
      <trkpt lat="44.44385" lon="5.21923">
        <ele>858.11</ele>
        <time>2011-03-03T11:57:09Z</time>
      </trkpt>
      <trkpt lat="44.4439" lon="5.2192">
        <ele>857.63</ele>
        <time>2011-03-03T11:57:16Z</time>
      </trkpt>
      <trkpt lat="44.44395" lon="5.21925">
        <ele>857.15</ele>
        <time>2011-03-03T11:57:24Z</time>
      </trkpt>
      <trkpt lat="44.44398" lon="5.21923">
        <ele>856.19</ele>
        <time>2011-03-03T11:57:32Z</time>
      </trkpt>
      <trkpt lat="44.44404" lon="5.21925">
        <ele>855.71</ele>
        <time>2011-03-03T11:57:39Z</time>
      </trkpt>
      <trkpt lat="44.44408" lon="5.2193">
        <ele>854.75</ele>
        <time>2011-03-03T11:57:50Z</time>
      </trkpt>
      <trkpt lat="44.44412" lon="5.2193">
        <ele>853.79</ele>
        <time>2011-03-03T11:57:57Z</time>
      </trkpt>
      <trkpt lat="44.44416" lon="5.21932">
        <ele>853.31</ele>
        <time>2011-03-03T11:58:02Z</time>
      </trkpt>
      <trkpt lat="44.44422" lon="5.21935">
        <ele>853.31</ele>
        <time>2011-03-03T11:58:11Z</time>
      </trkpt>
      <trkpt lat="44.4443" lon="5.21935">
        <ele>852.83</ele>
        <time>2011-03-03T11:58:16Z</time>
      </trkpt>
      <trkpt lat="44.44432" lon="5.21937">
        <ele>852.35</ele>
        <time>2011-03-03T11:58:23Z</time>
      </trkpt>
      <trkpt lat="44.4444" lon="5.21938">
        <ele>851.38</ele>
        <time>2011-03-03T11:58:31Z</time>
      </trkpt>
      <trkpt lat="44.44443" lon="5.21936">
        <ele>850.42</ele>
        <time>2011-03-03T11:58:35Z</time>
      </trkpt>
      <trkpt lat="44.44449" lon="5.21942">
        <ele>849.94</ele>
        <time>2011-03-03T11:58:43Z</time>
      </trkpt>
      <trkpt lat="44.44461" lon="5.21944">
        <ele>848.98</ele>
        <time>2011-03-03T11:58:52Z</time>
      </trkpt>
      <trkpt lat="44.44466" lon="5.21948">
        <ele>848.02</ele>
        <time>2011-03-03T11:58:58Z</time>
      </trkpt>
      <trkpt lat="44.44476" lon="5.2195">
        <ele>848.02</ele>
        <time>2011-03-03T11:59:07Z</time>
      </trkpt>
      <trkpt lat="44.44481" lon="5.21954">
        <ele>848.98</ele>
        <time>2011-03-03T11:59:13Z</time>
      </trkpt>
      <trkpt lat="44.44483" lon="5.21962">
        <ele>849.46</ele>
        <time>2011-03-03T11:59:20Z</time>
      </trkpt>
      <trkpt lat="44.44494" lon="5.21961">
        <ele>850.9</ele>
        <time>2011-03-03T11:59:27Z</time>
      </trkpt>
      <trkpt lat="44.44492" lon="5.21968">
        <ele>851.38</ele>
        <time>2011-03-03T11:59:31Z</time>
      </trkpt>
      <trkpt lat="44.44502" lon="5.21969">
        <ele>852.83</ele>
        <time>2011-03-03T11:59:38Z</time>
      </trkpt>
      <trkpt lat="44.44505" lon="5.21972">
        <ele>853.79</ele>
        <time>2011-03-03T11:59:43Z</time>
      </trkpt>
      <trkpt lat="44.44513" lon="5.21972">
        <ele>854.75</ele>
        <time>2011-03-03T11:59:50Z</time>
      </trkpt>
      <trkpt lat="44.44515" lon="5.21977">
        <ele>855.23</ele>
        <time>2011-03-03T11:59:55Z</time>
      </trkpt>
      <trkpt lat="44.4452" lon="5.2198">
        <ele>855.71</ele>
        <time>2011-03-03T12:00:02Z</time>
      </trkpt>
      <trkpt lat="44.44529" lon="5.21981">
        <ele>856.19</ele>
        <time>2011-03-03T12:00:08Z</time>
      </trkpt>
      <trkpt lat="44.44534" lon="5.21984">
        <ele>856.19</ele>
        <time>2011-03-03T12:00:14Z</time>
      </trkpt>
      <trkpt lat="44.44542" lon="5.21983">
        <ele>857.63</ele>
        <time>2011-03-03T12:00:21Z</time>
      </trkpt>
      <trkpt lat="44.44544" lon="5.21979">
        <ele>858.11</ele>
        <time>2011-03-03T12:00:23Z</time>
      </trkpt>
      <trkpt lat="44.44549" lon="5.21984">
        <ele>858.11</ele>
        <time>2011-03-03T12:00:28Z</time>
      </trkpt>
      <trkpt lat="44.4455" lon="5.21982">
        <ele>858.59</ele>
        <time>2011-03-03T12:00:31Z</time>
      </trkpt>
      <trkpt lat="44.44555" lon="5.21975">
        <ele>859.56</ele>
        <time>2011-03-03T12:00:37Z</time>
      </trkpt>
      <trkpt lat="44.44566" lon="5.21967">
        <ele>858.59</ele>
        <time>2011-03-03T12:00:46Z</time>
      </trkpt>
      <trkpt lat="44.44574" lon="5.21957">
        <ele>857.15</ele>
        <time>2011-03-03T12:00:55Z</time>
      </trkpt>
      <trkpt lat="44.4458" lon="5.21952">
        <ele>857.63</ele>
        <time>2011-03-03T12:01:02Z</time>
      </trkpt>
      <trkpt lat="44.44585" lon="5.21946">
        <ele>858.11</ele>
        <time>2011-03-03T12:01:09Z</time>
      </trkpt>
      <trkpt lat="44.44592" lon="5.21941">
        <ele>858.11</ele>
        <time>2011-03-03T12:01:12Z</time>
      </trkpt>
      <trkpt lat="44.44591" lon="5.21936">
        <ele>858.11</ele>
        <time>2011-03-03T12:01:16Z</time>
      </trkpt>
      <trkpt lat="44.44598" lon="5.21931">
        <ele>858.59</ele>
        <time>2011-03-03T12:01:21Z</time>
      </trkpt>
      <trkpt lat="44.44603" lon="5.21922">
        <ele>859.08</ele>
        <time>2011-03-03T12:01:29Z</time>
      </trkpt>
      <trkpt lat="44.44603" lon="5.2192">
        <ele>859.56</ele>
        <time>2011-03-03T12:01:30Z</time>
      </trkpt>
      <trkpt lat="44.44608" lon="5.21913">
        <ele>860.04</ele>
        <time>2011-03-03T12:01:37Z</time>
      </trkpt>
      <trkpt lat="44.44615" lon="5.21913">
        <ele>859.56</ele>
        <time>2011-03-03T12:01:41Z</time>
      </trkpt>
      <trkpt lat="44.44624" lon="5.21916">
        <ele>859.56</ele>
        <time>2011-03-03T12:01:49Z</time>
      </trkpt>
      <trkpt lat="44.44634" lon="5.21922">
        <ele>858.59</ele>
        <time>2011-03-03T12:01:55Z</time>
      </trkpt>
      <trkpt lat="44.44639" lon="5.21923">
        <ele>858.59</ele>
        <time>2011-03-03T12:02:01Z</time>
      </trkpt>
      <trkpt lat="44.44646" lon="5.21927">
        <ele>859.08</ele>
        <time>2011-03-03T12:02:07Z</time>
      </trkpt>
      <trkpt lat="44.44649" lon="5.21934">
        <ele>858.11</ele>
        <time>2011-03-03T12:02:13Z</time>
      </trkpt>
      <trkpt lat="44.44659" lon="5.21938">
        <ele>858.11</ele>
        <time>2011-03-03T12:02:19Z</time>
      </trkpt>
      <trkpt lat="44.44662" lon="5.21943">
        <ele>858.11</ele>
        <time>2011-03-03T12:02:24Z</time>
      </trkpt>
      <trkpt lat="44.44673" lon="5.21947">
        <ele>857.63</ele>
        <time>2011-03-03T12:02:30Z</time>
      </trkpt>
      <trkpt lat="44.44675" lon="5.21956">
        <ele>858.11</ele>
        <time>2011-03-03T12:02:36Z</time>
      </trkpt>
      <trkpt lat="44.44685" lon="5.21958">
        <ele>858.11</ele>
        <time>2011-03-03T12:02:44Z</time>
      </trkpt>
      <trkpt lat="44.44688" lon="5.21962">
        <ele>858.11</ele>
        <time>2011-03-03T12:02:46Z</time>
      </trkpt>
      <trkpt lat="44.44696" lon="5.21966">
        <ele>857.15</ele>
        <time>2011-03-03T12:02:53Z</time>
      </trkpt>
      <trkpt lat="44.44699" lon="5.21975">
        <ele>857.63</ele>
        <time>2011-03-03T12:03:00Z</time>
      </trkpt>
      <trkpt lat="44.44712" lon="5.21981">
        <ele>857.63</ele>
        <time>2011-03-03T12:03:07Z</time>
      </trkpt>
      <trkpt lat="44.44714" lon="5.21981">
        <ele>857.63</ele>
        <time>2011-03-03T12:03:08Z</time>
      </trkpt>
      <trkpt lat="44.44717" lon="5.21981">
        <ele>857.15</ele>
        <time>2011-03-03T12:03:12Z</time>
      </trkpt>
      <trkpt lat="44.44728" lon="5.21988">
        <ele>858.11</ele>
        <time>2011-03-03T12:03:20Z</time>
      </trkpt>
      <trkpt lat="44.44725" lon="5.21996">
        <ele>858.11</ele>
        <time>2011-03-03T12:03:25Z</time>
      </trkpt>
      <trkpt lat="44.44732" lon="5.22005">
        <ele>857.15</ele>
        <time>2011-03-03T12:03:31Z</time>
      </trkpt>
      <trkpt lat="44.44737" lon="5.22006">
        <ele>856.19</ele>
        <time>2011-03-03T12:03:35Z</time>
      </trkpt>
      <trkpt lat="44.44748" lon="5.22006">
        <ele>856.19</ele>
        <time>2011-03-03T12:03:40Z</time>
      </trkpt>
      <trkpt lat="44.4475" lon="5.22003">
        <ele>856.67</ele>
        <time>2011-03-03T12:03:45Z</time>
      </trkpt>
      <trkpt lat="44.44757" lon="5.22">
        <ele>858.59</ele>
        <time>2011-03-03T12:03:51Z</time>
      </trkpt>
      <trkpt lat="44.44759" lon="5.22">
        <ele>858.59</ele>
        <time>2011-03-03T12:03:53Z</time>
      </trkpt>
      <trkpt lat="44.44763" lon="5.22006">
        <ele>860.52</ele>
        <time>2011-03-03T12:04:01Z</time>
      </trkpt>
      <trkpt lat="44.44771" lon="5.22011">
        <ele>861.96</ele>
        <time>2011-03-03T12:04:07Z</time>
      </trkpt>
      <trkpt lat="44.44777" lon="5.22009">
        <ele>863.4</ele>
        <time>2011-03-03T12:04:14Z</time>
      </trkpt>
      <trkpt lat="44.44786" lon="5.22012">
        <ele>863.4</ele>
        <time>2011-03-03T12:04:20Z</time>
      </trkpt>
      <trkpt lat="44.44793" lon="5.22005">
        <ele>863.88</ele>
        <time>2011-03-03T12:04:27Z</time>
      </trkpt>
      <trkpt lat="44.44798" lon="5.22001">
        <ele>864.36</ele>
        <time>2011-03-03T12:04:34Z</time>
      </trkpt>
      <trkpt lat="44.44801" lon="5.21991">
        <ele>863.4</ele>
        <time>2011-03-03T12:04:40Z</time>
      </trkpt>
      <trkpt lat="44.44813" lon="5.21984">
        <ele>862.44</ele>
        <time>2011-03-03T12:04:49Z</time>
      </trkpt>
      <trkpt lat="44.44824" lon="5.2198">
        <ele>862.92</ele>
        <time>2011-03-03T12:04:58Z</time>
      </trkpt>
      <trkpt lat="44.4483" lon="5.2197">
        <ele>863.4</ele>
        <time>2011-03-03T12:05:06Z</time>
      </trkpt>
      <trkpt lat="44.44836" lon="5.2197">
        <ele>863.4</ele>
        <time>2011-03-03T12:05:11Z</time>
      </trkpt>
      <trkpt lat="44.44847" lon="5.21962">
        <ele>863.4</ele>
        <time>2011-03-03T12:05:21Z</time>
      </trkpt>
      <trkpt lat="44.44848" lon="5.21962">
        <ele>863.4</ele>
        <time>2011-03-03T12:05:22Z</time>
      </trkpt>
      <trkpt lat="44.44849" lon="5.21945">
        <ele>861.96</ele>
        <time>2011-03-03T12:05:30Z</time>
      </trkpt>
      <trkpt lat="44.44855" lon="5.21935">
        <ele>861</ele>
        <time>2011-03-03T12:05:37Z</time>
      </trkpt>
      <trkpt lat="44.44856" lon="5.21924">
        <ele>860.52</ele>
        <time>2011-03-03T12:05:44Z</time>
      </trkpt>
      <trkpt lat="44.44857" lon="5.2192">
        <ele>860.52</ele>
        <time>2011-03-03T12:05:46Z</time>
      </trkpt>
      <trkpt lat="44.4486" lon="5.21907">
        <ele>860.04</ele>
        <time>2011-03-03T12:05:54Z</time>
      </trkpt>
      <trkpt lat="44.44867" lon="5.21891">
        <ele>860.52</ele>
        <time>2011-03-03T12:06:02Z</time>
      </trkpt>
      <trkpt lat="44.4487" lon="5.21881">
        <ele>861</ele>
        <time>2011-03-03T12:06:11Z</time>
      </trkpt>
      <trkpt lat="44.44873" lon="5.21875">
        <ele>861.48</ele>
        <time>2011-03-03T12:06:15Z</time>
      </trkpt>
      <trkpt lat="44.44883" lon="5.21872">
        <ele>862.92</ele>
        <time>2011-03-03T12:06:24Z</time>
      </trkpt>
      <trkpt lat="44.44893" lon="5.21868">
        <ele>864.84</ele>
        <time>2011-03-03T12:06:34Z</time>
      </trkpt>
      <trkpt lat="44.44897" lon="5.21866">
        <ele>865.32</ele>
        <time>2011-03-03T12:06:40Z</time>
      </trkpt>
      <trkpt lat="44.4491" lon="5.21869">
        <ele>865.8</ele>
        <time>2011-03-03T12:06:47Z</time>
      </trkpt>
      <trkpt lat="44.44916" lon="5.21869">
        <ele>866.77</ele>
        <time>2011-03-03T12:06:54Z</time>
      </trkpt>
      <trkpt lat="44.4492" lon="5.21867">
        <ele>867.25</ele>
        <time>2011-03-03T12:07:00Z</time>
      </trkpt>
      <trkpt lat="44.4493" lon="5.2187">
        <ele>867.25</ele>
        <time>2011-03-03T12:07:06Z</time>
      </trkpt>
      <trkpt lat="44.44945" lon="5.21873">
        <ele>866.77</ele>
        <time>2011-03-03T12:07:14Z</time>
      </trkpt>
      <trkpt lat="44.44949" lon="5.21875">
        <ele>866.29</ele>
        <time>2011-03-03T12:07:20Z</time>
      </trkpt>
      <trkpt lat="44.44955" lon="5.21875">
        <ele>865.8</ele>
        <time>2011-03-03T12:07:26Z</time>
      </trkpt>
      <trkpt lat="44.44961" lon="5.21877">
        <ele>864.36</ele>
        <time>2011-03-03T12:07:32Z</time>
      </trkpt>
      <trkpt lat="44.44977" lon="5.21876">
        <ele>862.44</ele>
        <time>2011-03-03T12:07:42Z</time>
      </trkpt>
      <trkpt lat="44.44985" lon="5.21877">
        <ele>861</ele>
        <time>2011-03-03T12:07:49Z</time>
      </trkpt>
      <trkpt lat="44.4499" lon="5.21881">
        <ele>860.04</ele>
        <time>2011-03-03T12:07:55Z</time>
      </trkpt>
      <trkpt lat="44.44995" lon="5.21882">
        <ele>858.59</ele>
        <time>2011-03-03T12:08:01Z</time>
      </trkpt>
      <trkpt lat="44.45" lon="5.21883">
        <ele>858.11</ele>
        <time>2011-03-03T12:08:07Z</time>
      </trkpt>
      <trkpt lat="44.45011" lon="5.21887">
        <ele>857.15</ele>
        <time>2011-03-03T12:08:14Z</time>
      </trkpt>
      <trkpt lat="44.45017" lon="5.21889">
        <ele>856.67</ele>
        <time>2011-03-03T12:08:19Z</time>
      </trkpt>
      <trkpt lat="44.45024" lon="5.2189">
        <ele>855.71</ele>
        <time>2011-03-03T12:08:25Z</time>
      </trkpt>
      <trkpt lat="44.4503" lon="5.21892">
        <ele>855.23</ele>
        <time>2011-03-03T12:08:32Z</time>
      </trkpt>
      <trkpt lat="44.4504" lon="5.21894">
        <ele>854.27</ele>
        <time>2011-03-03T12:08:39Z</time>
      </trkpt>
      <trkpt lat="44.45048" lon="5.21897">
        <ele>852.83</ele>
        <time>2011-03-03T12:08:46Z</time>
      </trkpt>
      <trkpt lat="44.45055" lon="5.21899">
        <ele>852.35</ele>
        <time>2011-03-03T12:08:52Z</time>
      </trkpt>
      <trkpt lat="44.45061" lon="5.21898">
        <ele>850.9</ele>
        <time>2011-03-03T12:08:57Z</time>
      </trkpt>
      <trkpt lat="44.45066" lon="5.21902">
        <ele>850.42</ele>
        <time>2011-03-03T12:09:04Z</time>
      </trkpt>
      <trkpt lat="44.45073" lon="5.21902">
        <ele>849.94</ele>
        <time>2011-03-03T12:09:08Z</time>
      </trkpt>
      <trkpt lat="44.45079" lon="5.21904">
        <ele>848.5</ele>
        <time>2011-03-03T12:09:15Z</time>
      </trkpt>
      <trkpt lat="44.45088" lon="5.21908">
        <ele>848.02</ele>
        <time>2011-03-03T12:09:21Z</time>
      </trkpt>
      <trkpt lat="44.45097" lon="5.21912">
        <ele>847.06</ele>
        <time>2011-03-03T12:09:27Z</time>
      </trkpt>
      <trkpt lat="44.451" lon="5.21917">
        <ele>845.62</ele>
        <time>2011-03-03T12:09:32Z</time>
      </trkpt>
      <trkpt lat="44.45116" lon="5.21917">
        <ele>843.69</ele>
        <time>2011-03-03T12:09:44Z</time>
      </trkpt>
      <trkpt lat="44.45126" lon="5.21926">
        <ele>842.25</ele>
        <time>2011-03-03T12:09:51Z</time>
      </trkpt>
      <trkpt lat="44.45128" lon="5.21926">
        <ele>841.29</ele>
        <time>2011-03-03T12:09:54Z</time>
      </trkpt>
      <trkpt lat="44.45135" lon="5.21934">
        <ele>840.81</ele>
        <time>2011-03-03T12:10:01Z</time>
      </trkpt>
      <trkpt lat="44.45143" lon="5.21936">
        <ele>839.37</ele>
        <time>2011-03-03T12:10:08Z</time>
      </trkpt>
      <trkpt lat="44.45153" lon="5.21937">
        <ele>837.45</ele>
        <time>2011-03-03T12:10:15Z</time>
      </trkpt>
      <trkpt lat="44.45156" lon="5.21938">
        <ele>836.48</ele>
        <time>2011-03-03T12:10:21Z</time>
      </trkpt>
      <trkpt lat="44.45168" lon="5.2194">
        <ele>834.56</ele>
        <time>2011-03-03T12:10:29Z</time>
      </trkpt>
      <trkpt lat="44.45172" lon="5.21945">
        <ele>833.6</ele>
        <time>2011-03-03T12:10:36Z</time>
      </trkpt>
      <trkpt lat="44.45179" lon="5.21949">
        <ele>831.68</ele>
        <time>2011-03-03T12:10:44Z</time>
      </trkpt>
      <trkpt lat="44.45189" lon="5.21955">
        <ele>830.72</ele>
        <time>2011-03-03T12:10:50Z</time>
      </trkpt>
      <trkpt lat="44.45197" lon="5.21961">
        <ele>829.27</ele>
        <time>2011-03-03T12:10:57Z</time>
      </trkpt>
      <trkpt lat="44.45198" lon="5.21966">
        <ele>827.83</ele>
        <time>2011-03-03T12:11:04Z</time>
      </trkpt>
      <trkpt lat="44.45207" lon="5.21976">
        <ele>825.91</ele>
        <time>2011-03-03T12:11:12Z</time>
      </trkpt>
      <trkpt lat="44.45214" lon="5.2198">
        <ele>824.95</ele>
        <time>2011-03-03T12:11:19Z</time>
      </trkpt>
      <trkpt lat="44.45217" lon="5.21984">
        <ele>823.51</ele>
        <time>2011-03-03T12:11:25Z</time>
      </trkpt>
      <trkpt lat="44.45219" lon="5.21985">
        <ele>823.51</ele>
        <time>2011-03-03T12:11:27Z</time>
      </trkpt>
      <trkpt lat="44.45223" lon="5.21996">
        <ele>822.06</ele>
        <time>2011-03-03T12:11:34Z</time>
      </trkpt>
      <trkpt lat="44.45226" lon="5.21997">
        <ele>821.58</ele>
        <time>2011-03-03T12:11:37Z</time>
      </trkpt>
      <trkpt lat="44.4523" lon="5.22003">
        <ele>821.58</ele>
        <time>2011-03-03T12:11:41Z</time>
      </trkpt>
      <trkpt lat="44.45233" lon="5.22004">
        <ele>821.58</ele>
        <time>2011-03-03T12:11:44Z</time>
      </trkpt>
      <trkpt lat="44.45237" lon="5.22018">
        <ele>820.62</ele>
        <time>2011-03-03T12:11:53Z</time>
      </trkpt>
      <trkpt lat="44.45241" lon="5.22023">
        <ele>821.1</ele>
        <time>2011-03-03T12:11:59Z</time>
      </trkpt>
      <trkpt lat="44.45246" lon="5.22037">
        <ele>819.66</ele>
        <time>2011-03-03T12:12:07Z</time>
      </trkpt>
      <trkpt lat="44.45249" lon="5.22042">
        <ele>820.14</ele>
        <time>2011-03-03T12:12:11Z</time>
      </trkpt>
      <trkpt lat="44.45256" lon="5.22049">
        <ele>819.66</ele>
        <time>2011-03-03T12:12:17Z</time>
      </trkpt>
      <trkpt lat="44.45268" lon="5.22063">
        <ele>818.7</ele>
        <time>2011-03-03T12:12:26Z</time>
      </trkpt>
      <trkpt lat="44.45272" lon="5.22069">
        <ele>818.7</ele>
        <time>2011-03-03T12:12:33Z</time>
      </trkpt>
      <trkpt lat="44.45278" lon="5.22082">
        <ele>818.22</ele>
        <time>2011-03-03T12:12:40Z</time>
      </trkpt>
      <trkpt lat="44.45279" lon="5.22094">
        <ele>818.22</ele>
        <time>2011-03-03T12:12:46Z</time>
      </trkpt>
      <trkpt lat="44.45286" lon="5.22105">
        <ele>817.74</ele>
        <time>2011-03-03T12:12:54Z</time>
      </trkpt>
      <trkpt lat="44.45288" lon="5.22112">
        <ele>817.74</ele>
        <time>2011-03-03T12:12:59Z</time>
      </trkpt>
      <trkpt lat="44.45293" lon="5.22122">
        <ele>817.26</ele>
        <time>2011-03-03T12:13:05Z</time>
      </trkpt>
      <trkpt lat="44.45294" lon="5.22126">
        <ele>816.78</ele>
        <time>2011-03-03T12:13:07Z</time>
      </trkpt>
      <trkpt lat="44.45296" lon="5.22131">
        <ele>816.78</ele>
        <time>2011-03-03T12:13:12Z</time>
      </trkpt>
      <trkpt lat="44.45298" lon="5.22146">
        <ele>816.3</ele>
        <time>2011-03-03T12:13:20Z</time>
      </trkpt>
      <trkpt lat="44.453" lon="5.22164">
        <ele>816.3</ele>
        <time>2011-03-03T12:13:29Z</time>
      </trkpt>
      <trkpt lat="44.45301" lon="5.22164">
        <ele>815.82</ele>
        <time>2011-03-03T12:13:31Z</time>
      </trkpt>
      <trkpt lat="44.45305" lon="5.22179">
        <ele>814.85</ele>
        <time>2011-03-03T12:13:42Z</time>
      </trkpt>
      <trkpt lat="44.4531" lon="5.22189">
        <ele>814.85</ele>
        <time>2011-03-03T12:13:51Z</time>
      </trkpt>
      <trkpt lat="44.45312" lon="5.22191">
        <ele>814.85</ele>
        <time>2011-03-03T12:14:50Z</time>
      </trkpt>
      <trkpt lat="44.45312" lon="5.22191">
        <ele>815.34</ele>
        <time>2011-03-03T12:15:33Z</time>
      </trkpt>
      <trkpt lat="44.45317" lon="5.22187">
        <ele>815.34</ele>
        <time>2011-03-03T12:16:21Z</time>
      </trkpt>
      <trkpt lat="44.4532" lon="5.22199">
        <ele>814.37</ele>
        <time>2011-03-03T12:16:27Z</time>
      </trkpt>
      <trkpt lat="44.45322" lon="5.22201">
        <ele>814.37</ele>
        <time>2011-03-03T12:16:34Z</time>
      </trkpt>
      <trkpt lat="44.45323" lon="5.222">
        <ele>814.85</ele>
        <time>2011-03-03T12:17:30Z</time>
      </trkpt>
      <trkpt lat="44.45323" lon="5.22208">
        <ele>814.85</ele>
        <time>2011-03-03T12:19:39Z</time>
      </trkpt>
      <trkpt lat="44.4532" lon="5.22217">
        <ele>813.89</ele>
        <time>2011-03-03T12:19:46Z</time>
      </trkpt>
      <trkpt lat="44.45319" lon="5.22217">
        <ele>813.89</ele>
        <time>2011-03-03T12:19:47Z</time>
      </trkpt>
      <trkpt lat="44.4532" lon="5.22225">
        <ele>812.45</ele>
        <time>2011-03-03T12:19:56Z</time>
      </trkpt>
      <trkpt lat="44.45317" lon="5.22234">
        <ele>811.49</ele>
        <time>2011-03-03T12:20:04Z</time>
      </trkpt>
      <trkpt lat="44.45316" lon="5.22238">
        <ele>810.53</ele>
        <time>2011-03-03T12:20:08Z</time>
      </trkpt>
      <trkpt lat="44.45311" lon="5.22239">
        <ele>809.57</ele>
        <time>2011-03-03T12:20:13Z</time>
      </trkpt>
      <trkpt lat="44.45304" lon="5.2224">
        <ele>808.61</ele>
        <time>2011-03-03T12:20:21Z</time>
      </trkpt>
      <trkpt lat="44.45299" lon="5.22242">
        <ele>807.64</ele>
        <time>2011-03-03T12:20:24Z</time>
      </trkpt>
      <trkpt lat="44.45292" lon="5.22244">
        <ele>806.2</ele>
        <time>2011-03-03T12:20:32Z</time>
      </trkpt>
      <trkpt lat="44.45285" lon="5.2225">
        <ele>805.72</ele>
        <time>2011-03-03T12:20:40Z</time>
      </trkpt>
      <trkpt lat="44.45276" lon="5.22259">
        <ele>804.28</ele>
        <time>2011-03-03T12:20:48Z</time>
      </trkpt>
      <trkpt lat="44.45273" lon="5.22263">
        <ele>802.36</ele>
        <time>2011-03-03T12:20:53Z</time>
      </trkpt>
      <trkpt lat="44.4527" lon="5.22267">
        <ele>802.36</ele>
        <time>2011-03-03T12:20:57Z</time>
      </trkpt>
      <trkpt lat="44.45269" lon="5.22279">
        <ele>800.44</ele>
        <time>2011-03-03T12:21:05Z</time>
      </trkpt>
      <trkpt lat="44.45266" lon="5.22284">
        <ele>799.95</ele>
        <time>2011-03-03T12:21:09Z</time>
      </trkpt>
      <trkpt lat="44.45268" lon="5.22285">
        <ele>799.47</ele>
        <time>2011-03-03T12:21:11Z</time>
      </trkpt>
      <trkpt lat="44.45265" lon="5.22296">
        <ele>798.03</ele>
        <time>2011-03-03T12:21:17Z</time>
      </trkpt>
      <trkpt lat="44.45267" lon="5.22295">
        <ele>796.59</ele>
        <time>2011-03-03T12:21:23Z</time>
      </trkpt>
      <trkpt lat="44.45264" lon="5.22304">
        <ele>795.63</ele>
        <time>2011-03-03T12:21:29Z</time>
      </trkpt>
      <trkpt lat="44.45258" lon="5.22312">
        <ele>794.19</ele>
        <time>2011-03-03T12:21:34Z</time>
      </trkpt>
      <trkpt lat="44.45254" lon="5.22321">
        <ele>792.74</ele>
        <time>2011-03-03T12:21:39Z</time>
      </trkpt>
      <trkpt lat="44.45257" lon="5.22328">
        <ele>791.3</ele>
        <time>2011-03-03T12:21:46Z</time>
      </trkpt>
      <trkpt lat="44.4525" lon="5.22335">
        <ele>790.34</ele>
        <time>2011-03-03T12:21:53Z</time>
      </trkpt>
      <trkpt lat="44.45249" lon="5.22336">
        <ele>789.86</ele>
        <time>2011-03-03T12:21:54Z</time>
      </trkpt>
      <trkpt lat="44.45246" lon="5.22343">
        <ele>788.9</ele>
        <time>2011-03-03T12:21:58Z</time>
      </trkpt>
      <trkpt lat="44.45248" lon="5.22354">
        <ele>787.46</ele>
        <time>2011-03-03T12:22:05Z</time>
      </trkpt>
      <trkpt lat="44.45245" lon="5.22364">
        <ele>786.02</ele>
        <time>2011-03-03T12:22:13Z</time>
      </trkpt>
      <trkpt lat="44.45244" lon="5.22377">
        <ele>784.57</ele>
        <time>2011-03-03T12:22:20Z</time>
      </trkpt>
      <trkpt lat="44.45237" lon="5.22385">
        <ele>783.61</ele>
        <time>2011-03-03T12:22:27Z</time>
      </trkpt>
      <trkpt lat="44.45238" lon="5.22386">
        <ele>783.13</ele>
        <time>2011-03-03T12:22:29Z</time>
      </trkpt>
      <trkpt lat="44.45233" lon="5.22393">
        <ele>782.65</ele>
        <time>2011-03-03T12:22:33Z</time>
      </trkpt>
      <trkpt lat="44.45233" lon="5.22396">
        <ele>782.17</ele>
        <time>2011-03-03T12:22:36Z</time>
      </trkpt>
      <trkpt lat="44.45236" lon="5.22402">
        <ele>781.21</ele>
        <time>2011-03-03T12:22:40Z</time>
      </trkpt>
      <trkpt lat="44.45227" lon="5.22408">
        <ele>780.25</ele>
        <time>2011-03-03T12:22:46Z</time>
      </trkpt>
      <trkpt lat="44.45227" lon="5.22417">
        <ele>778.32</ele>
        <time>2011-03-03T12:22:53Z</time>
      </trkpt>
      <trkpt lat="44.45224" lon="5.22418">
        <ele>778.32</ele>
        <time>2011-03-03T12:22:55Z</time>
      </trkpt>
      <trkpt lat="44.45222" lon="5.2243">
        <ele>776.4</ele>
        <time>2011-03-03T12:23:04Z</time>
      </trkpt>
      <trkpt lat="44.45215" lon="5.22435">
        <ele>775.44</ele>
        <time>2011-03-03T12:23:09Z</time>
      </trkpt>
      <trkpt lat="44.45216" lon="5.22444">
        <ele>774.48</ele>
        <time>2011-03-03T12:23:15Z</time>
      </trkpt>
      <trkpt lat="44.45212" lon="5.22454">
        <ele>773.04</ele>
        <time>2011-03-03T12:23:21Z</time>
      </trkpt>
      <trkpt lat="44.45213" lon="5.22461">
        <ele>772.08</ele>
        <time>2011-03-03T12:23:27Z</time>
      </trkpt>
      <trkpt lat="44.45209" lon="5.2247">
        <ele>771.11</ele>
        <time>2011-03-03T12:23:34Z</time>
      </trkpt>
      <trkpt lat="44.45207" lon="5.22473">
        <ele>770.63</ele>
        <time>2011-03-03T12:23:36Z</time>
      </trkpt>
      <trkpt lat="44.45202" lon="5.22475">
        <ele>770.15</ele>
        <time>2011-03-03T12:23:39Z</time>
      </trkpt>
      <trkpt lat="44.45202" lon="5.22491">
        <ele>769.19</ele>
        <time>2011-03-03T12:23:46Z</time>
      </trkpt>
      <trkpt lat="44.45196" lon="5.22492">
        <ele>768.23</ele>
        <time>2011-03-03T12:23:51Z</time>
      </trkpt>
      <trkpt lat="44.45197" lon="5.22509">
        <ele>767.27</ele>
        <time>2011-03-03T12:23:57Z</time>
      </trkpt>
      <trkpt lat="44.45195" lon="5.22514">
        <ele>765.83</ele>
        <time>2011-03-03T12:24:03Z</time>
      </trkpt>
      <trkpt lat="44.45188" lon="5.22521">
        <ele>765.35</ele>
        <time>2011-03-03T12:24:10Z</time>
      </trkpt>
      <trkpt lat="44.45186" lon="5.22533">
        <ele>764.39</ele>
        <time>2011-03-03T12:24:16Z</time>
      </trkpt>
      <trkpt lat="44.45185" lon="5.2254">
        <ele>763.42</ele>
        <time>2011-03-03T12:24:21Z</time>
      </trkpt>
      <trkpt lat="44.45185" lon="5.22554">
        <ele>761.98</ele>
        <time>2011-03-03T12:24:28Z</time>
      </trkpt>
      <trkpt lat="44.45185" lon="5.22554">
        <ele>761.02</ele>
        <time>2011-03-03T12:24:31Z</time>
      </trkpt>
      <trkpt lat="44.45183" lon="5.22564">
        <ele>760.06</ele>
        <time>2011-03-03T12:24:37Z</time>
      </trkpt>
      <trkpt lat="44.45179" lon="5.22571">
        <ele>759.1</ele>
        <time>2011-03-03T12:24:43Z</time>
      </trkpt>
      <trkpt lat="44.45177" lon="5.22581">
        <ele>756.69</ele>
        <time>2011-03-03T12:24:52Z</time>
      </trkpt>
      <trkpt lat="44.45178" lon="5.22599">
        <ele>755.25</ele>
        <time>2011-03-03T12:25:00Z</time>
      </trkpt>
      <trkpt lat="44.45176" lon="5.22598">
        <ele>754.77</ele>
        <time>2011-03-03T12:25:02Z</time>
      </trkpt>
      <trkpt lat="44.45177" lon="5.22609">
        <ele>753.33</ele>
        <time>2011-03-03T12:25:09Z</time>
      </trkpt>
      <trkpt lat="44.45175" lon="5.22612">
        <ele>752.85</ele>
        <time>2011-03-03T12:25:12Z</time>
      </trkpt>
      <trkpt lat="44.45168" lon="5.22616">
        <ele>752.37</ele>
        <time>2011-03-03T12:25:15Z</time>
      </trkpt>
      <trkpt lat="44.45167" lon="5.22618">
        <ele>751.89</ele>
        <time>2011-03-03T12:25:17Z</time>
      </trkpt>
      <trkpt lat="44.45169" lon="5.22623">
        <ele>751.41</ele>
        <time>2011-03-03T12:25:19Z</time>
      </trkpt>
      <trkpt lat="44.45164" lon="5.2263">
        <ele>750.93</ele>
        <time>2011-03-03T12:25:24Z</time>
      </trkpt>
      <trkpt lat="44.45164" lon="5.22637">
        <ele>749.97</ele>
        <time>2011-03-03T12:25:27Z</time>
      </trkpt>
      <trkpt lat="44.45166" lon="5.22646">
        <ele>749.49</ele>
        <time>2011-03-03T12:25:32Z</time>
      </trkpt>
      <trkpt lat="44.4516" lon="5.22658">
        <ele>748.04</ele>
        <time>2011-03-03T12:25:40Z</time>
      </trkpt>
      <trkpt lat="44.45158" lon="5.2267">
        <ele>746.6</ele>
        <time>2011-03-03T12:25:49Z</time>
      </trkpt>
      <trkpt lat="44.45157" lon="5.22678">
        <ele>745.64</ele>
        <time>2011-03-03T12:25:55Z</time>
      </trkpt>
      <trkpt lat="44.45161" lon="5.22693">
        <ele>745.16</ele>
        <time>2011-03-03T12:26:02Z</time>
      </trkpt>
      <trkpt lat="44.4516" lon="5.22697">
        <ele>744.68</ele>
        <time>2011-03-03T12:26:05Z</time>
      </trkpt>
      <trkpt lat="44.45156" lon="5.22708">
        <ele>743.72</ele>
        <time>2011-03-03T12:26:11Z</time>
      </trkpt>
      <trkpt lat="44.45157" lon="5.2272">
        <ele>743.24</ele>
        <time>2011-03-03T12:26:18Z</time>
      </trkpt>
      <trkpt lat="44.45151" lon="5.22725">
        <ele>742.28</ele>
        <time>2011-03-03T12:26:22Z</time>
      </trkpt>
      <trkpt lat="44.45157" lon="5.22725">
        <ele>741.31</ele>
        <time>2011-03-03T12:26:25Z</time>
      </trkpt>
      <trkpt lat="44.45169" lon="5.22716">
        <ele>740.83</ele>
        <time>2011-03-03T12:26:33Z</time>
      </trkpt>
      <trkpt lat="44.45167" lon="5.22714">
        <ele>740.83</ele>
        <time>2011-03-03T12:26:36Z</time>
      </trkpt>
      <trkpt lat="44.45173" lon="5.22701">
        <ele>740.83</ele>
        <time>2011-03-03T12:26:43Z</time>
      </trkpt>
      <trkpt lat="44.45175" lon="5.22693">
        <ele>740.83</ele>
        <time>2011-03-03T12:26:49Z</time>
      </trkpt>
      <trkpt lat="44.45177" lon="5.22682">
        <ele>739.39</ele>
        <time>2011-03-03T12:26:56Z</time>
      </trkpt>
      <trkpt lat="44.45179" lon="5.22679">
        <ele>739.39</ele>
        <time>2011-03-03T12:26:58Z</time>
      </trkpt>
      <trkpt lat="44.45184" lon="5.22672">
        <ele>738.91</ele>
        <time>2011-03-03T12:27:04Z</time>
      </trkpt>
      <trkpt lat="44.45185" lon="5.22666">
        <ele>738.91</ele>
        <time>2011-03-03T12:27:08Z</time>
      </trkpt>
      <trkpt lat="44.45188" lon="5.22663">
        <ele>738.43</ele>
        <time>2011-03-03T12:27:11Z</time>
      </trkpt>
      <trkpt lat="44.45193" lon="5.2265">
        <ele>737.95</ele>
        <time>2011-03-03T12:27:19Z</time>
      </trkpt>
      <trkpt lat="44.45195" lon="5.22647">
        <ele>737.47</ele>
        <time>2011-03-03T12:27:21Z</time>
      </trkpt>
      <trkpt lat="44.45205" lon="5.22638">
        <ele>736.51</ele>
        <time>2011-03-03T12:27:29Z</time>
      </trkpt>
      <trkpt lat="44.4521" lon="5.22629">
        <ele>736.03</ele>
        <time>2011-03-03T12:27:37Z</time>
      </trkpt>
      <trkpt lat="44.45214" lon="5.22619">
        <ele>736.03</ele>
        <time>2011-03-03T12:27:43Z</time>
      </trkpt>
      <trkpt lat="44.4522" lon="5.22616">
        <ele>735.55</ele>
        <time>2011-03-03T12:27:47Z</time>
      </trkpt>
      <trkpt lat="44.45225" lon="5.22604">
        <ele>734.58</ele>
        <time>2011-03-03T12:27:53Z</time>
      </trkpt>
      <trkpt lat="44.45228" lon="5.22596">
        <ele>733.62</ele>
        <time>2011-03-03T12:28:01Z</time>
      </trkpt>
      <trkpt lat="44.45226" lon="5.22595">
        <ele>733.62</ele>
        <time>2011-03-03T12:28:02Z</time>
      </trkpt>
      <trkpt lat="44.45229" lon="5.2259">
        <ele>733.14</ele>
        <time>2011-03-03T12:28:05Z</time>
      </trkpt>
      <trkpt lat="44.45238" lon="5.2258">
        <ele>732.66</ele>
        <time>2011-03-03T12:28:12Z</time>
      </trkpt>
      <trkpt lat="44.45241" lon="5.22579">
        <ele>732.66</ele>
        <time>2011-03-03T12:28:14Z</time>
      </trkpt>
      <trkpt lat="44.45247" lon="5.22573">
        <ele>732.18</ele>
        <time>2011-03-03T12:28:19Z</time>
      </trkpt>
      <trkpt lat="44.45247" lon="5.22572">
        <ele>731.7</ele>
        <time>2011-03-03T12:28:21Z</time>
      </trkpt>
      <trkpt lat="44.45248" lon="5.22566">
        <ele>731.22</ele>
        <time>2011-03-03T12:28:25Z</time>
      </trkpt>
      <trkpt lat="44.45252" lon="5.22558">
        <ele>730.74</ele>
        <time>2011-03-03T12:28:31Z</time>
      </trkpt>
      <trkpt lat="44.45257" lon="5.22556">
        <ele>730.26</ele>
        <time>2011-03-03T12:28:36Z</time>
      </trkpt>
      <trkpt lat="44.45259" lon="5.22562">
        <ele>729.3</ele>
        <time>2011-03-03T12:28:41Z</time>
      </trkpt>
      <trkpt lat="44.45258" lon="5.22566">
        <ele>728.82</ele>
        <time>2011-03-03T12:28:45Z</time>
      </trkpt>
      <trkpt lat="44.45247" lon="5.22578">
        <ele>727.86</ele>
        <time>2011-03-03T12:28:53Z</time>
      </trkpt>
      <trkpt lat="44.45248" lon="5.2258">
        <ele>727.37</ele>
        <time>2011-03-03T12:28:56Z</time>
      </trkpt>
      <trkpt lat="44.45245" lon="5.22586">
        <ele>726.41</ele>
        <time>2011-03-03T12:29:00Z</time>
      </trkpt>
      <trkpt lat="44.45242" lon="5.22597">
        <ele>724.97</ele>
        <time>2011-03-03T12:29:06Z</time>
      </trkpt>
      <trkpt lat="44.45237" lon="5.22613">
        <ele>724.49</ele>
        <time>2011-03-03T12:29:15Z</time>
      </trkpt>
      <trkpt lat="44.45241" lon="5.22621">
        <ele>724.01</ele>
        <time>2011-03-03T12:29:22Z</time>
      </trkpt>
      <trkpt lat="44.45242" lon="5.22622">
        <ele>724.49</ele>
        <time>2011-03-03T12:29:23Z</time>
      </trkpt>
      <trkpt lat="44.45232" lon="5.22634">
        <ele>724.49</ele>
        <time>2011-03-03T12:29:30Z</time>
      </trkpt>
      <trkpt lat="44.45227" lon="5.22644">
        <ele>724.49</ele>
        <time>2011-03-03T12:29:37Z</time>
      </trkpt>
      <trkpt lat="44.45227" lon="5.2265">
        <ele>723.53</ele>
        <time>2011-03-03T12:29:40Z</time>
      </trkpt>
      <trkpt lat="44.45226" lon="5.22659">
        <ele>724.01</ele>
        <time>2011-03-03T12:29:46Z</time>
      </trkpt>
      <trkpt lat="44.45225" lon="5.2266">
        <ele>723.53</ele>
        <time>2011-03-03T12:29:49Z</time>
      </trkpt>
      <trkpt lat="44.45225" lon="5.22666">
        <ele>723.05</ele>
        <time>2011-03-03T12:29:53Z</time>
      </trkpt>
      <trkpt lat="44.45223" lon="5.2267">
        <ele>723.05</ele>
        <time>2011-03-03T12:29:55Z</time>
      </trkpt>
      <trkpt lat="44.45221" lon="5.22673">
        <ele>722.57</ele>
        <time>2011-03-03T12:29:57Z</time>
      </trkpt>
      <trkpt lat="44.4522" lon="5.22685">
        <ele>722.57</ele>
        <time>2011-03-03T12:30:04Z</time>
      </trkpt>
      <trkpt lat="44.45217" lon="5.22694">
        <ele>722.09</ele>
        <time>2011-03-03T12:30:10Z</time>
      </trkpt>
      <trkpt lat="44.45216" lon="5.22704">
        <ele>722.09</ele>
        <time>2011-03-03T12:30:15Z</time>
      </trkpt>
      <trkpt lat="44.45213" lon="5.22711">
        <ele>721.61</ele>
        <time>2011-03-03T12:30:22Z</time>
      </trkpt>
      <trkpt lat="44.45212" lon="5.22725">
        <ele>721.61</ele>
        <time>2011-03-03T12:30:29Z</time>
      </trkpt>
      <trkpt lat="44.45209" lon="5.22729">
        <ele>720.65</ele>
        <time>2011-03-03T12:30:36Z</time>
      </trkpt>
      <trkpt lat="44.45204" lon="5.2274">
        <ele>720.65</ele>
        <time>2011-03-03T12:30:42Z</time>
      </trkpt>
      <trkpt lat="44.45196" lon="5.22748">
        <ele>720.16</ele>
        <time>2011-03-03T12:30:47Z</time>
      </trkpt>
      <trkpt lat="44.45202" lon="5.22755">
        <ele>720.16</ele>
        <time>2011-03-03T12:30:51Z</time>
      </trkpt>
      <trkpt lat="44.452" lon="5.22758">
        <ele>719.68</ele>
        <time>2011-03-03T12:30:54Z</time>
      </trkpt>
      <trkpt lat="44.45197" lon="5.22768">
        <ele>719.68</ele>
        <time>2011-03-03T12:31:00Z</time>
      </trkpt>
      <trkpt lat="44.45191" lon="5.2277">
        <ele>719.68</ele>
        <time>2011-03-03T12:31:05Z</time>
      </trkpt>
      <trkpt lat="44.45192" lon="5.22787">
        <ele>719.68</ele>
        <time>2011-03-03T12:31:12Z</time>
      </trkpt>
      <trkpt lat="44.45183" lon="5.22796">
        <ele>719.68</ele>
        <time>2011-03-03T12:31:20Z</time>
      </trkpt>
      <trkpt lat="44.45181" lon="5.22806">
        <ele>719.2</ele>
        <time>2011-03-03T12:31:28Z</time>
      </trkpt>
      <trkpt lat="44.45179" lon="5.22816">
        <ele>718.72</ele>
        <time>2011-03-03T12:31:35Z</time>
      </trkpt>
      <trkpt lat="44.45172" lon="5.22829">
        <ele>718.24</ele>
        <time>2011-03-03T12:31:44Z</time>
      </trkpt>
      <trkpt lat="44.45171" lon="5.22836">
        <ele>717.76</ele>
        <time>2011-03-03T12:31:51Z</time>
      </trkpt>
      <trkpt lat="44.45169" lon="5.22839">
        <ele>717.28</ele>
        <time>2011-03-03T12:31:58Z</time>
      </trkpt>
      <trkpt lat="44.45166" lon="5.22844">
        <ele>717.28</ele>
        <time>2011-03-03T12:32:06Z</time>
      </trkpt>
      <trkpt lat="44.4516" lon="5.22846">
        <ele>716.32</ele>
        <time>2011-03-03T12:32:12Z</time>
      </trkpt>
      <trkpt lat="44.45163" lon="5.22848">
        <ele>716.8</ele>
        <time>2011-03-03T12:32:30Z</time>
      </trkpt>
      <trkpt lat="44.45164" lon="5.22848">
        <ele>717.28</ele>
        <time>2011-03-03T12:32:42Z</time>
      </trkpt>
      <trkpt lat="44.45162" lon="5.22847">
        <ele>716.8</ele>
        <time>2011-03-03T12:32:56Z</time>
      </trkpt>
      <trkpt lat="44.45164" lon="5.22853">
        <ele>716.8</ele>
        <time>2011-03-03T12:35:03Z</time>
      </trkpt>
      <trkpt lat="44.45165" lon="5.22851">
        <ele>716.32</ele>
        <time>2011-03-03T12:35:13Z</time>
      </trkpt>
      <trkpt lat="44.45172" lon="5.22855">
        <ele>714.4</ele>
        <time>2011-03-03T12:35:21Z</time>
      </trkpt>
      <trkpt lat="44.45173" lon="5.22858">
        <ele>712.47</ele>
        <time>2011-03-03T12:35:28Z</time>
      </trkpt>
      <trkpt lat="44.45173" lon="5.2286">
        <ele>712.47</ele>
        <time>2011-03-03T12:35:29Z</time>
      </trkpt>
      <trkpt lat="44.45179" lon="5.2286">
        <ele>709.59</ele>
        <time>2011-03-03T12:35:37Z</time>
      </trkpt>
      <trkpt lat="44.45181" lon="5.22861">
        <ele>709.59</ele>
        <time>2011-03-03T12:35:38Z</time>
      </trkpt>
      <trkpt lat="44.45193" lon="5.22864">
        <ele>708.15</ele>
        <time>2011-03-03T12:35:45Z</time>
      </trkpt>
      <trkpt lat="44.45189" lon="5.22872">
        <ele>706.23</ele>
        <time>2011-03-03T12:35:50Z</time>
      </trkpt>
      <trkpt lat="44.45185" lon="5.22872">
        <ele>705.75</ele>
        <time>2011-03-03T12:36:04Z</time>
      </trkpt>
      <trkpt lat="44.45184" lon="5.22872">
        <ele>705.26</ele>
        <time>2011-03-03T12:36:06Z</time>
      </trkpt>
      <trkpt lat="44.45184" lon="5.22878">
        <ele>704.3</ele>
        <time>2011-03-03T12:36:10Z</time>
      </trkpt>
      <trkpt lat="44.45188" lon="5.22886">
        <ele>702.38</ele>
        <time>2011-03-03T12:36:16Z</time>
      </trkpt>
      <trkpt lat="44.45193" lon="5.22894">
        <ele>701.42</ele>
        <time>2011-03-03T12:36:19Z</time>
      </trkpt>
      <trkpt lat="44.45192" lon="5.229">
        <ele>699.5</ele>
        <time>2011-03-03T12:36:26Z</time>
      </trkpt>
      <trkpt lat="44.45191" lon="5.22911">
        <ele>697.09</ele>
        <time>2011-03-03T12:36:33Z</time>
      </trkpt>
      <trkpt lat="44.45192" lon="5.22919">
        <ele>695.17</ele>
        <time>2011-03-03T12:36:39Z</time>
      </trkpt>
      <trkpt lat="44.45195" lon="5.22919">
        <ele>693.73</ele>
        <time>2011-03-03T12:36:44Z</time>
      </trkpt>
      <trkpt lat="44.45193" lon="5.22923">
        <ele>691.81</ele>
        <time>2011-03-03T12:36:51Z</time>
      </trkpt>
      <trkpt lat="44.45207" lon="5.22926">
        <ele>689.88</ele>
        <time>2011-03-03T12:36:59Z</time>
      </trkpt>
      <trkpt lat="44.45206" lon="5.22929">
        <ele>687.48</ele>
        <time>2011-03-03T12:37:07Z</time>
      </trkpt>
      <trkpt lat="44.45209" lon="5.22937">
        <ele>686.04</ele>
        <time>2011-03-03T12:37:12Z</time>
      </trkpt>
      <trkpt lat="44.45209" lon="5.22941">
        <ele>684.6</ele>
        <time>2011-03-03T12:37:16Z</time>
      </trkpt>
      <trkpt lat="44.45212" lon="5.22945">
        <ele>683.15</ele>
        <time>2011-03-03T12:37:22Z</time>
      </trkpt>
      <trkpt lat="44.45213" lon="5.2295">
        <ele>681.23</ele>
        <time>2011-03-03T12:37:28Z</time>
      </trkpt>
      <trkpt lat="44.45207" lon="5.22954">
        <ele>680.27</ele>
        <time>2011-03-03T12:37:31Z</time>
      </trkpt>
      <trkpt lat="44.45204" lon="5.2296">
        <ele>677.87</ele>
        <time>2011-03-03T12:37:39Z</time>
      </trkpt>
      <trkpt lat="44.45191" lon="5.2296">
        <ele>675.94</ele>
        <time>2011-03-03T12:37:46Z</time>
      </trkpt>
      <trkpt lat="44.45185" lon="5.22961">
        <ele>673.54</ele>
        <time>2011-03-03T12:37:54Z</time>
      </trkpt>
      <trkpt lat="44.45184" lon="5.22963">
        <ele>672.58</ele>
        <time>2011-03-03T12:38:00Z</time>
      </trkpt>
      <trkpt lat="44.45171" lon="5.22974">
        <ele>671.62</ele>
        <time>2011-03-03T12:38:08Z</time>
      </trkpt>
      <trkpt lat="44.45168" lon="5.22972">
        <ele>671.62</ele>
        <time>2011-03-03T12:38:10Z</time>
      </trkpt>
      <trkpt lat="44.45167" lon="5.22978">
        <ele>670.66</ele>
        <time>2011-03-03T12:38:16Z</time>
      </trkpt>
      <trkpt lat="44.45161" lon="5.22983">
        <ele>670.66</ele>
        <time>2011-03-03T12:38:18Z</time>
      </trkpt>
      <trkpt lat="44.45169" lon="5.22994">
        <ele>671.14</ele>
        <time>2011-03-03T12:38:24Z</time>
      </trkpt>
      <trkpt lat="44.45168" lon="5.22996">
        <ele>670.18</ele>
        <time>2011-03-03T12:38:27Z</time>
      </trkpt>
      <trkpt lat="44.45163" lon="5.23005">
        <ele>668.73</ele>
        <time>2011-03-03T12:38:33Z</time>
      </trkpt>
      <trkpt lat="44.45168" lon="5.2301">
        <ele>667.29</ele>
        <time>2011-03-03T12:38:36Z</time>
      </trkpt>
      <trkpt lat="44.45162" lon="5.2302">
        <ele>665.85</ele>
        <time>2011-03-03T12:38:44Z</time>
      </trkpt>
      <trkpt lat="44.45153" lon="5.23025">
        <ele>663.93</ele>
        <time>2011-03-03T12:38:50Z</time>
      </trkpt>
      <trkpt lat="44.45156" lon="5.23029">
        <ele>663.45</ele>
        <time>2011-03-03T12:38:52Z</time>
      </trkpt>
      <trkpt lat="44.45156" lon="5.23031">
        <ele>662.49</ele>
        <time>2011-03-03T12:38:54Z</time>
      </trkpt>
      <trkpt lat="44.45151" lon="5.23038">
        <ele>660.56</ele>
        <time>2011-03-03T12:39:01Z</time>
      </trkpt>
      <trkpt lat="44.4515" lon="5.23044">
        <ele>659.12</ele>
        <time>2011-03-03T12:39:05Z</time>
      </trkpt>
      <trkpt lat="44.45149" lon="5.23051">
        <ele>657.68</ele>
        <time>2011-03-03T12:39:11Z</time>
      </trkpt>
      <trkpt lat="44.45142" lon="5.23059">
        <ele>655.76</ele>
        <time>2011-03-03T12:39:17Z</time>
      </trkpt>
      <trkpt lat="44.45149" lon="5.23067">
        <ele>653.83</ele>
        <time>2011-03-03T12:39:23Z</time>
      </trkpt>
      <trkpt lat="44.4515" lon="5.23066">
        <ele>653.83</ele>
        <time>2011-03-03T12:39:24Z</time>
      </trkpt>
      <trkpt lat="44.45144" lon="5.23074">
        <ele>652.87</ele>
        <time>2011-03-03T12:39:28Z</time>
      </trkpt>
      <trkpt lat="44.45144" lon="5.23077">
        <ele>652.39</ele>
        <time>2011-03-03T12:39:32Z</time>
      </trkpt>
      <trkpt lat="44.45145" lon="5.23082">
        <ele>651.43</ele>
        <time>2011-03-03T12:39:35Z</time>
      </trkpt>
      <trkpt lat="44.45149" lon="5.23092">
        <ele>649.03</ele>
        <time>2011-03-03T12:39:41Z</time>
      </trkpt>
      <trkpt lat="44.45143" lon="5.231">
        <ele>647.1</ele>
        <time>2011-03-03T12:39:48Z</time>
      </trkpt>
      <trkpt lat="44.45142" lon="5.231">
        <ele>646.62</ele>
        <time>2011-03-03T12:39:49Z</time>
      </trkpt>
      <trkpt lat="44.4514" lon="5.23104">
        <ele>645.18</ele>
        <time>2011-03-03T12:39:56Z</time>
      </trkpt>
      <trkpt lat="44.45144" lon="5.23112">
        <ele>644.7</ele>
        <time>2011-03-03T12:40:01Z</time>
      </trkpt>
      <trkpt lat="44.45147" lon="5.23119">
        <ele>642.78</ele>
        <time>2011-03-03T12:40:08Z</time>
      </trkpt>
      <trkpt lat="44.45141" lon="5.23128">
        <ele>640.86</ele>
        <time>2011-03-03T12:40:14Z</time>
      </trkpt>
      <trkpt lat="44.45143" lon="5.23131">
        <ele>640.38</ele>
        <time>2011-03-03T12:40:16Z</time>
      </trkpt>
      <trkpt lat="44.45138" lon="5.23139">
        <ele>639.41</ele>
        <time>2011-03-03T12:40:22Z</time>
      </trkpt>
      <trkpt lat="44.45138" lon="5.23148">
        <ele>637.01</ele>
        <time>2011-03-03T12:40:29Z</time>
      </trkpt>
      <trkpt lat="44.45145" lon="5.23152">
        <ele>635.57</ele>
        <time>2011-03-03T12:40:34Z</time>
      </trkpt>
      <trkpt lat="44.4515" lon="5.23148">
        <ele>634.13</ele>
        <time>2011-03-03T12:40:39Z</time>
      </trkpt>
      <trkpt lat="44.45153" lon="5.23146">
        <ele>633.17</ele>
        <time>2011-03-03T12:40:42Z</time>
      </trkpt>
      <trkpt lat="44.45154" lon="5.23138">
        <ele>631.24</ele>
        <time>2011-03-03T12:40:49Z</time>
      </trkpt>
      <trkpt lat="44.45156" lon="5.23136">
        <ele>629.8</ele>
        <time>2011-03-03T12:40:54Z</time>
      </trkpt>
      <trkpt lat="44.45159" lon="5.23136">
        <ele>628.36</ele>
        <time>2011-03-03T12:41:00Z</time>
      </trkpt>
      <trkpt lat="44.4517" lon="5.23134">
        <ele>627.4</ele>
        <time>2011-03-03T12:41:05Z</time>
      </trkpt>
      <trkpt lat="44.45174" lon="5.23128">
        <ele>624.03</ele>
        <time>2011-03-03T12:41:14Z</time>
      </trkpt>
      <trkpt lat="44.45174" lon="5.23129">
        <ele>624.51</ele>
        <time>2011-03-03T12:41:15Z</time>
      </trkpt>
      <trkpt lat="44.45174" lon="5.23125">
        <ele>623.07</ele>
        <time>2011-03-03T12:41:21Z</time>
      </trkpt>
      <trkpt lat="44.45177" lon="5.23128">
        <ele>621.63</ele>
        <time>2011-03-03T12:41:26Z</time>
      </trkpt>
      <trkpt lat="44.45186" lon="5.23132">
        <ele>618.75</ele>
        <time>2011-03-03T12:41:39Z</time>
      </trkpt>
      <trkpt lat="44.4518" lon="5.23139">
        <ele>616.34</ele>
        <time>2011-03-03T12:41:46Z</time>
      </trkpt>
      <trkpt lat="44.45177" lon="5.23143">
        <ele>614.9</ele>
        <time>2011-03-03T12:41:51Z</time>
      </trkpt>
      <trkpt lat="44.45185" lon="5.23153">
        <ele>613.46</ele>
        <time>2011-03-03T12:41:59Z</time>
      </trkpt>
      <trkpt lat="44.45177" lon="5.23162">
        <ele>611.54</ele>
        <time>2011-03-03T12:42:06Z</time>
      </trkpt>
      <trkpt lat="44.45183" lon="5.23164">
        <ele>611.06</ele>
        <time>2011-03-03T12:42:11Z</time>
      </trkpt>
      <trkpt lat="44.45181" lon="5.23168">
        <ele>610.57</ele>
        <time>2011-03-03T12:42:13Z</time>
      </trkpt>
      <trkpt lat="44.45177" lon="5.23176">
        <ele>608.65</ele>
        <time>2011-03-03T12:42:19Z</time>
      </trkpt>
      <trkpt lat="44.45176" lon="5.23177">
        <ele>609.13</ele>
        <time>2011-03-03T12:42:20Z</time>
      </trkpt>
      <trkpt lat="44.45176" lon="5.23183">
        <ele>607.69</ele>
        <time>2011-03-03T12:42:24Z</time>
      </trkpt>
      <trkpt lat="44.4517" lon="5.23187">
        <ele>607.69</ele>
        <time>2011-03-03T12:42:27Z</time>
      </trkpt>
      <trkpt lat="44.45171" lon="5.23193">
        <ele>606.73</ele>
        <time>2011-03-03T12:42:33Z</time>
      </trkpt>
      <trkpt lat="44.45168" lon="5.23194">
        <ele>607.21</ele>
        <time>2011-03-03T12:42:34Z</time>
      </trkpt>
      <trkpt lat="44.45164" lon="5.23205">
        <ele>605.77</ele>
        <time>2011-03-03T12:42:41Z</time>
      </trkpt>
      <trkpt lat="44.45163" lon="5.23216">
        <ele>604.33</ele>
        <time>2011-03-03T12:42:48Z</time>
      </trkpt>
      <trkpt lat="44.45161" lon="5.23223">
        <ele>603.85</ele>
        <time>2011-03-03T12:42:55Z</time>
      </trkpt>
      <trkpt lat="44.45156" lon="5.23228">
        <ele>602.88</ele>
        <time>2011-03-03T12:43:02Z</time>
      </trkpt>
      <trkpt lat="44.45159" lon="5.23234">
        <ele>603.36</ele>
        <time>2011-03-03T12:43:36Z</time>
      </trkpt>
      <trkpt lat="44.45157" lon="5.23239">
        <ele>602.88</ele>
        <time>2011-03-03T12:43:39Z</time>
      </trkpt>
      <trkpt lat="44.45154" lon="5.23244">
        <ele>602.4</ele>
        <time>2011-03-03T12:43:44Z</time>
      </trkpt>
      <trkpt lat="44.45151" lon="5.23251">
        <ele>600.96</ele>
        <time>2011-03-03T12:43:48Z</time>
      </trkpt>
      <trkpt lat="44.45152" lon="5.23257">
        <ele>600.96</ele>
        <time>2011-03-03T12:43:52Z</time>
      </trkpt>
      <trkpt lat="44.45142" lon="5.23261">
        <ele>600.48</ele>
        <time>2011-03-03T12:43:59Z</time>
      </trkpt>
      <trkpt lat="44.45145" lon="5.23267">
        <ele>600.48</ele>
        <time>2011-03-03T12:44:21Z</time>
      </trkpt>
      <trkpt lat="44.45141" lon="5.23276">
        <ele>599.04</ele>
        <time>2011-03-03T12:44:29Z</time>
      </trkpt>
      <trkpt lat="44.45135" lon="5.23279">
        <ele>598.56</ele>
        <time>2011-03-03T12:44:34Z</time>
      </trkpt>
      <trkpt lat="44.45134" lon="5.23285">
        <ele>598.56</ele>
        <time>2011-03-03T12:44:37Z</time>
      </trkpt>
      <trkpt lat="44.45135" lon="5.23287">
        <ele>599.04</ele>
        <time>2011-03-03T12:44:39Z</time>
      </trkpt>
      <trkpt lat="44.45129" lon="5.23297">
        <ele>598.08</ele>
        <time>2011-03-03T12:44:46Z</time>
      </trkpt>
      <trkpt lat="44.45126" lon="5.23299">
        <ele>597.6</ele>
        <time>2011-03-03T12:44:48Z</time>
      </trkpt>
      <trkpt lat="44.4512" lon="5.23307">
        <ele>594.71</ele>
        <time>2011-03-03T12:44:56Z</time>
      </trkpt>
      <trkpt lat="44.45126" lon="5.23311">
        <ele>593.75</ele>
        <time>2011-03-03T12:44:59Z</time>
      </trkpt>
      <trkpt lat="44.45129" lon="5.23316">
        <ele>592.79</ele>
        <time>2011-03-03T12:45:01Z</time>
      </trkpt>
      <trkpt lat="44.45123" lon="5.23321">
        <ele>590.87</ele>
        <time>2011-03-03T12:45:06Z</time>
      </trkpt>
      <trkpt lat="44.45124" lon="5.23327">
        <ele>588.46</ele>
        <time>2011-03-03T12:45:13Z</time>
      </trkpt>
      <trkpt lat="44.4512" lon="5.23332">
        <ele>586.54</ele>
        <time>2011-03-03T12:45:18Z</time>
      </trkpt>
      <trkpt lat="44.45127" lon="5.2334">
        <ele>584.62</ele>
        <time>2011-03-03T12:45:24Z</time>
      </trkpt>
      <trkpt lat="44.45118" lon="5.23348">
        <ele>581.73</ele>
        <time>2011-03-03T12:45:31Z</time>
      </trkpt>
      <trkpt lat="44.45121" lon="5.23355">
        <ele>578.85</ele>
        <time>2011-03-03T12:45:39Z</time>
      </trkpt>
      <trkpt lat="44.45123" lon="5.23363">
        <ele>576.93</ele>
        <time>2011-03-03T12:45:45Z</time>
      </trkpt>
      <trkpt lat="44.45123" lon="5.23368">
        <ele>575.49</ele>
        <time>2011-03-03T12:45:49Z</time>
      </trkpt>
      <trkpt lat="44.45129" lon="5.23371">
        <ele>573.56</ele>
        <time>2011-03-03T12:45:56Z</time>
      </trkpt>
      <trkpt lat="44.45127" lon="5.23367">
        <ele>571.64</ele>
        <time>2011-03-03T12:46:02Z</time>
      </trkpt>
      <trkpt lat="44.45136" lon="5.23374">
        <ele>569.72</ele>
        <time>2011-03-03T12:46:08Z</time>
      </trkpt>
      <trkpt lat="44.45129" lon="5.23384">
        <ele>566.35</ele>
        <time>2011-03-03T12:46:18Z</time>
      </trkpt>
      <trkpt lat="44.45131" lon="5.23387">
        <ele>563.47</ele>
        <time>2011-03-03T12:46:26Z</time>
      </trkpt>
      <trkpt lat="44.45137" lon="5.23393">
        <ele>561.55</ele>
        <time>2011-03-03T12:46:32Z</time>
      </trkpt>
      <trkpt lat="44.45142" lon="5.23395">
        <ele>561.07</ele>
        <time>2011-03-03T12:46:34Z</time>
      </trkpt>
      <trkpt lat="44.4514" lon="5.23402">
        <ele>559.14</ele>
        <time>2011-03-03T12:46:41Z</time>
      </trkpt>
      <trkpt lat="44.45144" lon="5.23403">
        <ele>557.7</ele>
        <time>2011-03-03T12:46:46Z</time>
      </trkpt>
      <trkpt lat="44.45141" lon="5.23409">
        <ele>555.78</ele>
        <time>2011-03-03T12:46:52Z</time>
      </trkpt>
      <trkpt lat="44.45146" lon="5.23409">
        <ele>554.34</ele>
        <time>2011-03-03T12:46:58Z</time>
      </trkpt>
      <trkpt lat="44.45148" lon="5.23417">
        <ele>552.41</ele>
        <time>2011-03-03T12:47:04Z</time>
      </trkpt>
      <trkpt lat="44.45154" lon="5.23421">
        <ele>550.49</ele>
        <time>2011-03-03T12:47:12Z</time>
      </trkpt>
      <trkpt lat="44.45157" lon="5.2342">
        <ele>549.05</ele>
        <time>2011-03-03T12:47:14Z</time>
      </trkpt>
      <trkpt lat="44.4516" lon="5.23426">
        <ele>547.13</ele>
        <time>2011-03-03T12:47:23Z</time>
      </trkpt>
      <trkpt lat="44.45161" lon="5.23431">
        <ele>545.69</ele>
        <time>2011-03-03T12:47:28Z</time>
      </trkpt>
      <trkpt lat="44.45163" lon="5.23438">
        <ele>542.8</ele>
        <time>2011-03-03T12:47:36Z</time>
      </trkpt>
      <trkpt lat="44.45167" lon="5.23444">
        <ele>540.88</ele>
        <time>2011-03-03T12:47:43Z</time>
      </trkpt>
      <trkpt lat="44.45168" lon="5.23443">
        <ele>539.44</ele>
        <time>2011-03-03T12:47:46Z</time>
      </trkpt>
      <trkpt lat="44.45175" lon="5.23448">
        <ele>537.03</ele>
        <time>2011-03-03T12:47:53Z</time>
      </trkpt>
      <trkpt lat="44.45178" lon="5.23459">
        <ele>534.63</ele>
        <time>2011-03-03T12:48:01Z</time>
      </trkpt>
      <trkpt lat="44.45177" lon="5.23464">
        <ele>533.67</ele>
        <time>2011-03-03T12:48:05Z</time>
      </trkpt>
      <trkpt lat="44.45178" lon="5.23474">
        <ele>531.75</ele>
        <time>2011-03-03T12:48:13Z</time>
      </trkpt>
      <trkpt lat="44.45177" lon="5.2348">
        <ele>529.82</ele>
        <time>2011-03-03T12:48:20Z</time>
      </trkpt>
      <trkpt lat="44.45176" lon="5.23489">
        <ele>527.9</ele>
        <time>2011-03-03T12:48:26Z</time>
      </trkpt>
      <trkpt lat="44.45179" lon="5.2349">
        <ele>527.42</ele>
        <time>2011-03-03T12:48:27Z</time>
      </trkpt>
      <trkpt lat="44.45184" lon="5.235">
        <ele>525.98</ele>
        <time>2011-03-03T12:48:35Z</time>
      </trkpt>
      <trkpt lat="44.45185" lon="5.23507">
        <ele>524.54</ele>
        <time>2011-03-03T12:48:43Z</time>
      </trkpt>
      <trkpt lat="44.45178" lon="5.23523">
        <ele>523.58</ele>
        <time>2011-03-03T12:48:51Z</time>
      </trkpt>
      <trkpt lat="44.45181" lon="5.23537">
        <ele>522.61</ele>
        <time>2011-03-03T12:48:55Z</time>
      </trkpt>
      <trkpt lat="44.45177" lon="5.23544">
        <ele>521.65</ele>
        <time>2011-03-03T12:49:04Z</time>
      </trkpt>
      <trkpt lat="44.45176" lon="5.23565">
        <ele>520.69</ele>
        <time>2011-03-03T12:49:14Z</time>
      </trkpt>
      <trkpt lat="44.4518" lon="5.23581">
        <ele>520.21</ele>
        <time>2011-03-03T12:49:20Z</time>
      </trkpt>
      <trkpt lat="44.4518" lon="5.23581">
        <ele>519.73</ele>
        <time>2011-03-03T12:49:22Z</time>
      </trkpt>
      <trkpt lat="44.45177" lon="5.23584">
        <ele>519.73</ele>
        <time>2011-03-03T12:49:26Z</time>
      </trkpt>
      <trkpt lat="44.45189" lon="5.23592">
        <ele>518.77</ele>
        <time>2011-03-03T12:49:33Z</time>
      </trkpt>
      <trkpt lat="44.4519" lon="5.23602">
        <ele>518.77</ele>
        <time>2011-03-03T12:49:40Z</time>
      </trkpt>
      <trkpt lat="44.45194" lon="5.23602">
        <ele>519.25</ele>
        <time>2011-03-03T12:49:45Z</time>
      </trkpt>
      <trkpt lat="44.45206" lon="5.23608">
        <ele>520.21</ele>
        <time>2011-03-03T12:49:53Z</time>
      </trkpt>
      <trkpt lat="44.45205" lon="5.23612">
        <ele>521.17</ele>
        <time>2011-03-03T12:49:59Z</time>
      </trkpt>
      <trkpt lat="44.4521" lon="5.23616">
        <ele>521.65</ele>
        <time>2011-03-03T12:50:01Z</time>
      </trkpt>
      <trkpt lat="44.45213" lon="5.23614">
        <ele>522.61</ele>
        <time>2011-03-03T12:50:09Z</time>
      </trkpt>
      <trkpt lat="44.4522" lon="5.23612">
        <ele>522.61</ele>
        <time>2011-03-03T12:50:14Z</time>
      </trkpt>
      <trkpt lat="44.4523" lon="5.23614">
        <ele>523.58</ele>
        <time>2011-03-03T12:50:22Z</time>
      </trkpt>
      <trkpt lat="44.45235" lon="5.23612">
        <ele>524.06</ele>
        <time>2011-03-03T12:50:29Z</time>
      </trkpt>
      <trkpt lat="44.45234" lon="5.2361">
        <ele>524.06</ele>
        <time>2011-03-03T12:50:38Z</time>
      </trkpt>
      <trkpt lat="44.4523" lon="5.23608">
        <ele>523.58</ele>
        <time>2011-03-03T12:50:56Z</time>
      </trkpt>
      <trkpt lat="44.45231" lon="5.23608">
        <ele>523.09</ele>
        <time>2011-03-03T12:51:04Z</time>
      </trkpt>
      <trkpt lat="44.45233" lon="5.23609">
        <ele>524.54</ele>
        <time>2011-03-03T12:51:14Z</time>
      </trkpt>
      <trkpt lat="44.45237" lon="5.23609">
        <ele>524.54</ele>
        <time>2011-03-03T12:51:24Z</time>
      </trkpt>
      <trkpt lat="44.45237" lon="5.2361">
        <ele>524.54</ele>
        <time>2011-03-03T12:52:11Z</time>
      </trkpt>
      <trkpt lat="44.4524" lon="5.23615">
        <ele>524.54</ele>
        <time>2011-03-03T12:52:19Z</time>
      </trkpt>
      <trkpt lat="44.45242" lon="5.23618">
        <ele>524.54</ele>
        <time>2011-03-03T12:52:20Z</time>
      </trkpt>
      <trkpt lat="44.45248" lon="5.23626">
        <ele>524.06</ele>
        <time>2011-03-03T12:52:27Z</time>
      </trkpt>
      <trkpt lat="44.45238" lon="5.23629">
        <ele>524.54</ele>
        <time>2011-03-03T12:52:41Z</time>
      </trkpt>
      <trkpt lat="44.45231" lon="5.23608">
        <ele>524.54</ele>
        <time>2011-03-03T12:53:11Z</time>
      </trkpt>
      <trkpt lat="44.45233" lon="5.23606">
        <ele>525.02</ele>
        <time>2011-03-03T12:53:44Z</time>
      </trkpt>
      <trkpt lat="44.45236" lon="5.23609">
        <ele>525.98</ele>
        <time>2011-03-03T12:54:24Z</time>
      </trkpt>
      <trkpt lat="44.45245" lon="5.23606">
        <ele>526.46</ele>
        <time>2011-03-03T12:54:32Z</time>
      </trkpt>
      <trkpt lat="44.4525" lon="5.23604">
        <ele>526.94</ele>
        <time>2011-03-03T12:54:39Z</time>
      </trkpt>
      <trkpt lat="44.45253" lon="5.23601">
        <ele>526.46</ele>
        <time>2011-03-03T12:54:44Z</time>
      </trkpt>
      <trkpt lat="44.45257" lon="5.23592">
        <ele>526.94</ele>
        <time>2011-03-03T12:54:51Z</time>
      </trkpt>
      <trkpt lat="44.45253" lon="5.23586">
        <ele>527.42</ele>
        <time>2011-03-03T12:54:56Z</time>
      </trkpt>
      <trkpt lat="44.45258" lon="5.23584">
        <ele>527.9</ele>
        <time>2011-03-03T12:54:58Z</time>
      </trkpt>
      <trkpt lat="44.45262" lon="5.23577">
        <ele>527.9</ele>
        <time>2011-03-03T12:55:05Z</time>
      </trkpt>
      <trkpt lat="44.4527" lon="5.23572">
        <ele>528.86</ele>
        <time>2011-03-03T12:55:12Z</time>
      </trkpt>
      <trkpt lat="44.45272" lon="5.23569">
        <ele>528.86</ele>
        <time>2011-03-03T12:55:15Z</time>
      </trkpt>
      <trkpt lat="44.45273" lon="5.23559">
        <ele>528.86</ele>
        <time>2011-03-03T12:55:20Z</time>
      </trkpt>
      <trkpt lat="44.45276" lon="5.23555">
        <ele>529.34</ele>
        <time>2011-03-03T12:55:24Z</time>
      </trkpt>
      <trkpt lat="44.45273" lon="5.2354">
        <ele>529.34</ele>
        <time>2011-03-03T12:55:33Z</time>
      </trkpt>
      <trkpt lat="44.45277" lon="5.23535">
        <ele>529.82</ele>
        <time>2011-03-03T12:55:38Z</time>
      </trkpt>
      <trkpt lat="44.45279" lon="5.23531">
        <ele>529.34</ele>
        <time>2011-03-03T12:55:41Z</time>
      </trkpt>
      <trkpt lat="44.45286" lon="5.23525">
        <ele>530.3</ele>
        <time>2011-03-03T12:55:48Z</time>
      </trkpt>
      <trkpt lat="44.45292" lon="5.23521">
        <ele>531.27</ele>
        <time>2011-03-03T12:55:55Z</time>
      </trkpt>
      <trkpt lat="44.45298" lon="5.23516">
        <ele>532.23</ele>
        <time>2011-03-03T12:56:03Z</time>
      </trkpt>
      <trkpt lat="44.45299" lon="5.23517">
        <ele>532.23</ele>
        <time>2011-03-03T12:56:04Z</time>
      </trkpt>
      <trkpt lat="44.4531" lon="5.23511">
        <ele>532.71</ele>
        <time>2011-03-03T12:56:14Z</time>
      </trkpt>
      <trkpt lat="44.4531" lon="5.2351">
        <ele>533.19</ele>
        <time>2011-03-03T12:56:15Z</time>
      </trkpt>
      <trkpt lat="44.45312" lon="5.23507">
        <ele>533.19</ele>
        <time>2011-03-03T12:56:18Z</time>
      </trkpt>
      <trkpt lat="44.45316" lon="5.23506">
        <ele>533.19</ele>
        <time>2011-03-03T12:56:22Z</time>
      </trkpt>
      <trkpt lat="44.45319" lon="5.23498">
        <ele>534.15</ele>
        <time>2011-03-03T12:56:28Z</time>
      </trkpt>
      <trkpt lat="44.45324" lon="5.23491">
        <ele>534.63</ele>
        <time>2011-03-03T12:56:35Z</time>
      </trkpt>
      <trkpt lat="44.45328" lon="5.23482">
        <ele>535.11</ele>
        <time>2011-03-03T12:56:42Z</time>
      </trkpt>
      <trkpt lat="44.45333" lon="5.23483">
        <ele>535.59</ele>
        <time>2011-03-03T12:56:43Z</time>
      </trkpt>
      <trkpt lat="44.45342" lon="5.23473">
        <ele>536.07</ele>
        <time>2011-03-03T12:56:51Z</time>
      </trkpt>
      <trkpt lat="44.45341" lon="5.23467">
        <ele>539.44</ele>
        <time>2011-03-03T12:56:58Z</time>
      </trkpt>
      <trkpt lat="44.45346" lon="5.23456">
        <ele>537.99</ele>
        <time>2011-03-03T12:57:07Z</time>
      </trkpt>
      <trkpt lat="44.45349" lon="5.2345">
        <ele>548.09</ele>
        <time>2011-03-03T12:57:15Z</time>
      </trkpt>
      <trkpt lat="44.45349" lon="5.23447">
        <ele>538.96</ele>
        <time>2011-03-03T12:57:16Z</time>
      </trkpt>
      <trkpt lat="44.45355" lon="5.23441">
        <ele>539.44</ele>
        <time>2011-03-03T12:57:23Z</time>
      </trkpt>
      <trkpt lat="44.45359" lon="5.23428">
        <ele>540.88</ele>
        <time>2011-03-03T12:57:33Z</time>
      </trkpt>
      <trkpt lat="44.45358" lon="5.2342">
        <ele>535.59</ele>
        <time>2011-03-03T12:57:36Z</time>
      </trkpt>
      <trkpt lat="44.45357" lon="5.23419">
        <ele>541.36</ele>
        <time>2011-03-03T12:57:37Z</time>
      </trkpt>
      <trkpt lat="44.45364" lon="5.23417">
        <ele>541.84</ele>
        <time>2011-03-03T12:57:43Z</time>
      </trkpt>
      <trkpt lat="44.45368" lon="5.23415">
        <ele>542.32</ele>
        <time>2011-03-03T12:57:46Z</time>
      </trkpt>
      <trkpt lat="44.45373" lon="5.23401">
        <ele>543.76</ele>
        <time>2011-03-03T12:57:57Z</time>
      </trkpt>
      <trkpt lat="44.45372" lon="5.23395">
        <ele>543.76</ele>
        <time>2011-03-03T12:58:04Z</time>
      </trkpt>
      <trkpt lat="44.45373" lon="5.2339">
        <ele>544.24</ele>
        <time>2011-03-03T12:58:07Z</time>
      </trkpt>
      <trkpt lat="44.45374" lon="5.23374">
        <ele>544.72</ele>
        <time>2011-03-03T12:58:16Z</time>
      </trkpt>
      <trkpt lat="44.45377" lon="5.23369">
        <ele>544.72</ele>
        <time>2011-03-03T12:58:20Z</time>
      </trkpt>
      <trkpt lat="44.45383" lon="5.23356">
        <ele>545.2</ele>
        <time>2011-03-03T12:58:28Z</time>
      </trkpt>
      <trkpt lat="44.45386" lon="5.23349">
        <ele>545.69</ele>
        <time>2011-03-03T12:58:35Z</time>
      </trkpt>
      <trkpt lat="44.45386" lon="5.23339">
        <ele>546.17</ele>
        <time>2011-03-03T12:58:41Z</time>
      </trkpt>
      <trkpt lat="44.45387" lon="5.23335">
        <ele>546.65</ele>
        <time>2011-03-03T12:58:46Z</time>
      </trkpt>
      <trkpt lat="44.45391" lon="5.23322">
        <ele>547.13</ele>
        <time>2011-03-03T12:58:54Z</time>
      </trkpt>
      <trkpt lat="44.45397" lon="5.23313">
        <ele>548.09</ele>
        <time>2011-03-03T12:59:01Z</time>
      </trkpt>
      <trkpt lat="44.45394" lon="5.23304">
        <ele>548.57</ele>
        <time>2011-03-03T12:59:09Z</time>
      </trkpt>
      <trkpt lat="44.45402" lon="5.23297">
        <ele>549.53</ele>
        <time>2011-03-03T12:59:14Z</time>
      </trkpt>
      <trkpt lat="44.45403" lon="5.23292">
        <ele>550.49</ele>
        <time>2011-03-03T12:59:20Z</time>
      </trkpt>
      <trkpt lat="44.45403" lon="5.23288">
        <ele>550.49</ele>
        <time>2011-03-03T12:59:23Z</time>
      </trkpt>
      <trkpt lat="44.45406" lon="5.23282">
        <ele>551.93</ele>
        <time>2011-03-03T12:59:30Z</time>
      </trkpt>
      <trkpt lat="44.45409" lon="5.23276">
        <ele>552.41</ele>
        <time>2011-03-03T12:59:34Z</time>
      </trkpt>
      <trkpt lat="44.45414" lon="5.23268">
        <ele>553.38</ele>
        <time>2011-03-03T12:59:40Z</time>
      </trkpt>
      <trkpt lat="44.45413" lon="5.23262">
        <ele>544.72</ele>
        <time>2011-03-03T12:59:45Z</time>
      </trkpt>
      <trkpt lat="44.4541" lon="5.23258">
        <ele>554.82</ele>
        <time>2011-03-03T12:59:46Z</time>
      </trkpt>
      <trkpt lat="44.4541" lon="5.23256">
        <ele>550.01</ele>
        <time>2011-03-03T12:59:47Z</time>
      </trkpt>
      <trkpt lat="44.4541" lon="5.23255">
        <ele>554.34</ele>
        <time>2011-03-03T12:59:48Z</time>
      </trkpt>
      <trkpt lat="44.45411" lon="5.23246">
        <ele>554.82</ele>
        <time>2011-03-03T12:59:55Z</time>
      </trkpt>
      <trkpt lat="44.45413" lon="5.23239">
        <ele>554.34</ele>
        <time>2011-03-03T12:59:59Z</time>
      </trkpt>
      <trkpt lat="44.45408" lon="5.23227">
        <ele>550.49</ele>
        <time>2011-03-03T13:00:07Z</time>
      </trkpt>
      <trkpt lat="44.45409" lon="5.23228">
        <ele>555.3</ele>
        <time>2011-03-03T13:00:08Z</time>
      </trkpt>
      <trkpt lat="44.45411" lon="5.23223">
        <ele>551.45</ele>
        <time>2011-03-03T13:00:12Z</time>
      </trkpt>
      <trkpt lat="44.45412" lon="5.23223">
        <ele>554.82</ele>
        <time>2011-03-03T13:00:13Z</time>
      </trkpt>
      <trkpt lat="44.45413" lon="5.23222">
        <ele>557.7</ele>
        <time>2011-03-03T13:00:14Z</time>
      </trkpt>
      <trkpt lat="44.45419" lon="5.23215">
        <ele>555.3</ele>
        <time>2011-03-03T13:00:20Z</time>
      </trkpt>
      <trkpt lat="44.45422" lon="5.23211">
        <ele>553.86</ele>
        <time>2011-03-03T13:00:24Z</time>
      </trkpt>
      <trkpt lat="44.45428" lon="5.23206">
        <ele>555.78</ele>
        <time>2011-03-03T13:00:30Z</time>
      </trkpt>
      <trkpt lat="44.45431" lon="5.23198">
        <ele>556.74</ele>
        <time>2011-03-03T13:00:37Z</time>
      </trkpt>
      <trkpt lat="44.45439" lon="5.23199">
        <ele>557.7</ele>
        <time>2011-03-03T13:00:40Z</time>
      </trkpt>
      <trkpt lat="44.45444" lon="5.23194">
        <ele>558.18</ele>
        <time>2011-03-03T13:00:45Z</time>
      </trkpt>
      <trkpt lat="44.45442" lon="5.2319">
        <ele>558.66</ele>
        <time>2011-03-03T13:00:48Z</time>
      </trkpt>
      <trkpt lat="44.45446" lon="5.2319">
        <ele>559.14</ele>
        <time>2011-03-03T13:00:52Z</time>
      </trkpt>
      <trkpt lat="44.45455" lon="5.23185">
        <ele>559.62</ele>
        <time>2011-03-03T13:00:59Z</time>
      </trkpt>
      <trkpt lat="44.4546" lon="5.23177">
        <ele>561.07</ele>
        <time>2011-03-03T13:01:07Z</time>
      </trkpt>
      <trkpt lat="44.45461" lon="5.23172">
        <ele>561.55</ele>
        <time>2011-03-03T13:01:10Z</time>
      </trkpt>
      <trkpt lat="44.4547" lon="5.23168">
        <ele>562.51</ele>
        <time>2011-03-03T13:01:19Z</time>
      </trkpt>
      <trkpt lat="44.45477" lon="5.23165">
        <ele>563.47</ele>
        <time>2011-03-03T13:01:26Z</time>
      </trkpt>
      <trkpt lat="44.45483" lon="5.23156">
        <ele>563.95</ele>
        <time>2011-03-03T13:01:32Z</time>
      </trkpt>
      <trkpt lat="44.45488" lon="5.23156">
        <ele>563.95</ele>
        <time>2011-03-03T13:01:36Z</time>
      </trkpt>
      <trkpt lat="44.45488" lon="5.23153">
        <ele>564.91</ele>
        <time>2011-03-03T13:01:40Z</time>
      </trkpt>
      <trkpt lat="44.45496" lon="5.23146">
        <ele>565.39</ele>
        <time>2011-03-03T13:01:48Z</time>
      </trkpt>
      <trkpt lat="44.45497" lon="5.23142">
        <ele>565.87</ele>
        <time>2011-03-03T13:01:51Z</time>
      </trkpt>
      <trkpt lat="44.45499" lon="5.23141">
        <ele>566.35</ele>
        <time>2011-03-03T13:01:54Z</time>
      </trkpt>
      <trkpt lat="44.45504" lon="5.23136">
        <ele>566.83</ele>
        <time>2011-03-03T13:01:58Z</time>
      </trkpt>
      <trkpt lat="44.45508" lon="5.23134">
        <ele>567.32</ele>
        <time>2011-03-03T13:02:03Z</time>
      </trkpt>
      <trkpt lat="44.45511" lon="5.23132">
        <ele>567.8</ele>
        <time>2011-03-03T13:02:06Z</time>
      </trkpt>
      <trkpt lat="44.45516" lon="5.23126">
        <ele>568.76</ele>
        <time>2011-03-03T13:02:10Z</time>
      </trkpt>
      <trkpt lat="44.45516" lon="5.23122">
        <ele>568.28</ele>
        <time>2011-03-03T13:02:12Z</time>
      </trkpt>
      <trkpt lat="44.45515" lon="5.23117">
        <ele>569.24</ele>
        <time>2011-03-03T13:02:15Z</time>
      </trkpt>
      <trkpt lat="44.45517" lon="5.23116">
        <ele>569.24</ele>
        <time>2011-03-03T13:02:18Z</time>
      </trkpt>
      <trkpt lat="44.45522" lon="5.23113">
        <ele>570.2</ele>
        <time>2011-03-03T13:02:22Z</time>
      </trkpt>
      <trkpt lat="44.45528" lon="5.23107">
        <ele>571.16</ele>
        <time>2011-03-03T13:02:30Z</time>
      </trkpt>
      <trkpt lat="44.45534" lon="5.23105">
        <ele>571.16</ele>
        <time>2011-03-03T13:02:34Z</time>
      </trkpt>
      <trkpt lat="44.45539" lon="5.23103">
        <ele>572.12</ele>
        <time>2011-03-03T13:02:40Z</time>
      </trkpt>
      <trkpt lat="44.45542" lon="5.23102">
        <ele>572.12</ele>
        <time>2011-03-03T13:02:43Z</time>
      </trkpt>
      <trkpt lat="44.45549" lon="5.23097">
        <ele>573.56</ele>
        <time>2011-03-03T13:02:51Z</time>
      </trkpt>
      <trkpt lat="44.4555" lon="5.23097">
        <ele>574.04</ele>
        <time>2011-03-03T13:02:52Z</time>
      </trkpt>
      <trkpt lat="44.45556" lon="5.23098">
        <ele>574.04</ele>
        <time>2011-03-03T13:02:59Z</time>
      </trkpt>
      <trkpt lat="44.4556" lon="5.23097">
        <ele>574.53</ele>
        <time>2011-03-03T13:03:05Z</time>
      </trkpt>
      <trkpt lat="44.45565" lon="5.23097">
        <ele>575.49</ele>
        <time>2011-03-03T13:03:10Z</time>
      </trkpt>
      <trkpt lat="44.45572" lon="5.23098">
        <ele>576.93</ele>
        <time>2011-03-03T13:03:18Z</time>
      </trkpt>
      <trkpt lat="44.45578" lon="5.23102">
        <ele>578.37</ele>
        <time>2011-03-03T13:03:26Z</time>
      </trkpt>
      <trkpt lat="44.45587" lon="5.23107">
        <ele>578.85</ele>
        <time>2011-03-03T13:03:33Z</time>
      </trkpt>
      <trkpt lat="44.45595" lon="5.23109">
        <ele>580.29</ele>
        <time>2011-03-03T13:03:41Z</time>
      </trkpt>
      <trkpt lat="44.45599" lon="5.2311">
        <ele>580.77</ele>
        <time>2011-03-03T13:03:47Z</time>
      </trkpt>
      <trkpt lat="44.45604" lon="5.23109">
        <ele>581.73</ele>
        <time>2011-03-03T13:03:53Z</time>
      </trkpt>
      <trkpt lat="44.45609" lon="5.23113">
        <ele>582.7</ele>
        <time>2011-03-03T13:03:59Z</time>
      </trkpt>
      <trkpt lat="44.45612" lon="5.2312">
        <ele>583.66</ele>
        <time>2011-03-03T13:04:05Z</time>
      </trkpt>
      <trkpt lat="44.4561" lon="5.23123">
        <ele>585.1</ele>
        <time>2011-03-03T13:04:12Z</time>
      </trkpt>
      <trkpt lat="44.45607" lon="5.23123">
        <ele>585.1</ele>
        <time>2011-03-03T13:04:15Z</time>
      </trkpt>
      <trkpt lat="44.456" lon="5.23128">
        <ele>586.54</ele>
        <time>2011-03-03T13:04:23Z</time>
      </trkpt>
      <trkpt lat="44.45596" lon="5.23134">
        <ele>587.02</ele>
        <time>2011-03-03T13:04:29Z</time>
      </trkpt>
      <trkpt lat="44.45594" lon="5.23135">
        <ele>587.02</ele>
        <time>2011-03-03T13:04:30Z</time>
      </trkpt>
      <trkpt lat="44.45591" lon="5.23143">
        <ele>587.98</ele>
        <time>2011-03-03T13:04:38Z</time>
      </trkpt>
      <trkpt lat="44.45589" lon="5.23152">
        <ele>588.95</ele>
        <time>2011-03-03T13:04:46Z</time>
      </trkpt>
      <trkpt lat="44.45591" lon="5.2316">
        <ele>589.43</ele>
        <time>2011-03-03T13:04:51Z</time>
      </trkpt>
      <trkpt lat="44.45592" lon="5.23169">
        <ele>589.91</ele>
        <time>2011-03-03T13:04:55Z</time>
      </trkpt>
      <trkpt lat="44.45591" lon="5.23174">
        <ele>589.91</ele>
        <time>2011-03-03T13:04:58Z</time>
      </trkpt>
      <trkpt lat="44.45594" lon="5.23186">
        <ele>589.91</ele>
        <time>2011-03-03T13:05:06Z</time>
      </trkpt>
      <trkpt lat="44.45592" lon="5.23189">
        <ele>590.39</ele>
        <time>2011-03-03T13:05:10Z</time>
      </trkpt>
      <trkpt lat="44.45592" lon="5.23192">
        <ele>590.39</ele>
        <time>2011-03-03T13:05:12Z</time>
      </trkpt>
      <trkpt lat="44.45594" lon="5.23201">
        <ele>591.35</ele>
        <time>2011-03-03T13:05:18Z</time>
      </trkpt>
      <trkpt lat="44.45595" lon="5.23208">
        <ele>591.35</ele>
        <time>2011-03-03T13:05:23Z</time>
      </trkpt>
      <trkpt lat="44.45593" lon="5.23213">
        <ele>591.35</ele>
        <time>2011-03-03T13:05:25Z</time>
      </trkpt>
      <trkpt lat="44.45588" lon="5.23229">
        <ele>591.83</ele>
        <time>2011-03-03T13:05:34Z</time>
      </trkpt>
      <trkpt lat="44.4559" lon="5.23237">
        <ele>592.79</ele>
        <time>2011-03-03T13:05:40Z</time>
      </trkpt>
      <trkpt lat="44.45592" lon="5.23248">
        <ele>593.75</ele>
        <time>2011-03-03T13:05:48Z</time>
      </trkpt>
      <trkpt lat="44.45592" lon="5.23254">
        <ele>594.23</ele>
        <time>2011-03-03T13:05:52Z</time>
      </trkpt>
      <trkpt lat="44.45591" lon="5.23258">
        <ele>595.19</ele>
        <time>2011-03-03T13:05:55Z</time>
      </trkpt>
      <trkpt lat="44.45593" lon="5.23266">
        <ele>595.19</ele>
        <time>2011-03-03T13:06:02Z</time>
      </trkpt>
      <trkpt lat="44.45597" lon="5.23277">
        <ele>596.64</ele>
        <time>2011-03-03T13:06:09Z</time>
      </trkpt>
      <trkpt lat="44.456" lon="5.23281">
        <ele>597.12</ele>
        <time>2011-03-03T13:06:14Z</time>
      </trkpt>
      <trkpt lat="44.45608" lon="5.23288">
        <ele>598.08</ele>
        <time>2011-03-03T13:06:21Z</time>
      </trkpt>
      <trkpt lat="44.45615" lon="5.23289">
        <ele>599.52</ele>
        <time>2011-03-03T13:06:29Z</time>
      </trkpt>
      <trkpt lat="44.45619" lon="5.23289">
        <ele>600.48</ele>
        <time>2011-03-03T13:06:36Z</time>
      </trkpt>
      <trkpt lat="44.45624" lon="5.23288">
        <ele>601.92</ele>
        <time>2011-03-03T13:06:43Z</time>
      </trkpt>
      <trkpt lat="44.45631" lon="5.23292">
        <ele>602.88</ele>
        <time>2011-03-03T13:06:50Z</time>
      </trkpt>
      <trkpt lat="44.45635" lon="5.23289">
        <ele>603.85</ele>
        <time>2011-03-03T13:06:55Z</time>
      </trkpt>
      <trkpt lat="44.4564" lon="5.23287">
        <ele>604.81</ele>
        <time>2011-03-03T13:07:01Z</time>
      </trkpt>
      <trkpt lat="44.45646" lon="5.23284">
        <ele>605.77</ele>
        <time>2011-03-03T13:07:07Z</time>
      </trkpt>
      <trkpt lat="44.45645" lon="5.23281">
        <ele>606.25</ele>
        <time>2011-03-03T13:07:13Z</time>
      </trkpt>
      <trkpt lat="44.45646" lon="5.23279">
        <ele>606.25</ele>
        <time>2011-03-03T13:07:34Z</time>
      </trkpt>
      <trkpt lat="44.45646" lon="5.23281">
        <ele>606.25</ele>
        <time>2011-03-03T13:07:55Z</time>
      </trkpt>
      <trkpt lat="44.45647" lon="5.23281">
        <ele>606.73</ele>
        <time>2011-03-03T13:08:47Z</time>
      </trkpt>
      <trkpt lat="44.45646" lon="5.23283">
        <ele>606.73</ele>
        <time>2011-03-03T13:08:56Z</time>
      </trkpt>
      <trkpt lat="44.45647" lon="5.23286">
        <ele>607.21</ele>
        <time>2011-03-03T13:09:00Z</time>
      </trkpt>
      <trkpt lat="44.45646" lon="5.23288">
        <ele>607.69</ele>
        <time>2011-03-03T13:09:01Z</time>
      </trkpt>
      <trkpt lat="44.45645" lon="5.23293">
        <ele>608.65</ele>
        <time>2011-03-03T13:09:06Z</time>
      </trkpt>
      <trkpt lat="44.45638" lon="5.23296">
        <ele>609.61</ele>
        <time>2011-03-03T13:09:13Z</time>
      </trkpt>
      <trkpt lat="44.45633" lon="5.23299">
        <ele>610.57</ele>
        <time>2011-03-03T13:09:20Z</time>
      </trkpt>
      <trkpt lat="44.45632" lon="5.23307">
        <ele>611.54</ele>
        <time>2011-03-03T13:09:26Z</time>
      </trkpt>
      <trkpt lat="44.4563" lon="5.23313">
        <ele>612.98</ele>
        <time>2011-03-03T13:09:34Z</time>
      </trkpt>
      <trkpt lat="44.45626" lon="5.23321">
        <ele>614.42</ele>
        <time>2011-03-03T13:09:40Z</time>
      </trkpt>
      <trkpt lat="44.45627" lon="5.23325">
        <ele>615.38</ele>
        <time>2011-03-03T13:09:47Z</time>
      </trkpt>
      <trkpt lat="44.45625" lon="5.23328">
        <ele>616.34</ele>
        <time>2011-03-03T13:09:54Z</time>
      </trkpt>
      <trkpt lat="44.45631" lon="5.23332">
        <ele>617.3</ele>
        <time>2011-03-03T13:09:59Z</time>
      </trkpt>
      <trkpt lat="44.45636" lon="5.23338">
        <ele>617.78</ele>
        <time>2011-03-03T13:10:04Z</time>
      </trkpt>
      <trkpt lat="44.45636" lon="5.23341">
        <ele>618.26</ele>
        <time>2011-03-03T13:10:08Z</time>
      </trkpt>
      <trkpt lat="44.45638" lon="5.23346">
        <ele>618.75</ele>
        <time>2011-03-03T13:10:14Z</time>
      </trkpt>
      <trkpt lat="44.45647" lon="5.23351">
        <ele>619.23</ele>
        <time>2011-03-03T13:10:21Z</time>
      </trkpt>
      <trkpt lat="44.4565" lon="5.23354">
        <ele>620.19</ele>
        <time>2011-03-03T13:10:28Z</time>
      </trkpt>
      <trkpt lat="44.45657" lon="5.23358">
        <ele>619.71</ele>
        <time>2011-03-03T13:10:34Z</time>
      </trkpt>
      <trkpt lat="44.45661" lon="5.23361">
        <ele>620.19</ele>
        <time>2011-03-03T13:10:39Z</time>
      </trkpt>
      <trkpt lat="44.45664" lon="5.23365">
        <ele>620.67</ele>
        <time>2011-03-03T13:10:43Z</time>
      </trkpt>
      <trkpt lat="44.4567" lon="5.23371">
        <ele>621.15</ele>
        <time>2011-03-03T13:10:50Z</time>
      </trkpt>
      <trkpt lat="44.45673" lon="5.23375">
        <ele>622.11</ele>
        <time>2011-03-03T13:10:56Z</time>
      </trkpt>
      <trkpt lat="44.45679" lon="5.23386">
        <ele>622.11</ele>
        <time>2011-03-03T13:11:04Z</time>
      </trkpt>
      <trkpt lat="44.45681" lon="5.23391">
        <ele>623.07</ele>
        <time>2011-03-03T13:11:11Z</time>
      </trkpt>
      <trkpt lat="44.45684" lon="5.23403">
        <ele>623.55</ele>
        <time>2011-03-03T13:11:19Z</time>
      </trkpt>
      <trkpt lat="44.45686" lon="5.23409">
        <ele>625.47</ele>
        <time>2011-03-03T13:11:24Z</time>
      </trkpt>
      <trkpt lat="44.45686" lon="5.23414">
        <ele>626.44</ele>
        <time>2011-03-03T13:11:29Z</time>
      </trkpt>
      <trkpt lat="44.4569" lon="5.23413">
        <ele>626.92</ele>
        <time>2011-03-03T13:11:34Z</time>
      </trkpt>
      <trkpt lat="44.45691" lon="5.23418">
        <ele>628.36</ele>
        <time>2011-03-03T13:11:39Z</time>
      </trkpt>
      <trkpt lat="44.45695" lon="5.23422">
        <ele>628.36</ele>
        <time>2011-03-03T13:11:45Z</time>
      </trkpt>
      <trkpt lat="44.45693" lon="5.23433">
        <ele>628.84</ele>
        <time>2011-03-03T13:11:50Z</time>
      </trkpt>
      <trkpt lat="44.45696" lon="5.23437">
        <ele>627.88</ele>
        <time>2011-03-03T13:11:58Z</time>
      </trkpt>
      <trkpt lat="44.45698" lon="5.23445">
        <ele>626.44</ele>
        <time>2011-03-03T13:12:04Z</time>
      </trkpt>
      <trkpt lat="44.45702" lon="5.23447">
        <ele>627.4</ele>
        <time>2011-03-03T13:12:09Z</time>
      </trkpt>
      <trkpt lat="44.45707" lon="5.23451">
        <ele>628.84</ele>
        <time>2011-03-03T13:12:16Z</time>
      </trkpt>
      <trkpt lat="44.45707" lon="5.23455">
        <ele>630.28</ele>
        <time>2011-03-03T13:12:23Z</time>
      </trkpt>
      <trkpt lat="44.45707" lon="5.23461">
        <ele>631.72</ele>
        <time>2011-03-03T13:12:30Z</time>
      </trkpt>
      <trkpt lat="44.45711" lon="5.23467">
        <ele>632.2</ele>
        <time>2011-03-03T13:12:36Z</time>
      </trkpt>
      <trkpt lat="44.45714" lon="5.23473">
        <ele>633.65</ele>
        <time>2011-03-03T13:12:44Z</time>
      </trkpt>
      <trkpt lat="44.45716" lon="5.23476">
        <ele>634.61</ele>
        <time>2011-03-03T13:12:47Z</time>
      </trkpt>
      <trkpt lat="44.45713" lon="5.23486">
        <ele>634.61</ele>
        <time>2011-03-03T13:12:54Z</time>
      </trkpt>
      <trkpt lat="44.45716" lon="5.23493">
        <ele>635.09</ele>
        <time>2011-03-03T13:12:59Z</time>
      </trkpt>
      <trkpt lat="44.4571" lon="5.235">
        <ele>634.61</ele>
        <time>2011-03-03T13:13:06Z</time>
      </trkpt>
      <trkpt lat="44.45709" lon="5.23506">
        <ele>635.57</ele>
        <time>2011-03-03T13:13:12Z</time>
      </trkpt>
      <trkpt lat="44.4571" lon="5.23518">
        <ele>636.53</ele>
        <time>2011-03-03T13:13:19Z</time>
      </trkpt>
      <trkpt lat="44.4571" lon="5.23514">
        <ele>637.97</ele>
        <time>2011-03-03T13:13:24Z</time>
      </trkpt>
      <trkpt lat="44.45712" lon="5.23517">
        <ele>638.45</ele>
        <time>2011-03-03T13:13:29Z</time>
      </trkpt>
      <trkpt lat="44.45716" lon="5.2352">
        <ele>639.89</ele>
        <time>2011-03-03T13:13:35Z</time>
      </trkpt>
      <trkpt lat="44.45717" lon="5.23521">
        <ele>640.38</ele>
        <time>2011-03-03T13:13:37Z</time>
      </trkpt>
      <trkpt lat="44.45714" lon="5.23527">
        <ele>640.86</ele>
        <time>2011-03-03T13:13:43Z</time>
      </trkpt>
      <trkpt lat="44.45714" lon="5.23532">
        <ele>642.3</ele>
        <time>2011-03-03T13:13:49Z</time>
      </trkpt>
      <trkpt lat="44.45713" lon="5.23537">
        <ele>642.78</ele>
        <time>2011-03-03T13:13:55Z</time>
      </trkpt>
      <trkpt lat="44.45708" lon="5.23539">
        <ele>643.74</ele>
        <time>2011-03-03T13:14:02Z</time>
      </trkpt>
      <trkpt lat="44.45709" lon="5.23546">
        <ele>645.18</ele>
        <time>2011-03-03T13:14:09Z</time>
      </trkpt>
      <trkpt lat="44.45706" lon="5.23555">
        <ele>646.14</ele>
        <time>2011-03-03T13:14:16Z</time>
      </trkpt>
      <trkpt lat="44.45705" lon="5.23556">
        <ele>646.14</ele>
        <time>2011-03-03T13:14:17Z</time>
      </trkpt>
      <trkpt lat="44.45707" lon="5.2356">
        <ele>647.1</ele>
        <time>2011-03-03T13:14:20Z</time>
      </trkpt>
      <trkpt lat="44.45709" lon="5.23573">
        <ele>646.14</ele>
        <time>2011-03-03T13:14:29Z</time>
      </trkpt>
      <trkpt lat="44.45715" lon="5.23579">
        <ele>646.14</ele>
        <time>2011-03-03T13:14:34Z</time>
      </trkpt>
      <trkpt lat="44.45712" lon="5.23583">
        <ele>645.18</ele>
        <time>2011-03-03T13:14:39Z</time>
      </trkpt>
      <trkpt lat="44.45708" lon="5.23585">
        <ele>645.18</ele>
        <time>2011-03-03T13:14:44Z</time>
      </trkpt>
      <trkpt lat="44.45701" lon="5.23598">
        <ele>644.7</ele>
        <time>2011-03-03T13:14:52Z</time>
      </trkpt>
      <trkpt lat="44.45698" lon="5.23604">
        <ele>645.18</ele>
        <time>2011-03-03T13:14:58Z</time>
      </trkpt>
      <trkpt lat="44.45699" lon="5.23609">
        <ele>646.14</ele>
        <time>2011-03-03T13:15:06Z</time>
      </trkpt>
      <trkpt lat="44.45695" lon="5.23624">
        <ele>646.62</ele>
        <time>2011-03-03T13:15:15Z</time>
      </trkpt>
      <trkpt lat="44.45696" lon="5.23634">
        <ele>647.59</ele>
        <time>2011-03-03T13:15:20Z</time>
      </trkpt>
      <trkpt lat="44.45695" lon="5.2364">
        <ele>649.03</ele>
        <time>2011-03-03T13:15:28Z</time>
      </trkpt>
      <trkpt lat="44.45692" lon="5.2365">
        <ele>649.99</ele>
        <time>2011-03-03T13:15:38Z</time>
      </trkpt>
      <trkpt lat="44.45692" lon="5.23656">
        <ele>651.43</ele>
        <time>2011-03-03T13:15:45Z</time>
      </trkpt>
      <trkpt lat="44.45693" lon="5.23665">
        <ele>651.91</ele>
        <time>2011-03-03T13:15:52Z</time>
      </trkpt>
      <trkpt lat="44.45694" lon="5.23667">
        <ele>652.39</ele>
        <time>2011-03-03T13:15:53Z</time>
      </trkpt>
      <trkpt lat="44.45695" lon="5.23671">
        <ele>653.35</ele>
        <time>2011-03-03T13:15:58Z</time>
      </trkpt>
      <trkpt lat="44.45691" lon="5.23675">
        <ele>654.31</ele>
        <time>2011-03-03T13:16:06Z</time>
      </trkpt>
      <trkpt lat="44.45689" lon="5.23682">
        <ele>655.76</ele>
        <time>2011-03-03T13:16:13Z</time>
      </trkpt>
      <trkpt lat="44.45686" lon="5.23689">
        <ele>656.72</ele>
        <time>2011-03-03T13:16:21Z</time>
      </trkpt>
      <trkpt lat="44.45683" lon="5.2369">
        <ele>657.2</ele>
        <time>2011-03-03T13:16:24Z</time>
      </trkpt>
      <trkpt lat="44.45683" lon="5.237">
        <ele>659.12</ele>
        <time>2011-03-03T13:16:31Z</time>
      </trkpt>
      <trkpt lat="44.45683" lon="5.23703">
        <ele>658.64</ele>
        <time>2011-03-03T13:16:33Z</time>
      </trkpt>
      <trkpt lat="44.45684" lon="5.23705">
        <ele>659.12</ele>
        <time>2011-03-03T13:16:35Z</time>
      </trkpt>
      <trkpt lat="44.45684" lon="5.23711">
        <ele>659.12</ele>
        <time>2011-03-03T13:16:42Z</time>
      </trkpt>
      <trkpt lat="44.45685" lon="5.23714">
        <ele>659.12</ele>
        <time>2011-03-03T13:16:43Z</time>
      </trkpt>
      <trkpt lat="44.45683" lon="5.23727">
        <ele>659.6</ele>
        <time>2011-03-03T13:16:51Z</time>
      </trkpt>
      <trkpt lat="44.45683" lon="5.2373">
        <ele>659.6</ele>
        <time>2011-03-03T13:16:53Z</time>
      </trkpt>
      <trkpt lat="44.45684" lon="5.23735">
        <ele>659.6</ele>
        <time>2011-03-03T13:16:57Z</time>
      </trkpt>
      <trkpt lat="44.45683" lon="5.23739">
        <ele>660.08</ele>
        <time>2011-03-03T13:16:59Z</time>
      </trkpt>
      <trkpt lat="44.45683" lon="5.2375">
        <ele>658.64</ele>
        <time>2011-03-03T13:17:08Z</time>
      </trkpt>
      <trkpt lat="44.45683" lon="5.23762">
        <ele>659.6</ele>
        <time>2011-03-03T13:17:15Z</time>
      </trkpt>
      <trkpt lat="44.45686" lon="5.23768">
        <ele>660.56</ele>
        <time>2011-03-03T13:17:22Z</time>
      </trkpt>
      <trkpt lat="44.45685" lon="5.23776">
        <ele>661.52</ele>
        <time>2011-03-03T13:17:29Z</time>
      </trkpt>
      <trkpt lat="44.45685" lon="5.23782">
        <ele>662.97</ele>
        <time>2011-03-03T13:17:35Z</time>
      </trkpt>
      <trkpt lat="44.45691" lon="5.23778">
        <ele>663.93</ele>
        <time>2011-03-03T13:17:41Z</time>
      </trkpt>
      <trkpt lat="44.45692" lon="5.23783">
        <ele>664.41</ele>
        <time>2011-03-03T13:17:46Z</time>
      </trkpt>
      <trkpt lat="44.45694" lon="5.23788">
        <ele>665.37</ele>
        <time>2011-03-03T13:17:53Z</time>
      </trkpt>
      <trkpt lat="44.45694" lon="5.23797">
        <ele>666.81</ele>
        <time>2011-03-03T13:18:00Z</time>
      </trkpt>
      <trkpt lat="44.45695" lon="5.23805">
        <ele>666.81</ele>
        <time>2011-03-03T13:18:06Z</time>
      </trkpt>
      <trkpt lat="44.45695" lon="5.23805">
        <ele>666.81</ele>
        <time>2011-03-03T13:18:07Z</time>
      </trkpt>
      <trkpt lat="44.45693" lon="5.23812">
        <ele>668.25</ele>
        <time>2011-03-03T13:18:13Z</time>
      </trkpt>
      <trkpt lat="44.45695" lon="5.23819">
        <ele>669.22</ele>
        <time>2011-03-03T13:18:19Z</time>
      </trkpt>
      <trkpt lat="44.45701" lon="5.23831">
        <ele>670.18</ele>
        <time>2011-03-03T13:18:29Z</time>
      </trkpt>
      <trkpt lat="44.45698" lon="5.23843">
        <ele>665.37</ele>
        <time>2011-03-03T13:18:36Z</time>
      </trkpt>
      <trkpt lat="44.45698" lon="5.23844">
        <ele>673.54</ele>
        <time>2011-03-03T13:18:37Z</time>
      </trkpt>
      <trkpt lat="44.45697" lon="5.23844">
        <ele>667.29</ele>
        <time>2011-03-03T13:18:38Z</time>
      </trkpt>
      <trkpt lat="44.45694" lon="5.23842">
        <ele>669.22</ele>
        <time>2011-03-03T13:18:43Z</time>
      </trkpt>
      <trkpt lat="44.45686" lon="5.23845">
        <ele>665.37</ele>
        <time>2011-03-03T13:18:49Z</time>
      </trkpt>
      <trkpt lat="44.45684" lon="5.23845">
        <ele>670.18</ele>
        <time>2011-03-03T13:18:50Z</time>
      </trkpt>
      <trkpt lat="44.45685" lon="5.23847">
        <ele>663.45</ele>
        <time>2011-03-03T13:18:54Z</time>
      </trkpt>
      <trkpt lat="44.45683" lon="5.23848">
        <ele>666.33</ele>
        <time>2011-03-03T13:18:55Z</time>
      </trkpt>
      <trkpt lat="44.45683" lon="5.23847">
        <ele>670.18</ele>
        <time>2011-03-03T13:18:56Z</time>
      </trkpt>
      <trkpt lat="44.45683" lon="5.23847">
        <ele>675.46</ele>
        <time>2011-03-03T13:18:57Z</time>
      </trkpt>
      <trkpt lat="44.45682" lon="5.23846">
        <ele>669.7</ele>
        <time>2011-03-03T13:18:58Z</time>
      </trkpt>
      <trkpt lat="44.45681" lon="5.23845">
        <ele>675.94</ele>
        <time>2011-03-03T13:18:59Z</time>
      </trkpt>
      <trkpt lat="44.45681" lon="5.23846">
        <ele>670.18</ele>
        <time>2011-03-03T13:19:00Z</time>
      </trkpt>
      <trkpt lat="44.45674" lon="5.23844">
        <ele>673.54</ele>
        <time>2011-03-03T13:19:05Z</time>
      </trkpt>
      <trkpt lat="44.45671" lon="5.23843">
        <ele>668.25</ele>
        <time>2011-03-03T13:19:06Z</time>
      </trkpt>
      <trkpt lat="44.45665" lon="5.23848">
        <ele>670.18</ele>
        <time>2011-03-03T13:19:14Z</time>
      </trkpt>
      <trkpt lat="44.45664" lon="5.23853">
        <ele>674.02</ele>
        <time>2011-03-03T13:19:17Z</time>
      </trkpt>
      <trkpt lat="44.45662" lon="5.23855">
        <ele>670.18</ele>
        <time>2011-03-03T13:19:18Z</time>
      </trkpt>
      <trkpt lat="44.45662" lon="5.23857">
        <ele>674.02</ele>
        <time>2011-03-03T13:19:19Z</time>
      </trkpt>
      <trkpt lat="44.45661" lon="5.23858">
        <ele>668.73</ele>
        <time>2011-03-03T13:19:20Z</time>
      </trkpt>
      <trkpt lat="44.45658" lon="5.2386">
        <ele>672.1</ele>
        <time>2011-03-03T13:19:27Z</time>
      </trkpt>
      <trkpt lat="44.45658" lon="5.2386">
        <ele>671.14</ele>
        <time>2011-03-03T13:19:28Z</time>
      </trkpt>
      <trkpt lat="44.45658" lon="5.2386">
        <ele>667.77</ele>
        <time>2011-03-03T13:19:31Z</time>
      </trkpt>
      <trkpt lat="44.45658" lon="5.2386">
        <ele>669.7</ele>
        <time>2011-03-03T13:19:32Z</time>
      </trkpt>
      <trkpt lat="44.45659" lon="5.23868">
        <ele>669.7</ele>
        <time>2011-03-03T13:19:41Z</time>
      </trkpt>
      <trkpt lat="44.45653" lon="5.23875">
        <ele>670.18</ele>
        <time>2011-03-03T13:19:49Z</time>
      </trkpt>
      <trkpt lat="44.45647" lon="5.23885">
        <ele>671.14</ele>
        <time>2011-03-03T13:19:58Z</time>
      </trkpt>
      <trkpt lat="44.45646" lon="5.23888">
        <ele>672.58</ele>
        <time>2011-03-03T13:20:01Z</time>
      </trkpt>
      <trkpt lat="44.45644" lon="5.23898">
        <ele>673.06</ele>
        <time>2011-03-03T13:20:08Z</time>
      </trkpt>
      <trkpt lat="44.45639" lon="5.23908">
        <ele>673.54</ele>
        <time>2011-03-03T13:20:17Z</time>
      </trkpt>
      <trkpt lat="44.45635" lon="5.23922">
        <ele>674.5</ele>
        <time>2011-03-03T13:20:26Z</time>
      </trkpt>
      <trkpt lat="44.45637" lon="5.23932">
        <ele>674.98</ele>
        <time>2011-03-03T13:20:32Z</time>
      </trkpt>
      <trkpt lat="44.45645" lon="5.2394">
        <ele>674.02</ele>
        <time>2011-03-03T13:20:41Z</time>
      </trkpt>
      <trkpt lat="44.45654" lon="5.23943">
        <ele>673.54</ele>
        <time>2011-03-03T13:20:49Z</time>
      </trkpt>
      <trkpt lat="44.45665" lon="5.23943">
        <ele>674.5</ele>
        <time>2011-03-03T13:20:58Z</time>
      </trkpt>
      <trkpt lat="44.45672" lon="5.23945">
        <ele>675.46</ele>
        <time>2011-03-03T13:21:05Z</time>
      </trkpt>
      <trkpt lat="44.45679" lon="5.23947">
        <ele>675.94</ele>
        <time>2011-03-03T13:21:13Z</time>
      </trkpt>
      <trkpt lat="44.45687" lon="5.23944">
        <ele>677.87</ele>
        <time>2011-03-03T13:21:22Z</time>
      </trkpt>
      <trkpt lat="44.45693" lon="5.23946">
        <ele>678.35</ele>
        <time>2011-03-03T13:21:27Z</time>
      </trkpt>
      <trkpt lat="44.45697" lon="5.23953">
        <ele>679.79</ele>
        <time>2011-03-03T13:21:36Z</time>
      </trkpt>
      <trkpt lat="44.45702" lon="5.23954">
        <ele>680.75</ele>
        <time>2011-03-03T13:21:44Z</time>
      </trkpt>
      <trkpt lat="44.45709" lon="5.23954">
        <ele>681.71</ele>
        <time>2011-03-03T13:21:51Z</time>
      </trkpt>
      <trkpt lat="44.45716" lon="5.23959">
        <ele>682.67</ele>
        <time>2011-03-03T13:21:57Z</time>
      </trkpt>
      <trkpt lat="44.4572" lon="5.23954">
        <ele>683.63</ele>
        <time>2011-03-03T13:22:03Z</time>
      </trkpt>
      <trkpt lat="44.45722" lon="5.23955">
        <ele>683.63</ele>
        <time>2011-03-03T13:22:06Z</time>
      </trkpt>
      <trkpt lat="44.45724" lon="5.23959">
        <ele>684.12</ele>
        <time>2011-03-03T13:22:08Z</time>
      </trkpt>
      <trkpt lat="44.4573" lon="5.23959">
        <ele>685.56</ele>
        <time>2011-03-03T13:22:16Z</time>
      </trkpt>
      <trkpt lat="44.45736" lon="5.23956">
        <ele>686.52</ele>
        <time>2011-03-03T13:22:23Z</time>
      </trkpt>
      <trkpt lat="44.45743" lon="5.2396">
        <ele>687.96</ele>
        <time>2011-03-03T13:22:30Z</time>
      </trkpt>
      <trkpt lat="44.45749" lon="5.23965">
        <ele>688.92</ele>
        <time>2011-03-03T13:22:39Z</time>
      </trkpt>
      <trkpt lat="44.45752" lon="5.23967">
        <ele>688.92</ele>
        <time>2011-03-03T13:22:42Z</time>
      </trkpt>
      <trkpt lat="44.45756" lon="5.23965">
        <ele>690.84</ele>
        <time>2011-03-03T13:22:48Z</time>
      </trkpt>
      <trkpt lat="44.45758" lon="5.23966">
        <ele>690.84</ele>
        <time>2011-03-03T13:22:50Z</time>
      </trkpt>
      <trkpt lat="44.45763" lon="5.23969">
        <ele>691.33</ele>
        <time>2011-03-03T13:22:57Z</time>
      </trkpt>
      <trkpt lat="44.4577" lon="5.23975">
        <ele>692.77</ele>
        <time>2011-03-03T13:23:04Z</time>
      </trkpt>
      <trkpt lat="44.45774" lon="5.23982">
        <ele>690.84</ele>
        <time>2011-03-03T13:23:11Z</time>
      </trkpt>
      <trkpt lat="44.45778" lon="5.23988">
        <ele>693.25</ele>
        <time>2011-03-03T13:23:18Z</time>
      </trkpt>
      <trkpt lat="44.45782" lon="5.23992">
        <ele>694.21</ele>
        <time>2011-03-03T13:23:25Z</time>
      </trkpt>
      <trkpt lat="44.45782" lon="5.23993">
        <ele>694.21</ele>
        <time>2011-03-03T13:23:26Z</time>
      </trkpt>
      <trkpt lat="44.45785" lon="5.2401">
        <ele>693.73</ele>
        <time>2011-03-03T13:23:35Z</time>
      </trkpt>
      <trkpt lat="44.45787" lon="5.24022">
        <ele>694.69</ele>
        <time>2011-03-03T13:23:42Z</time>
      </trkpt>
      <trkpt lat="44.45788" lon="5.2403">
        <ele>695.17</ele>
        <time>2011-03-03T13:23:49Z</time>
      </trkpt>
      <trkpt lat="44.45793" lon="5.24037">
        <ele>695.17</ele>
        <time>2011-03-03T13:23:54Z</time>
      </trkpt>
      <trkpt lat="44.45793" lon="5.24042">
        <ele>696.13</ele>
        <time>2011-03-03T13:24:01Z</time>
      </trkpt>
      <trkpt lat="44.45795" lon="5.2405">
        <ele>697.09</ele>
        <time>2011-03-03T13:24:08Z</time>
      </trkpt>
      <trkpt lat="44.45799" lon="5.2406">
        <ele>698.53</ele>
        <time>2011-03-03T13:24:17Z</time>
      </trkpt>
      <trkpt lat="44.45798" lon="5.24065">
        <ele>699.02</ele>
        <time>2011-03-03T13:24:20Z</time>
      </trkpt>
      <trkpt lat="44.45799" lon="5.24067">
        <ele>700.46</ele>
        <time>2011-03-03T13:24:25Z</time>
      </trkpt>
      <trkpt lat="44.45798" lon="5.24069">
        <ele>700.94</ele>
        <time>2011-03-03T13:24:31Z</time>
      </trkpt>
      <trkpt lat="44.45801" lon="5.24074">
        <ele>702.38</ele>
        <time>2011-03-03T13:24:37Z</time>
      </trkpt>
      <trkpt lat="44.45801" lon="5.24074">
        <ele>702.86</ele>
        <time>2011-03-03T13:24:47Z</time>
      </trkpt>
      <trkpt lat="44.45807" lon="5.24076">
        <ele>704.3</ele>
        <time>2011-03-03T13:25:10Z</time>
      </trkpt>
      <trkpt lat="44.45808" lon="5.24083">
        <ele>705.75</ele>
        <time>2011-03-03T13:25:17Z</time>
      </trkpt>
      <trkpt lat="44.45808" lon="5.24083">
        <ele>706.23</ele>
        <time>2011-03-03T13:25:22Z</time>
      </trkpt>
      <trkpt lat="44.45809" lon="5.24079">
        <ele>706.71</ele>
        <time>2011-03-03T13:25:46Z</time>
      </trkpt>
      <trkpt lat="44.45812" lon="5.2407">
        <ele>707.67</ele>
        <time>2011-03-03T13:25:53Z</time>
      </trkpt>
      <trkpt lat="44.45816" lon="5.24068">
        <ele>708.15</ele>
        <time>2011-03-03T13:25:58Z</time>
      </trkpt>
      <trkpt lat="44.45816" lon="5.24061">
        <ele>709.11</ele>
        <time>2011-03-03T13:26:04Z</time>
      </trkpt>
      <trkpt lat="44.45822" lon="5.24058">
        <ele>710.55</ele>
        <time>2011-03-03T13:26:11Z</time>
      </trkpt>
      <trkpt lat="44.45821" lon="5.24052">
        <ele>711.03</ele>
        <time>2011-03-03T13:26:18Z</time>
      </trkpt>
      <trkpt lat="44.45824" lon="5.24047">
        <ele>711.99</ele>
        <time>2011-03-03T13:26:24Z</time>
      </trkpt>
      <trkpt lat="44.45826" lon="5.24046">
        <ele>712.95</ele>
        <time>2011-03-03T13:26:30Z</time>
      </trkpt>
      <trkpt lat="44.45827" lon="5.24046">
        <ele>712.95</ele>
        <time>2011-03-03T13:26:33Z</time>
      </trkpt>
      <trkpt lat="44.45826" lon="5.2405">
        <ele>714.4</ele>
        <time>2011-03-03T13:26:40Z</time>
      </trkpt>
      <trkpt lat="44.45826" lon="5.24053">
        <ele>714.88</ele>
        <time>2011-03-03T13:26:42Z</time>
      </trkpt>
      <trkpt lat="44.45826" lon="5.24059">
        <ele>715.84</ele>
        <time>2011-03-03T13:26:48Z</time>
      </trkpt>
      <trkpt lat="44.45831" lon="5.24053">
        <ele>716.8</ele>
        <time>2011-03-03T13:26:54Z</time>
      </trkpt>
      <trkpt lat="44.45831" lon="5.24053">
        <ele>716.8</ele>
        <time>2011-03-03T13:26:55Z</time>
      </trkpt>
      <trkpt lat="44.45835" lon="5.24049">
        <ele>718.24</ele>
        <time>2011-03-03T13:27:02Z</time>
      </trkpt>
      <trkpt lat="44.45836" lon="5.24043">
        <ele>719.68</ele>
        <time>2011-03-03T13:27:08Z</time>
      </trkpt>
      <trkpt lat="44.45838" lon="5.24038">
        <ele>719.68</ele>
        <time>2011-03-03T13:27:14Z</time>
      </trkpt>
      <trkpt lat="44.45837" lon="5.24033">
        <ele>721.13</ele>
        <time>2011-03-03T13:27:21Z</time>
      </trkpt>
      <trkpt lat="44.45841" lon="5.24027">
        <ele>722.57</ele>
        <time>2011-03-03T13:27:29Z</time>
      </trkpt>
      <trkpt lat="44.45839" lon="5.24018">
        <ele>724.01</ele>
        <time>2011-03-03T13:27:36Z</time>
      </trkpt>
      <trkpt lat="44.4584" lon="5.24011">
        <ele>724.01</ele>
        <time>2011-03-03T13:27:42Z</time>
      </trkpt>
      <trkpt lat="44.4584" lon="5.24009">
        <ele>724.49</ele>
        <time>2011-03-03T13:27:44Z</time>
      </trkpt>
      <trkpt lat="44.45843" lon="5.24003">
        <ele>725.45</ele>
        <time>2011-03-03T13:27:51Z</time>
      </trkpt>
      <trkpt lat="44.45843" lon="5.23998">
        <ele>725.93</ele>
        <time>2011-03-03T13:27:56Z</time>
      </trkpt>
      <trkpt lat="44.45844" lon="5.23998">
        <ele>725.93</ele>
        <time>2011-03-03T13:27:58Z</time>
      </trkpt>
      <trkpt lat="44.45847" lon="5.23992">
        <ele>726.89</ele>
        <time>2011-03-03T13:28:05Z</time>
      </trkpt>
      <trkpt lat="44.45848" lon="5.23984">
        <ele>727.37</ele>
        <time>2011-03-03T13:28:12Z</time>
      </trkpt>
      <trkpt lat="44.45844" lon="5.23975">
        <ele>728.34</ele>
        <time>2011-03-03T13:28:18Z</time>
      </trkpt>
      <trkpt lat="44.45848" lon="5.23973">
        <ele>728.82</ele>
        <time>2011-03-03T13:28:24Z</time>
      </trkpt>
      <trkpt lat="44.45847" lon="5.23968">
        <ele>730.26</ele>
        <time>2011-03-03T13:28:30Z</time>
      </trkpt>
      <trkpt lat="44.45854" lon="5.23962">
        <ele>730.74</ele>
        <time>2011-03-03T13:28:38Z</time>
      </trkpt>
      <trkpt lat="44.45854" lon="5.23961">
        <ele>731.22</ele>
        <time>2011-03-03T13:28:40Z</time>
      </trkpt>
      <trkpt lat="44.45851" lon="5.23955">
        <ele>731.7</ele>
        <time>2011-03-03T13:28:43Z</time>
      </trkpt>
      <trkpt lat="44.45848" lon="5.2395">
        <ele>732.66</ele>
        <time>2011-03-03T13:28:50Z</time>
      </trkpt>
      <trkpt lat="44.45843" lon="5.23948">
        <ele>733.62</ele>
        <time>2011-03-03T13:28:56Z</time>
      </trkpt>
      <trkpt lat="44.45842" lon="5.23943">
        <ele>734.58</ele>
        <time>2011-03-03T13:29:02Z</time>
      </trkpt>
      <trkpt lat="44.45838" lon="5.23942">
        <ele>735.07</ele>
        <time>2011-03-03T13:29:08Z</time>
      </trkpt>
      <trkpt lat="44.45834" lon="5.23932">
        <ele>736.03</ele>
        <time>2011-03-03T13:29:14Z</time>
      </trkpt>
      <trkpt lat="44.45833" lon="5.23927">
        <ele>736.03</ele>
        <time>2011-03-03T13:29:18Z</time>
      </trkpt>
      <trkpt lat="44.45831" lon="5.23921">
        <ele>736.99</ele>
        <time>2011-03-03T13:29:24Z</time>
      </trkpt>
      <trkpt lat="44.45828" lon="5.23917">
        <ele>737.47</ele>
        <time>2011-03-03T13:29:29Z</time>
      </trkpt>
      <trkpt lat="44.45827" lon="5.23919">
        <ele>737.95</ele>
        <time>2011-03-03T13:29:31Z</time>
      </trkpt>
      <trkpt lat="44.45825" lon="5.23917">
        <ele>738.43</ele>
        <time>2011-03-03T13:29:37Z</time>
      </trkpt>
      <trkpt lat="44.4582" lon="5.23909">
        <ele>739.87</ele>
        <time>2011-03-03T13:29:45Z</time>
      </trkpt>
      <trkpt lat="44.45819" lon="5.23907">
        <ele>740.83</ele>
        <time>2011-03-03T13:29:52Z</time>
      </trkpt>
      <trkpt lat="44.45816" lon="5.23901">
        <ele>740.83</ele>
        <time>2011-03-03T13:29:57Z</time>
      </trkpt>
      <trkpt lat="44.45815" lon="5.23896">
        <ele>742.28</ele>
        <time>2011-03-03T13:30:04Z</time>
      </trkpt>
      <trkpt lat="44.45812" lon="5.23896">
        <ele>742.76</ele>
        <time>2011-03-03T13:30:11Z</time>
      </trkpt>
      <trkpt lat="44.45809" lon="5.23887">
        <ele>743.72</ele>
        <time>2011-03-03T13:30:17Z</time>
      </trkpt>
      <trkpt lat="44.45807" lon="5.23885">
        <ele>745.16</ele>
        <time>2011-03-03T13:30:23Z</time>
      </trkpt>
      <trkpt lat="44.45803" lon="5.2388">
        <ele>746.12</ele>
        <time>2011-03-03T13:30:30Z</time>
      </trkpt>
      <trkpt lat="44.45808" lon="5.23874">
        <ele>747.08</ele>
        <time>2011-03-03T13:30:36Z</time>
      </trkpt>
      <trkpt lat="44.45811" lon="5.23873">
        <ele>748.04</ele>
        <time>2011-03-03T13:30:42Z</time>
      </trkpt>
      <trkpt lat="44.4581" lon="5.2387">
        <ele>749</ele>
        <time>2011-03-03T13:30:48Z</time>
      </trkpt>
      <trkpt lat="44.45813" lon="5.23867">
        <ele>749.97</ele>
        <time>2011-03-03T13:30:54Z</time>
      </trkpt>
      <trkpt lat="44.45814" lon="5.23865">
        <ele>750.93</ele>
        <time>2011-03-03T13:31:01Z</time>
      </trkpt>
      <trkpt lat="44.45818" lon="5.23862">
        <ele>751.89</ele>
        <time>2011-03-03T13:31:07Z</time>
      </trkpt>
      <trkpt lat="44.45817" lon="5.23858">
        <ele>753.33</ele>
        <time>2011-03-03T13:31:13Z</time>
      </trkpt>
      <trkpt lat="44.45823" lon="5.23856">
        <ele>754.77</ele>
        <time>2011-03-03T13:31:19Z</time>
      </trkpt>
      <trkpt lat="44.45822" lon="5.23853">
        <ele>755.25</ele>
        <time>2011-03-03T13:31:24Z</time>
      </trkpt>
      <trkpt lat="44.45826" lon="5.23849">
        <ele>756.69</ele>
        <time>2011-03-03T13:31:30Z</time>
      </trkpt>
      <trkpt lat="44.45824" lon="5.23845">
        <ele>757.18</ele>
        <time>2011-03-03T13:31:36Z</time>
      </trkpt>
      <trkpt lat="44.45834" lon="5.23842">
        <ele>759.1</ele>
        <time>2011-03-03T13:31:44Z</time>
      </trkpt>
      <trkpt lat="44.45834" lon="5.23838">
        <ele>761.02</ele>
        <time>2011-03-03T13:31:54Z</time>
      </trkpt>
      <trkpt lat="44.45835" lon="5.23835">
        <ele>761.5</ele>
        <time>2011-03-03T13:32:00Z</time>
      </trkpt>
      <trkpt lat="44.45839" lon="5.23832">
        <ele>762.46</ele>
        <time>2011-03-03T13:32:06Z</time>
      </trkpt>
      <trkpt lat="44.4584" lon="5.23829">
        <ele>763.42</ele>
        <time>2011-03-03T13:32:12Z</time>
      </trkpt>
      <trkpt lat="44.45842" lon="5.23825">
        <ele>764.39</ele>
        <time>2011-03-03T13:32:17Z</time>
      </trkpt>
      <trkpt lat="44.45843" lon="5.23817">
        <ele>766.31</ele>
        <time>2011-03-03T13:32:25Z</time>
      </trkpt>
      <trkpt lat="44.45844" lon="5.23818">
        <ele>766.31</ele>
        <time>2011-03-03T13:32:31Z</time>
      </trkpt>
      <trkpt lat="44.45844" lon="5.23823">
        <ele>767.27</ele>
        <time>2011-03-03T13:32:38Z</time>
      </trkpt>
      <trkpt lat="44.45846" lon="5.23827">
        <ele>768.71</ele>
        <time>2011-03-03T13:32:44Z</time>
      </trkpt>
      <trkpt lat="44.45844" lon="5.23835">
        <ele>769.67</ele>
        <time>2011-03-03T13:32:50Z</time>
      </trkpt>
      <trkpt lat="44.45848" lon="5.23832">
        <ele>770.63</ele>
        <time>2011-03-03T13:32:56Z</time>
      </trkpt>
      <trkpt lat="44.45853" lon="5.23831">
        <ele>772.08</ele>
        <time>2011-03-03T13:33:02Z</time>
      </trkpt>
      <trkpt lat="44.45852" lon="5.23823">
        <ele>772.56</ele>
        <time>2011-03-03T13:33:08Z</time>
      </trkpt>
      <trkpt lat="44.45853" lon="5.23822">
        <ele>774</ele>
        <time>2011-03-03T13:33:13Z</time>
      </trkpt>
      <trkpt lat="44.45857" lon="5.23818">
        <ele>774.48</ele>
        <time>2011-03-03T13:33:19Z</time>
      </trkpt>
      <trkpt lat="44.45856" lon="5.2381">
        <ele>774.96</ele>
        <time>2011-03-03T13:33:25Z</time>
      </trkpt>
      <trkpt lat="44.45857" lon="5.238">
        <ele>776.4</ele>
        <time>2011-03-03T13:33:32Z</time>
      </trkpt>
      <trkpt lat="44.45856" lon="5.23797">
        <ele>776.88</ele>
        <time>2011-03-03T13:33:37Z</time>
      </trkpt>
      <trkpt lat="44.45856" lon="5.23798">
        <ele>777.36</ele>
        <time>2011-03-03T13:33:39Z</time>
      </trkpt>
      <trkpt lat="44.45856" lon="5.2379">
        <ele>778.32</ele>
        <time>2011-03-03T13:33:47Z</time>
      </trkpt>
      <trkpt lat="44.45863" lon="5.2379">
        <ele>779.29</ele>
        <time>2011-03-03T13:33:52Z</time>
      </trkpt>
      <trkpt lat="44.45867" lon="5.23786">
        <ele>780.25</ele>
        <time>2011-03-03T13:33:58Z</time>
      </trkpt>
      <trkpt lat="44.45866" lon="5.2378">
        <ele>781.21</ele>
        <time>2011-03-03T13:34:04Z</time>
      </trkpt>
      <trkpt lat="44.45875" lon="5.23779">
        <ele>782.65</ele>
        <time>2011-03-03T13:34:11Z</time>
      </trkpt>
      <trkpt lat="44.45874" lon="5.23777">
        <ele>783.61</ele>
        <time>2011-03-03T13:34:16Z</time>
      </trkpt>
      <trkpt lat="44.45879" lon="5.23774">
        <ele>784.57</ele>
        <time>2011-03-03T13:34:22Z</time>
      </trkpt>
      <trkpt lat="44.45882" lon="5.23772">
        <ele>785.53</ele>
        <time>2011-03-03T13:34:29Z</time>
      </trkpt>
      <trkpt lat="44.4589" lon="5.23772">
        <ele>786.5</ele>
        <time>2011-03-03T13:34:34Z</time>
      </trkpt>
      <trkpt lat="44.4589" lon="5.23766">
        <ele>787.46</ele>
        <time>2011-03-03T13:34:39Z</time>
      </trkpt>
      <trkpt lat="44.45888" lon="5.23758">
        <ele>788.42</ele>
        <time>2011-03-03T13:34:45Z</time>
      </trkpt>
      <trkpt lat="44.45888" lon="5.23754">
        <ele>789.38</ele>
        <time>2011-03-03T13:34:51Z</time>
      </trkpt>
      <trkpt lat="44.45896" lon="5.23752">
        <ele>789.86</ele>
        <time>2011-03-03T13:34:58Z</time>
      </trkpt>
      <trkpt lat="44.45895" lon="5.23745">
        <ele>790.82</ele>
        <time>2011-03-03T13:35:04Z</time>
      </trkpt>
      <trkpt lat="44.45899" lon="5.23742">
        <ele>792.26</ele>
        <time>2011-03-03T13:35:09Z</time>
      </trkpt>
      <trkpt lat="44.45902" lon="5.23735">
        <ele>792.74</ele>
        <time>2011-03-03T13:35:15Z</time>
      </trkpt>
      <trkpt lat="44.45906" lon="5.23733">
        <ele>793.71</ele>
        <time>2011-03-03T13:35:21Z</time>
      </trkpt>
      <trkpt lat="44.45908" lon="5.2373">
        <ele>795.15</ele>
        <time>2011-03-03T13:35:28Z</time>
      </trkpt>
      <trkpt lat="44.45912" lon="5.23724">
        <ele>795.63</ele>
        <time>2011-03-03T13:35:34Z</time>
      </trkpt>
      <trkpt lat="44.45914" lon="5.23719">
        <ele>797.07</ele>
        <time>2011-03-03T13:35:42Z</time>
      </trkpt>
      <trkpt lat="44.45918" lon="5.23714">
        <ele>797.55</ele>
        <time>2011-03-03T13:35:46Z</time>
      </trkpt>
      <trkpt lat="44.45922" lon="5.23712">
        <ele>798.51</ele>
        <time>2011-03-03T13:35:52Z</time>
      </trkpt>
      <trkpt lat="44.45924" lon="5.23708">
        <ele>798.99</ele>
        <time>2011-03-03T13:35:57Z</time>
      </trkpt>
      <trkpt lat="44.45922" lon="5.23707">
        <ele>799.47</ele>
        <time>2011-03-03T13:35:58Z</time>
      </trkpt>
      <trkpt lat="44.45926" lon="5.23704">
        <ele>800.44</ele>
        <time>2011-03-03T13:36:06Z</time>
      </trkpt>
      <trkpt lat="44.45926" lon="5.23702">
        <ele>801.88</ele>
        <time>2011-03-03T13:36:12Z</time>
      </trkpt>
      <trkpt lat="44.45931" lon="5.23697">
        <ele>802.84</ele>
        <time>2011-03-03T13:36:18Z</time>
      </trkpt>
      <trkpt lat="44.45934" lon="5.23693">
        <ele>803.8</ele>
        <time>2011-03-03T13:36:23Z</time>
      </trkpt>
      <trkpt lat="44.45933" lon="5.23686">
        <ele>805.24</ele>
        <time>2011-03-03T13:36:29Z</time>
      </trkpt>
      <trkpt lat="44.45933" lon="5.23686">
        <ele>806.2</ele>
        <time>2011-03-03T13:36:35Z</time>
      </trkpt>
      <trkpt lat="44.45938" lon="5.23682">
        <ele>807.16</ele>
        <time>2011-03-03T13:36:42Z</time>
      </trkpt>
      <trkpt lat="44.45939" lon="5.23675">
        <ele>808.13</ele>
        <time>2011-03-03T13:36:49Z</time>
      </trkpt>
      <trkpt lat="44.45942" lon="5.23672">
        <ele>809.09</ele>
        <time>2011-03-03T13:36:55Z</time>
      </trkpt>
      <trkpt lat="44.45945" lon="5.23668">
        <ele>810.05</ele>
        <time>2011-03-03T13:37:00Z</time>
      </trkpt>
      <trkpt lat="44.45947" lon="5.23665">
        <ele>811.01</ele>
        <time>2011-03-03T13:37:06Z</time>
      </trkpt>
      <trkpt lat="44.45948" lon="5.2366">
        <ele>811.97</ele>
        <time>2011-03-03T13:37:13Z</time>
      </trkpt>
      <trkpt lat="44.45952" lon="5.23658">
        <ele>812.45</ele>
        <time>2011-03-03T13:37:18Z</time>
      </trkpt>
      <trkpt lat="44.45952" lon="5.23656">
        <ele>814.37</ele>
        <time>2011-03-03T13:37:23Z</time>
      </trkpt>
      <trkpt lat="44.45956" lon="5.2365">
        <ele>814.85</ele>
        <time>2011-03-03T13:37:28Z</time>
      </trkpt>
      <trkpt lat="44.45958" lon="5.23648">
        <ele>815.34</ele>
        <time>2011-03-03T13:37:32Z</time>
      </trkpt>
      <trkpt lat="44.4596" lon="5.23644">
        <ele>815.82</ele>
        <time>2011-03-03T13:37:35Z</time>
      </trkpt>
      <trkpt lat="44.45961" lon="5.23639">
        <ele>816.3</ele>
        <time>2011-03-03T13:37:39Z</time>
      </trkpt>
      <trkpt lat="44.45963" lon="5.23637">
        <ele>816.78</ele>
        <time>2011-03-03T13:37:41Z</time>
      </trkpt>
      <trkpt lat="44.45965" lon="5.23634">
        <ele>817.74</ele>
        <time>2011-03-03T13:37:47Z</time>
      </trkpt>
      <trkpt lat="44.45965" lon="5.23632">
        <ele>818.22</ele>
        <time>2011-03-03T13:37:52Z</time>
      </trkpt>
      <trkpt lat="44.45966" lon="5.23629">
        <ele>818.22</ele>
        <time>2011-03-03T13:37:54Z</time>
      </trkpt>
      <trkpt lat="44.45972" lon="5.23624">
        <ele>819.66</ele>
        <time>2011-03-03T13:38:00Z</time>
      </trkpt>
      <trkpt lat="44.45974" lon="5.23618">
        <ele>820.62</ele>
        <time>2011-03-03T13:38:07Z</time>
      </trkpt>
      <trkpt lat="44.45982" lon="5.23618">
        <ele>821.1</ele>
        <time>2011-03-03T13:38:13Z</time>
      </trkpt>
      <trkpt lat="44.45983" lon="5.23617">
        <ele>821.58</ele>
        <time>2011-03-03T13:38:14Z</time>
      </trkpt>
      <trkpt lat="44.45982" lon="5.23612">
        <ele>822.55</ele>
        <time>2011-03-03T13:38:20Z</time>
      </trkpt>
      <trkpt lat="44.45985" lon="5.23604">
        <ele>823.99</ele>
        <time>2011-03-03T13:38:27Z</time>
      </trkpt>
      <trkpt lat="44.45987" lon="5.23599">
        <ele>824.47</ele>
        <time>2011-03-03T13:38:34Z</time>
      </trkpt>
      <trkpt lat="44.45992" lon="5.23594">
        <ele>825.43</ele>
        <time>2011-03-03T13:38:40Z</time>
      </trkpt>
      <trkpt lat="44.45993" lon="5.23585">
        <ele>826.87</ele>
        <time>2011-03-03T13:38:47Z</time>
      </trkpt>
      <trkpt lat="44.45999" lon="5.23585">
        <ele>827.83</ele>
        <time>2011-03-03T13:38:54Z</time>
      </trkpt>
      <trkpt lat="44.46002" lon="5.23582">
        <ele>829.27</ele>
        <time>2011-03-03T13:39:01Z</time>
      </trkpt>
      <trkpt lat="44.46006" lon="5.23577">
        <ele>830.24</ele>
        <time>2011-03-03T13:39:08Z</time>
      </trkpt>
      <trkpt lat="44.46008" lon="5.23573">
        <ele>831.68</ele>
        <time>2011-03-03T13:39:13Z</time>
      </trkpt>
      <trkpt lat="44.46013" lon="5.23572">
        <ele>832.16</ele>
        <time>2011-03-03T13:39:18Z</time>
      </trkpt>
      <trkpt lat="44.46014" lon="5.23565">
        <ele>833.6</ele>
        <time>2011-03-03T13:39:25Z</time>
      </trkpt>
      <trkpt lat="44.46015" lon="5.23561">
        <ele>833.12</ele>
        <time>2011-03-03T13:39:29Z</time>
      </trkpt>
      <trkpt lat="44.46014" lon="5.23558">
        <ele>833.6</ele>
        <time>2011-03-03T13:39:31Z</time>
      </trkpt>
      <trkpt lat="44.46009" lon="5.23544">
        <ele>833.6</ele>
        <time>2011-03-03T13:39:38Z</time>
      </trkpt>
      <trkpt lat="44.46006" lon="5.23537">
        <ele>833.6</ele>
        <time>2011-03-03T13:39:43Z</time>
      </trkpt>
      <trkpt lat="44.46011" lon="5.23528">
        <ele>833.6</ele>
        <time>2011-03-03T13:39:51Z</time>
      </trkpt>
      <trkpt lat="44.46013" lon="5.23522">
        <ele>833.6</ele>
        <time>2011-03-03T13:39:55Z</time>
      </trkpt>
      <trkpt lat="44.4602" lon="5.23515">
        <ele>834.56</ele>
        <time>2011-03-03T13:40:03Z</time>
      </trkpt>
      <trkpt lat="44.46021" lon="5.23509">
        <ele>834.56</ele>
        <time>2011-03-03T13:40:07Z</time>
      </trkpt>
      <trkpt lat="44.46027" lon="5.23505">
        <ele>835.52</ele>
        <time>2011-03-03T13:40:13Z</time>
      </trkpt>
      <trkpt lat="44.46028" lon="5.23502">
        <ele>836.48</ele>
        <time>2011-03-03T13:40:19Z</time>
      </trkpt>
      <trkpt lat="44.46028" lon="5.23499">
        <ele>836.48</ele>
        <time>2011-03-03T13:40:20Z</time>
      </trkpt>
      <trkpt lat="44.46037" lon="5.23497">
        <ele>836</ele>
        <time>2011-03-03T13:40:24Z</time>
      </trkpt>
      <trkpt lat="44.46039" lon="5.23499">
        <ele>835.52</ele>
        <time>2011-03-03T13:40:27Z</time>
      </trkpt>
      <trkpt lat="44.46048" lon="5.23494">
        <ele>834.56</ele>
        <time>2011-03-03T13:40:34Z</time>
      </trkpt>
      <trkpt lat="44.46052" lon="5.2349">
        <ele>834.56</ele>
        <time>2011-03-03T13:40:42Z</time>
      </trkpt>
      <trkpt lat="44.46056" lon="5.23489">
        <ele>834.56</ele>
        <time>2011-03-03T13:40:44Z</time>
      </trkpt>
      <trkpt lat="44.4606" lon="5.23486">
        <ele>835.04</ele>
        <time>2011-03-03T13:40:48Z</time>
      </trkpt>
      <trkpt lat="44.46067" lon="5.23483">
        <ele>835.52</ele>
        <time>2011-03-03T13:40:54Z</time>
      </trkpt>
      <trkpt lat="44.46074" lon="5.23485">
        <ele>836.48</ele>
        <time>2011-03-03T13:41:02Z</time>
      </trkpt>
      <trkpt lat="44.4608" lon="5.23476">
        <ele>836.96</ele>
        <time>2011-03-03T13:41:10Z</time>
      </trkpt>
      <trkpt lat="44.46081" lon="5.23475">
        <ele>836.96</ele>
        <time>2011-03-03T13:41:11Z</time>
      </trkpt>
      <trkpt lat="44.46085" lon="5.23468">
        <ele>836.96</ele>
        <time>2011-03-03T13:41:15Z</time>
      </trkpt>
      <trkpt lat="44.46087" lon="5.23454">
        <ele>836</ele>
        <time>2011-03-03T13:41:23Z</time>
      </trkpt>
      <trkpt lat="44.46093" lon="5.23455">
        <ele>836.96</ele>
        <time>2011-03-03T13:41:29Z</time>
      </trkpt>
      <trkpt lat="44.46097" lon="5.23448">
        <ele>837.93</ele>
        <time>2011-03-03T13:41:35Z</time>
      </trkpt>
      <trkpt lat="44.46095" lon="5.2344">
        <ele>837.93</ele>
        <time>2011-03-03T13:41:41Z</time>
      </trkpt>
      <trkpt lat="44.4609" lon="5.23432">
        <ele>836.96</ele>
        <time>2011-03-03T13:41:48Z</time>
      </trkpt>
      <trkpt lat="44.46089" lon="5.2342">
        <ele>838.41</ele>
        <time>2011-03-03T13:41:55Z</time>
      </trkpt>
      <trkpt lat="44.46089" lon="5.23413">
        <ele>839.37</ele>
        <time>2011-03-03T13:42:03Z</time>
      </trkpt>
      <trkpt lat="44.46091" lon="5.23401">
        <ele>839.85</ele>
        <time>2011-03-03T13:42:08Z</time>
      </trkpt>
      <trkpt lat="44.46094" lon="5.234">
        <ele>840.81</ele>
        <time>2011-03-03T13:42:14Z</time>
      </trkpt>
      <trkpt lat="44.46093" lon="5.23397">
        <ele>842.25</ele>
        <time>2011-03-03T13:42:21Z</time>
      </trkpt>
      <trkpt lat="44.46093" lon="5.23389">
        <ele>843.21</ele>
        <time>2011-03-03T13:42:29Z</time>
      </trkpt>
      <trkpt lat="44.46097" lon="5.23383">
        <ele>845.14</ele>
        <time>2011-03-03T13:42:35Z</time>
      </trkpt>
      <trkpt lat="44.46098" lon="5.23381">
        <ele>846.1</ele>
        <time>2011-03-03T13:42:40Z</time>
      </trkpt>
      <trkpt lat="44.46096" lon="5.23376">
        <ele>846.58</ele>
        <time>2011-03-03T13:42:45Z</time>
      </trkpt>
      <trkpt lat="44.46094" lon="5.23368">
        <ele>847.54</ele>
        <time>2011-03-03T13:42:51Z</time>
      </trkpt>
      <trkpt lat="44.46094" lon="5.23364">
        <ele>848.5</ele>
        <time>2011-03-03T13:42:57Z</time>
      </trkpt>
      <trkpt lat="44.46092" lon="5.23357">
        <ele>849.94</ele>
        <time>2011-03-03T13:43:02Z</time>
      </trkpt>
      <trkpt lat="44.46094" lon="5.23352">
        <ele>850.9</ele>
        <time>2011-03-03T13:43:08Z</time>
      </trkpt>
      <trkpt lat="44.46091" lon="5.23347">
        <ele>851.38</ele>
        <time>2011-03-03T13:43:13Z</time>
      </trkpt>
      <trkpt lat="44.46089" lon="5.23337">
        <ele>852.35</ele>
        <time>2011-03-03T13:43:20Z</time>
      </trkpt>
      <trkpt lat="44.46086" lon="5.23335">
        <ele>852.83</ele>
        <time>2011-03-03T13:43:25Z</time>
      </trkpt>
      <trkpt lat="44.46085" lon="5.23328">
        <ele>853.79</ele>
        <time>2011-03-03T13:43:32Z</time>
      </trkpt>
      <trkpt lat="44.46083" lon="5.23323">
        <ele>854.27</ele>
        <time>2011-03-03T13:43:38Z</time>
      </trkpt>
      <trkpt lat="44.4608" lon="5.23313">
        <ele>855.23</ele>
        <time>2011-03-03T13:43:44Z</time>
      </trkpt>
      <trkpt lat="44.46074" lon="5.23311">
        <ele>855.71</ele>
        <time>2011-03-03T13:43:50Z</time>
      </trkpt>
      <trkpt lat="44.46067" lon="5.23299">
        <ele>856.19</ele>
        <time>2011-03-03T13:43:57Z</time>
      </trkpt>
      <trkpt lat="44.46059" lon="5.23295">
        <ele>856.19</ele>
        <time>2011-03-03T13:44:04Z</time>
      </trkpt>
      <trkpt lat="44.46057" lon="5.23292">
        <ele>856.19</ele>
        <time>2011-03-03T13:44:05Z</time>
      </trkpt>
      <trkpt lat="44.46051" lon="5.23287">
        <ele>856.67</ele>
        <time>2011-03-03T13:44:13Z</time>
      </trkpt>
      <trkpt lat="44.46047" lon="5.2328">
        <ele>857.15</ele>
        <time>2011-03-03T13:44:19Z</time>
      </trkpt>
      <trkpt lat="44.46042" lon="5.23277">
        <ele>857.15</ele>
        <time>2011-03-03T13:44:24Z</time>
      </trkpt>
      <trkpt lat="44.46036" lon="5.23266">
        <ele>857.15</ele>
        <time>2011-03-03T13:44:33Z</time>
      </trkpt>
      <trkpt lat="44.46033" lon="5.23265">
        <ele>857.63</ele>
        <time>2011-03-03T13:44:41Z</time>
      </trkpt>
      <trkpt lat="44.46034" lon="5.2326">
        <ele>858.11</ele>
        <time>2011-03-03T13:44:46Z</time>
      </trkpt>
      <trkpt lat="44.46033" lon="5.23259">
        <ele>857.63</ele>
        <time>2011-03-03T13:44:47Z</time>
      </trkpt>
      <trkpt lat="44.46032" lon="5.23254">
        <ele>858.59</ele>
        <time>2011-03-03T13:44:49Z</time>
      </trkpt>
      <trkpt lat="44.46036" lon="5.23251">
        <ele>859.08</ele>
        <time>2011-03-03T13:44:56Z</time>
      </trkpt>
      <trkpt lat="44.46037" lon="5.23242">
        <ele>858.59</ele>
        <time>2011-03-03T13:45:00Z</time>
      </trkpt>
      <trkpt lat="44.4604" lon="5.23233">
        <ele>858.59</ele>
        <time>2011-03-03T13:45:08Z</time>
      </trkpt>
      <trkpt lat="44.4604" lon="5.23224">
        <ele>859.08</ele>
        <time>2011-03-03T13:45:13Z</time>
      </trkpt>
      <trkpt lat="44.46043" lon="5.23224">
        <ele>859.08</ele>
        <time>2011-03-03T13:45:16Z</time>
      </trkpt>
      <trkpt lat="44.46045" lon="5.23214">
        <ele>859.08</ele>
        <time>2011-03-03T13:45:22Z</time>
      </trkpt>
      <trkpt lat="44.46048" lon="5.23209">
        <ele>859.08</ele>
        <time>2011-03-03T13:45:27Z</time>
      </trkpt>
      <trkpt lat="44.46051" lon="5.23197">
        <ele>859.56</ele>
        <time>2011-03-03T13:45:35Z</time>
      </trkpt>
      <trkpt lat="44.46053" lon="5.23185">
        <ele>858.11</ele>
        <time>2011-03-03T13:45:43Z</time>
      </trkpt>
      <trkpt lat="44.46057" lon="5.23176">
        <ele>856.67</ele>
        <time>2011-03-03T13:45:51Z</time>
      </trkpt>
      <trkpt lat="44.4606" lon="5.23166">
        <ele>857.15</ele>
        <time>2011-03-03T13:45:59Z</time>
      </trkpt>
      <trkpt lat="44.46061" lon="5.23158">
        <ele>856.67</ele>
        <time>2011-03-03T13:46:03Z</time>
      </trkpt>
      <trkpt lat="44.46065" lon="5.2315">
        <ele>857.15</ele>
        <time>2011-03-03T13:46:10Z</time>
      </trkpt>
      <trkpt lat="44.46066" lon="5.23145">
        <ele>856.67</ele>
        <time>2011-03-03T13:46:12Z</time>
      </trkpt>
      <trkpt lat="44.46072" lon="5.23133">
        <ele>857.15</ele>
        <time>2011-03-03T13:46:20Z</time>
      </trkpt>
      <trkpt lat="44.46074" lon="5.23126">
        <ele>857.63</ele>
        <time>2011-03-03T13:46:26Z</time>
      </trkpt>
      <trkpt lat="44.46078" lon="5.23116">
        <ele>857.63</ele>
        <time>2011-03-03T13:46:34Z</time>
      </trkpt>
      <trkpt lat="44.46082" lon="5.23111">
        <ele>857.15</ele>
        <time>2011-03-03T13:46:40Z</time>
      </trkpt>
      <trkpt lat="44.46092" lon="5.23106">
        <ele>855.71</ele>
        <time>2011-03-03T13:46:48Z</time>
      </trkpt>
      <trkpt lat="44.46101" lon="5.23101">
        <ele>854.27</ele>
        <time>2011-03-03T13:46:57Z</time>
      </trkpt>
      <trkpt lat="44.4611" lon="5.23096">
        <ele>853.31</ele>
        <time>2011-03-03T13:47:04Z</time>
      </trkpt>
      <trkpt lat="44.46115" lon="5.23085">
        <ele>852.83</ele>
        <time>2011-03-03T13:47:11Z</time>
      </trkpt>
      <trkpt lat="44.4612" lon="5.23082">
        <ele>851.87</ele>
        <time>2011-03-03T13:47:16Z</time>
      </trkpt>
      <trkpt lat="44.46129" lon="5.23073">
        <ele>850.9</ele>
        <time>2011-03-03T13:47:24Z</time>
      </trkpt>
      <trkpt lat="44.46134" lon="5.23068">
        <ele>850.9</ele>
        <time>2011-03-03T13:47:31Z</time>
      </trkpt>
      <trkpt lat="44.46142" lon="5.2306">
        <ele>849.46</ele>
        <time>2011-03-03T13:47:40Z</time>
      </trkpt>
      <trkpt lat="44.46145" lon="5.23049">
        <ele>847.54</ele>
        <time>2011-03-03T13:47:47Z</time>
      </trkpt>
      <trkpt lat="44.46156" lon="5.23041">
        <ele>846.58</ele>
        <time>2011-03-03T13:47:56Z</time>
      </trkpt>
      <trkpt lat="44.46159" lon="5.23036">
        <ele>846.1</ele>
        <time>2011-03-03T13:48:02Z</time>
      </trkpt>
      <trkpt lat="44.46162" lon="5.23036">
        <ele>846.1</ele>
        <time>2011-03-03T13:48:06Z</time>
      </trkpt>
      <trkpt lat="44.46165" lon="5.2302">
        <ele>844.66</ele>
        <time>2011-03-03T13:48:14Z</time>
      </trkpt>
      <trkpt lat="44.46177" lon="5.23016">
        <ele>844.18</ele>
        <time>2011-03-03T13:48:23Z</time>
      </trkpt>
      <trkpt lat="44.46184" lon="5.23014">
        <ele>845.14</ele>
        <time>2011-03-03T13:48:31Z</time>
      </trkpt>
      <trkpt lat="44.46189" lon="5.23008">
        <ele>846.1</ele>
        <time>2011-03-03T13:48:38Z</time>
      </trkpt>
      <trkpt lat="44.46195" lon="5.2301">
        <ele>846.58</ele>
        <time>2011-03-03T13:48:45Z</time>
      </trkpt>
      <trkpt lat="44.46198" lon="5.23007">
        <ele>847.54</ele>
        <time>2011-03-03T13:48:52Z</time>
      </trkpt>
      <trkpt lat="44.46203" lon="5.22996">
        <ele>847.54</ele>
        <time>2011-03-03T13:48:59Z</time>
      </trkpt>
      <trkpt lat="44.4621" lon="5.22995">
        <ele>848.02</ele>
        <time>2011-03-03T13:49:04Z</time>
      </trkpt>
      <trkpt lat="44.46216" lon="5.22989">
        <ele>847.54</ele>
        <time>2011-03-03T13:49:11Z</time>
      </trkpt>
      <trkpt lat="44.46219" lon="5.22987">
        <ele>848.98</ele>
        <time>2011-03-03T13:49:18Z</time>
      </trkpt>
      <trkpt lat="44.46224" lon="5.22987">
        <ele>849.94</ele>
        <time>2011-03-03T13:49:24Z</time>
      </trkpt>
      <trkpt lat="44.46226" lon="5.22982">
        <ele>850.9</ele>
        <time>2011-03-03T13:49:32Z</time>
      </trkpt>
      <trkpt lat="44.46234" lon="5.2298">
        <ele>851.87</ele>
        <time>2011-03-03T13:49:39Z</time>
      </trkpt>
      <trkpt lat="44.46239" lon="5.22979">
        <ele>852.83</ele>
        <time>2011-03-03T13:49:46Z</time>
      </trkpt>
      <trkpt lat="44.46243" lon="5.22977">
        <ele>854.27</ele>
        <time>2011-03-03T13:49:54Z</time>
      </trkpt>
      <trkpt lat="44.46247" lon="5.22977">
        <ele>855.23</ele>
        <time>2011-03-03T13:50:00Z</time>
      </trkpt>
      <trkpt lat="44.46254" lon="5.22975">
        <ele>856.19</ele>
        <time>2011-03-03T13:50:07Z</time>
      </trkpt>
      <trkpt lat="44.46259" lon="5.22976">
        <ele>857.15</ele>
        <time>2011-03-03T13:50:15Z</time>
      </trkpt>
      <trkpt lat="44.4626" lon="5.22977">
        <ele>857.63</ele>
        <time>2011-03-03T13:50:16Z</time>
      </trkpt>
      <trkpt lat="44.46269" lon="5.2298">
        <ele>858.59</ele>
        <time>2011-03-03T13:50:26Z</time>
      </trkpt>
      <trkpt lat="44.46273" lon="5.22976">
        <ele>859.08</ele>
        <time>2011-03-03T13:50:31Z</time>
      </trkpt>
      <trkpt lat="44.46279" lon="5.22977">
        <ele>858.59</ele>
        <time>2011-03-03T13:50:39Z</time>
      </trkpt>
      <trkpt lat="44.46286" lon="5.22977">
        <ele>859.56</ele>
        <time>2011-03-03T13:50:47Z</time>
      </trkpt>
      <trkpt lat="44.46293" lon="5.22985">
        <ele>860.52</ele>
        <time>2011-03-03T13:50:54Z</time>
      </trkpt>
      <trkpt lat="44.46296" lon="5.22984">
        <ele>861.96</ele>
        <time>2011-03-03T13:51:02Z</time>
      </trkpt>
      <trkpt lat="44.46301" lon="5.22982">
        <ele>862.44</ele>
        <time>2011-03-03T13:51:08Z</time>
      </trkpt>
      <trkpt lat="44.46306" lon="5.22985">
        <ele>862.92</ele>
        <time>2011-03-03T13:51:13Z</time>
      </trkpt>
      <trkpt lat="44.4631" lon="5.22982">
        <ele>862.92</ele>
        <time>2011-03-03T13:51:18Z</time>
      </trkpt>
      <trkpt lat="44.46319" lon="5.22995">
        <ele>863.4</ele>
        <time>2011-03-03T13:51:25Z</time>
      </trkpt>
      <trkpt lat="44.46322" lon="5.2299">
        <ele>863.4</ele>
        <time>2011-03-03T13:51:31Z</time>
      </trkpt>
      <trkpt lat="44.46332" lon="5.22995">
        <ele>864.84</ele>
        <time>2011-03-03T13:51:42Z</time>
      </trkpt>
      <trkpt lat="44.46332" lon="5.22988">
        <ele>864.84</ele>
        <time>2011-03-03T13:51:47Z</time>
      </trkpt>
      <trkpt lat="44.46334" lon="5.22988">
        <ele>865.32</ele>
        <time>2011-03-03T13:51:50Z</time>
      </trkpt>
      <trkpt lat="44.46341" lon="5.22994">
        <ele>866.29</ele>
        <time>2011-03-03T13:51:58Z</time>
      </trkpt>
      <trkpt lat="44.46346" lon="5.22994">
        <ele>867.73</ele>
        <time>2011-03-03T13:52:05Z</time>
      </trkpt>
      <trkpt lat="44.4635" lon="5.22992">
        <ele>868.69</ele>
        <time>2011-03-03T13:52:12Z</time>
      </trkpt>
      <trkpt lat="44.46359" lon="5.22996">
        <ele>869.17</ele>
        <time>2011-03-03T13:52:18Z</time>
      </trkpt>
      <trkpt lat="44.46364" lon="5.22997">
        <ele>872.05</ele>
        <time>2011-03-03T13:52:25Z</time>
      </trkpt>
      <trkpt lat="44.46364" lon="5.23">
        <ele>867.25</ele>
        <time>2011-03-03T13:52:28Z</time>
      </trkpt>
      <trkpt lat="44.46366" lon="5.23">
        <ele>871.09</ele>
        <time>2011-03-03T13:52:29Z</time>
      </trkpt>
      <trkpt lat="44.46369" lon="5.22994">
        <ele>869.17</ele>
        <time>2011-03-03T13:52:38Z</time>
      </trkpt>
      <trkpt lat="44.4637" lon="5.22996">
        <ele>865.32</ele>
        <time>2011-03-03T13:52:39Z</time>
      </trkpt>
      <trkpt lat="44.46373" lon="5.22998">
        <ele>875.42</ele>
        <time>2011-03-03T13:52:40Z</time>
      </trkpt>
      <trkpt lat="44.46377" lon="5.22998">
        <ele>858.59</ele>
        <time>2011-03-03T13:52:41Z</time>
      </trkpt>
      <trkpt lat="44.46377" lon="5.22997">
        <ele>873.01</ele>
        <time>2011-03-03T13:52:42Z</time>
      </trkpt>
      <trkpt lat="44.46379" lon="5.22999">
        <ele>862.44</ele>
        <time>2011-03-03T13:52:45Z</time>
      </trkpt>
      <trkpt lat="44.4638" lon="5.23">
        <ele>872.53</ele>
        <time>2011-03-03T13:52:46Z</time>
      </trkpt>
      <trkpt lat="44.46381" lon="5.23001">
        <ele>876.86</ele>
        <time>2011-03-03T13:52:47Z</time>
      </trkpt>
      <trkpt lat="44.46381" lon="5.23001">
        <ele>872.05</ele>
        <time>2011-03-03T13:52:48Z</time>
      </trkpt>
      <trkpt lat="44.46383" lon="5.22998">
        <ele>868.69</ele>
        <time>2011-03-03T13:52:51Z</time>
      </trkpt>
      <trkpt lat="44.46382" lon="5.22995">
        <ele>872.05</ele>
        <time>2011-03-03T13:52:53Z</time>
      </trkpt>
      <trkpt lat="44.46386" lon="5.2299">
        <ele>872.53</ele>
        <time>2011-03-03T13:52:59Z</time>
      </trkpt>
      <trkpt lat="44.46394" lon="5.22993">
        <ele>873.01</ele>
        <time>2011-03-03T13:53:05Z</time>
      </trkpt>
      <trkpt lat="44.46395" lon="5.22992">
        <ele>873.01</ele>
        <time>2011-03-03T13:53:07Z</time>
      </trkpt>
      <trkpt lat="44.464" lon="5.22999">
        <ele>873.98</ele>
        <time>2011-03-03T13:53:12Z</time>
      </trkpt>
      <trkpt lat="44.4641" lon="5.22999">
        <ele>875.42</ele>
        <time>2011-03-03T13:53:20Z</time>
      </trkpt>
      <trkpt lat="44.4641" lon="5.22998">
        <ele>873.98</ele>
        <time>2011-03-03T13:53:23Z</time>
      </trkpt>
      <trkpt lat="44.46417" lon="5.22997">
        <ele>875.9</ele>
        <time>2011-03-03T13:53:30Z</time>
      </trkpt>
      <trkpt lat="44.46421" lon="5.22998">
        <ele>876.38</ele>
        <time>2011-03-03T13:53:36Z</time>
      </trkpt>
      <trkpt lat="44.46426" lon="5.22995">
        <ele>877.34</ele>
        <time>2011-03-03T13:53:43Z</time>
      </trkpt>
      <trkpt lat="44.46427" lon="5.22998">
        <ele>878.3</ele>
        <time>2011-03-03T13:53:49Z</time>
      </trkpt>
      <trkpt lat="44.46438" lon="5.22995">
        <ele>877.82</ele>
        <time>2011-03-03T13:53:57Z</time>
      </trkpt>
      <trkpt lat="44.46441" lon="5.22998">
        <ele>878.3</ele>
        <time>2011-03-03T13:53:59Z</time>
      </trkpt>
      <trkpt lat="44.46442" lon="5.22999">
        <ele>878.78</ele>
        <time>2011-03-03T13:54:01Z</time>
      </trkpt>
      <trkpt lat="44.46444" lon="5.22996">
        <ele>878.3</ele>
        <time>2011-03-03T13:54:03Z</time>
      </trkpt>
      <trkpt lat="44.46451" lon="5.22995">
        <ele>879.74</ele>
        <time>2011-03-03T13:54:11Z</time>
      </trkpt>
      <trkpt lat="44.46456" lon="5.22992">
        <ele>880.71</ele>
        <time>2011-03-03T13:54:19Z</time>
      </trkpt>
      <trkpt lat="44.46457" lon="5.2299">
        <ele>881.19</ele>
        <time>2011-03-03T13:54:22Z</time>
      </trkpt>
      <trkpt lat="44.4646" lon="5.22995">
        <ele>881.67</ele>
        <time>2011-03-03T13:54:24Z</time>
      </trkpt>
      <trkpt lat="44.46465" lon="5.22987">
        <ele>882.15</ele>
        <time>2011-03-03T13:54:31Z</time>
      </trkpt>
      <trkpt lat="44.46473" lon="5.2299">
        <ele>883.59</ele>
        <time>2011-03-03T13:54:38Z</time>
      </trkpt>
      <trkpt lat="44.46473" lon="5.22985">
        <ele>884.07</ele>
        <time>2011-03-03T13:54:43Z</time>
      </trkpt>
      <trkpt lat="44.4648" lon="5.2298">
        <ele>885.03</ele>
        <time>2011-03-03T13:54:50Z</time>
      </trkpt>
      <trkpt lat="44.46484" lon="5.22974">
        <ele>885.51</ele>
        <time>2011-03-03T13:54:53Z</time>
      </trkpt>
      <trkpt lat="44.46487" lon="5.22979">
        <ele>885.99</ele>
        <time>2011-03-03T13:54:59Z</time>
      </trkpt>
      <trkpt lat="44.46493" lon="5.22974">
        <ele>887.43</ele>
        <time>2011-03-03T13:55:06Z</time>
      </trkpt>
      <trkpt lat="44.46502" lon="5.22976">
        <ele>887.91</ele>
        <time>2011-03-03T13:55:13Z</time>
      </trkpt>
      <trkpt lat="44.46509" lon="5.22978">
        <ele>889.84</ele>
        <time>2011-03-03T13:55:22Z</time>
      </trkpt>
      <trkpt lat="44.46511" lon="5.22977">
        <ele>889.84</ele>
        <time>2011-03-03T13:55:25Z</time>
      </trkpt>
      <trkpt lat="44.46518" lon="5.22978">
        <ele>890.8</ele>
        <time>2011-03-03T13:55:33Z</time>
      </trkpt>
      <trkpt lat="44.46526" lon="5.22973">
        <ele>891.28</ele>
        <time>2011-03-03T13:55:41Z</time>
      </trkpt>
      <trkpt lat="44.46527" lon="5.22965">
        <ele>892.24</ele>
        <time>2011-03-03T13:55:47Z</time>
      </trkpt>
      <trkpt lat="44.46534" lon="5.22964">
        <ele>892.72</ele>
        <time>2011-03-03T13:55:52Z</time>
      </trkpt>
      <trkpt lat="44.46537" lon="5.22964">
        <ele>894.16</ele>
        <time>2011-03-03T13:55:57Z</time>
      </trkpt>
      <trkpt lat="44.46542" lon="5.22964">
        <ele>894.64</ele>
        <time>2011-03-03T13:56:05Z</time>
      </trkpt>
      <trkpt lat="44.46546" lon="5.2297">
        <ele>896.09</ele>
        <time>2011-03-03T13:56:10Z</time>
      </trkpt>
      <trkpt lat="44.4655" lon="5.22969">
        <ele>896.09</ele>
        <time>2011-03-03T13:56:12Z</time>
      </trkpt>
      <trkpt lat="44.46555" lon="5.22972">
        <ele>897.53</ele>
        <time>2011-03-03T13:56:20Z</time>
      </trkpt>
      <trkpt lat="44.46557" lon="5.2297">
        <ele>897.53</ele>
        <time>2011-03-03T13:56:22Z</time>
      </trkpt>
      <trkpt lat="44.4656" lon="5.22965">
        <ele>898.97</ele>
        <time>2011-03-03T13:56:30Z</time>
      </trkpt>
      <trkpt lat="44.46567" lon="5.2297">
        <ele>900.41</ele>
        <time>2011-03-03T13:56:36Z</time>
      </trkpt>
      <trkpt lat="44.46571" lon="5.22976">
        <ele>901.37</ele>
        <time>2011-03-03T13:56:43Z</time>
      </trkpt>
      <trkpt lat="44.46576" lon="5.22976">
        <ele>902.33</ele>
        <time>2011-03-03T13:56:49Z</time>
      </trkpt>
      <trkpt lat="44.4658" lon="5.22979">
        <ele>903.3</ele>
        <time>2011-03-03T13:56:55Z</time>
      </trkpt>
      <trkpt lat="44.46582" lon="5.22979">
        <ele>904.74</ele>
        <time>2011-03-03T13:57:02Z</time>
      </trkpt>
      <trkpt lat="44.46591" lon="5.2298">
        <ele>905.7</ele>
        <time>2011-03-03T13:57:07Z</time>
      </trkpt>
      <trkpt lat="44.46594" lon="5.22981">
        <ele>906.18</ele>
        <time>2011-03-03T13:57:11Z</time>
      </trkpt>
      <trkpt lat="44.466" lon="5.22983">
        <ele>907.14</ele>
        <time>2011-03-03T13:57:18Z</time>
      </trkpt>
      <trkpt lat="44.46604" lon="5.22982">
        <ele>906.66</ele>
        <time>2011-03-03T13:57:23Z</time>
      </trkpt>
      <trkpt lat="44.46605" lon="5.2298">
        <ele>906.18</ele>
        <time>2011-03-03T13:57:25Z</time>
      </trkpt>
      <trkpt lat="44.46605" lon="5.22973">
        <ele>905.7</ele>
        <time>2011-03-03T13:57:30Z</time>
      </trkpt>
      <trkpt lat="44.46601" lon="5.22966">
        <ele>904.26</ele>
        <time>2011-03-03T13:57:36Z</time>
      </trkpt>
      <trkpt lat="44.46604" lon="5.2296">
        <ele>904.26</ele>
        <time>2011-03-03T13:57:43Z</time>
      </trkpt>
      <trkpt lat="44.46615" lon="5.22955">
        <ele>904.74</ele>
        <time>2011-03-03T13:57:51Z</time>
      </trkpt>
      <trkpt lat="44.46619" lon="5.22949">
        <ele>905.22</ele>
        <time>2011-03-03T13:57:56Z</time>
      </trkpt>
      <trkpt lat="44.46621" lon="5.22951">
        <ele>906.66</ele>
        <time>2011-03-03T13:58:02Z</time>
      </trkpt>
      <trkpt lat="44.46624" lon="5.22948">
        <ele>908.1</ele>
        <time>2011-03-03T13:58:08Z</time>
      </trkpt>
      <trkpt lat="44.46625" lon="5.22946">
        <ele>909.54</ele>
        <time>2011-03-03T13:58:14Z</time>
      </trkpt>
      <trkpt lat="44.4663" lon="5.22944">
        <ele>910.99</ele>
        <time>2011-03-03T13:58:19Z</time>
      </trkpt>
      <trkpt lat="44.46632" lon="5.22944">
        <ele>911.47</ele>
        <time>2011-03-03T13:58:23Z</time>
      </trkpt>
      <trkpt lat="44.46639" lon="5.22944">
        <ele>913.39</ele>
        <time>2011-03-03T13:58:32Z</time>
      </trkpt>
      <trkpt lat="44.46642" lon="5.22944">
        <ele>913.87</ele>
        <time>2011-03-03T13:58:38Z</time>
      </trkpt>
      <trkpt lat="44.46645" lon="5.22948">
        <ele>915.31</ele>
        <time>2011-03-03T13:58:45Z</time>
      </trkpt>
      <trkpt lat="44.46652" lon="5.22945">
        <ele>916.27</ele>
        <time>2011-03-03T13:58:51Z</time>
      </trkpt>
      <trkpt lat="44.46656" lon="5.22948">
        <ele>916.75</ele>
        <time>2011-03-03T13:58:57Z</time>
      </trkpt>
      <trkpt lat="44.46657" lon="5.22945">
        <ele>917.24</ele>
        <time>2011-03-03T13:58:59Z</time>
      </trkpt>
      <trkpt lat="44.46663" lon="5.22945">
        <ele>919.16</ele>
        <time>2011-03-03T13:59:06Z</time>
      </trkpt>
      <trkpt lat="44.46666" lon="5.22947">
        <ele>920.12</ele>
        <time>2011-03-03T13:59:13Z</time>
      </trkpt>
      <trkpt lat="44.46671" lon="5.2295">
        <ele>921.56</ele>
        <time>2011-03-03T13:59:21Z</time>
      </trkpt>
      <trkpt lat="44.46676" lon="5.22951">
        <ele>922.04</ele>
        <time>2011-03-03T13:59:26Z</time>
      </trkpt>
      <trkpt lat="44.4668" lon="5.22954">
        <ele>922.52</ele>
        <time>2011-03-03T13:59:33Z</time>
      </trkpt>
      <trkpt lat="44.46683" lon="5.22954">
        <ele>924.45</ele>
        <time>2011-03-03T13:59:36Z</time>
      </trkpt>
      <trkpt lat="44.46685" lon="5.22956">
        <ele>923.96</ele>
        <time>2011-03-03T13:59:38Z</time>
      </trkpt>
      <trkpt lat="44.46688" lon="5.22956">
        <ele>925.41</ele>
        <time>2011-03-03T13:59:45Z</time>
      </trkpt>
      <trkpt lat="44.46692" lon="5.22959">
        <ele>925.89</ele>
        <time>2011-03-03T13:59:51Z</time>
      </trkpt>
      <trkpt lat="44.46696" lon="5.2296">
        <ele>927.33</ele>
        <time>2011-03-03T13:59:58Z</time>
      </trkpt>
      <trkpt lat="44.46702" lon="5.22959">
        <ele>927.81</ele>
        <time>2011-03-03T14:00:04Z</time>
      </trkpt>
      <trkpt lat="44.46708" lon="5.22962">
        <ele>929.73</ele>
        <time>2011-03-03T14:00:10Z</time>
      </trkpt>
      <trkpt lat="44.4671" lon="5.22962">
        <ele>930.21</ele>
        <time>2011-03-03T14:00:15Z</time>
      </trkpt>
      <trkpt lat="44.46713" lon="5.22969">
        <ele>931.17</ele>
        <time>2011-03-03T14:00:21Z</time>
      </trkpt>
      <trkpt lat="44.46716" lon="5.22966">
        <ele>931.65</ele>
        <time>2011-03-03T14:00:25Z</time>
      </trkpt>
      <trkpt lat="44.46718" lon="5.22967">
        <ele>931.65</ele>
        <time>2011-03-03T14:00:27Z</time>
      </trkpt>
      <trkpt lat="44.46724" lon="5.22969">
        <ele>932.62</ele>
        <time>2011-03-03T14:00:34Z</time>
      </trkpt>
      <trkpt lat="44.46728" lon="5.22967">
        <ele>933.1</ele>
        <time>2011-03-03T14:00:39Z</time>
      </trkpt>
      <trkpt lat="44.46735" lon="5.22964">
        <ele>934.06</ele>
        <time>2011-03-03T14:00:47Z</time>
      </trkpt>
      <trkpt lat="44.46738" lon="5.22963">
        <ele>934.06</ele>
        <time>2011-03-03T14:00:49Z</time>
      </trkpt>
      <trkpt lat="44.46744" lon="5.22967">
        <ele>935.5</ele>
        <time>2011-03-03T14:00:58Z</time>
      </trkpt>
      <trkpt lat="44.46752" lon="5.22968">
        <ele>935.98</ele>
        <time>2011-03-03T14:01:05Z</time>
      </trkpt>
      <trkpt lat="44.46754" lon="5.22968">
        <ele>935.5</ele>
        <time>2011-03-03T14:01:07Z</time>
      </trkpt>
      <trkpt lat="44.46759" lon="5.22965">
        <ele>936.94</ele>
        <time>2011-03-03T14:01:15Z</time>
      </trkpt>
      <trkpt lat="44.46761" lon="5.22966">
        <ele>936.94</ele>
        <time>2011-03-03T14:01:17Z</time>
      </trkpt>
      <trkpt lat="44.46769" lon="5.22961">
        <ele>937.42</ele>
        <time>2011-03-03T14:01:24Z</time>
      </trkpt>
      <trkpt lat="44.46776" lon="5.22958">
        <ele>938.86</ele>
        <time>2011-03-03T14:01:32Z</time>
      </trkpt>
      <trkpt lat="44.46781" lon="5.22957">
        <ele>938.86</ele>
        <time>2011-03-03T14:01:39Z</time>
      </trkpt>
      <trkpt lat="44.46788" lon="5.22953">
        <ele>939.83</ele>
        <time>2011-03-03T14:01:47Z</time>
      </trkpt>
      <trkpt lat="44.4679" lon="5.22952">
        <ele>940.31</ele>
        <time>2011-03-03T14:01:53Z</time>
      </trkpt>
      <trkpt lat="44.46793" lon="5.22952">
        <ele>940.31</ele>
        <time>2011-03-03T14:02:00Z</time>
      </trkpt>
      <trkpt lat="44.46794" lon="5.22946">
        <ele>941.27</ele>
        <time>2011-03-03T14:02:07Z</time>
      </trkpt>
      <trkpt lat="44.46793" lon="5.22942">
        <ele>941.27</ele>
        <time>2011-03-03T14:02:09Z</time>
      </trkpt>
      <trkpt lat="44.4679" lon="5.22938">
        <ele>941.75</ele>
        <time>2011-03-03T14:02:16Z</time>
      </trkpt>
      <trkpt lat="44.46791" lon="5.22935">
        <ele>941.75</ele>
        <time>2011-03-03T14:02:23Z</time>
      </trkpt>
      <trkpt lat="44.46788" lon="5.2294">
        <ele>943.19</ele>
        <time>2011-03-03T14:02:46Z</time>
      </trkpt>
      <trkpt lat="44.46788" lon="5.2294">
        <ele>942.23</ele>
        <time>2011-03-03T14:03:07Z</time>
      </trkpt>
      <trkpt lat="44.46788" lon="5.2294">
        <ele>938.86</ele>
        <time>2011-03-03T14:03:17Z</time>
      </trkpt>
      <trkpt lat="44.46788" lon="5.2294">
        <ele>940.31</ele>
        <time>2011-03-03T14:03:18Z</time>
      </trkpt>
      <trkpt lat="44.46788" lon="5.2294">
        <ele>942.23</ele>
        <time>2011-03-03T14:03:21Z</time>
      </trkpt>
      <trkpt lat="44.46788" lon="5.2294">
        <ele>942.23</ele>
        <time>2011-03-03T14:03:29Z</time>
      </trkpt>
      <trkpt lat="44.46788" lon="5.2294">
        <ele>940.79</ele>
        <time>2011-03-03T14:03:31Z</time>
      </trkpt>
      <trkpt lat="44.4679" lon="5.22937">
        <ele>942.71</ele>
        <time>2011-03-03T14:04:27Z</time>
      </trkpt>
      <trkpt lat="44.4679" lon="5.22937">
        <ele>937.9</ele>
        <time>2011-03-03T14:04:33Z</time>
      </trkpt>
      <trkpt lat="44.4679" lon="5.22937">
        <ele>941.75</ele>
        <time>2011-03-03T14:04:34Z</time>
      </trkpt>
      <trkpt lat="44.4679" lon="5.22937">
        <ele>941.75</ele>
        <time>2011-03-03T14:04:43Z</time>
      </trkpt>
      <trkpt lat="44.46786" lon="5.22937">
        <ele>942.23</ele>
        <time>2011-03-03T14:05:06Z</time>
      </trkpt>
      <trkpt lat="44.46786" lon="5.22937">
        <ele>940.31</ele>
        <time>2011-03-03T14:05:22Z</time>
      </trkpt>
      <trkpt lat="44.46786" lon="5.22937">
        <ele>944.63</ele>
        <time>2011-03-03T14:05:30Z</time>
      </trkpt>
      <trkpt lat="44.46786" lon="5.22937">
        <ele>939.35</ele>
        <time>2011-03-03T14:05:31Z</time>
      </trkpt>
      <trkpt lat="44.46786" lon="5.22937">
        <ele>942.71</ele>
        <time>2011-03-03T14:05:32Z</time>
      </trkpt>
      <trkpt lat="44.46786" lon="5.22937">
        <ele>938.86</ele>
        <time>2011-03-03T14:05:52Z</time>
      </trkpt>
      <trkpt lat="44.46786" lon="5.22937">
        <ele>942.23</ele>
        <time>2011-03-03T14:05:53Z</time>
      </trkpt>
      <trkpt lat="44.46788" lon="5.22936">
        <ele>941.75</ele>
        <time>2011-03-03T14:06:02Z</time>
      </trkpt>
      <trkpt lat="44.4679" lon="5.22934">
        <ele>942.23</ele>
        <time>2011-03-03T14:06:56Z</time>
      </trkpt>
      <trkpt lat="44.46784" lon="5.22933">
        <ele>942.23</ele>
        <time>2011-03-03T14:07:03Z</time>
      </trkpt>
      <trkpt lat="44.46779" lon="5.22924">
        <ele>941.75</ele>
        <time>2011-03-03T14:07:10Z</time>
      </trkpt>
      <trkpt lat="44.46788" lon="5.22937">
        <ele>941.75</ele>
        <time>2011-03-03T14:08:17Z</time>
      </trkpt>
      <trkpt lat="44.46789" lon="5.22941">
        <ele>942.23</ele>
        <time>2011-03-03T14:08:29Z</time>
      </trkpt>
      <trkpt lat="44.4679" lon="5.22938">
        <ele>941.75</ele>
        <time>2011-03-03T14:08:39Z</time>
      </trkpt>
      <trkpt lat="44.4679" lon="5.22937">
        <ele>942.23</ele>
        <time>2011-03-03T14:14:13Z</time>
      </trkpt>
      <trkpt lat="44.4679" lon="5.22937">
        <ele>939.35</ele>
        <time>2011-03-03T14:14:17Z</time>
      </trkpt>
      <trkpt lat="44.4679" lon="5.22937">
        <ele>942.71</ele>
        <time>2011-03-03T14:14:18Z</time>
      </trkpt>
      <trkpt lat="44.46793" lon="5.22936">
        <ele>941.75</ele>
        <time>2011-03-03T14:15:11Z</time>
      </trkpt>
      <trkpt lat="44.46789" lon="5.22934">
        <ele>942.71</ele>
        <time>2011-03-03T14:16:35Z</time>
      </trkpt>
      <trkpt lat="44.4679" lon="5.2294">
        <ele>942.23</ele>
        <time>2011-03-03T14:18:13Z</time>
      </trkpt>
      <trkpt lat="44.46795" lon="5.22945">
        <ele>941.27</ele>
        <time>2011-03-03T14:19:20Z</time>
      </trkpt>
      <trkpt lat="44.46797" lon="5.22943">
        <ele>941.27</ele>
        <time>2011-03-03T14:19:22Z</time>
      </trkpt>
      <trkpt lat="44.46804" lon="5.22944">
        <ele>941.27</ele>
        <time>2011-03-03T14:19:31Z</time>
      </trkpt>
      <trkpt lat="44.46805" lon="5.22944">
        <ele>941.27</ele>
        <time>2011-03-03T14:19:32Z</time>
      </trkpt>
      <trkpt lat="44.46817" lon="5.22936">
        <ele>939.83</ele>
        <time>2011-03-03T14:19:44Z</time>
      </trkpt>
      <trkpt lat="44.46825" lon="5.22939">
        <ele>938.38</ele>
        <time>2011-03-03T14:19:50Z</time>
      </trkpt>
      <trkpt lat="44.46826" lon="5.2294">
        <ele>938.38</ele>
        <time>2011-03-03T14:19:52Z</time>
      </trkpt>
      <trkpt lat="44.46827" lon="5.22937">
        <ele>937.42</ele>
        <time>2011-03-03T14:19:56Z</time>
      </trkpt>
      <trkpt lat="44.46838" lon="5.22936">
        <ele>935.5</ele>
        <time>2011-03-03T14:20:06Z</time>
      </trkpt>
      <trkpt lat="44.4685" lon="5.22933">
        <ele>933.58</ele>
        <time>2011-03-03T14:20:17Z</time>
      </trkpt>
      <trkpt lat="44.46859" lon="5.2293">
        <ele>931.17</ele>
        <time>2011-03-03T14:20:26Z</time>
      </trkpt>
      <trkpt lat="44.46868" lon="5.22928">
        <ele>929.25</ele>
        <time>2011-03-03T14:20:34Z</time>
      </trkpt>
      <trkpt lat="44.46874" lon="5.22925">
        <ele>927.81</ele>
        <time>2011-03-03T14:20:42Z</time>
      </trkpt>
      <trkpt lat="44.46879" lon="5.22918">
        <ele>925.89</ele>
        <time>2011-03-03T14:20:48Z</time>
      </trkpt>
      <trkpt lat="44.46885" lon="5.22912">
        <ele>923.96</ele>
        <time>2011-03-03T14:20:56Z</time>
      </trkpt>
      <trkpt lat="44.46891" lon="5.22906">
        <ele>922.52</ele>
        <time>2011-03-03T14:21:03Z</time>
      </trkpt>
      <trkpt lat="44.46897" lon="5.22899">
        <ele>921.08</ele>
        <time>2011-03-03T14:21:11Z</time>
      </trkpt>
      <trkpt lat="44.46903" lon="5.22895">
        <ele>919.16</ele>
        <time>2011-03-03T14:21:17Z</time>
      </trkpt>
      <trkpt lat="44.4691" lon="5.22886">
        <ele>917.72</ele>
        <time>2011-03-03T14:21:26Z</time>
      </trkpt>
      <trkpt lat="44.4691" lon="5.22884">
        <ele>917.24</ele>
        <time>2011-03-03T14:21:28Z</time>
      </trkpt>
      <trkpt lat="44.46914" lon="5.22871">
        <ele>915.31</ele>
        <time>2011-03-03T14:21:38Z</time>
      </trkpt>
      <trkpt lat="44.46915" lon="5.22862">
        <ele>913.39</ele>
        <time>2011-03-03T14:21:45Z</time>
      </trkpt>
      <trkpt lat="44.46918" lon="5.22852">
        <ele>911.47</ele>
        <time>2011-03-03T14:21:53Z</time>
      </trkpt>
      <trkpt lat="44.4692" lon="5.22851">
        <ele>910.99</ele>
        <time>2011-03-03T14:21:55Z</time>
      </trkpt>
      <trkpt lat="44.46927" lon="5.22845">
        <ele>909.06</ele>
        <time>2011-03-03T14:22:04Z</time>
      </trkpt>
      <trkpt lat="44.4693" lon="5.22846">
        <ele>908.58</ele>
        <time>2011-03-03T14:22:05Z</time>
      </trkpt>
      <trkpt lat="44.46938" lon="5.22846">
        <ele>906.66</ele>
        <time>2011-03-03T14:22:14Z</time>
      </trkpt>
      <trkpt lat="44.46945" lon="5.22844">
        <ele>904.74</ele>
        <time>2011-03-03T14:22:23Z</time>
      </trkpt>
      <trkpt lat="44.46949" lon="5.22845">
        <ele>902.82</ele>
        <time>2011-03-03T14:22:29Z</time>
      </trkpt>
      <trkpt lat="44.46952" lon="5.22845">
        <ele>902.33</ele>
        <time>2011-03-03T14:22:33Z</time>
      </trkpt>
      <trkpt lat="44.46957" lon="5.22846">
        <ele>899.93</ele>
        <time>2011-03-03T14:22:40Z</time>
      </trkpt>
      <trkpt lat="44.46964" lon="5.22844">
        <ele>898.49</ele>
        <time>2011-03-03T14:22:47Z</time>
      </trkpt>
      <trkpt lat="44.4697" lon="5.22843">
        <ele>897.05</ele>
        <time>2011-03-03T14:22:54Z</time>
      </trkpt>
      <trkpt lat="44.46977" lon="5.22841">
        <ele>895.61</ele>
        <time>2011-03-03T14:23:01Z</time>
      </trkpt>
      <trkpt lat="44.46983" lon="5.22841">
        <ele>893.68</ele>
        <time>2011-03-03T14:23:07Z</time>
      </trkpt>
      <trkpt lat="44.46989" lon="5.22838">
        <ele>892.72</ele>
        <time>2011-03-03T14:23:13Z</time>
      </trkpt>
      <trkpt lat="44.46991" lon="5.22839">
        <ele>891.28</ele>
        <time>2011-03-03T14:23:21Z</time>
      </trkpt>
      <trkpt lat="44.47003" lon="5.22842">
        <ele>890.32</ele>
        <time>2011-03-03T14:23:27Z</time>
      </trkpt>
      <trkpt lat="44.47007" lon="5.22841">
        <ele>889.84</ele>
        <time>2011-03-03T14:23:31Z</time>
      </trkpt>
      <trkpt lat="44.4701" lon="5.22836">
        <ele>888.88</ele>
        <time>2011-03-03T14:23:36Z</time>
      </trkpt>
      <trkpt lat="44.47016" lon="5.22834">
        <ele>887.43</ele>
        <time>2011-03-03T14:23:42Z</time>
      </trkpt>
      <trkpt lat="44.47022" lon="5.22833">
        <ele>886.47</ele>
        <time>2011-03-03T14:23:49Z</time>
      </trkpt>
      <trkpt lat="44.47026" lon="5.22831">
        <ele>885.03</ele>
        <time>2011-03-03T14:23:54Z</time>
      </trkpt>
      <trkpt lat="44.47032" lon="5.2283">
        <ele>883.11</ele>
        <time>2011-03-03T14:24:01Z</time>
      </trkpt>
      <trkpt lat="44.47037" lon="5.22828">
        <ele>882.63</ele>
        <time>2011-03-03T14:24:07Z</time>
      </trkpt>
      <trkpt lat="44.47045" lon="5.22826">
        <ele>880.71</ele>
        <time>2011-03-03T14:24:15Z</time>
      </trkpt>
      <trkpt lat="44.4705" lon="5.22825">
        <ele>879.26</ele>
        <time>2011-03-03T14:24:20Z</time>
      </trkpt>
      <trkpt lat="44.47056" lon="5.22821">
        <ele>878.3</ele>
        <time>2011-03-03T14:24:27Z</time>
      </trkpt>
      <trkpt lat="44.47064" lon="5.22818">
        <ele>876.38</ele>
        <time>2011-03-03T14:24:35Z</time>
      </trkpt>
      <trkpt lat="44.47069" lon="5.22807">
        <ele>874.46</ele>
        <time>2011-03-03T14:24:44Z</time>
      </trkpt>
      <trkpt lat="44.47079" lon="5.22803">
        <ele>873.01</ele>
        <time>2011-03-03T14:24:50Z</time>
      </trkpt>
      <trkpt lat="44.47084" lon="5.22796">
        <ele>872.05</ele>
        <time>2011-03-03T14:24:59Z</time>
      </trkpt>
      <trkpt lat="44.47092" lon="5.22788">
        <ele>869.65</ele>
        <time>2011-03-03T14:25:08Z</time>
      </trkpt>
      <trkpt lat="44.471" lon="5.22782">
        <ele>867.73</ele>
        <time>2011-03-03T14:25:17Z</time>
      </trkpt>
      <trkpt lat="44.47101" lon="5.22775">
        <ele>866.77</ele>
        <time>2011-03-03T14:25:24Z</time>
      </trkpt>
      <trkpt lat="44.47115" lon="5.22768">
        <ele>864.36</ele>
        <time>2011-03-03T14:25:33Z</time>
      </trkpt>
      <trkpt lat="44.47118" lon="5.22763">
        <ele>862.92</ele>
        <time>2011-03-03T14:25:41Z</time>
      </trkpt>
      <trkpt lat="44.47121" lon="5.22755">
        <ele>861.48</ele>
        <time>2011-03-03T14:25:49Z</time>
      </trkpt>
      <trkpt lat="44.47132" lon="5.22752">
        <ele>860.04</ele>
        <time>2011-03-03T14:25:58Z</time>
      </trkpt>
      <trkpt lat="44.4714" lon="5.22745">
        <ele>858.59</ele>
        <time>2011-03-03T14:26:03Z</time>
      </trkpt>
      <trkpt lat="44.47145" lon="5.22741">
        <ele>857.15</ele>
        <time>2011-03-03T14:26:09Z</time>
      </trkpt>
      <trkpt lat="44.47148" lon="5.22734">
        <ele>856.67</ele>
        <time>2011-03-03T14:26:15Z</time>
      </trkpt>
      <trkpt lat="44.47152" lon="5.22723">
        <ele>854.75</ele>
        <time>2011-03-03T14:26:23Z</time>
      </trkpt>
      <trkpt lat="44.47159" lon="5.22713">
        <ele>852.83</ele>
        <time>2011-03-03T14:26:34Z</time>
      </trkpt>
      <trkpt lat="44.47162" lon="5.22703">
        <ele>851.38</ele>
        <time>2011-03-03T14:26:41Z</time>
      </trkpt>
      <trkpt lat="44.47168" lon="5.22695">
        <ele>849.94</ele>
        <time>2011-03-03T14:26:48Z</time>
      </trkpt>
      <trkpt lat="44.47174" lon="5.22689">
        <ele>848.5</ele>
        <time>2011-03-03T14:26:54Z</time>
      </trkpt>
      <trkpt lat="44.47174" lon="5.2268">
        <ele>848.02</ele>
        <time>2011-03-03T14:27:00Z</time>
      </trkpt>
      <trkpt lat="44.47179" lon="5.22676">
        <ele>847.06</ele>
        <time>2011-03-03T14:27:05Z</time>
      </trkpt>
      <trkpt lat="44.47187" lon="5.22669">
        <ele>844.66</ele>
        <time>2011-03-03T14:27:16Z</time>
      </trkpt>
      <trkpt lat="44.47195" lon="5.22663">
        <ele>843.21</ele>
        <time>2011-03-03T14:27:23Z</time>
      </trkpt>
      <trkpt lat="44.47199" lon="5.22655">
        <ele>842.25</ele>
        <time>2011-03-03T14:27:30Z</time>
      </trkpt>
      <trkpt lat="44.47207" lon="5.22647">
        <ele>840.33</ele>
        <time>2011-03-03T14:27:39Z</time>
      </trkpt>
      <trkpt lat="44.47214" lon="5.22641">
        <ele>838.89</ele>
        <time>2011-03-03T14:27:47Z</time>
      </trkpt>
      <trkpt lat="44.47221" lon="5.2264">
        <ele>837.93</ele>
        <time>2011-03-03T14:27:52Z</time>
      </trkpt>
      <trkpt lat="44.47222" lon="5.2263">
        <ele>836.48</ele>
        <time>2011-03-03T14:27:59Z</time>
      </trkpt>
      <trkpt lat="44.47226" lon="5.22623">
        <ele>835.04</ele>
        <time>2011-03-03T14:28:06Z</time>
      </trkpt>
      <trkpt lat="44.47226" lon="5.22623">
        <ele>834.56</ele>
        <time>2011-03-03T14:28:08Z</time>
      </trkpt>
      <trkpt lat="44.47241" lon="5.22615">
        <ele>833.12</ele>
        <time>2011-03-03T14:28:17Z</time>
      </trkpt>
      <trkpt lat="44.47249" lon="5.22604">
        <ele>831.68</ele>
        <time>2011-03-03T14:28:26Z</time>
      </trkpt>
      <trkpt lat="44.47251" lon="5.22595">
        <ele>829.76</ele>
        <time>2011-03-03T14:28:35Z</time>
      </trkpt>
      <trkpt lat="44.47256" lon="5.22588">
        <ele>827.83</ele>
        <time>2011-03-03T14:28:42Z</time>
      </trkpt>
      <trkpt lat="44.47261" lon="5.22584">
        <ele>826.39</ele>
        <time>2011-03-03T14:28:48Z</time>
      </trkpt>
      <trkpt lat="44.47269" lon="5.22581">
        <ele>824.47</ele>
        <time>2011-03-03T14:28:56Z</time>
      </trkpt>
      <trkpt lat="44.47276" lon="5.22577">
        <ele>823.03</ele>
        <time>2011-03-03T14:29:03Z</time>
      </trkpt>
      <trkpt lat="44.47285" lon="5.22568">
        <ele>821.1</ele>
        <time>2011-03-03T14:29:11Z</time>
      </trkpt>
      <trkpt lat="44.47288" lon="5.22557">
        <ele>820.62</ele>
        <time>2011-03-03T14:29:18Z</time>
      </trkpt>
      <trkpt lat="44.47291" lon="5.22557">
        <ele>820.62</ele>
        <time>2011-03-03T14:29:19Z</time>
      </trkpt>
      <trkpt lat="44.47294" lon="5.22542">
        <ele>819.18</ele>
        <time>2011-03-03T14:29:28Z</time>
      </trkpt>
      <trkpt lat="44.47301" lon="5.22539">
        <ele>817.26</ele>
        <time>2011-03-03T14:29:36Z</time>
      </trkpt>
      <trkpt lat="44.47307" lon="5.22531">
        <ele>816.3</ele>
        <time>2011-03-03T14:29:43Z</time>
      </trkpt>
      <trkpt lat="44.47311" lon="5.22527">
        <ele>814.37</ele>
        <time>2011-03-03T14:29:52Z</time>
      </trkpt>
      <trkpt lat="44.47324" lon="5.22525">
        <ele>812.93</ele>
        <time>2011-03-03T14:30:01Z</time>
      </trkpt>
      <trkpt lat="44.47331" lon="5.22524">
        <ele>810.53</ele>
        <time>2011-03-03T14:30:10Z</time>
      </trkpt>
      <trkpt lat="44.47339" lon="5.22521">
        <ele>809.09</ele>
        <time>2011-03-03T14:30:17Z</time>
      </trkpt>
      <trkpt lat="44.47347" lon="5.22517">
        <ele>807.16</ele>
        <time>2011-03-03T14:30:25Z</time>
      </trkpt>
      <trkpt lat="44.47353" lon="5.22511">
        <ele>806.2</ele>
        <time>2011-03-03T14:30:32Z</time>
      </trkpt>
      <trkpt lat="44.47354" lon="5.22509">
        <ele>805.72</ele>
        <time>2011-03-03T14:30:33Z</time>
      </trkpt>
      <trkpt lat="44.47362" lon="5.22499">
        <ele>803.32</ele>
        <time>2011-03-03T14:30:43Z</time>
      </trkpt>
      <trkpt lat="44.47365" lon="5.22484">
        <ele>800.44</ele>
        <time>2011-03-03T14:30:54Z</time>
      </trkpt>
      <trkpt lat="44.47373" lon="5.22473">
        <ele>798.99</ele>
        <time>2011-03-03T14:31:02Z</time>
      </trkpt>
      <trkpt lat="44.47375" lon="5.22463">
        <ele>797.07</ele>
        <time>2011-03-03T14:31:09Z</time>
      </trkpt>
      <trkpt lat="44.47379" lon="5.22454">
        <ele>795.15</ele>
        <time>2011-03-03T14:31:17Z</time>
      </trkpt>
      <trkpt lat="44.47379" lon="5.22444">
        <ele>792.74</ele>
        <time>2011-03-03T14:31:25Z</time>
      </trkpt>
      <trkpt lat="44.47385" lon="5.2244">
        <ele>791.3</ele>
        <time>2011-03-03T14:31:31Z</time>
      </trkpt>
      <trkpt lat="44.47394" lon="5.22425">
        <ele>789.38</ele>
        <time>2011-03-03T14:31:39Z</time>
      </trkpt>
      <trkpt lat="44.47395" lon="5.22425">
        <ele>788.9</ele>
        <time>2011-03-03T14:31:41Z</time>
      </trkpt>
      <trkpt lat="44.47396" lon="5.2242">
        <ele>788.42</ele>
        <time>2011-03-03T14:31:45Z</time>
      </trkpt>
      <trkpt lat="44.47399" lon="5.2242">
        <ele>787.46</ele>
        <time>2011-03-03T14:31:48Z</time>
      </trkpt>
      <trkpt lat="44.47404" lon="5.22431">
        <ele>785.53</ele>
        <time>2011-03-03T14:31:57Z</time>
      </trkpt>
      <trkpt lat="44.47403" lon="5.2244">
        <ele>784.09</ele>
        <time>2011-03-03T14:32:04Z</time>
      </trkpt>
      <trkpt lat="44.47404" lon="5.22446">
        <ele>782.65</ele>
        <time>2011-03-03T14:32:12Z</time>
      </trkpt>
      <trkpt lat="44.47409" lon="5.22447">
        <ele>781.21</ele>
        <time>2011-03-03T14:32:15Z</time>
      </trkpt>
      <trkpt lat="44.47414" lon="5.22446">
        <ele>780.73</ele>
        <time>2011-03-03T14:32:20Z</time>
      </trkpt>
      <trkpt lat="44.47418" lon="5.22442">
        <ele>778.81</ele>
        <time>2011-03-03T14:32:28Z</time>
      </trkpt>
      <trkpt lat="44.47419" lon="5.22437">
        <ele>777.36</ele>
        <time>2011-03-03T14:32:32Z</time>
      </trkpt>
      <trkpt lat="44.47425" lon="5.22435">
        <ele>776.4</ele>
        <time>2011-03-03T14:32:37Z</time>
      </trkpt>
      <trkpt lat="44.47426" lon="5.22429">
        <ele>775.44</ele>
        <time>2011-03-03T14:32:40Z</time>
      </trkpt>
      <trkpt lat="44.4743" lon="5.22425">
        <ele>774.48</ele>
        <time>2011-03-03T14:32:45Z</time>
      </trkpt>
      <trkpt lat="44.47431" lon="5.22429">
        <ele>773.52</ele>
        <time>2011-03-03T14:32:50Z</time>
      </trkpt>
      <trkpt lat="44.4743" lon="5.22446">
        <ele>771.6</ele>
        <time>2011-03-03T14:32:58Z</time>
      </trkpt>
      <trkpt lat="44.47429" lon="5.22451">
        <ele>771.11</ele>
        <time>2011-03-03T14:33:02Z</time>
      </trkpt>
      <trkpt lat="44.47431" lon="5.22453">
        <ele>770.15</ele>
        <time>2011-03-03T14:33:04Z</time>
      </trkpt>
      <trkpt lat="44.47436" lon="5.2246">
        <ele>768.23</ele>
        <time>2011-03-03T14:33:12Z</time>
      </trkpt>
      <trkpt lat="44.47439" lon="5.22474">
        <ele>767.27</ele>
        <time>2011-03-03T14:33:18Z</time>
      </trkpt>
      <trkpt lat="44.47441" lon="5.22483">
        <ele>764.87</ele>
        <time>2011-03-03T14:33:27Z</time>
      </trkpt>
      <trkpt lat="44.47444" lon="5.2249">
        <ele>763.42</ele>
        <time>2011-03-03T14:33:34Z</time>
      </trkpt>
      <trkpt lat="44.47449" lon="5.22499">
        <ele>761.98</ele>
        <time>2011-03-03T14:33:39Z</time>
      </trkpt>
      <trkpt lat="44.47452" lon="5.22498">
        <ele>761.5</ele>
        <time>2011-03-03T14:33:42Z</time>
      </trkpt>
      <trkpt lat="44.47455" lon="5.22513">
        <ele>759.58</ele>
        <time>2011-03-03T14:33:50Z</time>
      </trkpt>
      <trkpt lat="44.47456" lon="5.22515">
        <ele>760.06</ele>
        <time>2011-03-03T14:33:51Z</time>
      </trkpt>
      <trkpt lat="44.47462" lon="5.22524">
        <ele>758.14</ele>
        <time>2011-03-03T14:34:00Z</time>
      </trkpt>
      <trkpt lat="44.47464" lon="5.22528">
        <ele>757.66</ele>
        <time>2011-03-03T14:34:04Z</time>
      </trkpt>
      <trkpt lat="44.47469" lon="5.22538">
        <ele>755.73</ele>
        <time>2011-03-03T14:34:12Z</time>
      </trkpt>
      <trkpt lat="44.47468" lon="5.22541">
        <ele>754.77</ele>
        <time>2011-03-03T14:34:16Z</time>
      </trkpt>
      <trkpt lat="44.4747" lon="5.22545">
        <ele>754.29</ele>
        <time>2011-03-03T14:34:19Z</time>
      </trkpt>
      <trkpt lat="44.47475" lon="5.22553">
        <ele>752.85</ele>
        <time>2011-03-03T14:34:23Z</time>
      </trkpt>
      <trkpt lat="44.4748" lon="5.22553">
        <ele>751.41</ele>
        <time>2011-03-03T14:34:30Z</time>
      </trkpt>
      <trkpt lat="44.47486" lon="5.22556">
        <ele>750.93</ele>
        <time>2011-03-03T14:34:35Z</time>
      </trkpt>
      <trkpt lat="44.47485" lon="5.22565">
        <ele>750.45</ele>
        <time>2011-03-03T14:34:39Z</time>
      </trkpt>
      <trkpt lat="44.47492" lon="5.22574">
        <ele>748.52</ele>
        <time>2011-03-03T14:34:48Z</time>
      </trkpt>
      <trkpt lat="44.47503" lon="5.22574">
        <ele>747.56</ele>
        <time>2011-03-03T14:34:56Z</time>
      </trkpt>
      <trkpt lat="44.47504" lon="5.22574">
        <ele>747.08</ele>
        <time>2011-03-03T14:34:58Z</time>
      </trkpt>
      <trkpt lat="44.47516" lon="5.22572">
        <ele>745.64</ele>
        <time>2011-03-03T14:35:08Z</time>
      </trkpt>
      <trkpt lat="44.47526" lon="5.22572">
        <ele>744.2</ele>
        <time>2011-03-03T14:35:16Z</time>
      </trkpt>
      <trkpt lat="44.47528" lon="5.22567">
        <ele>743.24</ele>
        <time>2011-03-03T14:35:24Z</time>
      </trkpt>
      <trkpt lat="44.47536" lon="5.22569">
        <ele>741.79</ele>
        <time>2011-03-03T14:35:32Z</time>
      </trkpt>
      <trkpt lat="44.47546" lon="5.22567">
        <ele>740.83</ele>
        <time>2011-03-03T14:35:39Z</time>
      </trkpt>
      <trkpt lat="44.47554" lon="5.22566">
        <ele>738.91</ele>
        <time>2011-03-03T14:35:49Z</time>
      </trkpt>
      <trkpt lat="44.4756" lon="5.22564">
        <ele>737.47</ele>
        <time>2011-03-03T14:35:57Z</time>
      </trkpt>
      <trkpt lat="44.47566" lon="5.22567">
        <ele>735.55</ele>
        <time>2011-03-03T14:36:05Z</time>
      </trkpt>
      <trkpt lat="44.47569" lon="5.22576">
        <ele>734.1</ele>
        <time>2011-03-03T14:36:13Z</time>
      </trkpt>
      <trkpt lat="44.47571" lon="5.22584">
        <ele>733.62</ele>
        <time>2011-03-03T14:36:17Z</time>
      </trkpt>
      <trkpt lat="44.47571" lon="5.22594">
        <ele>732.18</ele>
        <time>2011-03-03T14:36:25Z</time>
      </trkpt>
      <trkpt lat="44.4758" lon="5.22597">
        <ele>730.74</ele>
        <time>2011-03-03T14:36:33Z</time>
      </trkpt>
      <trkpt lat="44.47587" lon="5.22599">
        <ele>730.26</ele>
        <time>2011-03-03T14:36:39Z</time>
      </trkpt>
      <trkpt lat="44.47589" lon="5.22599">
        <ele>729.78</ele>
        <time>2011-03-03T14:36:40Z</time>
      </trkpt>
      <trkpt lat="44.47599" lon="5.22591">
        <ele>728.82</ele>
        <time>2011-03-03T14:36:50Z</time>
      </trkpt>
      <trkpt lat="44.47611" lon="5.22578">
        <ele>727.86</ele>
        <time>2011-03-03T14:36:58Z</time>
      </trkpt>
      <trkpt lat="44.47613" lon="5.22577">
        <ele>727.37</ele>
        <time>2011-03-03T14:36:59Z</time>
      </trkpt>
      <trkpt lat="44.47617" lon="5.22572">
        <ele>725.93</ele>
        <time>2011-03-03T14:37:08Z</time>
      </trkpt>
      <trkpt lat="44.47625" lon="5.22561">
        <ele>724.01</ele>
        <time>2011-03-03T14:37:18Z</time>
      </trkpt>
      <trkpt lat="44.47629" lon="5.22556">
        <ele>723.53</ele>
        <time>2011-03-03T14:37:26Z</time>
      </trkpt>
      <trkpt lat="44.4763" lon="5.22553">
        <ele>723.05</ele>
        <time>2011-03-03T14:37:27Z</time>
      </trkpt>
      <trkpt lat="44.47638" lon="5.22545">
        <ele>721.61</ele>
        <time>2011-03-03T14:37:37Z</time>
      </trkpt>
      <trkpt lat="44.47643" lon="5.22542">
        <ele>720.65</ele>
        <time>2011-03-03T14:37:41Z</time>
      </trkpt>
      <trkpt lat="44.47654" lon="5.22535">
        <ele>719.68</ele>
        <time>2011-03-03T14:37:50Z</time>
      </trkpt>
      <trkpt lat="44.47655" lon="5.22533">
        <ele>718.72</ele>
        <time>2011-03-03T14:37:52Z</time>
      </trkpt>
      <trkpt lat="44.47662" lon="5.22524">
        <ele>717.76</ele>
        <time>2011-03-03T14:38:01Z</time>
      </trkpt>
      <trkpt lat="44.47671" lon="5.22516">
        <ele>716.32</ele>
        <time>2011-03-03T14:38:09Z</time>
      </trkpt>
      <trkpt lat="44.47677" lon="5.22508">
        <ele>713.92</ele>
        <time>2011-03-03T14:38:19Z</time>
      </trkpt>
      <trkpt lat="44.47689" lon="5.22497">
        <ele>712.47</ele>
        <time>2011-03-03T14:38:30Z</time>
      </trkpt>
      <trkpt lat="44.47696" lon="5.2249">
        <ele>710.07</ele>
        <time>2011-03-03T14:38:40Z</time>
      </trkpt>
      <trkpt lat="44.47702" lon="5.22484">
        <ele>709.59</ele>
        <time>2011-03-03T14:38:47Z</time>
      </trkpt>
      <trkpt lat="44.47705" lon="5.2247">
        <ele>709.11</ele>
        <time>2011-03-03T14:38:54Z</time>
      </trkpt>
      <trkpt lat="44.47707" lon="5.22457">
        <ele>708.15</ele>
        <time>2011-03-03T14:39:03Z</time>
      </trkpt>
      <trkpt lat="44.47704" lon="5.22449">
        <ele>707.19</ele>
        <time>2011-03-03T14:39:10Z</time>
      </trkpt>
      <trkpt lat="44.47704" lon="5.22438">
        <ele>706.23</ele>
        <time>2011-03-03T14:39:18Z</time>
      </trkpt>
      <trkpt lat="44.47713" lon="5.22422">
        <ele>704.78</ele>
        <time>2011-03-03T14:39:28Z</time>
      </trkpt>
      <trkpt lat="44.47714" lon="5.22406">
        <ele>703.82</ele>
        <time>2011-03-03T14:39:35Z</time>
      </trkpt>
      <trkpt lat="44.4772" lon="5.22399">
        <ele>702.38</ele>
        <time>2011-03-03T14:39:43Z</time>
      </trkpt>
      <trkpt lat="44.47723" lon="5.22388">
        <ele>701.9</ele>
        <time>2011-03-03T14:39:53Z</time>
      </trkpt>
      <trkpt lat="44.47726" lon="5.22377">
        <ele>700.94</ele>
        <time>2011-03-03T14:40:02Z</time>
      </trkpt>
      <trkpt lat="44.47725" lon="5.2237">
        <ele>700.46</ele>
        <time>2011-03-03T14:40:05Z</time>
      </trkpt>
      <trkpt lat="44.47722" lon="5.22356">
        <ele>699.02</ele>
        <time>2011-03-03T14:40:15Z</time>
      </trkpt>
      <trkpt lat="44.47719" lon="5.22348">
        <ele>698.05</ele>
        <time>2011-03-03T14:40:24Z</time>
      </trkpt>
      <trkpt lat="44.47722" lon="5.2234">
        <ele>698.05</ele>
        <time>2011-03-03T14:40:26Z</time>
      </trkpt>
      <trkpt lat="44.47723" lon="5.2233">
        <ele>697.09</ele>
        <time>2011-03-03T14:40:35Z</time>
      </trkpt>
      <trkpt lat="44.47725" lon="5.22321">
        <ele>696.13</ele>
        <time>2011-03-03T14:40:40Z</time>
      </trkpt>
      <trkpt lat="44.47729" lon="5.22308">
        <ele>694.69</ele>
        <time>2011-03-03T14:40:50Z</time>
      </trkpt>
      <trkpt lat="44.47738" lon="5.223">
        <ele>694.21</ele>
        <time>2011-03-03T14:40:58Z</time>
      </trkpt>
      <trkpt lat="44.47742" lon="5.2229">
        <ele>693.25</ele>
        <time>2011-03-03T14:41:06Z</time>
      </trkpt>
      <trkpt lat="44.47739" lon="5.22277">
        <ele>692.29</ele>
        <time>2011-03-03T14:41:14Z</time>
      </trkpt>
      <trkpt lat="44.47741" lon="5.22264">
        <ele>691.33</ele>
        <time>2011-03-03T14:41:23Z</time>
      </trkpt>
      <trkpt lat="44.47742" lon="5.22263">
        <ele>691.33</ele>
        <time>2011-03-03T14:41:24Z</time>
      </trkpt>
      <trkpt lat="44.47744" lon="5.2225">
        <ele>690.36</ele>
        <time>2011-03-03T14:41:33Z</time>
      </trkpt>
      <trkpt lat="44.47747" lon="5.22242">
        <ele>689.4</ele>
        <time>2011-03-03T14:41:40Z</time>
      </trkpt>
      <trkpt lat="44.47746" lon="5.22229">
        <ele>688.44</ele>
        <time>2011-03-03T14:41:50Z</time>
      </trkpt>
      <trkpt lat="44.4775" lon="5.22217">
        <ele>687.48</ele>
        <time>2011-03-03T14:42:01Z</time>
      </trkpt>
      <trkpt lat="44.47751" lon="5.22199">
        <ele>686.52</ele>
        <time>2011-03-03T14:42:12Z</time>
      </trkpt>
      <trkpt lat="44.47752" lon="5.22188">
        <ele>685.56</ele>
        <time>2011-03-03T14:42:21Z</time>
      </trkpt>
      <trkpt lat="44.47753" lon="5.22175">
        <ele>684.6</ele>
        <time>2011-03-03T14:42:30Z</time>
      </trkpt>
      <trkpt lat="44.47749" lon="5.22162">
        <ele>683.63</ele>
        <time>2011-03-03T14:42:40Z</time>
      </trkpt>
      <trkpt lat="44.47745" lon="5.22152">
        <ele>682.67</ele>
        <time>2011-03-03T14:42:47Z</time>
      </trkpt>
      <trkpt lat="44.47748" lon="5.22133">
        <ele>681.71</ele>
        <time>2011-03-03T14:42:57Z</time>
      </trkpt>
      <trkpt lat="44.47745" lon="5.22123">
        <ele>680.75</ele>
        <time>2011-03-03T14:43:06Z</time>
      </trkpt>
      <trkpt lat="44.47745" lon="5.22107">
        <ele>679.79</ele>
        <time>2011-03-03T14:43:17Z</time>
      </trkpt>
      <trkpt lat="44.47746" lon="5.22105">
        <ele>679.31</ele>
        <time>2011-03-03T14:43:18Z</time>
      </trkpt>
      <trkpt lat="44.47751" lon="5.22084">
        <ele>678.35</ele>
        <time>2011-03-03T14:43:29Z</time>
      </trkpt>
      <trkpt lat="44.47752" lon="5.22074">
        <ele>677.39</ele>
        <time>2011-03-03T14:43:39Z</time>
      </trkpt>
      <trkpt lat="44.47756" lon="5.22058">
        <ele>676.42</ele>
        <time>2011-03-03T14:43:50Z</time>
      </trkpt>
      <trkpt lat="44.47761" lon="5.22043">
        <ele>675.46</ele>
        <time>2011-03-03T14:44:00Z</time>
      </trkpt>
      <trkpt lat="44.47764" lon="5.22028">
        <ele>674.98</ele>
        <time>2011-03-03T14:44:10Z</time>
      </trkpt>
      <trkpt lat="44.47766" lon="5.22016">
        <ele>674.98</ele>
        <time>2011-03-03T14:44:18Z</time>
      </trkpt>
      <trkpt lat="44.47771" lon="5.22003">
        <ele>674.98</ele>
        <time>2011-03-03T14:44:26Z</time>
      </trkpt>
      <trkpt lat="44.47771" lon="5.22003">
        <ele>674.98</ele>
        <time>2011-03-03T14:44:28Z</time>
      </trkpt>
      <trkpt lat="44.47767" lon="5.21998">
        <ele>674.98</ele>
        <time>2011-03-03T14:44:32Z</time>
      </trkpt>
      <trkpt lat="44.47761" lon="5.2199">
        <ele>674.02</ele>
        <time>2011-03-03T14:44:40Z</time>
      </trkpt>
      <trkpt lat="44.47752" lon="5.21974">
        <ele>673.06</ele>
        <time>2011-03-03T14:44:51Z</time>
      </trkpt>
      <trkpt lat="44.47748" lon="5.21966">
        <ele>673.06</ele>
        <time>2011-03-03T14:44:57Z</time>
      </trkpt>
      <trkpt lat="44.47743" lon="5.21951">
        <ele>673.06</ele>
        <time>2011-03-03T14:45:06Z</time>
      </trkpt>
      <trkpt lat="44.47743" lon="5.21953">
        <ele>673.06</ele>
        <time>2011-03-03T14:45:08Z</time>
      </trkpt>
      <trkpt lat="44.47738" lon="5.21936">
        <ele>673.54</ele>
        <time>2011-03-03T14:45:17Z</time>
      </trkpt>
      <trkpt lat="44.47735" lon="5.21926">
        <ele>674.02</ele>
        <time>2011-03-03T14:45:26Z</time>
      </trkpt>
      <trkpt lat="44.47732" lon="5.21926">
        <ele>674.02</ele>
        <time>2011-03-03T14:45:33Z</time>
      </trkpt>
      <trkpt lat="44.47732" lon="5.21921">
        <ele>674.5</ele>
        <time>2011-03-03T14:45:42Z</time>
      </trkpt>
      <trkpt lat="44.47726" lon="5.21918">
        <ele>675.46</ele>
        <time>2011-03-03T14:45:52Z</time>
      </trkpt>
      <trkpt lat="44.47727" lon="5.21907">
        <ele>675.46</ele>
        <time>2011-03-03T14:45:56Z</time>
      </trkpt>
      <trkpt lat="44.47724" lon="5.21907">
        <ele>675.94</ele>
        <time>2011-03-03T14:46:01Z</time>
      </trkpt>
      <trkpt lat="44.47724" lon="5.21905">
        <ele>676.42</ele>
        <time>2011-03-03T14:46:03Z</time>
      </trkpt>
      <trkpt lat="44.47722" lon="5.21904">
        <ele>675.94</ele>
        <time>2011-03-03T14:46:05Z</time>
      </trkpt>
      <trkpt lat="44.47723" lon="5.21898">
        <ele>676.42</ele>
        <time>2011-03-03T14:46:07Z</time>
      </trkpt>
      <trkpt lat="44.47716" lon="5.21887">
        <ele>677.87</ele>
        <time>2011-03-03T14:46:17Z</time>
      </trkpt>
      <trkpt lat="44.47715" lon="5.21884">
        <ele>678.35</ele>
        <time>2011-03-03T14:46:19Z</time>
      </trkpt>
      <trkpt lat="44.47718" lon="5.21881">
        <ele>678.83</ele>
        <time>2011-03-03T14:46:21Z</time>
      </trkpt>
      <trkpt lat="44.47711" lon="5.21873">
        <ele>679.31</ele>
        <time>2011-03-03T14:46:29Z</time>
      </trkpt>
      <trkpt lat="44.47709" lon="5.21871">
        <ele>679.79</ele>
        <time>2011-03-03T14:46:36Z</time>
      </trkpt>
      <trkpt lat="44.47708" lon="5.21861">
        <ele>674.98</ele>
        <time>2011-03-03T14:46:44Z</time>
      </trkpt>
      <trkpt lat="44.47707" lon="5.21864">
        <ele>677.39</ele>
        <time>2011-03-03T14:46:45Z</time>
      </trkpt>
      <trkpt lat="44.47705" lon="5.21859">
        <ele>681.23</ele>
        <time>2011-03-03T14:46:47Z</time>
      </trkpt>
      <trkpt lat="44.47706" lon="5.21856">
        <ele>676.91</ele>
        <time>2011-03-03T14:46:58Z</time>
      </trkpt>
      <trkpt lat="44.47706" lon="5.21856">
        <ele>680.75</ele>
        <time>2011-03-03T14:47:05Z</time>
      </trkpt>
      <trkpt lat="44.47706" lon="5.21856">
        <ele>677.87</ele>
        <time>2011-03-03T14:47:08Z</time>
      </trkpt>
      <trkpt lat="44.47706" lon="5.21856">
        <ele>679.31</ele>
        <time>2011-03-03T14:47:11Z</time>
      </trkpt>
    </trkseg>
  </trk>
</gpx>